<?xml version='1.0' encoding='UTF-8'?><gpx version="1.1" creator="JPX - https://github.com/jenetics/jpx" xmlns="http://www.topografix.com/GPX/1/1"><trk><trkseg><trkpt lat="45.43581108402152" lon="8.626437889653987"><ele>155.0</ele><time>2026-05-02T13:16:46.999Z</time></trkpt><trkpt lat="45.43582357471335" lon="8.626349483308339"><ele>155.0</ele><time>2026-05-02T13:16:47.999Z</time></trkpt><trkpt lat="45.43583963268023" lon="8.626218034750382"><ele>155.0</ele><time>2026-05-02T13:16:49.999Z</time></trkpt><trkpt lat="45.4358550378019" lon="8.626097357096649"><ele>155.0</ele><time>2026-05-02T13:16:51.999Z</time></trkpt><trkpt lat="45.43592002540757" lon="8.626105040115918"><ele>155.0</ele><time>2026-05-02T13:16:54.999Z</time></trkpt><trkpt lat="45.43600375984613" lon="8.626143956258844"><ele>155.0</ele><time>2026-05-02T13:16:56.999Z</time></trkpt><trkpt lat="45.436105965305515" lon="8.62617356927143"><ele>155.0</ele><time>2026-05-02T13:16:58.999Z</time></trkpt><trkpt lat="45.43622358248051" lon="8.626208788422836"><ele>155.0</ele><time>2026-05-02T13:17:00.999Z</time></trkpt><trkpt lat="45.436291517387794" lon="8.626231369916935"><ele>155.0</ele><time>2026-05-02T13:17:01.999Z</time></trkpt><trkpt lat="45.43635341180778" lon="8.626250996277712"><ele>155.0</ele><time>2026-05-02T13:17:02.999Z</time></trkpt><trkpt lat="45.43643845541478" lon="8.626301280636484"><ele>155.0</ele><time>2026-05-02T13:17:04.999Z</time></trkpt><trkpt lat="45.43645875990104" lon="8.62642359189482"><ele>155.0</ele><time>2026-05-02T13:17:06.999Z</time></trkpt><trkpt lat="45.436474237243836" lon="8.626576817424569"><ele>155.5</ele><time>2026-05-02T13:17:08.999Z</time></trkpt><trkpt lat="45.436479063462755" lon="8.626677543800904"><ele>156.0</ele><time>2026-05-02T13:17:09.999Z</time></trkpt><trkpt lat="45.43647748315687" lon="8.626794253819298"><ele>156.5</ele><time>2026-05-02T13:17:10.999Z</time></trkpt><trkpt lat="45.436476372716676" lon="8.626936414392155"><ele>157.0</ele><time>2026-05-02T13:17:11.999Z</time></trkpt><trkpt lat="45.43649529253513" lon="8.62705984917359"><ele>157.5</ele><time>2026-05-02T13:17:12.999Z</time></trkpt><trkpt lat="45.43648491118905" lon="8.62716733702702"><ele>158.0</ele><time>2026-05-02T13:17:13.999Z</time></trkpt><trkpt lat="45.43649110159138" lon="8.627272577211333"><ele>158.0</ele><time>2026-05-02T13:17:14.999Z</time></trkpt><trkpt lat="45.436492677193215" lon="8.627372378197716"><ele>158.0</ele><time>2026-05-02T13:17:15.999Z</time></trkpt><trkpt lat="45.4364936832877" lon="8.62752834589803"><ele>158.0</ele><time>2026-05-02T13:17:17.999Z</time></trkpt><trkpt lat="45.43648727828101" lon="8.627636540048242"><ele>158.0</ele><time>2026-05-02T13:17:19.999Z</time></trkpt><trkpt lat="45.43636558860501" lon="8.627654930346871"><ele>158.0</ele><time>2026-05-02T13:17:24.999Z</time></trkpt><trkpt lat="45.4362785777301" lon="8.627636759095301"><ele>157.0</ele><time>2026-05-02T13:17:25.999Z</time></trkpt><trkpt lat="45.43616864755847" lon="8.627613801367884"><ele>156.0</ele><time>2026-05-02T13:17:26.999Z</time></trkpt><trkpt lat="45.43607172259675" lon="8.62759357123992"><ele>155.0</ele><time>2026-05-02T13:17:27.999Z</time></trkpt><trkpt lat="45.43595656552172" lon="8.627568355148739"><ele>154.0</ele><time>2026-05-02T13:17:28.999Z</time></trkpt><trkpt lat="45.435829793299106" lon="8.627540595657274"><ele>154.0</ele><time>2026-05-02T13:17:29.999Z</time></trkpt><trkpt lat="45.43571978158568" lon="8.627516506311418"><ele>154.0</ele><time>2026-05-02T13:17:30.999Z</time></trkpt><trkpt lat="45.435613681610526" lon="8.627490943619962"><ele>154.0</ele><time>2026-05-02T13:17:31.999Z</time></trkpt><trkpt lat="45.43551401756269" lon="8.627467365710999"><ele>154.0</ele><time>2026-05-02T13:17:32.999Z</time></trkpt><trkpt lat="45.435413291887166" lon="8.627443536642906"><ele>154.0</ele><time>2026-05-02T13:17:33.999Z</time></trkpt><trkpt lat="45.43531683202798" lon="8.62742071675656"><ele>153.66666666666669</ele><time>2026-05-02T13:17:34.999Z</time></trkpt><trkpt lat="45.43522982992548" lon="8.627400215491706"><ele>153.33333333333334</ele><time>2026-05-02T13:17:35.999Z</time></trkpt><trkpt lat="45.43516449733948" lon="8.627385639043666"><ele>153.0</ele><time>2026-05-02T13:17:36.999Z</time></trkpt><trkpt lat="45.435080411483206" lon="8.62736687853525"><ele>152.66666666666666</ele><time>2026-05-02T13:17:38.999Z</time></trkpt><trkpt lat="45.43497280942973" lon="8.627342871281572"><ele>152.33333333333331</ele><time>2026-05-02T13:18:09.999Z</time></trkpt><trkpt lat="45.434908864993865" lon="8.627328969241162"><ele>152.0</ele><time>2026-05-02T13:18:10.999Z</time></trkpt><trkpt lat="45.43476679092048" lon="8.627300875651738"><ele>152.0</ele><time>2026-05-02T13:18:12.999Z</time></trkpt><trkpt lat="45.434669266203464" lon="8.627280261107856"><ele>152.0</ele><time>2026-05-02T13:18:13.999Z</time></trkpt><trkpt lat="45.434560217697864" lon="8.627257820930742"><ele>152.0</ele><time>2026-05-02T13:18:14.999Z</time></trkpt><trkpt lat="45.434440034016276" lon="8.627233089348913"><ele>152.0</ele><time>2026-05-02T13:18:15.999Z</time></trkpt><trkpt lat="45.43432321962825" lon="8.62720905110784"><ele>152.0</ele><time>2026-05-02T13:18:16.999Z</time></trkpt><trkpt lat="45.43420746203516" lon="8.627185230325807"><ele>151.79999999999998</ele><time>2026-05-02T13:18:17.999Z</time></trkpt><trkpt lat="45.434099381045144" lon="8.627163218586622"><ele>151.6</ele><time>2026-05-02T13:18:18.999Z</time></trkpt><trkpt lat="45.43399594142675" lon="8.62714230219352"><ele>151.39999999999998</ele><time>2026-05-02T13:18:19.999Z</time></trkpt><trkpt lat="45.433905530598196" lon="8.6271240203365"><ele>151.2</ele><time>2026-05-02T13:18:20.999Z</time></trkpt><trkpt lat="45.43382655385528" lon="8.627126661702198"><ele>151.0</ele><time>2026-05-02T13:18:21.999Z</time></trkpt><trkpt lat="45.43374740722876" lon="8.627109990547753"><ele>151.0</ele><time>2026-05-02T13:18:22.999Z</time></trkpt><trkpt lat="45.43367264627535" lon="8.627093150063873"><ele>151.0</ele><time>2026-05-02T13:18:23.999Z</time></trkpt><trkpt lat="45.43360457476348" lon="8.627081728083011"><ele>151.0</ele><time>2026-05-02T13:18:24.999Z</time></trkpt><trkpt lat="45.433508513959" lon="8.62704374015559"><ele>151.0</ele><time>2026-05-02T13:18:26.999Z</time></trkpt><trkpt lat="45.43345218559725" lon="8.627255804712393"><ele>151.0</ele><time>2026-05-02T13:18:28.999Z</time></trkpt><trkpt lat="45.433449008758394" lon="8.62738294914758"><ele>151.0</ele><time>2026-05-02T13:18:29.999Z</time></trkpt><trkpt lat="45.43343417223725" lon="8.627530581518016"><ele>151.0</ele><time>2026-05-02T13:18:30.999Z</time></trkpt><trkpt lat="45.43342124653516" lon="8.627698353441808"><ele>151.0</ele><time>2026-05-02T13:18:31.999Z</time></trkpt><trkpt lat="45.43340472370914" lon="8.627870713675353"><ele>151.0</ele><time>2026-05-02T13:18:32.999Z</time></trkpt><trkpt lat="45.43338398662295" lon="8.628051487992945"><ele>150.5</ele><time>2026-05-02T13:18:33.999Z</time></trkpt><trkpt lat="45.43336475754724" lon="8.62825017863091"><ele>150.0</ele><time>2026-05-02T13:18:34.999Z</time></trkpt><trkpt lat="45.4333493118263" lon="8.628450787569305"><ele>149.5</ele><time>2026-05-02T13:18:35.999Z</time></trkpt><trkpt lat="45.43332811799638" lon="8.628639485705655"><ele>149.0</ele><time>2026-05-02T13:18:36.999Z</time></trkpt><trkpt lat="45.43330888402335" lon="8.628842064657114"><ele>149.0</ele><time>2026-05-02T13:18:37.999Z</time></trkpt><trkpt lat="45.433287695486605" lon="8.62902854508372"><ele>149.0</ele><time>2026-05-02T13:18:38.999Z</time></trkpt><trkpt lat="45.433266960647366" lon="8.629199028182464"><ele>149.0</ele><time>2026-05-02T13:18:39.999Z</time></trkpt><trkpt lat="45.43325221167011" lon="8.629348693481578"><ele>149.0</ele><time>2026-05-02T13:18:40.999Z</time></trkpt><trkpt lat="45.433240749387146" lon="8.629475399488486"><ele>149.5</ele><time>2026-05-02T13:18:41.999Z</time></trkpt><trkpt lat="45.433232969078354" lon="8.629572091368118"><ele>150.0</ele><time>2026-05-02T13:18:42.999Z</time></trkpt><trkpt lat="45.433225583283026" lon="8.629662195604483"><ele>150.5</ele><time>2026-05-02T13:18:43.999Z</time></trkpt><trkpt lat="45.433212869711426" lon="8.629766109830548"><ele>151.0</ele><time>2026-05-02T13:18:44.999Z</time></trkpt><trkpt lat="45.43319942135297" lon="8.629895404423515"><ele>151.5</ele><time>2026-05-02T13:18:45.999Z</time></trkpt><trkpt lat="45.43318217142991" lon="8.630052438683567"><ele>152.0</ele><time>2026-05-02T13:18:46.999Z</time></trkpt><trkpt lat="45.43316790616431" lon="8.630216429856285"><ele>151.5</ele><time>2026-05-02T13:18:47.999Z</time></trkpt><trkpt lat="45.43315096676982" lon="8.63039451513237"><ele>151.0</ele><time>2026-05-02T13:18:48.999Z</time></trkpt><trkpt lat="45.433130422631926" lon="8.630575749359503"><ele>150.5</ele><time>2026-05-02T13:18:49.999Z</time></trkpt><trkpt lat="45.433109417074" lon="8.630739751269967"><ele>150.0</ele><time>2026-05-02T13:18:50.999Z</time></trkpt><trkpt lat="45.43308913547959" lon="8.630890367895297"><ele>150.0</ele><time>2026-05-02T13:18:51.999Z</time></trkpt><trkpt lat="45.43307451063233" lon="8.631037361613718"><ele>150.0</ele><time>2026-05-02T13:18:52.999Z</time></trkpt><trkpt lat="45.433068996730874" lon="8.631177275085966"><ele>150.0</ele><time>2026-05-02T13:18:53.999Z</time></trkpt><trkpt lat="45.43305831921032" lon="8.631337561491174"><ele>150.0</ele><time>2026-05-02T13:18:54.999Z</time></trkpt><trkpt lat="45.43306443448646" lon="8.631509222204128"><ele>150.0</ele><time>2026-05-02T13:18:55.999Z</time></trkpt><trkpt lat="45.43306983380579" lon="8.631660785397111"><ele>149.83333333333334</ele><time>2026-05-02T13:18:56.999Z</time></trkpt><trkpt lat="45.433088180960986" lon="8.631777062449196"><ele>149.66666666666666</ele><time>2026-05-02T13:18:57.999Z</time></trkpt><trkpt lat="45.433086872493284" lon="8.63187489442559"><ele>149.5</ele><time>2026-05-02T13:18:58.999Z</time></trkpt><trkpt lat="45.433083487661214" lon="8.632016989401784"><ele>149.33333333333331</ele><time>2026-05-02T13:19:00.999Z</time></trkpt><trkpt lat="45.43314970280057" lon="8.632125212475295"><ele>149.16666666666666</ele><time>2026-05-02T13:19:03.999Z</time></trkpt><trkpt lat="45.4332149067417" lon="8.632136924967535"><ele>149.0</ele><time>2026-05-02T13:19:04.999Z</time></trkpt><trkpt lat="45.43329520186435" lon="8.632138556597988"><ele>149.33333333333331</ele><time>2026-05-02T13:19:05.999Z</time></trkpt><trkpt lat="45.433381376508805" lon="8.63213644440447"><ele>149.66666666666666</ele><time>2026-05-02T13:19:06.999Z</time></trkpt><trkpt lat="45.43345774943891" lon="8.632133846180796"><ele>150.0</ele><time>2026-05-02T13:19:07.999Z</time></trkpt><trkpt lat="45.43352732060906" lon="8.632130602668955"><ele>150.33333333333334</ele><time>2026-05-02T13:19:08.999Z</time></trkpt><trkpt lat="45.4335936267197" lon="8.632131163846994"><ele>150.66666666666669</ele><time>2026-05-02T13:19:09.999Z</time></trkpt><trkpt lat="45.43368211404817" lon="8.632143412206263"><ele>151.0</ele><time>2026-05-02T13:19:11.999Z</time></trkpt><trkpt lat="45.433751844897365" lon="8.632162535201408"><ele>151.0</ele><time>2026-05-02T13:19:22.999Z</time></trkpt><trkpt lat="45.433652051661014" lon="8.632149952409499"><ele>151.0</ele><time>2026-05-02T13:25:39.999Z</time></trkpt><trkpt lat="45.43358113687861" lon="8.63213985182092"><ele>151.0</ele><time>2026-05-02T13:25:41.999Z</time></trkpt><trkpt lat="45.433515357469844" lon="8.632128488573143"><ele>151.0</ele><time>2026-05-02T13:25:42.999Z</time></trkpt><trkpt lat="45.43343656254407" lon="8.63212969100028"><ele>151.0</ele><time>2026-05-02T13:25:43.999Z</time></trkpt><trkpt lat="45.4333505416763" lon="8.632134890807095"><ele>151.0</ele><time>2026-05-02T13:25:44.999Z</time></trkpt><trkpt lat="45.433271193485574" lon="8.632137991316233"><ele>151.0</ele><time>2026-05-02T13:25:45.999Z</time></trkpt><trkpt lat="45.433193235928044" lon="8.632131282972361"><ele>151.0</ele><time>2026-05-02T13:25:46.999Z</time></trkpt><trkpt lat="45.43310237871389" lon="8.63212362425128"><ele>151.0</ele><time>2026-05-02T13:25:47.999Z</time></trkpt><trkpt lat="45.433006573216424" lon="8.632111599384016"><ele>151.0</ele><time>2026-05-02T13:25:48.999Z</time></trkpt><trkpt lat="45.43292011658899" lon="8.632059156652897"><ele>151.0</ele><time>2026-05-02T13:25:49.999Z</time></trkpt><trkpt lat="45.43284700777046" lon="8.63205725565204"><ele>151.0</ele><time>2026-05-02T13:25:50.999Z</time></trkpt><trkpt lat="45.432740665139505" lon="8.632054490448695"><ele>151.25</ele><time>2026-05-02T13:25:52.999Z</time></trkpt><trkpt lat="45.43271163420329" lon="8.632337829344369"><ele>151.5</ele><time>2026-05-02T13:25:54.999Z</time></trkpt><trkpt lat="45.43272910378963" lon="8.632474601434641"><ele>151.75</ele><time>2026-05-02T13:25:55.999Z</time></trkpt><trkpt lat="45.432730381017585" lon="8.632593443589075"><ele>152.0</ele><time>2026-05-02T13:25:56.999Z</time></trkpt><trkpt lat="45.4327280194769" lon="8.632694872846457"><ele>152.0</ele><time>2026-05-02T13:25:57.999Z</time></trkpt><trkpt lat="45.43273542277726" lon="8.632784198622742"><ele>152.0</ele><time>2026-05-02T13:25:58.999Z</time></trkpt><trkpt lat="45.43272378965756" lon="8.632914002450539"><ele>152.0</ele><time>2026-05-02T13:26:00.999Z</time></trkpt><trkpt lat="45.432890217294215" lon="8.632933454819861"><ele>152.0</ele><time>2026-05-02T13:26:02Z</time></trkpt><trkpt lat="45.4329815842624" lon="8.632927228230027"><ele>152.0</ele><time>2026-05-02T13:26:03Z</time></trkpt><trkpt lat="45.433080969815485" lon="8.632919607516905"><ele>152.5</ele><time>2026-05-02T13:26:04Z</time></trkpt><trkpt lat="45.43319266180464" lon="8.632920626347724"><ele>153.0</ele><time>2026-05-02T13:26:05Z</time></trkpt><trkpt lat="45.433313443285385" lon="8.632920911928345"><ele>153.5</ele><time>2026-05-02T13:26:06Z</time></trkpt><trkpt lat="45.4334210811678" lon="8.632923270266383"><ele>154.0</ele><time>2026-05-02T13:26:07Z</time></trkpt><trkpt lat="45.43353482003923" lon="8.632928316304493"><ele>154.0</ele><time>2026-05-02T13:26:08Z</time></trkpt><trkpt lat="45.433668559061836" lon="8.632929601837366"><ele>154.0</ele><time>2026-05-02T13:26:10Z</time></trkpt><trkpt lat="45.43373680697056" lon="8.632927306995539"><ele>154.0</ele><time>2026-05-02T13:26:11Z</time></trkpt><trkpt lat="45.433806053581336" lon="8.63292627596693"><ele>154.0</ele><time>2026-05-02T13:26:12Z</time></trkpt><trkpt lat="45.433884293213836" lon="8.632934312863648"><ele>154.0</ele><time>2026-05-02T13:26:13Z</time></trkpt><trkpt lat="45.43396267659279" lon="8.632937630234744"><ele>154.0</ele><time>2026-05-02T13:26:14Z</time></trkpt><trkpt lat="45.434035688392825" lon="8.632941656578678"><ele>153.4</ele><time>2026-05-02T13:26:15Z</time></trkpt><trkpt lat="45.43410225480327" lon="8.632943685579164"><ele>152.8</ele><time>2026-05-02T13:26:16Z</time></trkpt><trkpt lat="45.434203311117884" lon="8.63294922200093"><ele>152.2</ele><time>2026-05-02T13:26:18Z</time></trkpt><trkpt lat="45.43427499576306" lon="8.632968653856963"><ele>151.6</ele><time>2026-05-02T13:26:54Z</time></trkpt><trkpt lat="45.43437531105514" lon="8.632944549965456"><ele>151.0</ele><time>2026-05-02T13:26:57Z</time></trkpt><trkpt lat="45.4344584825745" lon="8.632841726968248"><ele>151.2</ele><time>2026-05-02T13:26:59Z</time></trkpt><trkpt lat="45.43452054146301" lon="8.632760125715066"><ele>151.39999999999998</ele><time>2026-05-02T13:27:01Z</time></trkpt><trkpt lat="45.43459368494624" lon="8.632637569019163"><ele>151.6</ele><time>2026-05-02T13:27:03Z</time></trkpt><trkpt lat="45.434664536413955" lon="8.632512953182738"><ele>151.79999999999998</ele><time>2026-05-02T13:27:04.999Z</time></trkpt><trkpt lat="45.434741046659774" lon="8.632399313989108"><ele>152.0</ele><time>2026-05-02T13:27:06.999Z</time></trkpt><trkpt lat="45.434808400667606" lon="8.632294575610638"><ele>152.0</ele><time>2026-05-02T13:27:08.999Z</time></trkpt><trkpt lat="45.43486834739971" lon="8.632195288709704"><ele>152.0</ele><time>2026-05-02T13:27:10.999Z</time></trkpt><trkpt lat="45.43492709944924" lon="8.632111529285396"><ele>152.0</ele><time>2026-05-02T13:27:12.999Z</time></trkpt><trkpt lat="45.43498740769758" lon="8.632017255196722"><ele>152.0</ele><time>2026-05-02T13:27:14.999Z</time></trkpt><trkpt lat="45.43503605066941" lon="8.631950268655975"><ele>152.0</ele><time>2026-05-02T13:27:15.999Z</time></trkpt><trkpt lat="45.43509197406454" lon="8.631864709894959"><ele>152.0</ele><time>2026-05-02T13:27:16.999Z</time></trkpt><trkpt lat="45.43514351556846" lon="8.63178169967151"><ele>151.83333333333331</ele><time>2026-05-02T13:27:17.999Z</time></trkpt><trkpt lat="45.43519094183626" lon="8.631706589052646"><ele>151.66666666666666</ele><time>2026-05-02T13:27:18.999Z</time></trkpt><trkpt lat="45.43523873075639" lon="8.631643299022784"><ele>151.5</ele><time>2026-05-02T13:27:19.999Z</time></trkpt><trkpt lat="45.435292148180736" lon="8.63158558817126"><ele>151.33333333333334</ele><time>2026-05-02T13:27:20.999Z</time></trkpt><trkpt lat="45.43534607303463" lon="8.631528276226891"><ele>151.16666666666669</ele><time>2026-05-02T13:27:21.999Z</time></trkpt><trkpt lat="45.43543476095351" lon="8.631444057273919"><ele>151.0</ele><time>2026-05-02T13:27:23.999Z</time></trkpt><trkpt lat="45.435525836526566" lon="8.631375848712455"><ele>151.0</ele><time>2026-05-02T13:27:25.999Z</time></trkpt><trkpt lat="45.435597754400675" lon="8.631361027834995"><ele>151.0</ele><time>2026-05-02T13:27:26.999Z</time></trkpt><trkpt lat="45.435669317907774" lon="8.631348506605562"><ele>151.0</ele><time>2026-05-02T13:27:27.999Z</time></trkpt><trkpt lat="45.435746876594145" lon="8.631344299085706"><ele>151.0</ele><time>2026-05-02T13:27:28.999Z</time></trkpt><trkpt lat="45.435826216489566" lon="8.631358369631197"><ele>151.0</ele><time>2026-05-02T13:27:29.999Z</time></trkpt><trkpt lat="45.43591401896806" lon="8.631375059711571"><ele>151.0</ele><time>2026-05-02T13:27:30.999Z</time></trkpt><trkpt lat="45.43599936220281" lon="8.63139031350647"><ele>151.0</ele><time>2026-05-02T13:27:31.999Z</time></trkpt><trkpt lat="45.43612307572532" lon="8.631379248820563"><ele>151.0</ele><time>2026-05-02T13:27:32.999Z</time></trkpt><trkpt lat="45.43627266660915" lon="8.631380589478352"><ele>151.0</ele><time>2026-05-02T13:27:33.999Z</time></trkpt><trkpt lat="45.43643392331411" lon="8.631406092528646"><ele>151.0</ele><time>2026-05-02T13:27:34.999Z</time></trkpt><trkpt lat="45.43659881978296" lon="8.631402834433374"><ele>151.25</ele><time>2026-05-02T13:27:35.999Z</time></trkpt><trkpt lat="45.43674952845914" lon="8.631384964355776"><ele>151.5</ele><time>2026-05-02T13:27:36.999Z</time></trkpt><trkpt lat="45.43687340990521" lon="8.631396428784624"><ele>151.75</ele><time>2026-05-02T13:27:37.999Z</time></trkpt><trkpt lat="45.43699777397123" lon="8.631410280694187"><ele>152.0</ele><time>2026-05-02T13:27:38.999Z</time></trkpt><trkpt lat="45.43711145071809" lon="8.631417176473503"><ele>153.0</ele><time>2026-05-02T13:27:39.999Z</time></trkpt><trkpt lat="45.43721838430581" lon="8.631423061716054"><ele>154.0</ele><time>2026-05-02T13:27:40.999Z</time></trkpt><trkpt lat="45.437329552153095" lon="8.631425600471273"><ele>155.0</ele><time>2026-05-02T13:27:41.999Z</time></trkpt><trkpt lat="45.43743402011259" lon="8.631430136583694"><ele>156.0</ele><time>2026-05-02T13:27:42.999Z</time></trkpt><trkpt lat="45.437532385646264" lon="8.631434158557989"><ele>157.0</ele><time>2026-05-02T13:27:43.999Z</time></trkpt><trkpt lat="45.43762744508214" lon="8.631433833738122"><ele>157.0</ele><time>2026-05-02T13:27:44.999Z</time></trkpt><trkpt lat="45.43772609013678" lon="8.63143729214769"><ele>157.0</ele><time>2026-05-02T13:27:45.999Z</time></trkpt><trkpt lat="45.437823641157266" lon="8.631438558379234"><ele>157.0</ele><time>2026-05-02T13:27:46.999Z</time></trkpt><trkpt lat="45.43791845392156" lon="8.631442803185994"><ele>157.0</ele><time>2026-05-02T13:27:47.999Z</time></trkpt><trkpt lat="45.43800739962476" lon="8.631445085904266"><ele>157.0</ele><time>2026-05-02T13:27:48.999Z</time></trkpt><trkpt lat="45.43809627707252" lon="8.63144120178741"><ele>157.0</ele><time>2026-05-02T13:27:49.999Z</time></trkpt><trkpt lat="45.43817932685008" lon="8.631448764238852"><ele>157.0</ele><time>2026-05-02T13:27:50.999Z</time></trkpt><trkpt lat="45.43826139031201" lon="8.631447700814487"><ele>157.0</ele><time>2026-05-02T13:27:51.999Z</time></trkpt><trkpt lat="45.43833998072566" lon="8.631455268721142"><ele>157.0</ele><time>2026-05-02T13:27:52.999Z</time></trkpt><trkpt lat="45.43841367563091" lon="8.631453115387107"><ele>157.0</ele><time>2026-05-02T13:27:53.999Z</time></trkpt><trkpt lat="45.43849066936004" lon="8.63144382837108"><ele>157.0</ele><time>2026-05-02T13:27:54.999Z</time></trkpt><trkpt lat="45.43858249629523" lon="8.631418558232863"><ele>157.0</ele><time>2026-05-02T13:27:55.999Z</time></trkpt><trkpt lat="45.43868656566361" lon="8.631382572171127"><ele>157.0</ele><time>2026-05-02T13:27:56.999Z</time></trkpt><trkpt lat="45.438792487856695" lon="8.631343118208314"><ele>157.0</ele><time>2026-05-02T13:27:57.999Z</time></trkpt><trkpt lat="45.43889375856233" lon="8.63129673767202"><ele>157.0</ele><time>2026-05-02T13:27:58.999Z</time></trkpt><trkpt lat="45.438987224795845" lon="8.631256211836321"><ele>157.0</ele><time>2026-05-02T13:27:59.999Z</time></trkpt><trkpt lat="45.43906861055709" lon="8.631225839159978"><ele>157.2</ele><time>2026-05-02T13:28:00.999Z</time></trkpt><trkpt lat="45.43915362224998" lon="8.63119722350415"><ele>157.39999999999998</ele><time>2026-05-02T13:28:01.999Z</time></trkpt><trkpt lat="45.43925362985723" lon="8.63115361454876"><ele>157.60000000000002</ele><time>2026-05-02T13:28:02.999Z</time></trkpt><trkpt lat="45.43936150705148" lon="8.631111144010873"><ele>157.8</ele><time>2026-05-02T13:28:03.999Z</time></trkpt><trkpt lat="45.43947922391505" lon="8.63106554108839"><ele>158.0</ele><time>2026-05-02T13:28:04.999Z</time></trkpt><trkpt lat="45.43960933440168" lon="8.631009740034987"><ele>156.5</ele><time>2026-05-02T13:28:05.999Z</time></trkpt><trkpt lat="45.439737586075154" lon="8.630952244276065"><ele>155.0</ele><time>2026-05-02T13:28:06.999Z</time></trkpt><trkpt lat="45.43986839085882" lon="8.630901972710042"><ele>153.5</ele><time>2026-05-02T13:28:07.999Z</time></trkpt><trkpt lat="45.43999641524549" lon="8.630846547268678"><ele>152.0</ele><time>2026-05-02T13:28:08.999Z</time></trkpt><trkpt lat="45.440128632467356" lon="8.630807837416059"><ele>152.0</ele><time>2026-05-02T13:28:09.999Z</time></trkpt><trkpt lat="45.44024961626348" lon="8.630758809336442"><ele>152.0</ele><time>2026-05-02T13:28:10.999Z</time></trkpt><trkpt lat="45.4403770939388" lon="8.630707390851843"><ele>152.0</ele><time>2026-05-02T13:28:11.999Z</time></trkpt><trkpt lat="45.44049625872389" lon="8.630657517418385"><ele>152.0</ele><time>2026-05-02T13:28:12.999Z</time></trkpt><trkpt lat="45.440615826162606" lon="8.63060591668954"><ele>152.0</ele><time>2026-05-02T13:28:13.999Z</time></trkpt><trkpt lat="45.44073341399809" lon="8.63055506774162"><ele>152.0</ele><time>2026-05-02T13:28:14.999Z</time></trkpt><trkpt lat="45.44084630922049" lon="8.630512669867244"><ele>152.0</ele><time>2026-05-02T13:28:15.999Z</time></trkpt><trkpt lat="45.440955418906114" lon="8.630465645526948"><ele>152.0</ele><time>2026-05-02T13:28:16.999Z</time></trkpt><trkpt lat="45.44107683993783" lon="8.630419435103496"><ele>152.0</ele><time>2026-05-02T13:28:17.999Z</time></trkpt><trkpt lat="45.441207335279266" lon="8.630359918492564"><ele>152.0</ele><time>2026-05-02T13:28:18.999Z</time></trkpt><trkpt lat="45.44134623478686" lon="8.63027604460075"><ele>152.0</ele><time>2026-05-02T13:28:19.999Z</time></trkpt><trkpt lat="45.44148500034164" lon="8.630157671961557"><ele>153.25</ele><time>2026-05-02T13:28:20.999Z</time></trkpt><trkpt lat="45.44163854400096" lon="8.630092142186"><ele>154.5</ele><time>2026-05-02T13:28:21.999Z</time></trkpt><trkpt lat="45.44177142482241" lon="8.63002325957426"><ele>155.75</ele><time>2026-05-02T13:28:22.999Z</time></trkpt><trkpt lat="45.44189162931235" lon="8.629977811137598"><ele>157.0</ele><time>2026-05-02T13:28:23.999Z</time></trkpt><trkpt lat="45.44199360554428" lon="8.629941676549727"><ele>157.0</ele><time>2026-05-02T13:28:24.999Z</time></trkpt><trkpt lat="45.4420811210717" lon="8.629905022531808"><ele>157.0</ele><time>2026-05-02T13:28:25.999Z</time></trkpt><trkpt lat="45.442162013943616" lon="8.629869909631616"><ele>157.0</ele><time>2026-05-02T13:28:26.999Z</time></trkpt><trkpt lat="45.44224325580118" lon="8.629834602857768"><ele>157.0</ele><time>2026-05-02T13:28:27.999Z</time></trkpt><trkpt lat="45.44231479706892" lon="8.629804777861604"><ele>157.0</ele><time>2026-05-02T13:28:28.999Z</time></trkpt><trkpt lat="45.44241430539366" lon="8.629772789356183"><ele>157.0</ele><time>2026-05-02T13:28:30.999Z</time></trkpt><trkpt lat="45.44248077981706" lon="8.629782899200356"><ele>156.33333333333334</ele><time>2026-05-02T13:28:32.999Z</time></trkpt><trkpt lat="45.44257838500277" lon="8.629845140114039"><ele>155.66666666666669</ele><time>2026-05-02T13:28:36.999Z</time></trkpt><trkpt lat="45.44258726532525" lon="8.629986918883002"><ele>155.0</ele><time>2026-05-02T13:28:37.999Z</time></trkpt><trkpt lat="45.44260794829947" lon="8.630110793577224"><ele>154.33333333333334</ele><time>2026-05-02T13:28:38.999Z</time></trkpt><trkpt lat="45.44262605584946" lon="8.630215083695255"><ele>153.66666666666666</ele><time>2026-05-02T13:28:39.999Z</time></trkpt><trkpt lat="45.44264421658092" lon="8.630320625312708"><ele>153.0</ele><time>2026-05-02T13:28:40.999Z</time></trkpt><trkpt lat="45.44267047486144" lon="8.630445313742756"><ele>153.0</ele><time>2026-05-02T13:28:41.999Z</time></trkpt><trkpt lat="45.442695719722835" lon="8.630571622206459"><ele>153.0</ele><time>2026-05-02T13:28:42.999Z</time></trkpt><trkpt lat="45.44272260660346" lon="8.63069214904715"><ele>153.0</ele><time>2026-05-02T13:28:43.999Z</time></trkpt><trkpt lat="45.44275173156146" lon="8.630823258292716"><ele>153.0</ele><time>2026-05-02T13:28:44.999Z</time></trkpt><trkpt lat="45.4427784952263" lon="8.630959617925285"><ele>153.0</ele><time>2026-05-02T13:28:45.999Z</time></trkpt><trkpt lat="45.442808340339845" lon="8.631089200757966"><ele>152.8</ele><time>2026-05-02T13:28:46.999Z</time></trkpt><trkpt lat="45.44283781169311" lon="8.631221583101599"><ele>152.60000000000002</ele><time>2026-05-02T13:28:47.999Z</time></trkpt><trkpt lat="45.44286228799478" lon="8.631352045698826"><ele>152.39999999999998</ele><time>2026-05-02T13:28:48.999Z</time></trkpt><trkpt lat="45.442889346753034" lon="8.631490694687088"><ele>152.2</ele><time>2026-05-02T13:28:49.999Z</time></trkpt><trkpt lat="45.442918619230205" lon="8.631640706739256"><ele>152.0</ele><time>2026-05-02T13:28:50.999Z</time></trkpt><trkpt lat="45.44294967927105" lon="8.631801209669188"><ele>151.5</ele><time>2026-05-02T13:28:51.999Z</time></trkpt><trkpt lat="45.442980476719846" lon="8.63196406478861"><ele>151.0</ele><time>2026-05-02T13:28:52.999Z</time></trkpt><trkpt lat="45.44301038142705" lon="8.632131593350358"><ele>150.5</ele><time>2026-05-02T13:28:53.999Z</time></trkpt><trkpt lat="45.44304140290141" lon="8.632303796228104"><ele>150.0</ele><time>2026-05-02T13:28:54.999Z</time></trkpt><trkpt lat="45.44307241797918" lon="8.63246732770717"><ele>149.75</ele><time>2026-05-02T13:28:55.999Z</time></trkpt><trkpt lat="45.44310414880933" lon="8.632628974465703"><ele>149.5</ele><time>2026-05-02T13:28:56.999Z</time></trkpt><trkpt lat="45.44313779083514" lon="8.632805093234563"><ele>149.25</ele><time>2026-05-02T13:28:57.999Z</time></trkpt><trkpt lat="45.44317048211632" lon="8.63298255814432"><ele>149.0</ele><time>2026-05-02T13:28:58.999Z</time></trkpt><trkpt lat="45.44320149075005" lon="8.633151295065337"><ele>148.25</ele><time>2026-05-02T13:28:59.999Z</time></trkpt><trkpt lat="45.44323756734713" lon="8.633330960497348"><ele>147.5</ele><time>2026-05-02T13:29:00.999Z</time></trkpt><trkpt lat="45.44327194610181" lon="8.633504525349712"><ele>146.75</ele><time>2026-05-02T13:29:01.999Z</time></trkpt><trkpt lat="45.44330475847582" lon="8.633668786955282"><ele>146.0</ele><time>2026-05-02T13:29:02.999Z</time></trkpt><trkpt lat="45.443333099411284" lon="8.633825770724055"><ele>145.75</ele><time>2026-05-02T13:29:03.999Z</time></trkpt><trkpt lat="45.44336226681101" lon="8.633984732638089"><ele>145.5</ele><time>2026-05-02T13:29:04.999Z</time></trkpt><trkpt lat="45.44339506135545" lon="8.634156256129337"><ele>145.25</ele><time>2026-05-02T13:29:05.999Z</time></trkpt><trkpt lat="45.44343103245725" lon="8.634331101102372"><ele>145.0</ele><time>2026-05-02T13:29:06.999Z</time></trkpt><trkpt lat="45.44346508404106" lon="8.634512985439361"><ele>144.5</ele><time>2026-05-02T13:29:07.999Z</time></trkpt><trkpt lat="45.44349946660853" lon="8.634694703828693"><ele>144.0</ele><time>2026-05-02T13:29:08.999Z</time></trkpt><trkpt lat="45.44353243242079" lon="8.63486798435112"><ele>143.5</ele><time>2026-05-02T13:29:09.999Z</time></trkpt><trkpt lat="45.44356293661822" lon="8.635034745934083"><ele>143.0</ele><time>2026-05-02T13:29:10.999Z</time></trkpt><trkpt lat="45.44359179840901" lon="8.635212378584454"><ele>143.66666666666666</ele><time>2026-05-02T13:29:11.999Z</time></trkpt><trkpt lat="45.44362393673519" lon="8.63538570757782"><ele>144.33333333333334</ele><time>2026-05-02T13:29:12.999Z</time></trkpt><trkpt lat="45.44369258290972" lon="8.635735615784565"><ele>145.0</ele><time>2026-05-02T13:29:14.999Z</time></trkpt><trkpt lat="45.443725906301154" lon="8.635903604870348"><ele>145.0</ele><time>2026-05-02T13:29:15.999Z</time></trkpt><trkpt lat="45.443758425244134" lon="8.63607136602373"><ele>145.0</ele><time>2026-05-02T13:29:16.999Z</time></trkpt><trkpt lat="45.44379112398728" lon="8.636247329966658"><ele>145.0</ele><time>2026-05-02T13:29:17.999Z</time></trkpt><trkpt lat="45.44382315938148" lon="8.636420952482501"><ele>145.0</ele><time>2026-05-02T13:29:18.999Z</time></trkpt><trkpt lat="45.443857453530654" lon="8.63659704223785"><ele>145.25</ele><time>2026-05-02T13:29:19.999Z</time></trkpt><trkpt lat="45.44388948633554" lon="8.636772398812962"><ele>145.5</ele><time>2026-05-02T13:29:20.999Z</time></trkpt><trkpt lat="45.44392343159157" lon="8.63695778489324"><ele>145.75</ele><time>2026-05-02T13:29:21.999Z</time></trkpt><trkpt lat="45.443957023908304" lon="8.637131215822354"><ele>146.0</ele><time>2026-05-02T13:29:22.999Z</time></trkpt><trkpt lat="45.443989302149824" lon="8.637294852307072"><ele>146.0</ele><time>2026-05-02T13:29:23.999Z</time></trkpt><trkpt lat="45.444020712388905" lon="8.637455035749104"><ele>146.0</ele><time>2026-05-02T13:29:24.999Z</time></trkpt><trkpt lat="45.44405074295816" lon="8.63761698021395"><ele>146.0</ele><time>2026-05-02T13:29:25.999Z</time></trkpt><trkpt lat="45.444084769096875" lon="8.637785228432815"><ele>146.0</ele><time>2026-05-02T13:29:26.999Z</time></trkpt><trkpt lat="45.44411968627921" lon="8.637959721062003"><ele>145.75</ele><time>2026-05-02T13:29:27.999Z</time></trkpt><trkpt lat="45.444157815408616" lon="8.638141368826307"><ele>145.5</ele><time>2026-05-02T13:29:28.999Z</time></trkpt><trkpt lat="45.44419922361188" lon="8.638313709635275"><ele>145.25</ele><time>2026-05-02T13:29:29.999Z</time></trkpt><trkpt lat="45.444238879374176" lon="8.638471067870247"><ele>145.0</ele><time>2026-05-02T13:29:30.999Z</time></trkpt><trkpt lat="45.444273080098945" lon="8.63861800409678"><ele>145.0</ele><time>2026-05-02T13:29:31.999Z</time></trkpt><trkpt lat="45.4443048313877" lon="8.638774794726565"><ele>145.0</ele><time>2026-05-02T13:29:32.999Z</time></trkpt><trkpt lat="45.444341190712954" lon="8.63893700879184"><ele>145.0</ele><time>2026-05-02T13:29:33.999Z</time></trkpt><trkpt lat="45.44437287480627" lon="8.63909022504245"><ele>145.0</ele><time>2026-05-02T13:29:34.999Z</time></trkpt><trkpt lat="45.44440241510316" lon="8.639232347154408"><ele>145.0</ele><time>2026-05-02T13:29:35.999Z</time></trkpt><trkpt lat="45.44443275652218" lon="8.639357143231168"><ele>145.0</ele><time>2026-05-02T13:29:36.999Z</time></trkpt><trkpt lat="45.44445994349472" lon="8.63947668928535"><ele>145.0</ele><time>2026-05-02T13:29:37.999Z</time></trkpt><trkpt lat="45.444485173539945" lon="8.63959747108723"><ele>145.0</ele><time>2026-05-02T13:29:38.999Z</time></trkpt><trkpt lat="45.44450529582779" lon="8.639712084809076"><ele>145.0</ele><time>2026-05-02T13:29:39.999Z</time></trkpt><trkpt lat="45.44452702300733" lon="8.639826339293904"><ele>145.0</ele><time>2026-05-02T13:29:40.999Z</time></trkpt><trkpt lat="45.44455454560194" lon="8.639940830892057"><ele>145.0</ele><time>2026-05-02T13:29:41.999Z</time></trkpt><trkpt lat="45.444578408799586" lon="8.64005326297577"><ele>145.0</ele><time>2026-05-02T13:29:42.999Z</time></trkpt><trkpt lat="45.444601986374174" lon="8.640179515352301"><ele>145.0</ele><time>2026-05-02T13:29:43.999Z</time></trkpt><trkpt lat="45.444622793327525" lon="8.6403156730474"><ele>145.0</ele><time>2026-05-02T13:29:44.999Z</time></trkpt><trkpt lat="45.44463656028973" lon="8.640448350537925"><ele>145.0</ele><time>2026-05-02T13:29:45.999Z</time></trkpt><trkpt lat="45.4446460098479" lon="8.640548421022737"><ele>145.0</ele><time>2026-05-02T13:29:46.999Z</time></trkpt><trkpt lat="45.44465559864386" lon="8.640647477113157"><ele>145.16666666666669</ele><time>2026-05-02T13:29:47.999Z</time></trkpt><trkpt lat="45.44466675931812" lon="8.640742888377416"><ele>145.33333333333334</ele><time>2026-05-02T13:29:48.999Z</time></trkpt><trkpt lat="45.44467873538859" lon="8.640834373942356"><ele>145.5</ele><time>2026-05-02T13:29:49.999Z</time></trkpt><trkpt lat="45.44468795211814" lon="8.640933189962153"><ele>145.66666666666666</ele><time>2026-05-02T13:29:50.999Z</time></trkpt><trkpt lat="45.444698425456046" lon="8.64105613402506"><ele>145.83333333333331</ele><time>2026-05-02T13:29:51.999Z</time></trkpt><trkpt lat="45.44470923532943" lon="8.641181072952856"><ele>146.0</ele><time>2026-05-02T13:29:52.999Z</time></trkpt><trkpt lat="45.444722302854586" lon="8.641300086184893"><ele>146.0</ele><time>2026-05-02T13:29:53.999Z</time></trkpt><trkpt lat="45.44473300091116" lon="8.641396729888525"><ele>146.0</ele><time>2026-05-02T13:29:54.999Z</time></trkpt><trkpt lat="45.4447453195167" lon="8.641487526071385"><ele>146.0</ele><time>2026-05-02T13:29:55.999Z</time></trkpt><trkpt lat="45.444763227997136" lon="8.641642793891894"><ele>146.0</ele><time>2026-05-02T13:29:57.999Z</time></trkpt><trkpt lat="45.44477624960353" lon="8.641804237249172"><ele>146.0</ele><time>2026-05-02T13:29:59.999Z</time></trkpt><trkpt lat="45.44479120278786" lon="8.641964001326723"><ele>146.0</ele><time>2026-05-02T13:30:01.999Z</time></trkpt><trkpt lat="45.4447989741798" lon="8.64207841072582"><ele>146.0</ele><time>2026-05-02T13:30:03.999Z</time></trkpt><trkpt lat="45.44480257701173" lon="8.642168694578956"><ele>146.0</ele><time>2026-05-02T13:30:05.999Z</time></trkpt><trkpt lat="45.444798488169184" lon="8.642270465532109"><ele>146.0</ele><time>2026-05-02T13:30:07.999Z</time></trkpt><trkpt lat="45.44480911352707" lon="8.642426644236386"><ele>146.0</ele><time>2026-05-02T13:30:09.999Z</time></trkpt><trkpt lat="45.444875898853" lon="8.642533176591344"><ele>146.0</ele><time>2026-05-02T13:30:11.999Z</time></trkpt><trkpt lat="45.4449720887623" lon="8.64256208564844"><ele>146.0</ele><time>2026-05-02T13:30:13.998Z</time></trkpt><trkpt lat="45.44508748154885" lon="8.642549919202411"><ele>146.0</ele><time>2026-05-02T13:30:15.998Z</time></trkpt><trkpt lat="45.44517374265942" lon="8.642560408718138"><ele>146.0</ele><time>2026-05-02T13:30:16.998Z</time></trkpt><trkpt lat="45.445296452156725" lon="8.642587156096885"><ele>146.0</ele><time>2026-05-02T13:30:17.998Z</time></trkpt><trkpt lat="45.44540204520058" lon="8.642619442905604"><ele>146.0</ele><time>2026-05-02T13:30:18.998Z</time></trkpt><trkpt lat="45.44550379369941" lon="8.642653854979626"><ele>145.8</ele><time>2026-05-02T13:30:19.998Z</time></trkpt><trkpt lat="45.4456063615761" lon="8.642691001326934"><ele>145.6</ele><time>2026-05-02T13:30:20.998Z</time></trkpt><trkpt lat="45.445701528673624" lon="8.642746970551656"><ele>145.4</ele><time>2026-05-02T13:30:21.998Z</time></trkpt><trkpt lat="45.44578130567335" lon="8.642838476641849"><ele>145.2</ele><time>2026-05-02T13:30:22.998Z</time></trkpt><trkpt lat="45.44584685967369" lon="8.642971695569218"><ele>145.0</ele><time>2026-05-02T13:30:23.998Z</time></trkpt><trkpt lat="45.44589966903115" lon="8.64317968395967"><ele>145.0</ele><time>2026-05-02T13:30:24.998Z</time></trkpt><trkpt lat="45.44596583560656" lon="8.643435205899772"><ele>145.0</ele><time>2026-05-02T13:30:25.998Z</time></trkpt><trkpt lat="45.446018930934976" lon="8.643642806554986"><ele>145.0</ele><time>2026-05-02T13:30:26.998Z</time></trkpt><trkpt lat="45.446072675525976" lon="8.643850920859853"><ele>145.0</ele><time>2026-05-02T13:30:27.998Z</time></trkpt><trkpt lat="45.446128704248615" lon="8.64406843467313"><ele>145.0</ele><time>2026-05-02T13:30:28.998Z</time></trkpt><trkpt lat="45.44618243698249" lon="8.644284755273787"><ele>145.0</ele><time>2026-05-02T13:30:29.998Z</time></trkpt><trkpt lat="45.446217668910485" lon="8.644367161118565"><ele>145.0</ele><time>2026-05-02T13:30:30.999Z</time></trkpt><trkpt lat="45.44625831262937" lon="8.644517968093517"><ele>144.8</ele><time>2026-05-02T13:30:31.999Z</time></trkpt><trkpt lat="45.446296252150724" lon="8.644652714260625"><ele>144.6</ele><time>2026-05-02T13:30:32.999Z</time></trkpt><trkpt lat="45.44633491853138" lon="8.644793793311447"><ele>144.4</ele><time>2026-05-02T13:30:33.999Z</time></trkpt><trkpt lat="45.446374177876564" lon="8.644943180456304"><ele>144.2</ele><time>2026-05-02T13:30:34.999Z</time></trkpt><trkpt lat="45.446415096524895" lon="8.645083903859243"><ele>144.0</ele><time>2026-05-02T13:30:35.999Z</time></trkpt><trkpt lat="45.446451623846386" lon="8.645217609595038"><ele>144.0</ele><time>2026-05-02T13:30:36.999Z</time></trkpt><trkpt lat="45.44649211276249" lon="8.645353812397152"><ele>144.0</ele><time>2026-05-02T13:30:37.999Z</time></trkpt><trkpt lat="45.446530879883916" lon="8.645490092020243"><ele>144.0</ele><time>2026-05-02T13:30:38.999Z</time></trkpt><trkpt lat="45.446570408809116" lon="8.64563444551419"><ele>144.0</ele><time>2026-05-02T13:30:39.999Z</time></trkpt><trkpt lat="45.44661387378544" lon="8.645799867931943"><ele>144.0</ele><time>2026-05-02T13:30:40.999Z</time></trkpt><trkpt lat="45.446653162856144" lon="8.645959392508034"><ele>144.0</ele><time>2026-05-02T13:30:41.999Z</time></trkpt><trkpt lat="45.446691679194174" lon="8.646096348225676"><ele>144.0</ele><time>2026-05-02T13:30:42.999Z</time></trkpt><trkpt lat="45.44671993231378" lon="8.64622190344848"><ele>144.0</ele><time>2026-05-02T13:30:43.999Z</time></trkpt><trkpt lat="45.44675763763318" lon="8.646347897816774"><ele>144.0</ele><time>2026-05-02T13:30:44.999Z</time></trkpt><trkpt lat="45.44679695790744" lon="8.646485861203631"><ele>144.0</ele><time>2026-05-02T13:30:45.999Z</time></trkpt><trkpt lat="45.446834916617235" lon="8.64663275371274"><ele>144.2</ele><time>2026-05-02T13:30:46.999Z</time></trkpt><trkpt lat="45.44687079294902" lon="8.646771958639293"><ele>144.4</ele><time>2026-05-02T13:30:47.999Z</time></trkpt><trkpt lat="45.44690734171667" lon="8.646903064589523"><ele>144.6</ele><time>2026-05-02T13:30:48.999Z</time></trkpt><trkpt lat="45.44695281589061" lon="8.647051655682793"><ele>144.8</ele><time>2026-05-02T13:30:49.999Z</time></trkpt><trkpt lat="45.44699746094621" lon="8.647214188787633"><ele>145.0</ele><time>2026-05-02T13:30:50.999Z</time></trkpt><trkpt lat="45.44704096584456" lon="8.647371039045298"><ele>145.0</ele><time>2026-05-02T13:30:51.999Z</time></trkpt><trkpt lat="45.44708320523669" lon="8.647515567829426"><ele>145.0</ele><time>2026-05-02T13:30:52.999Z</time></trkpt><trkpt lat="45.44711564806686" lon="8.647639485139104"><ele>145.0</ele><time>2026-05-02T13:30:53.999Z</time></trkpt><trkpt lat="45.44714596808137" lon="8.647759218330107"><ele>145.0</ele><time>2026-05-02T13:30:54.999Z</time></trkpt><trkpt lat="45.447179634761135" lon="8.64787690161856"><ele>145.0</ele><time>2026-05-02T13:30:55.999Z</time></trkpt><trkpt lat="45.44721458582643" lon="8.647998538748576"><ele>145.0</ele><time>2026-05-02T13:30:56.999Z</time></trkpt><trkpt lat="45.44724970613746" lon="8.648120345320828"><ele>145.0</ele><time>2026-05-02T13:30:57.999Z</time></trkpt><trkpt lat="45.44728268158318" lon="8.64823756085947"><ele>145.0</ele><time>2026-05-02T13:30:58.999Z</time></trkpt><trkpt lat="45.447321579586486" lon="8.648370341672322"><ele>145.0</ele><time>2026-05-02T13:30:59.999Z</time></trkpt><trkpt lat="45.447357308591855" lon="8.648510428350699"><ele>145.0</ele><time>2026-05-02T13:31:00.999Z</time></trkpt><trkpt lat="45.44739778947492" lon="8.648651779706078"><ele>145.25</ele><time>2026-05-02T13:31:01.999Z</time></trkpt><trkpt lat="45.447440494496036" lon="8.648807560130871"><ele>145.5</ele><time>2026-05-02T13:31:02.999Z</time></trkpt><trkpt lat="45.447486061053574" lon="8.648983075561603"><ele>145.75</ele><time>2026-05-02T13:31:03.999Z</time></trkpt><trkpt lat="45.44753061068467" lon="8.649147887448436"><ele>146.0</ele><time>2026-05-02T13:31:04.999Z</time></trkpt><trkpt lat="45.44757395775561" lon="8.649299860662593"><ele>146.0</ele><time>2026-05-02T13:31:05.999Z</time></trkpt><trkpt lat="45.44761167103421" lon="8.649438942061655"><ele>146.0</ele><time>2026-05-02T13:31:06.999Z</time></trkpt><trkpt lat="45.44764699623811" lon="8.649567338985811"><ele>146.0</ele><time>2026-05-02T13:31:07.999Z</time></trkpt><trkpt lat="45.44768418372985" lon="8.649685112333014"><ele>146.0</ele><time>2026-05-02T13:31:08.999Z</time></trkpt><trkpt lat="45.4477187350569" lon="8.649813667259862"><ele>146.0</ele><time>2026-05-02T13:31:09.999Z</time></trkpt><trkpt lat="45.447756294789" lon="8.649956215670933"><ele>146.16666666666666</ele><time>2026-05-02T13:31:10.999Z</time></trkpt><trkpt lat="45.447792770296296" lon="8.65008703249842"><ele>146.33333333333331</ele><time>2026-05-02T13:31:11.999Z</time></trkpt><trkpt lat="45.44782651151465" lon="8.6502103062852"><ele>146.5</ele><time>2026-05-02T13:31:12.999Z</time></trkpt><trkpt lat="45.44785399981704" lon="8.650314745941044"><ele>146.66666666666666</ele><time>2026-05-02T13:31:13.999Z</time></trkpt><trkpt lat="45.447872640558764" lon="8.650401769761725"><ele>146.83333333333334</ele><time>2026-05-02T13:31:14.999Z</time></trkpt><trkpt lat="45.44788904884966" lon="8.650520509904716"><ele>147.0</ele><time>2026-05-02T13:31:16.999Z</time></trkpt><trkpt lat="45.44789083587744" lon="8.650614554293975"><ele>147.0</ele><time>2026-05-02T13:31:21.999Z</time></trkpt><trkpt lat="45.44788062543958" lon="8.650704472558767"><ele>147.0</ele><time>2026-05-02T13:31:22.999Z</time></trkpt><trkpt lat="45.44788221452636" lon="8.650808119022164"><ele>147.0</ele><time>2026-05-02T13:31:23.999Z</time></trkpt><trkpt lat="45.447956584198366" lon="8.650946466514894"><ele>147.0</ele><time>2026-05-02T13:31:25.999Z</time></trkpt><trkpt lat="45.44807755835994" lon="8.650909133274748"><ele>147.0</ele><time>2026-05-02T13:31:27.999Z</time></trkpt><trkpt lat="45.44813580789102" lon="8.650814808744622"><ele>146.4</ele><time>2026-05-02T13:31:28.999Z</time></trkpt><trkpt lat="45.448193251214896" lon="8.650713375376458"><ele>145.79999999999998</ele><time>2026-05-02T13:31:29.999Z</time></trkpt><trkpt lat="45.44826117676084" lon="8.650637767391567"><ele>145.2</ele><time>2026-05-02T13:31:30.999Z</time></trkpt><trkpt lat="45.44833569557083" lon="8.65059121408079"><ele>144.6</ele><time>2026-05-02T13:31:31.999Z</time></trkpt><trkpt lat="45.4484236321091" lon="8.650551615108684"><ele>144.0</ele><time>2026-05-02T13:31:32.999Z</time></trkpt><trkpt lat="45.448519168718946" lon="8.650503986716352"><ele>144.0</ele><time>2026-05-02T13:31:33.999Z</time></trkpt><trkpt lat="45.44861539755235" lon="8.650456894153917"><ele>144.0</ele><time>2026-05-02T13:31:34.999Z</time></trkpt><trkpt lat="45.44870235773735" lon="8.650414559742018"><ele>144.0</ele><time>2026-05-02T13:31:35.999Z</time></trkpt><trkpt lat="45.448787416457016" lon="8.650374629552342"><ele>144.0</ele><time>2026-05-02T13:31:36.999Z</time></trkpt><trkpt lat="45.44887437987694" lon="8.650349041865605"><ele>144.0</ele><time>2026-05-02T13:31:37.999Z</time></trkpt><trkpt lat="45.44896191393592" lon="8.650336652346873"><ele>144.25</ele><time>2026-05-02T13:31:38.999Z</time></trkpt><trkpt lat="45.4490560916258" lon="8.65034646536099"><ele>144.5</ele><time>2026-05-02T13:31:39.999Z</time></trkpt><trkpt lat="45.44916134902172" lon="8.650354763660374"><ele>144.75</ele><time>2026-05-02T13:31:40.999Z</time></trkpt><trkpt lat="45.449278899178985" lon="8.650324838540673"><ele>145.0</ele><time>2026-05-02T13:31:41.999Z</time></trkpt><trkpt lat="45.4494108070039" lon="8.650261251093514"><ele>145.0</ele><time>2026-05-02T13:31:42.999Z</time></trkpt><trkpt lat="45.44953511251236" lon="8.650217150999158"><ele>145.0</ele><time>2026-05-02T13:31:43.999Z</time></trkpt><trkpt lat="45.44964160063687" lon="8.650168317384962"><ele>145.0</ele><time>2026-05-02T13:31:44.999Z</time></trkpt><trkpt lat="45.44973394293471" lon="8.650109788439744"><ele>145.0</ele><time>2026-05-02T13:31:45.999Z</time></trkpt><trkpt lat="45.44983388635984" lon="8.650050724001066"><ele>145.0</ele><time>2026-05-02T13:31:46.999Z</time></trkpt><trkpt lat="45.44994337625829" lon="8.649992200123334"><ele>145.0</ele><time>2026-05-02T13:31:47.999Z</time></trkpt><trkpt lat="45.45004428383713" lon="8.649934380960289"><ele>145.0</ele><time>2026-05-02T13:31:48.999Z</time></trkpt><trkpt lat="45.450136941211504" lon="8.6498799600226"><ele>145.0</ele><time>2026-05-02T13:31:49.999Z</time></trkpt><trkpt lat="45.45022172888319" lon="8.649830900336038"><ele>145.0</ele><time>2026-05-02T13:31:50.999Z</time></trkpt><trkpt lat="45.45030967062438" lon="8.64978435237184"><ele>145.0</ele><time>2026-05-02T13:31:51.999Z</time></trkpt><trkpt lat="45.45040210717169" lon="8.649756566219969"><ele>144.4</ele><time>2026-05-02T13:31:52.999Z</time></trkpt><trkpt lat="45.450494594719046" lon="8.649756601223535"><ele>143.8</ele><time>2026-05-02T13:31:53.999Z</time></trkpt><trkpt lat="45.45058819632502" lon="8.64977066599809"><ele>143.2</ele><time>2026-05-02T13:31:54.999Z</time></trkpt><trkpt lat="45.450680370385655" lon="8.649761295738934"><ele>142.6</ele><time>2026-05-02T13:31:55.999Z</time></trkpt><trkpt lat="45.450776952530454" lon="8.649717548374287"><ele>142.0</ele><time>2026-05-02T13:31:56.999Z</time></trkpt><trkpt lat="45.4508662985596" lon="8.649652176764784"><ele>142.0</ele><time>2026-05-02T13:31:57.999Z</time></trkpt><trkpt lat="45.45100656343727" lon="8.649503109903309"><ele>142.0</ele><time>2026-05-02T13:31:59.999Z</time></trkpt><trkpt lat="45.45106345463507" lon="8.64943721998265"><ele>142.0</ele><time>2026-05-02T13:32:00.999Z</time></trkpt><trkpt lat="45.4511263164794" lon="8.649367115257707"><ele>142.0</ele><time>2026-05-02T13:32:01.999Z</time></trkpt><trkpt lat="45.45120341777065" lon="8.649302477625378"><ele>142.0</ele><time>2026-05-02T13:32:02.999Z</time></trkpt><trkpt lat="45.451279715665805" lon="8.649256359793695"><ele>142.16666666666669</ele><time>2026-05-02T13:32:03.999Z</time></trkpt><trkpt lat="45.451347663317605" lon="8.64921994259325"><ele>142.33333333333334</ele><time>2026-05-02T13:32:04.999Z</time></trkpt><trkpt lat="45.45141098535879" lon="8.649191316883226"><ele>142.5</ele><time>2026-05-02T13:32:05.999Z</time></trkpt><trkpt lat="45.4514746523603" lon="8.649194166844898"><ele>142.66666666666666</ele><time>2026-05-02T13:32:06.999Z</time></trkpt><trkpt lat="45.45157341426953" lon="8.649281132049616"><ele>142.83333333333331</ele><time>2026-05-02T13:32:08.999Z</time></trkpt><trkpt lat="45.45162462924003" lon="8.64934464719433"><ele>143.0</ele><time>2026-05-02T13:32:09.999Z</time></trkpt><trkpt lat="45.45168975669656" lon="8.649411935509049"><ele>143.0</ele><time>2026-05-02T13:32:10.999Z</time></trkpt><trkpt lat="45.45177344890529" lon="8.649453594829591"><ele>143.0</ele><time>2026-05-02T13:32:11.999Z</time></trkpt><trkpt lat="45.451853462924305" lon="8.649478568470826"><ele>143.0</ele><time>2026-05-02T13:32:12.999Z</time></trkpt><trkpt lat="45.45192471692599" lon="8.649486673042446"><ele>143.0</ele><time>2026-05-02T13:32:13.999Z</time></trkpt><trkpt lat="45.45198739403961" lon="8.649589844279847"><ele>143.0</ele><time>2026-05-02T13:32:14.999Z</time></trkpt><trkpt lat="45.45203557272439" lon="8.649683435133069"><ele>143.0</ele><time>2026-05-02T13:32:15.999Z</time></trkpt><trkpt lat="45.4520724106536" lon="8.649770534364565"><ele>143.28571428571428</ele><time>2026-05-02T13:32:16.998Z</time></trkpt><trkpt lat="45.45210165845348" lon="8.649852077685354"><ele>143.57142857142856</ele><time>2026-05-02T13:32:17.998Z</time></trkpt><trkpt lat="45.452126764804056" lon="8.649936505465499"><ele>143.85714285714286</ele><time>2026-05-02T13:32:18.998Z</time></trkpt><trkpt lat="45.45214782790206" lon="8.650034417262326"><ele>144.14285714285714</ele><time>2026-05-02T13:32:19.998Z</time></trkpt><trkpt lat="45.45215702030895" lon="8.650133876446084"><ele>144.42857142857144</ele><time>2026-05-02T13:32:20.998Z</time></trkpt><trkpt lat="45.452152893452016" lon="8.650225225795515"><ele>144.71428571428572</ele><time>2026-05-02T13:32:21.998Z</time></trkpt><trkpt lat="45.45213562213171" lon="8.650312958763667"><ele>145.0</ele><time>2026-05-02T13:32:22.998Z</time></trkpt><trkpt lat="45.452103065975265" lon="8.650402164446334"><ele>145.0</ele><time>2026-05-02T13:32:23.998Z</time></trkpt><trkpt lat="45.4520667681267" lon="8.650488202126903"><ele>145.0</ele><time>2026-05-02T13:32:24.998Z</time></trkpt><trkpt lat="45.45205455682356" lon="8.650579528838572"><ele>145.0</ele><time>2026-05-02T13:32:25.998Z</time></trkpt><trkpt lat="45.452070182492356" lon="8.65066664518484"><ele>145.0</ele><time>2026-05-02T13:32:26.998Z</time></trkpt><trkpt lat="45.45216003925323" lon="8.650802089477907"><ele>145.0</ele><time>2026-05-02T13:32:28.998Z</time></trkpt><trkpt lat="45.45223042187463" lon="8.650841010805538"><ele>145.0</ele><time>2026-05-02T13:32:29.998Z</time></trkpt><trkpt lat="45.45229914815961" lon="8.650879535254395"><ele>145.0</ele><time>2026-05-02T13:32:30.998Z</time></trkpt><trkpt lat="45.45235957592708" lon="8.650952866966682"><ele>145.0</ele><time>2026-05-02T13:32:31.998Z</time></trkpt><trkpt lat="45.452405303533666" lon="8.651063140192994"><ele>145.0</ele><time>2026-05-02T13:32:32.998Z</time></trkpt><trkpt lat="45.45243976409219" lon="8.651187643536954"><ele>145.0</ele><time>2026-05-02T13:32:33.998Z</time></trkpt><trkpt lat="45.45247724454967" lon="8.651317903545907"><ele>145.0</ele><time>2026-05-02T13:32:34.998Z</time></trkpt><trkpt lat="45.45251766139372" lon="8.651436580920556"><ele>145.0</ele><time>2026-05-02T13:32:35.998Z</time></trkpt><trkpt lat="45.45256054108609" lon="8.651559571300748"><ele>145.0</ele><time>2026-05-02T13:32:36.998Z</time></trkpt><trkpt lat="45.45260046229576" lon="8.651690275594195"><ele>145.0</ele><time>2026-05-02T13:32:37.998Z</time></trkpt><trkpt lat="45.4526364475555" lon="8.651821652780317"><ele>145.0</ele><time>2026-05-02T13:32:38.998Z</time></trkpt><trkpt lat="45.45267035649649" lon="8.651961970525909"><ele>145.0</ele><time>2026-05-02T13:32:39.998Z</time></trkpt><trkpt lat="45.45271296845449" lon="8.652113113239793"><ele>145.0</ele><time>2026-05-02T13:32:40.999Z</time></trkpt><trkpt lat="45.45275344262564" lon="8.6522651550902"><ele>145.0</ele><time>2026-05-02T13:32:41.999Z</time></trkpt><trkpt lat="45.45279116577023" lon="8.652410223900505"><ele>145.0</ele><time>2026-05-02T13:32:42.999Z</time></trkpt><trkpt lat="45.45283000906121" lon="8.652553595910717"><ele>145.0</ele><time>2026-05-02T13:32:43.999Z</time></trkpt><trkpt lat="45.45286477025579" lon="8.652692514357092"><ele>145.0</ele><time>2026-05-02T13:32:44.999Z</time></trkpt><trkpt lat="45.4528979911188" lon="8.652832185119493"><ele>145.0</ele><time>2026-05-02T13:32:45.999Z</time></trkpt><trkpt lat="45.45293659049651" lon="8.65297088236613"><ele>145.0</ele><time>2026-05-02T13:32:46.999Z</time></trkpt><trkpt lat="45.45297502491281" lon="8.65310919779508"><ele>145.0</ele><time>2026-05-02T13:32:47.999Z</time></trkpt><trkpt lat="45.453011970943926" lon="8.653249258364477"><ele>145.0</ele><time>2026-05-02T13:32:48.999Z</time></trkpt><trkpt lat="45.45305008182625" lon="8.653394476939994"><ele>145.0</ele><time>2026-05-02T13:32:49.999Z</time></trkpt><trkpt lat="45.45309065117998" lon="8.653546562249032"><ele>145.0</ele><time>2026-05-02T13:32:50.999Z</time></trkpt><trkpt lat="45.453135845336554" lon="8.653700627333961"><ele>145.0</ele><time>2026-05-02T13:32:51.999Z</time></trkpt><trkpt lat="45.45318050226174" lon="8.65385407191426"><ele>145.0</ele><time>2026-05-02T13:32:52.999Z</time></trkpt><trkpt lat="45.453221033016085" lon="8.654003903458294"><ele>145.0</ele><time>2026-05-02T13:32:53.999Z</time></trkpt><trkpt lat="45.4532569309063" lon="8.654156811826669"><ele>145.0</ele><time>2026-05-02T13:32:54.999Z</time></trkpt><trkpt lat="45.45329307801313" lon="8.654308128768845"><ele>145.0</ele><time>2026-05-02T13:32:55.999Z</time></trkpt><trkpt lat="45.45333780359204" lon="8.654461752397834"><ele>145.0</ele><time>2026-05-02T13:32:56.999Z</time></trkpt><trkpt lat="45.45338590751094" lon="8.654612518287697"><ele>145.0</ele><time>2026-05-02T13:32:57.999Z</time></trkpt><trkpt lat="45.45343471683665" lon="8.654776154421565"><ele>144.75</ele><time>2026-05-02T13:32:58.999Z</time></trkpt><trkpt lat="45.4534777012072" lon="8.654945759538979"><ele>144.5</ele><time>2026-05-02T13:32:59.999Z</time></trkpt><trkpt lat="45.45352671797294" lon="8.655108739286739"><ele>144.25</ele><time>2026-05-02T13:33:00.999Z</time></trkpt><trkpt lat="45.453568738507656" lon="8.655275165536445"><ele>144.0</ele><time>2026-05-02T13:33:01.999Z</time></trkpt><trkpt lat="45.45360996159032" lon="8.655439304883862"><ele>144.0</ele><time>2026-05-02T13:33:02.999Z</time></trkpt><trkpt lat="45.45365305288574" lon="8.655601787186722"><ele>144.0</ele><time>2026-05-02T13:33:03.999Z</time></trkpt><trkpt lat="45.45369481346388" lon="8.655763938914566"><ele>144.0</ele><time>2026-05-02T13:33:04.999Z</time></trkpt><trkpt lat="45.45373719036673" lon="8.65592899132485"><ele>144.0</ele><time>2026-05-02T13:33:05.999Z</time></trkpt><trkpt lat="45.453786107582786" lon="8.656099669728198"><ele>144.75</ele><time>2026-05-02T13:33:06.999Z</time></trkpt><trkpt lat="45.45383421607138" lon="8.656274732077428"><ele>145.5</ele><time>2026-05-02T13:33:07.999Z</time></trkpt><trkpt lat="45.4538795452087" lon="8.656444229470225"><ele>146.25</ele><time>2026-05-02T13:33:08.999Z</time></trkpt><trkpt lat="45.45392462595642" lon="8.656614230499683"><ele>147.0</ele><time>2026-05-02T13:33:09.999Z</time></trkpt><trkpt lat="45.45397031162379" lon="8.656780496493615"><ele>147.0</ele><time>2026-05-02T13:33:10.999Z</time></trkpt><trkpt lat="45.45401669786964" lon="8.656945360376886"><ele>147.0</ele><time>2026-05-02T13:33:11.999Z</time></trkpt><trkpt lat="45.454060826465636" lon="8.65710892412483"><ele>147.0</ele><time>2026-05-02T13:33:12.999Z</time></trkpt><trkpt lat="45.45410790312985" lon="8.657272407786456"><ele>147.0</ele><time>2026-05-02T13:33:13.999Z</time></trkpt><trkpt lat="45.454152923345006" lon="8.657439681518644"><ele>147.0</ele><time>2026-05-02T13:33:14.999Z</time></trkpt><trkpt lat="45.454196697618585" lon="8.65761270923447"><ele>147.0</ele><time>2026-05-02T13:33:15.999Z</time></trkpt><trkpt lat="45.45424156934465" lon="8.657788113973801"><ele>147.0</ele><time>2026-05-02T13:33:16.999Z</time></trkpt><trkpt lat="45.454286566570104" lon="8.65796438938983"><ele>147.0</ele><time>2026-05-02T13:33:17.999Z</time></trkpt><trkpt lat="45.45433519885165" lon="8.658144379406227"><ele>146.75</ele><time>2026-05-02T13:33:18.999Z</time></trkpt><trkpt lat="45.45438519813841" lon="8.658318313543665"><ele>146.5</ele><time>2026-05-02T13:33:19.999Z</time></trkpt><trkpt lat="45.454435478143786" lon="8.658494268415819"><ele>146.25</ele><time>2026-05-02T13:33:20.999Z</time></trkpt><trkpt lat="45.454487102781876" lon="8.65866936436344"><ele>146.0</ele><time>2026-05-02T13:33:21.999Z</time></trkpt><trkpt lat="45.4545383325663" lon="8.65884963289551"><ele>146.0</ele><time>2026-05-02T13:33:22.999Z</time></trkpt><trkpt lat="45.454587820721564" lon="8.659031292597687"><ele>146.0</ele><time>2026-05-02T13:33:23.999Z</time></trkpt><trkpt lat="45.45463936668594" lon="8.65921508967778"><ele>146.0</ele><time>2026-05-02T13:33:24.999Z</time></trkpt><trkpt lat="45.45468779469791" lon="8.659396892146646"><ele>146.0</ele><time>2026-05-02T13:33:25.999Z</time></trkpt><trkpt lat="45.45473709219025" lon="8.659582042169356"><ele>146.0</ele><time>2026-05-02T13:33:26.999Z</time></trkpt><trkpt lat="45.45478107253724" lon="8.659758587745912"><ele>146.0</ele><time>2026-05-02T13:33:27.999Z</time></trkpt><trkpt lat="45.45482954701469" lon="8.659938847601985"><ele>146.0</ele><time>2026-05-02T13:33:28.999Z</time></trkpt><trkpt lat="45.45488118023577" lon="8.660128765353507"><ele>146.0</ele><time>2026-05-02T13:33:29.999Z</time></trkpt><trkpt lat="45.45493446754011" lon="8.6603194761013"><ele>146.0</ele><time>2026-05-02T13:33:30.999Z</time></trkpt><trkpt lat="45.454983804635816" lon="8.660495678109582"><ele>146.0</ele><time>2026-05-02T13:33:31.999Z</time></trkpt><trkpt lat="45.455028745719936" lon="8.660663877590702"><ele>146.0</ele><time>2026-05-02T13:33:32.999Z</time></trkpt><trkpt lat="45.45507164834367" lon="8.660836710183101"><ele>146.0</ele><time>2026-05-02T13:33:33.999Z</time></trkpt><trkpt lat="45.45511717906319" lon="8.661018085293716"><ele>145.5</ele><time>2026-05-02T13:33:34.999Z</time></trkpt><trkpt lat="45.45516732155121" lon="8.661205088898356"><ele>145.0</ele><time>2026-05-02T13:33:35.999Z</time></trkpt><trkpt lat="45.45521683883249" lon="8.66139450037239"><ele>144.5</ele><time>2026-05-02T13:33:36.999Z</time></trkpt><trkpt lat="45.45526913817985" lon="8.66158387552054"><ele>144.0</ele><time>2026-05-02T13:33:37.999Z</time></trkpt><trkpt lat="45.45532202287552" lon="8.66176594157013"><ele>144.0</ele><time>2026-05-02T13:33:38.999Z</time></trkpt><trkpt lat="45.45537212069101" lon="8.661941790466345"><ele>144.0</ele><time>2026-05-02T13:33:39.999Z</time></trkpt><trkpt lat="45.45542286422154" lon="8.66212397198254"><ele>144.0</ele><time>2026-05-02T13:33:40.999Z</time></trkpt><trkpt lat="45.455471753270096" lon="8.662297530615126"><ele>144.0</ele><time>2026-05-02T13:33:41.999Z</time></trkpt><trkpt lat="45.45551938835463" lon="8.662464708423613"><ele>144.5</ele><time>2026-05-02T13:33:42.999Z</time></trkpt><trkpt lat="45.45556859861336" lon="8.662638567043057"><ele>145.0</ele><time>2026-05-02T13:33:43.999Z</time></trkpt><trkpt lat="45.455616942145696" lon="8.662811058880777"><ele>145.5</ele><time>2026-05-02T13:33:44.999Z</time></trkpt><trkpt lat="45.45566159486985" lon="8.662983428256497"><ele>146.0</ele><time>2026-05-02T13:33:45.999Z</time></trkpt><trkpt lat="45.455701431604304" lon="8.663149890330015"><ele>146.0</ele><time>2026-05-02T13:33:46.999Z</time></trkpt><trkpt lat="45.455748536878325" lon="8.66331689450997"><ele>146.0</ele><time>2026-05-02T13:33:47.999Z</time></trkpt><trkpt lat="45.455798267533076" lon="8.663489139039303"><ele>146.0</ele><time>2026-05-02T13:33:48.999Z</time></trkpt><trkpt lat="45.455845464438106" lon="8.663658584693604"><ele>146.0</ele><time>2026-05-02T13:33:49.999Z</time></trkpt><trkpt lat="45.45588990397778" lon="8.663826341454197"><ele>146.0</ele><time>2026-05-02T13:33:50.999Z</time></trkpt><trkpt lat="45.45593567689829" lon="8.663989960960404"><ele>146.0</ele><time>2026-05-02T13:33:51.999Z</time></trkpt><trkpt lat="45.45597727220255" lon="8.664145888165296"><ele>146.0</ele><time>2026-05-02T13:33:52.999Z</time></trkpt><trkpt lat="45.45601310571728" lon="8.66426012638258"><ele>146.0</ele><time>2026-05-02T13:33:53.999Z</time></trkpt><trkpt lat="45.4560434643708" lon="8.66437155758889"><ele>146.0</ele><time>2026-05-02T13:33:54.999Z</time></trkpt><trkpt lat="45.45607352577492" lon="8.664481359962133"><ele>145.8</ele><time>2026-05-02T13:33:55.999Z</time></trkpt><trkpt lat="45.456093876984376" lon="8.66459098244387"><ele>145.6</ele><time>2026-05-02T13:33:56.999Z</time></trkpt><trkpt lat="45.456117685243555" lon="8.664679642838482"><ele>145.4</ele><time>2026-05-02T13:33:57.999Z</time></trkpt><trkpt lat="45.456253837694014" lon="8.664666167857273"><ele>145.2</ele><time>2026-05-02T13:33:58.999Z</time></trkpt><trkpt lat="45.456336763040746" lon="8.664642135776935"><ele>145.0</ele><time>2026-05-02T13:33:59.999Z</time></trkpt><trkpt lat="45.456424245612666" lon="8.664581889262818"><ele>144.75</ele><time>2026-05-02T13:34:00.999Z</time></trkpt><trkpt lat="45.45652292844661" lon="8.664508193408155"><ele>144.5</ele><time>2026-05-02T13:34:01.999Z</time></trkpt><trkpt lat="45.45663280715794" lon="8.664425202654929"><ele>144.25</ele><time>2026-05-02T13:34:02.999Z</time></trkpt><trkpt lat="45.4567636132911" lon="8.664324294139021"><ele>144.0</ele><time>2026-05-02T13:34:03.999Z</time></trkpt><trkpt lat="45.45689389274582" lon="8.664227216445376"><ele>144.5</ele><time>2026-05-02T13:34:04.999Z</time></trkpt><trkpt lat="45.45700717029155" lon="8.664139942332781"><ele>145.0</ele><time>2026-05-02T13:34:05.999Z</time></trkpt><trkpt lat="45.45711020930292" lon="8.664048791053059"><ele>145.5</ele><time>2026-05-02T13:34:06.999Z</time></trkpt><trkpt lat="45.45719293715637" lon="8.663940516747413"><ele>146.0</ele><time>2026-05-02T13:34:07.999Z</time></trkpt><trkpt lat="45.457258923018465" lon="8.663822781648847"><ele>146.0</ele><time>2026-05-02T13:34:08.999Z</time></trkpt><trkpt lat="45.45729383154621" lon="8.663660262718773"><ele>146.0</ele><time>2026-05-02T13:34:09.999Z</time></trkpt><trkpt lat="45.457281720150476" lon="8.663475230680412"><ele>146.0</ele><time>2026-05-02T13:34:10.999Z</time></trkpt><trkpt lat="45.4573133531042" lon="8.663282043916029"><ele>146.0</ele><time>2026-05-02T13:34:11.999Z</time></trkpt><trkpt lat="45.45729920082864" lon="8.66309899754218"><ele>146.0</ele><time>2026-05-02T13:34:12.999Z</time></trkpt><trkpt lat="45.45729664885343" lon="8.662947669805757"><ele>146.0</ele><time>2026-05-02T13:34:13.999Z</time></trkpt><trkpt lat="45.4573178543995" lon="8.66281572917935"><ele>146.0</ele><time>2026-05-02T13:34:14.999Z</time></trkpt><trkpt lat="45.457363108188886" lon="8.662712508502999"><ele>146.0</ele><time>2026-05-02T13:34:15.999Z</time></trkpt><trkpt lat="45.45742976083422" lon="8.66262983006342"><ele>146.0</ele><time>2026-05-02T13:34:16.999Z</time></trkpt><trkpt lat="45.45752027952016" lon="8.662551862259118"><ele>146.0</ele><time>2026-05-02T13:34:17.999Z</time></trkpt><trkpt lat="45.45762916415713" lon="8.662480968044536"><ele>146.0</ele><time>2026-05-02T13:34:18.999Z</time></trkpt><trkpt lat="45.45774736788952" lon="8.66239337899082"><ele>146.0</ele><time>2026-05-02T13:34:19.999Z</time></trkpt><trkpt lat="45.457882639680214" lon="8.662291099445557"><ele>146.0</ele><time>2026-05-02T13:34:20.999Z</time></trkpt><trkpt lat="45.458036014964534" lon="8.662180302676049"><ele>146.0</ele><time>2026-05-02T13:34:21.999Z</time></trkpt><trkpt lat="45.458199369540985" lon="8.662053770497089"><ele>146.0</ele><time>2026-05-02T13:34:22.999Z</time></trkpt><trkpt lat="45.45834794452809" lon="8.661932419180735"><ele>146.0</ele><time>2026-05-02T13:34:23.999Z</time></trkpt><trkpt lat="45.458493384717364" lon="8.661811537007079"><ele>146.33333333333331</ele><time>2026-05-02T13:34:24.999Z</time></trkpt><trkpt lat="45.45865159869418" lon="8.661685109202628"><ele>146.66666666666666</ele><time>2026-05-02T13:34:25.998Z</time></trkpt><trkpt lat="45.45882389090709" lon="8.661555243035934"><ele>147.0</ele><time>2026-05-02T13:34:26.998Z</time></trkpt><trkpt lat="45.45899289876217" lon="8.66141821936717"><ele>147.0</ele><time>2026-05-02T13:34:27.998Z</time></trkpt><trkpt lat="45.45915289638706" lon="8.66129383936647"><ele>147.0</ele><time>2026-05-02T13:34:28.998Z</time></trkpt><trkpt lat="45.45931289028923" lon="8.661168663608317"><ele>147.0</ele><time>2026-05-02T13:34:29.998Z</time></trkpt><trkpt lat="45.45947657660876" lon="8.661037540709959"><ele>146.0</ele><time>2026-05-02T13:34:30.998Z</time></trkpt><trkpt lat="45.459637140822956" lon="8.660906095563002"><ele>145.0</ele><time>2026-05-02T13:34:31.998Z</time></trkpt><trkpt lat="45.45979568082666" lon="8.660785775098589"><ele>144.0</ele><time>2026-05-02T13:34:32.998Z</time></trkpt><trkpt lat="45.459963842959574" lon="8.660664664661855"><ele>144.0</ele><time>2026-05-02T13:34:33.998Z</time></trkpt><trkpt lat="45.46013037681573" lon="8.660536407813323"><ele>144.0</ele><time>2026-05-02T13:34:34.998Z</time></trkpt><trkpt lat="45.46030248150641" lon="8.660396941816144"><ele>144.0</ele><time>2026-05-02T13:34:35.998Z</time></trkpt><trkpt lat="45.460475945045886" lon="8.660259434755044"><ele>144.33333333333334</ele><time>2026-05-02T13:34:36.998Z</time></trkpt><trkpt lat="45.460658427934796" lon="8.660121075631166"><ele>144.66666666666669</ele><time>2026-05-02T13:34:37.998Z</time></trkpt><trkpt lat="45.46084219983522" lon="8.659984272443161"><ele>145.0</ele><time>2026-05-02T13:34:38.998Z</time></trkpt><trkpt lat="45.46102405836399" lon="8.659847494133407"><ele>145.0</ele><time>2026-05-02T13:34:39.998Z</time></trkpt><trkpt lat="45.46120253694068" lon="8.659707070345023"><ele>145.0</ele><time>2026-05-02T13:34:40.998Z</time></trkpt><trkpt lat="45.4613745954153" lon="8.659567255901319"><ele>145.0</ele><time>2026-05-02T13:34:41.999Z</time></trkpt><trkpt lat="45.46155457799718" lon="8.659430172666786"><ele>145.33333333333334</ele><time>2026-05-02T13:34:42.999Z</time></trkpt><trkpt lat="45.461732754756" lon="8.659297379936328"><ele>145.66666666666666</ele><time>2026-05-02T13:34:43.999Z</time></trkpt><trkpt lat="45.46190278912202" lon="8.659170647348322"><ele>146.0</ele><time>2026-05-02T13:34:44.999Z</time></trkpt><trkpt lat="45.46207358725594" lon="8.659036543671297"><ele>146.0</ele><time>2026-05-02T13:34:45.999Z</time></trkpt><trkpt lat="45.46225076505528" lon="8.65890425477795"><ele>146.0</ele><time>2026-05-02T13:34:46.999Z</time></trkpt><trkpt lat="45.462429723382776" lon="8.658763296630061"><ele>146.0</ele><time>2026-05-02T13:34:47.999Z</time></trkpt><trkpt lat="45.462605097771174" lon="8.65863186395116"><ele>146.0</ele><time>2026-05-02T13:34:48.999Z</time></trkpt><trkpt lat="45.46277017413152" lon="8.658515262006198"><ele>146.0</ele><time>2026-05-02T13:34:49.999Z</time></trkpt><trkpt lat="45.462926947735234" lon="8.658411748240193"><ele>146.0</ele><time>2026-05-02T13:34:50.999Z</time></trkpt><trkpt lat="45.46307927447678" lon="8.658307921049255"><ele>147.33333333333331</ele><time>2026-05-02T13:34:51.999Z</time></trkpt><trkpt lat="45.463230667776834" lon="8.65819744284311"><ele>148.66666666666666</ele><time>2026-05-02T13:34:52.999Z</time></trkpt><trkpt lat="45.46337882659118" lon="8.658086903460953"><ele>150.0</ele><time>2026-05-02T13:34:53.999Z</time></trkpt><trkpt lat="45.463520843190544" lon="8.657980806541099"><ele>150.0</ele><time>2026-05-02T13:34:54.999Z</time></trkpt><trkpt lat="45.46365707696886" lon="8.657881282120465"><ele>150.0</ele><time>2026-05-02T13:34:55.999Z</time></trkpt><trkpt lat="45.46380087296285" lon="8.657794137222885"><ele>150.0</ele><time>2026-05-02T13:34:56.999Z</time></trkpt><trkpt lat="45.46394467111057" lon="8.657710235296461"><ele>150.33333333333334</ele><time>2026-05-02T13:34:57.999Z</time></trkpt><trkpt lat="45.4641009828305" lon="8.65763545443089"><ele>150.66666666666669</ele><time>2026-05-02T13:34:58.999Z</time></trkpt><trkpt lat="45.464261472257874" lon="8.657551700917866"><ele>151.0</ele><time>2026-05-02T13:34:59.999Z</time></trkpt><trkpt lat="45.46442587088539" lon="8.657473828537217"><ele>151.0</ele><time>2026-05-02T13:35:00.999Z</time></trkpt><trkpt lat="45.464580670722505" lon="8.657397757677264"><ele>151.0</ele><time>2026-05-02T13:35:01.999Z</time></trkpt><trkpt lat="45.46472578170009" lon="8.657322021817022"><ele>151.0</ele><time>2026-05-02T13:35:02.999Z</time></trkpt><trkpt lat="45.46487148591551" lon="8.65724540747799"><ele>151.0</ele><time>2026-05-02T13:35:03.999Z</time></trkpt><trkpt lat="45.465001126359724" lon="8.65718235055363"><ele>151.0</ele><time>2026-05-02T13:35:04.999Z</time></trkpt><trkpt lat="45.4651320292487" lon="8.657135426311376"><ele>151.0</ele><time>2026-05-02T13:35:05.999Z</time></trkpt><trkpt lat="45.46526188219109" lon="8.657118045023875"><ele>151.0</ele><time>2026-05-02T13:35:06.999Z</time></trkpt><trkpt lat="45.46538257508162" lon="8.65715309556327"><ele>150.75</ele><time>2026-05-02T13:35:07.999Z</time></trkpt><trkpt lat="45.465498478373334" lon="8.657227561230073"><ele>150.5</ele><time>2026-05-02T13:35:08.999Z</time></trkpt><trkpt lat="45.4656022911239" lon="8.65734456938247"><ele>150.25</ele><time>2026-05-02T13:35:09.999Z</time></trkpt><trkpt lat="45.46568463042722" lon="8.65750446826957"><ele>150.0</ele><time>2026-05-02T13:35:10.999Z</time></trkpt><trkpt lat="45.465743063988974" lon="8.657699667109018"><ele>149.66666666666666</ele><time>2026-05-02T13:35:11.999Z</time></trkpt><trkpt lat="45.46577260386027" lon="8.657931910896599"><ele>149.33333333333331</ele><time>2026-05-02T13:35:12.999Z</time></trkpt><trkpt lat="45.465799091592956" lon="8.658240134275038"><ele>149.0</ele><time>2026-05-02T13:35:13.999Z</time></trkpt><trkpt lat="45.46584008763195" lon="8.65859426795033"><ele>149.0</ele><time>2026-05-02T13:35:14.999Z</time></trkpt><trkpt lat="45.46589552736877" lon="8.658955579575522"><ele>149.0</ele><time>2026-05-02T13:35:15.999Z</time></trkpt><trkpt lat="45.46595432074801" lon="8.659333115477938"><ele>148.0</ele><time>2026-05-02T13:35:16.999Z</time></trkpt><trkpt lat="45.46601387321717" lon="8.659703613958197"><ele>147.0</ele><time>2026-05-02T13:35:17.999Z</time></trkpt><trkpt lat="45.46606173337003" lon="8.660043011707927"><ele>147.0</ele><time>2026-05-02T13:35:18.999Z</time></trkpt><trkpt lat="45.46610942439116" lon="8.660361268762305"><ele>147.0</ele><time>2026-05-02T13:35:19.999Z</time></trkpt><trkpt lat="45.46615755608876" lon="8.660661123066687"><ele>147.0</ele><time>2026-05-02T13:35:20.999Z</time></trkpt><trkpt lat="45.46619979332526" lon="8.660942773688427"><ele>147.0</ele><time>2026-05-02T13:35:21.999Z</time></trkpt><trkpt lat="45.466239049956584" lon="8.661212715369485"><ele>147.0</ele><time>2026-05-02T13:35:22.999Z</time></trkpt><trkpt lat="45.46627784647367" lon="8.66147320158351"><ele>147.0</ele><time>2026-05-02T13:35:23.999Z</time></trkpt><trkpt lat="45.466315892700536" lon="8.661728327655725"><ele>147.33333333333334</ele><time>2026-05-02T13:35:24.999Z</time></trkpt><trkpt lat="45.46635273163088" lon="8.661983103214702"><ele>147.66666666666669</ele><time>2026-05-02T13:35:25.999Z</time></trkpt><trkpt lat="45.46638818440759" lon="8.662230938959489"><ele>148.0</ele><time>2026-05-02T13:35:26.999Z</time></trkpt><trkpt lat="45.466421836461066" lon="8.662481015954969"><ele>148.0</ele><time>2026-05-02T13:35:27.999Z</time></trkpt><trkpt lat="45.4664542725852" lon="8.66273862505873"><ele>148.0</ele><time>2026-05-02T13:35:28.999Z</time></trkpt><trkpt lat="45.46649033480963" lon="8.662999860643994"><ele>148.0</ele><time>2026-05-02T13:35:29.999Z</time></trkpt><trkpt lat="45.46652747865069" lon="8.66326092987916"><ele>148.0</ele><time>2026-05-02T13:35:30.999Z</time></trkpt><trkpt lat="45.46656338928365" lon="8.663513206542179"><ele>148.0</ele><time>2026-05-02T13:35:31.999Z</time></trkpt><trkpt lat="45.466593202628" lon="8.663767563285012"><ele>148.0</ele><time>2026-05-02T13:35:32.999Z</time></trkpt><trkpt lat="45.46661014216432" lon="8.664035867233654"><ele>147.66666666666669</ele><time>2026-05-02T13:35:33.999Z</time></trkpt><trkpt lat="45.46660899632162" lon="8.664325710122501"><ele>147.33333333333334</ele><time>2026-05-02T13:35:34.999Z</time></trkpt><trkpt lat="45.46658816510417" lon="8.664642175811943"><ele>147.0</ele><time>2026-05-02T13:35:35.999Z</time></trkpt><trkpt lat="45.4665516596147" lon="8.664966132215524"><ele>149.5</ele><time>2026-05-02T13:35:36.999Z</time></trkpt><trkpt lat="45.466491138835515" lon="8.66530272103562"><ele>152.0</ele><time>2026-05-02T13:35:37.999Z</time></trkpt><trkpt lat="45.46641628567337" lon="8.665604539433817"><ele>152.0</ele><time>2026-05-02T13:35:38.999Z</time></trkpt><trkpt lat="45.46632455895448" lon="8.6658915152013"><ele>152.0</ele><time>2026-05-02T13:35:39.999Z</time></trkpt><trkpt lat="45.46622139630373" lon="8.666157317786887"><ele>152.0</ele><time>2026-05-02T13:35:40.999Z</time></trkpt><trkpt lat="45.46611443533777" lon="8.666388996385589"><ele>150.33333333333331</ele><time>2026-05-02T13:35:41.999Z</time></trkpt><trkpt lat="45.466004732486624" lon="8.666598353637118"><ele>148.66666666666666</ele><time>2026-05-02T13:35:42.999Z</time></trkpt><trkpt lat="45.465897910721445" lon="8.666792843818286"><ele>147.0</ele><time>2026-05-02T13:35:43.999Z</time></trkpt><trkpt lat="45.46578988400903" lon="8.666977396333765"><ele>146.66666666666666</ele><time>2026-05-02T13:35:44.999Z</time></trkpt><trkpt lat="45.46567863724082" lon="8.667162297708087"><ele>146.33333333333331</ele><time>2026-05-02T13:35:45.999Z</time></trkpt><trkpt lat="45.46557095995455" lon="8.66734329719704"><ele>146.0</ele><time>2026-05-02T13:35:46.999Z</time></trkpt><trkpt lat="45.4654621977209" lon="8.667531262790783"><ele>146.0</ele><time>2026-05-02T13:35:47.999Z</time></trkpt><trkpt lat="45.465358168577474" lon="8.667733776313234"><ele>146.0</ele><time>2026-05-02T13:35:48.999Z</time></trkpt><trkpt lat="45.465260108746065" lon="8.667963201563605"><ele>146.0</ele><time>2026-05-02T13:35:49.999Z</time></trkpt><trkpt lat="45.46517092984656" lon="8.668211833249932"><ele>146.0</ele><time>2026-05-02T13:35:50.999Z</time></trkpt><trkpt lat="45.465090757764486" lon="8.668480780160236"><ele>146.0</ele><time>2026-05-02T13:35:51.999Z</time></trkpt><trkpt lat="45.46502111332556" lon="8.668769786956624"><ele>146.0</ele><time>2026-05-02T13:35:52.999Z</time></trkpt><trkpt lat="45.46496275422896" lon="8.669065030009927"><ele>146.0</ele><time>2026-05-02T13:35:53.999Z</time></trkpt><trkpt lat="45.464916044491204" lon="8.669348548630683"><ele>146.0</ele><time>2026-05-02T13:35:54.999Z</time></trkpt><trkpt lat="45.464886865404395" lon="8.669617683284818"><ele>146.0</ele><time>2026-05-02T13:35:55.999Z</time></trkpt><trkpt lat="45.46487820299881" lon="8.66990091573645"><ele>145.5</ele><time>2026-05-02T13:35:56.999Z</time></trkpt><trkpt lat="45.46489403391295" lon="8.670447158219542"><ele>145.0</ele><time>2026-05-02T13:35:58.999Z</time></trkpt><trkpt lat="45.464922437441324" lon="8.670707793053463"><ele>145.0</ele><time>2026-05-02T13:35:59.999Z</time></trkpt><trkpt lat="45.464964097703465" lon="8.670985231195452"><ele>145.0</ele><time>2026-05-02T13:36:00.999Z</time></trkpt><trkpt lat="45.46502789591312" lon="8.671278426842129"><ele>145.0</ele><time>2026-05-02T13:36:01.999Z</time></trkpt><trkpt lat="45.465113206739794" lon="8.671590982940357"><ele>145.66666666666669</ele><time>2026-05-02T13:36:02.999Z</time></trkpt><trkpt lat="45.465194997167096" lon="8.671896271319268"><ele>146.33333333333334</ele><time>2026-05-02T13:36:03.999Z</time></trkpt><trkpt lat="45.46525241048207" lon="8.672163169839731"><ele>147.0</ele><time>2026-05-02T13:36:04.999Z</time></trkpt><trkpt lat="45.46529996666129" lon="8.672391387304234"><ele>147.0</ele><time>2026-05-02T13:36:05.999Z</time></trkpt><trkpt lat="45.465346972373126" lon="8.672600818057873"><ele>147.0</ele><time>2026-05-02T13:36:06.999Z</time></trkpt><trkpt lat="45.465397346947576" lon="8.672812382977861"><ele>147.0</ele><time>2026-05-02T13:36:07.999Z</time></trkpt><trkpt lat="45.4654420688464" lon="8.673002683799803"><ele>147.0</ele><time>2026-05-02T13:36:08.999Z</time></trkpt><trkpt lat="45.46547699707008" lon="8.673165432920703"><ele>147.0</ele><time>2026-05-02T13:36:09.999Z</time></trkpt><trkpt lat="45.46550408996504" lon="8.673295020567215"><ele>147.0</ele><time>2026-05-02T13:36:10.999Z</time></trkpt><trkpt lat="45.46552660846035" lon="8.673413261136316"><ele>147.0</ele><time>2026-05-02T13:36:11.999Z</time></trkpt><trkpt lat="45.46554659804837" lon="8.673540378840073"><ele>147.0</ele><time>2026-05-02T13:36:12.999Z</time></trkpt><trkpt lat="45.46559817048872" lon="8.673840942200407"><ele>147.33333333333334</ele><time>2026-05-02T13:36:14.999Z</time></trkpt><trkpt lat="45.46562677873711" lon="8.674021712825683"><ele>147.66666666666669</ele><time>2026-05-02T13:36:15.999Z</time></trkpt><trkpt lat="45.46565138701536" lon="8.674225847112226"><ele>148.0</ele><time>2026-05-02T13:36:16.999Z</time></trkpt><trkpt lat="45.46567814125329" lon="8.674472855446727"><ele>148.0</ele><time>2026-05-02T13:36:17.999Z</time></trkpt><trkpt lat="45.465710301140184" lon="8.674746009033097"><ele>148.0</ele><time>2026-05-02T13:36:18.999Z</time></trkpt><trkpt lat="45.465739808177425" lon="8.675018301865755"><ele>148.0</ele><time>2026-05-02T13:36:19.999Z</time></trkpt><trkpt lat="45.465763346856676" lon="8.675266143638932"><ele>147.66666666666669</ele><time>2026-05-02T13:36:20.999Z</time></trkpt><trkpt lat="45.46578235946248" lon="8.675521503702385"><ele>147.33333333333334</ele><time>2026-05-02T13:36:21.999Z</time></trkpt><trkpt lat="45.465795710624114" lon="8.675777393577011"><ele>147.0</ele><time>2026-05-02T13:36:22.999Z</time></trkpt><trkpt lat="45.46580654985549" lon="8.676024318157124"><ele>147.0</ele><time>2026-05-02T13:36:23.999Z</time></trkpt><trkpt lat="45.46581669003883" lon="8.676273155937668"><ele>147.0</ele><time>2026-05-02T13:36:24.999Z</time></trkpt><trkpt lat="45.46582982570994" lon="8.676537094976222"><ele>147.0</ele><time>2026-05-02T13:36:25.999Z</time></trkpt><trkpt lat="45.46583791006744" lon="8.676800109534552"><ele>146.66666666666666</ele><time>2026-05-02T13:36:26.999Z</time></trkpt><trkpt lat="45.46584173885682" lon="8.677067760558254"><ele>146.33333333333331</ele><time>2026-05-02T13:36:27.999Z</time></trkpt><trkpt lat="45.46584247483193" lon="8.677328991694079"><ele>146.0</ele><time>2026-05-02T13:36:28.999Z</time></trkpt><trkpt lat="45.465847482827535" lon="8.67760038474404"><ele>146.33333333333331</ele><time>2026-05-02T13:36:29.999Z</time></trkpt><trkpt lat="45.46585988275599" lon="8.677878793619698"><ele>146.66666666666666</ele><time>2026-05-02T13:36:30.999Z</time></trkpt><trkpt lat="45.46587169895555" lon="8.678157215677114"><ele>147.0</ele><time>2026-05-02T13:36:31.999Z</time></trkpt><trkpt lat="45.46588117795316" lon="8.678431311176594"><ele>146.66666666666666</ele><time>2026-05-02T13:36:32.999Z</time></trkpt><trkpt lat="45.46588646337626" lon="8.678700890812486"><ele>146.33333333333331</ele><time>2026-05-02T13:36:33.999Z</time></trkpt><trkpt lat="45.46589366086773" lon="8.678963124869195"><ele>146.0</ele><time>2026-05-02T13:36:34.999Z</time></trkpt><trkpt lat="45.46590037175123" lon="8.679229580719856"><ele>146.0</ele><time>2026-05-02T13:36:35.999Z</time></trkpt><trkpt lat="45.46590865454545" lon="8.679484277386864"><ele>146.0</ele><time>2026-05-02T13:36:36.999Z</time></trkpt><trkpt lat="45.46591874595325" lon="8.679742433695887"><ele>146.0</ele><time>2026-05-02T13:36:37.999Z</time></trkpt><trkpt lat="45.46593010703229" lon="8.680002658313553"><ele>146.0</ele><time>2026-05-02T13:36:38.999Z</time></trkpt><trkpt lat="45.465940403378944" lon="8.680237772904432"><ele>146.0</ele><time>2026-05-02T13:36:39.999Z</time></trkpt><trkpt lat="45.46594757836957" lon="8.680459649972718"><ele>146.0</ele><time>2026-05-02T13:36:40.999Z</time></trkpt><trkpt lat="45.46595533728453" lon="8.680670247338233"><ele>146.2</ele><time>2026-05-02T13:36:41.999Z</time></trkpt><trkpt lat="45.46596420496205" lon="8.680862429787812"><ele>146.39999999999998</ele><time>2026-05-02T13:36:42.999Z</time></trkpt><trkpt lat="45.465975886550964" lon="8.681037957974418"><ele>146.6</ele><time>2026-05-02T13:36:43.999Z</time></trkpt><trkpt lat="45.46598472159426" lon="8.681182251304753"><ele>146.79999999999998</ele><time>2026-05-02T13:36:44.999Z</time></trkpt><trkpt lat="45.465990707182215" lon="8.681292677958917"><ele>147.0</ele><time>2026-05-02T13:36:45.999Z</time></trkpt><trkpt lat="45.46599031107029" lon="8.681399905258067"><ele>147.0</ele><time>2026-05-02T13:36:46.999Z</time></trkpt><trkpt lat="45.465982502607474" lon="8.681507219406825"><ele>147.0</ele><time>2026-05-02T13:36:47.999Z</time></trkpt><trkpt lat="45.465962109131986" lon="8.681612197141973"><ele>147.0</ele><time>2026-05-02T13:36:48.999Z</time></trkpt><trkpt lat="45.46591958144008" lon="8.681728785889764"><ele>147.0</ele><time>2026-05-02T13:36:49.999Z</time></trkpt><trkpt lat="45.465857975004425" lon="8.681864849013394"><ele>147.0</ele><time>2026-05-02T13:36:50.999Z</time></trkpt><trkpt lat="45.46578455767303" lon="8.68199568197992"><ele>147.0</ele><time>2026-05-02T13:36:51.999Z</time></trkpt><trkpt lat="45.46571585217559" lon="8.682116166256279"><ele>147.0</ele><time>2026-05-02T13:36:52.999Z</time></trkpt><trkpt lat="45.465668743923395" lon="8.682255384614288"><ele>147.0</ele><time>2026-05-02T13:36:53.999Z</time></trkpt><trkpt lat="45.465650526903715" lon="8.68243761132705"><ele>147.0</ele><time>2026-05-02T13:36:54.999Z</time></trkpt><trkpt lat="45.46566183900698" lon="8.682622674134237"><ele>147.0</ele><time>2026-05-02T13:36:55.999Z</time></trkpt><trkpt lat="45.46568303037583" lon="8.682794967757216"><ele>147.0</ele><time>2026-05-02T13:36:56.999Z</time></trkpt><trkpt lat="45.46571154885056" lon="8.682949654547452"><ele>147.0</ele><time>2026-05-02T13:36:57.999Z</time></trkpt><trkpt lat="45.465751329679904" lon="8.683111619727642"><ele>147.0</ele><time>2026-05-02T13:36:58.999Z</time></trkpt><trkpt lat="45.465859193912266" lon="8.683417362783768"><ele>147.0</ele><time>2026-05-02T13:37:00.999Z</time></trkpt><trkpt lat="45.465948545850395" lon="8.683545048292567"><ele>147.0</ele><time>2026-05-02T13:37:01.999Z</time></trkpt><trkpt lat="45.46604636231607" lon="8.683626987973362"><ele>147.0</ele><time>2026-05-02T13:37:02.999Z</time></trkpt><trkpt lat="45.46611859695586" lon="8.68370927507145"><ele>147.0</ele><time>2026-05-02T13:37:03.999Z</time></trkpt><trkpt lat="45.46624450610973" lon="8.683651609242487"><ele>147.0</ele><time>2026-05-02T13:37:04.999Z</time></trkpt><trkpt lat="45.46633248278173" lon="8.683619070026497"><ele>147.0</ele><time>2026-05-02T13:37:05.999Z</time></trkpt><trkpt lat="45.466410796366254" lon="8.683574803076901"><ele>147.0</ele><time>2026-05-02T13:37:06.999Z</time></trkpt><trkpt lat="45.46648622790646" lon="8.683524626973636"><ele>147.0</ele><time>2026-05-02T13:37:07.999Z</time></trkpt><trkpt lat="45.466566122028865" lon="8.683469564307902"><ele>147.0</ele><time>2026-05-02T13:37:08.999Z</time></trkpt><trkpt lat="45.466656712830364" lon="8.683420434901844"><ele>147.0</ele><time>2026-05-02T13:37:09.999Z</time></trkpt><trkpt lat="45.466762539712846" lon="8.683394566487786"><ele>147.0</ele><time>2026-05-02T13:37:10.999Z</time></trkpt><trkpt lat="45.466873781008495" lon="8.683411285121382"><ele>147.0</ele><time>2026-05-02T13:37:11.999Z</time></trkpt><trkpt lat="45.46699007364306" lon="8.683426015850264"><ele>147.0</ele><time>2026-05-02T13:37:12.999Z</time></trkpt><trkpt lat="45.46707978199132" lon="8.683625311521192"><ele>147.0</ele><time>2026-05-02T13:37:13.999Z</time></trkpt><trkpt lat="45.46718909814102" lon="8.683728761859163"><ele>147.5</ele><time>2026-05-02T13:37:14.999Z</time></trkpt><trkpt lat="45.46728187383734" lon="8.683839967473007"><ele>148.0</ele><time>2026-05-02T13:37:15.999Z</time></trkpt><trkpt lat="45.46738210957645" lon="8.68393975385888"><ele>148.5</ele><time>2026-05-02T13:37:16.999Z</time></trkpt><trkpt lat="45.467488956894584" lon="8.684043344071588"><ele>149.0</ele><time>2026-05-02T13:37:17.999Z</time></trkpt><trkpt lat="45.467597439656636" lon="8.684147211610453"><ele>149.0</ele><time>2026-05-02T13:37:18.999Z</time></trkpt><trkpt lat="45.46770572428348" lon="8.6842601208442"><ele>149.0</ele><time>2026-05-02T13:37:19.999Z</time></trkpt><trkpt lat="45.46781387379566" lon="8.684366332056147"><ele>149.0</ele><time>2026-05-02T13:37:20.999Z</time></trkpt><trkpt lat="45.4679232118119" lon="8.684465967092093"><ele>149.0</ele><time>2026-05-02T13:37:21.999Z</time></trkpt><trkpt lat="45.46803634649121" lon="8.684573626401786"><ele>149.25</ele><time>2026-05-02T13:37:22.999Z</time></trkpt><trkpt lat="45.46814073905787" lon="8.684672852328816"><ele>149.5</ele><time>2026-05-02T13:37:23.999Z</time></trkpt><trkpt lat="45.4682436323376" lon="8.684780593765277"><ele>149.75</ele><time>2026-05-02T13:37:24.999Z</time></trkpt><trkpt lat="45.46834412617567" lon="8.684879708637256"><ele>150.0</ele><time>2026-05-02T13:37:25.999Z</time></trkpt><trkpt lat="45.46844754973605" lon="8.684980595507968"><ele>150.0</ele><time>2026-05-02T13:37:26.999Z</time></trkpt><trkpt lat="45.46855234675311" lon="8.685086594107721"><ele>150.0</ele><time>2026-05-02T13:37:27.999Z</time></trkpt><trkpt lat="45.4686442210988" lon="8.685181344874946"><ele>150.0</ele><time>2026-05-02T13:37:28.999Z</time></trkpt><trkpt lat="45.46873518150028" lon="8.685268980470124"><ele>150.0</ele><time>2026-05-02T13:37:29.999Z</time></trkpt><trkpt lat="45.46881059253824" lon="8.68534790630992"><ele>150.0</ele><time>2026-05-02T13:37:30.999Z</time></trkpt><trkpt lat="45.46889153882628" lon="8.68542519595977"><ele>149.5</ele><time>2026-05-02T13:37:31.999Z</time></trkpt><trkpt lat="45.46896472411154" lon="8.685494684210033"><ele>149.0</ele><time>2026-05-02T13:37:32.999Z</time></trkpt><trkpt lat="45.469018385695044" lon="8.68555772300826"><ele>148.5</ele><time>2026-05-02T13:37:33.999Z</time></trkpt><trkpt lat="45.46906868706646" lon="8.685622001866752"><ele>148.0</ele><time>2026-05-02T13:37:34.999Z</time></trkpt><trkpt lat="45.46911945603425" lon="8.685698176992245"><ele>147.5</ele><time>2026-05-02T13:37:35.999Z</time></trkpt><trkpt lat="45.46915109282976" lon="8.68580956617253"><ele>147.0</ele><time>2026-05-02T13:37:37Z</time></trkpt><trkpt lat="45.469180247202445" lon="8.68593572385098"><ele>147.0</ele><time>2026-05-02T13:37:38Z</time></trkpt><trkpt lat="45.46924602109465" lon="8.686021328287733"><ele>147.0</ele><time>2026-05-02T13:37:39Z</time></trkpt><trkpt lat="45.46932609619677" lon="8.686058358109486"><ele>147.0</ele><time>2026-05-02T13:37:40Z</time></trkpt><trkpt lat="45.46941130337566" lon="8.686077603276917"><ele>147.0</ele><time>2026-05-02T13:37:41Z</time></trkpt><trkpt lat="45.469498303126066" lon="8.686102619471558"><ele>147.0</ele><time>2026-05-02T13:37:42Z</time></trkpt><trkpt lat="45.46958283784473" lon="8.686146493245223"><ele>147.0</ele><time>2026-05-02T13:37:43Z</time></trkpt><trkpt lat="45.469666851687656" lon="8.68621355693193"><ele>147.79999999999998</ele><time>2026-05-02T13:37:44Z</time></trkpt><trkpt lat="45.46976243414206" lon="8.686266466291832"><ele>148.6</ele><time>2026-05-02T13:37:45Z</time></trkpt><trkpt lat="45.46983855329385" lon="8.68636506954202"><ele>149.39999999999998</ele><time>2026-05-02T13:37:46Z</time></trkpt><trkpt lat="45.46992339534661" lon="8.686439668249015"><ele>150.2</ele><time>2026-05-02T13:37:47Z</time></trkpt><trkpt lat="45.470005650900134" lon="8.686514834308198"><ele>151.0</ele><time>2026-05-02T13:37:48Z</time></trkpt><trkpt lat="45.47007446887892" lon="8.68658522760792"><ele>151.0</ele><time>2026-05-02T13:37:49Z</time></trkpt><trkpt lat="45.47013922562727" lon="8.68665272123418"><ele>151.0</ele><time>2026-05-02T13:37:50Z</time></trkpt><trkpt lat="45.470211007673996" lon="8.68672960665316"><ele>151.0</ele><time>2026-05-02T13:37:51Z</time></trkpt><trkpt lat="45.470287539924804" lon="8.686804591583257"><ele>151.0</ele><time>2026-05-02T13:37:52Z</time></trkpt><trkpt lat="45.47036483741412" lon="8.686876371877524"><ele>151.0</ele><time>2026-05-02T13:37:53Z</time></trkpt><trkpt lat="45.47043895072671" lon="8.686946822165547"><ele>151.0</ele><time>2026-05-02T13:37:54Z</time></trkpt><trkpt lat="45.47051059191894" lon="8.687023214170415"><ele>151.2</ele><time>2026-05-02T13:37:55Z</time></trkpt><trkpt lat="45.4705817002698" lon="8.68709650721622"><ele>151.39999999999998</ele><time>2026-05-02T13:37:56Z</time></trkpt><trkpt lat="45.47065640486799" lon="8.687169545737524"><ele>151.6</ele><time>2026-05-02T13:37:57Z</time></trkpt><trkpt lat="45.4707307574566" lon="8.687242217726414"><ele>151.79999999999998</ele><time>2026-05-02T13:37:58Z</time></trkpt><trkpt lat="45.47081330000568" lon="8.687320105159332"><ele>152.0</ele><time>2026-05-02T13:37:59Z</time></trkpt><trkpt lat="45.47090298680026" lon="8.687404305456326"><ele>152.0</ele><time>2026-05-02T13:38:00Z</time></trkpt><trkpt lat="45.47099501550467" lon="8.687491416958714"><ele>152.0</ele><time>2026-05-02T13:38:01Z</time></trkpt><trkpt lat="45.47107947872672" lon="8.68757601442742"><ele>152.0</ele><time>2026-05-02T13:38:02Z</time></trkpt><trkpt lat="45.47116229000463" lon="8.687656860267301"><ele>152.0</ele><time>2026-05-02T13:38:03Z</time></trkpt><trkpt lat="45.47125007829689" lon="8.687738732420199"><ele>152.0</ele><time>2026-05-02T13:38:04Z</time></trkpt><trkpt lat="45.47133451472328" lon="8.687820216817487"><ele>151.79999999999998</ele><time>2026-05-02T13:38:05Z</time></trkpt><trkpt lat="45.47141176233478" lon="8.68789464955582"><ele>151.6</ele><time>2026-05-02T13:38:06Z</time></trkpt><trkpt lat="45.471481970027796" lon="8.687960241102143"><ele>151.39999999999998</ele><time>2026-05-02T13:38:07Z</time></trkpt><trkpt lat="45.471554838872535" lon="8.688030588862372"><ele>151.2</ele><time>2026-05-02T13:38:08Z</time></trkpt><trkpt lat="45.47162925530217" lon="8.68810541433572"><ele>151.0</ele><time>2026-05-02T13:38:09Z</time></trkpt><trkpt lat="45.471704540202595" lon="8.688185814200324"><ele>151.0</ele><time>2026-05-02T13:38:10Z</time></trkpt><trkpt lat="45.47178079406372" lon="8.688264319851985"><ele>151.0</ele><time>2026-05-02T13:38:11Z</time></trkpt><trkpt lat="45.47185753321852" lon="8.6883420056421"><ele>151.0</ele><time>2026-05-02T13:38:12Z</time></trkpt><trkpt lat="45.4719377380107" lon="8.68842200017337"><ele>151.0</ele><time>2026-05-02T13:38:13Z</time></trkpt><trkpt lat="45.47201889245949" lon="8.688498048134496"><ele>151.0</ele><time>2026-05-02T13:38:14Z</time></trkpt><trkpt lat="45.472101575277314" lon="8.688578068614998"><ele>151.2</ele><time>2026-05-02T13:38:15Z</time></trkpt><trkpt lat="45.47218778938189" lon="8.688664878613046"><ele>151.39999999999998</ele><time>2026-05-02T13:38:16Z</time></trkpt><trkpt lat="45.47227657041823" lon="8.688750776412663"><ele>151.6</ele><time>2026-05-02T13:38:17Z</time></trkpt><trkpt lat="45.4723654473443" lon="8.688838462043194"><ele>151.79999999999998</ele><time>2026-05-02T13:38:18Z</time></trkpt><trkpt lat="45.47245395923211" lon="8.688924448934088"><ele>152.0</ele><time>2026-05-02T13:38:19Z</time></trkpt><trkpt lat="45.4725330302522" lon="8.68900310849798"><ele>152.0</ele><time>2026-05-02T13:38:20Z</time></trkpt><trkpt lat="45.472609768158655" lon="8.689078473215277"><ele>152.0</ele><time>2026-05-02T13:38:21Z</time></trkpt><trkpt lat="45.4726893663559" lon="8.689161507518277"><ele>152.0</ele><time>2026-05-02T13:38:22Z</time></trkpt><trkpt lat="45.47277330752731" lon="8.689244103089933"><ele>152.0</ele><time>2026-05-02T13:38:23Z</time></trkpt><trkpt lat="45.472850974296634" lon="8.689325432868046"><ele>152.0</ele><time>2026-05-02T13:38:24Z</time></trkpt><trkpt lat="45.4729304195784" lon="8.68940582346336"><ele>152.2</ele><time>2026-05-02T13:38:25Z</time></trkpt><trkpt lat="45.47300733639517" lon="8.68947921892349"><ele>152.39999999999998</ele><time>2026-05-02T13:38:26Z</time></trkpt><trkpt lat="45.47308490854773" lon="8.689554789375947"><ele>152.60000000000002</ele><time>2026-05-02T13:38:27Z</time></trkpt><trkpt lat="45.47316696583739" lon="8.689633203534672"><ele>152.8</ele><time>2026-05-02T13:38:28Z</time></trkpt><trkpt lat="45.473249040154606" lon="8.68971508453596"><ele>153.0</ele><time>2026-05-02T13:38:29Z</time></trkpt><trkpt lat="45.47333038768496" lon="8.689802138001127"><ele>153.0</ele><time>2026-05-02T13:38:30Z</time></trkpt><trkpt lat="45.47341848384538" lon="8.68989273202855"><ele>153.0</ele><time>2026-05-02T13:38:31Z</time></trkpt><trkpt lat="45.473505385617365" lon="8.689983680111247"><ele>153.0</ele><time>2026-05-02T13:38:32Z</time></trkpt><trkpt lat="45.47359399050262" lon="8.69006860978672"><ele>153.0</ele><time>2026-05-02T13:38:33Z</time></trkpt><trkpt lat="45.47368150252863" lon="8.690153585418193"><ele>153.0</ele><time>2026-05-02T13:38:34Z</time></trkpt><trkpt lat="45.47377137405821" lon="8.690243240102996"><ele>152.25</ele><time>2026-05-02T13:38:35Z</time></trkpt><trkpt lat="45.47386905733884" lon="8.690331675977237"><ele>151.5</ele><time>2026-05-02T13:38:36Z</time></trkpt><trkpt lat="45.473961714048556" lon="8.69042456951475"><ele>150.75</ele><time>2026-05-02T13:38:37Z</time></trkpt><trkpt lat="45.47405507291956" lon="8.690516974564986"><ele>150.0</ele><time>2026-05-02T13:38:37.999Z</time></trkpt><trkpt lat="45.47414886159846" lon="8.690608496260417"><ele>150.0</ele><time>2026-05-02T13:38:38.999Z</time></trkpt><trkpt lat="45.47424631371827" lon="8.69070852912734"><ele>150.0</ele><time>2026-05-02T13:38:39.999Z</time></trkpt><trkpt lat="45.474337179364525" lon="8.690799758498269"><ele>150.0</ele><time>2026-05-02T13:38:40.999Z</time></trkpt><trkpt lat="45.47443039326759" lon="8.690895435601687"><ele>150.0</ele><time>2026-05-02T13:38:41.999Z</time></trkpt><trkpt lat="45.47452903362955" lon="8.690988254692714"><ele>150.2</ele><time>2026-05-02T13:38:42.999Z</time></trkpt><trkpt lat="45.474621801109734" lon="8.691077436109591"><ele>150.4</ele><time>2026-05-02T13:38:43.999Z</time></trkpt><trkpt lat="45.474709327064204" lon="8.691167951484653"><ele>150.6</ele><time>2026-05-02T13:38:44.999Z</time></trkpt><trkpt lat="45.47479962704919" lon="8.691259816362948"><ele>150.8</ele><time>2026-05-02T13:38:45.999Z</time></trkpt><trkpt lat="45.47488591532702" lon="8.691344515077777"><ele>151.0</ele><time>2026-05-02T13:38:46.999Z</time></trkpt><trkpt lat="45.474969406104265" lon="8.691428476351064"><ele>151.0</ele><time>2026-05-02T13:38:47.999Z</time></trkpt><trkpt lat="45.47505604283823" lon="8.691509125712725"><ele>151.0</ele><time>2026-05-02T13:38:48.999Z</time></trkpt><trkpt lat="45.47513992377853" lon="8.69158673339536"><ele>151.0</ele><time>2026-05-02T13:38:49.999Z</time></trkpt><trkpt lat="45.47522056797869" lon="8.691662567991251"><ele>151.0</ele><time>2026-05-02T13:38:50.999Z</time></trkpt><trkpt lat="45.47529782134917" lon="8.691738276152368"><ele>151.0</ele><time>2026-05-02T13:38:51.999Z</time></trkpt><trkpt lat="45.47536693326634" lon="8.691814674498369"><ele>151.0</ele><time>2026-05-02T13:38:52.999Z</time></trkpt><trkpt lat="45.47542916794603" lon="8.69189282355528"><ele>151.0</ele><time>2026-05-02T13:38:53.999Z</time></trkpt><trkpt lat="45.475481484221696" lon="8.691976308276459"><ele>151.0</ele><time>2026-05-02T13:38:54.999Z</time></trkpt><trkpt lat="45.47551428403019" lon="8.692065306849742"><ele>151.0</ele><time>2026-05-02T13:38:55.999Z</time></trkpt><trkpt lat="45.475535302371284" lon="8.692162495454154"><ele>151.0</ele><time>2026-05-02T13:38:56.999Z</time></trkpt><trkpt lat="45.475537911325354" lon="8.692263385045754"><ele>151.0</ele><time>2026-05-02T13:38:57.999Z</time></trkpt><trkpt lat="45.47552935567421" lon="8.692378397700775"><ele>151.6</ele><time>2026-05-02T13:38:58.999Z</time></trkpt><trkpt lat="45.47551109530179" lon="8.692528164562974"><ele>152.2</ele><time>2026-05-02T13:39:00.999Z</time></trkpt><trkpt lat="45.4754867351688" lon="8.692666590136785"><ele>152.8</ele><time>2026-05-02T13:39:02.999Z</time></trkpt><trkpt lat="45.47543843968473" lon="8.692742303123818"><ele>153.4</ele><time>2026-05-02T13:39:04.999Z</time></trkpt><trkpt lat="45.47548053508574" lon="8.692649874037578"><ele>154.0</ele><time>2026-05-02T13:39:11Z</time></trkpt><trkpt lat="45.47550953301954" lon="8.692518189842497"><ele>154.0</ele><time>2026-05-02T13:39:13Z</time></trkpt><trkpt lat="45.47564867581843" lon="8.692514844788763"><ele>154.0</ele><time>2026-05-02T13:39:14Z</time></trkpt><trkpt lat="45.4757246034918" lon="8.692495798894443"><ele>154.0</ele><time>2026-05-02T13:39:15Z</time></trkpt><trkpt lat="45.47582459460138" lon="8.692485523488472"><ele>154.0</ele><time>2026-05-02T13:39:16Z</time></trkpt><trkpt lat="45.47591874665812" lon="8.692459539659692"><ele>154.0</ele><time>2026-05-02T13:39:17Z</time></trkpt><trkpt lat="45.47600260872474" lon="8.692434632886211"><ele>154.0</ele><time>2026-05-02T13:39:18Z</time></trkpt><trkpt lat="45.476078838205105" lon="8.692414004032432"><ele>154.0</ele><time>2026-05-02T13:39:19Z</time></trkpt><trkpt lat="45.476143771478526" lon="8.692387078964916"><ele>154.0</ele><time>2026-05-02T13:39:20Z</time></trkpt><trkpt lat="45.47620818723619" lon="8.692352201860468"><ele>154.0</ele><time>2026-05-02T13:39:21Z</time></trkpt><trkpt lat="45.47632176653424" lon="8.692315103278796"><ele>154.0</ele><time>2026-05-02T13:39:23Z</time></trkpt><trkpt lat="45.476386289668035" lon="8.692292523442473"><ele>154.0</ele><time>2026-05-02T13:39:24Z</time></trkpt><trkpt lat="45.47646216480345" lon="8.692269308238977"><ele>153.83333333333334</ele><time>2026-05-02T13:39:25Z</time></trkpt><trkpt lat="45.47652693284622" lon="8.692246963913828"><ele>153.66666666666669</ele><time>2026-05-02T13:39:26Z</time></trkpt><trkpt lat="45.4766160746635" lon="8.692226056768083"><ele>153.5</ele><time>2026-05-02T13:39:28Z</time></trkpt><trkpt lat="45.47671005245461" lon="8.69219776525995"><ele>153.33333333333334</ele><time>2026-05-02T13:39:30Z</time></trkpt><trkpt lat="45.476778486296574" lon="8.69217310690592"><ele>153.16666666666666</ele><time>2026-05-02T13:39:31Z</time></trkpt><trkpt lat="45.47685517082893" lon="8.692148952682672"><ele>153.0</ele><time>2026-05-02T13:39:32Z</time></trkpt><trkpt lat="45.476938801732445" lon="8.69212807053649"><ele>153.0</ele><time>2026-05-02T13:39:33Z</time></trkpt><trkpt lat="45.47702401211071" lon="8.692096074614975"><ele>153.0</ele><time>2026-05-02T13:39:34Z</time></trkpt><trkpt lat="45.47715464585436" lon="8.692056210230255"><ele>153.0</ele><time>2026-05-02T13:39:35Z</time></trkpt><trkpt lat="45.47731480960391" lon="8.692006340815425"><ele>153.0</ele><time>2026-05-02T13:39:36Z</time></trkpt><trkpt lat="45.47746355854762" lon="8.691965203184088"><ele>153.0</ele><time>2026-05-02T13:39:37Z</time></trkpt><trkpt lat="45.47757905850353" lon="8.6919289722828"><ele>153.0</ele><time>2026-05-02T13:39:38Z</time></trkpt><trkpt lat="45.4776706548131" lon="8.691902640198494"><ele>153.0</ele><time>2026-05-02T13:39:39Z</time></trkpt><trkpt lat="45.47774440424117" lon="8.691885677541356"><ele>153.0</ele><time>2026-05-02T13:39:40Z</time></trkpt><trkpt lat="45.4778265769132" lon="8.691853086088148"><ele>153.0</ele><time>2026-05-02T13:39:41Z</time></trkpt><trkpt lat="45.477895482483376" lon="8.691837507473165"><ele>153.0</ele><time>2026-05-02T13:39:42Z</time></trkpt><trkpt lat="45.477962454914305" lon="8.69186556450369"><ele>153.5</ele><time>2026-05-02T13:39:43Z</time></trkpt><trkpt lat="45.4780886345795" lon="8.692049781372646"><ele>154.0</ele><time>2026-05-02T13:39:45Z</time></trkpt><trkpt lat="45.478128658029306" lon="8.692206018392387"><ele>154.5</ele><time>2026-05-02T13:39:46Z</time></trkpt><trkpt lat="45.4781654358332" lon="8.692393802474001"><ele>155.0</ele><time>2026-05-02T13:39:47Z</time></trkpt><trkpt lat="45.478205879857605" lon="8.692564342492838"><ele>155.0</ele><time>2026-05-02T13:39:48Z</time></trkpt><trkpt lat="45.47824397027986" lon="8.692729041170791"><ele>155.0</ele><time>2026-05-02T13:39:49Z</time></trkpt><trkpt lat="45.478285685306666" lon="8.692878255025827"><ele>155.0</ele><time>2026-05-02T13:39:50Z</time></trkpt><trkpt lat="45.47832360767728" lon="8.693022676131672"><ele>155.0</ele><time>2026-05-02T13:39:51Z</time></trkpt><trkpt lat="45.47835669225618" lon="8.693147786977068"><ele>155.0</ele><time>2026-05-02T13:39:52Z</time></trkpt><trkpt lat="45.47840431098606" lon="8.69324323599395"><ele>155.16666666666666</ele><time>2026-05-02T13:39:53Z</time></trkpt><trkpt lat="45.478454130667515" lon="8.693310786747265"><ele>155.33333333333331</ele><time>2026-05-02T13:39:54Z</time></trkpt><trkpt lat="45.478515962475846" lon="8.69334857033974"><ele>155.5</ele><time>2026-05-02T13:39:55Z</time></trkpt><trkpt lat="45.47858334283652" lon="8.693355667372725"><ele>155.66666666666666</ele><time>2026-05-02T13:39:56Z</time></trkpt><trkpt lat="45.478660256887345" lon="8.693316304889938"><ele>155.83333333333334</ele><time>2026-05-02T13:39:57Z</time></trkpt><trkpt lat="45.47874646263717" lon="8.693231993262343"><ele>156.0</ele><time>2026-05-02T13:39:58Z</time></trkpt><trkpt lat="45.47884555844245" lon="8.693122438007297"><ele>155.8</ele><time>2026-05-02T13:39:59Z</time></trkpt><trkpt lat="45.47892738153164" lon="8.69301735989901"><ele>155.6</ele><time>2026-05-02T13:40:00Z</time></trkpt><trkpt lat="45.47901577150863" lon="8.69292683901158"><ele>155.4</ele><time>2026-05-02T13:40:01Z</time></trkpt><trkpt lat="45.47907354124131" lon="8.692799417289152"><ele>155.2</ele><time>2026-05-02T13:40:02Z</time></trkpt><trkpt lat="45.47913342414443" lon="8.692682406230709"><ele>155.0</ele><time>2026-05-02T13:40:03Z</time></trkpt><trkpt lat="45.479188311526606" lon="8.692571943410934"><ele>155.0</ele><time>2026-05-02T13:40:04Z</time></trkpt><trkpt lat="45.479252555144214" lon="8.692465290926785"><ele>155.0</ele><time>2026-05-02T13:40:05Z</time></trkpt><trkpt lat="45.479326030473814" lon="8.692386074987667"><ele>155.0</ele><time>2026-05-02T13:40:06Z</time></trkpt><trkpt lat="45.47937485589384" lon="8.692277105962372"><ele>155.0</ele><time>2026-05-02T13:40:07Z</time></trkpt><trkpt lat="45.47943187467929" lon="8.69218650107203"><ele>155.0</ele><time>2026-05-02T13:40:08Z</time></trkpt><trkpt lat="45.479483681457744" lon="8.692094313600938"><ele>155.0</ele><time>2026-05-02T13:40:09Z</time></trkpt><trkpt lat="45.47954779677695" lon="8.692021866302921"><ele>155.0</ele><time>2026-05-02T13:40:10Z</time></trkpt><trkpt lat="45.47960122769666" lon="8.691939345960956"><ele>155.0</ele><time>2026-05-02T13:40:11Z</time></trkpt><trkpt lat="45.47965466486489" lon="8.691861827810534"><ele>155.0</ele><time>2026-05-02T13:40:12Z</time></trkpt><trkpt lat="45.47970724728354" lon="8.691786222819854"><ele>155.0</ele><time>2026-05-02T13:40:13Z</time></trkpt><trkpt lat="45.47975631547541" lon="8.691713190378458"><ele>155.0</ele><time>2026-05-02T13:40:14Z</time></trkpt><trkpt lat="45.479804374541" lon="8.691640360167883"><ele>155.2</ele><time>2026-05-02T13:40:15Z</time></trkpt><trkpt lat="45.47983867668518" lon="8.691555501418158"><ele>155.4</ele><time>2026-05-02T13:40:16Z</time></trkpt><trkpt lat="45.479894450459945" lon="8.691501521343806"><ele>155.6</ele><time>2026-05-02T13:40:17Z</time></trkpt><trkpt lat="45.47997687625726" lon="8.691374419416931"><ele>155.8</ele><time>2026-05-02T13:40:19Z</time></trkpt><trkpt lat="45.48005120044022" lon="8.691256641921562"><ele>156.0</ele><time>2026-05-02T13:40:21Z</time></trkpt><trkpt lat="45.48011044580972" lon="8.691129178074325"><ele>156.0</ele><time>2026-05-02T13:40:23Z</time></trkpt><trkpt lat="45.48017698344602" lon="8.69102604673219"><ele>156.0</ele><time>2026-05-02T13:40:25Z</time></trkpt><trkpt lat="45.480240011548474" lon="8.690943613419673"><ele>156.0</ele><time>2026-05-02T13:40:27Z</time></trkpt><trkpt lat="45.480289758260454" lon="8.690884489809616"><ele>156.0</ele><time>2026-05-02T13:40:53Z</time></trkpt><trkpt lat="45.48036445300709" lon="8.690770298802175"><ele>156.0</ele><time>2026-05-02T13:40:57Z</time></trkpt><trkpt lat="45.48041954188543" lon="8.690686080614915"><ele>156.0</ele><time>2026-05-02T13:44:30.001Z</time></trkpt><trkpt lat="45.4804737116626" lon="8.690603267545173"><ele>156.2</ele><time>2026-05-02T13:44:32.001Z</time></trkpt><trkpt lat="45.48055098068007" lon="8.69048382099318"><ele>156.39999999999998</ele><time>2026-05-02T13:44:34.001Z</time></trkpt><trkpt lat="45.48060591564328" lon="8.690398667543347"><ele>156.6</ele><time>2026-05-02T13:44:36.001Z</time></trkpt><trkpt lat="45.48066982734952" lon="8.690297288652651"><ele>156.79999999999998</ele><time>2026-05-02T13:44:38.001Z</time></trkpt><trkpt lat="45.48073729925059" lon="8.690189768335419"><ele>157.0</ele><time>2026-05-02T13:44:40.001Z</time></trkpt><trkpt lat="45.48079616698494" lon="8.690095608361107"><ele>156.66666666666669</ele><time>2026-05-02T13:44:42.001Z</time></trkpt><trkpt lat="45.4808578405509" lon="8.689995408668917"><ele>156.33333333333334</ele><time>2026-05-02T13:44:44.001Z</time></trkpt><trkpt lat="45.48095019364709" lon="8.689846068910926"><ele>156.0</ele><time>2026-05-02T13:44:46.001Z</time></trkpt><trkpt lat="45.48099614178794" lon="8.689771860343564"><ele>155.66666666666666</ele><time>2026-05-02T13:44:47.001Z</time></trkpt><trkpt lat="45.48104403541086" lon="8.68969446773884"><ele>155.33333333333331</ele><time>2026-05-02T13:44:48.001Z</time></trkpt><trkpt lat="45.48109254115059" lon="8.68961608595426"><ele>155.0</ele><time>2026-05-02T13:44:49.001Z</time></trkpt><trkpt lat="45.481135189275314" lon="8.689548149517904"><ele>155.0</ele><time>2026-05-02T13:44:50.001Z</time></trkpt><trkpt lat="45.481218322666635" lon="8.689417952256179"><ele>155.0</ele><time>2026-05-02T13:44:52.001Z</time></trkpt><trkpt lat="45.48126315387794" lon="8.689347740798103"><ele>155.0</ele><time>2026-05-02T13:44:53.001Z</time></trkpt><trkpt lat="45.4813062306678" lon="8.689280277190793"><ele>155.0</ele><time>2026-05-02T13:44:54.001Z</time></trkpt><trkpt lat="45.481363649771005" lon="8.689190351680395"><ele>155.0</ele><time>2026-05-02T13:44:56.001Z</time></trkpt><trkpt lat="45.48141062190239" lon="8.689116785271242"><ele>155.0</ele><time>2026-05-02T13:45:00.001Z</time></trkpt><trkpt lat="45.481464158340195" lon="8.689030848859193"><ele>154.83333333333331</ele><time>2026-05-02T13:45:04.001Z</time></trkpt><trkpt lat="45.48150905065049" lon="8.688959221391453"><ele>154.66666666666666</ele><time>2026-05-02T13:45:06.001Z</time></trkpt><trkpt lat="45.481569670284756" lon="8.688863182058915"><ele>154.5</ele><time>2026-05-02T13:45:08.001Z</time></trkpt><trkpt lat="45.48162933269883" lon="8.68877093808628"><ele>154.33333333333334</ele><time>2026-05-02T13:45:10.001Z</time></trkpt><trkpt lat="45.48168628369684" lon="8.68868375688877"><ele>154.16666666666669</ele><time>2026-05-02T13:45:12.001Z</time></trkpt><trkpt lat="45.481737352994685" lon="8.688605585718213"><ele>154.0</ele><time>2026-05-02T13:45:14.001Z</time></trkpt><trkpt lat="45.481806476161005" lon="8.688728556483795"><ele>154.0</ele><time>2026-05-02T13:45:19.001Z</time></trkpt><trkpt lat="45.481834667637415" lon="8.688818655620791"><ele>154.0</ele><time>2026-05-02T13:45:20.001Z</time></trkpt><trkpt lat="45.481860507150664" lon="8.68892734494955"><ele>154.0</ele><time>2026-05-02T13:45:21.001Z</time></trkpt><trkpt lat="45.481890724201605" lon="8.689049410690963"><ele>154.0</ele><time>2026-05-02T13:45:22.001Z</time></trkpt><trkpt lat="45.48192183517917" lon="8.689164467612482"><ele>154.0</ele><time>2026-05-02T13:45:23.001Z</time></trkpt><trkpt lat="45.481942661528" lon="8.689275108857858"><ele>154.0</ele><time>2026-05-02T13:45:24.001Z</time></trkpt><trkpt lat="45.48196067678059" lon="8.68939266272767"><ele>154.0</ele><time>2026-05-02T13:45:25.001Z</time></trkpt><trkpt lat="45.48199136409962" lon="8.68951182726033"><ele>154.0</ele><time>2026-05-02T13:45:26.001Z</time></trkpt><trkpt lat="45.48202513566689" lon="8.689630835437965"><ele>154.0</ele><time>2026-05-02T13:45:27.001Z</time></trkpt><trkpt lat="45.48205454242931" lon="8.6897305987075"><ele>154.0</ele><time>2026-05-02T13:45:28.001Z</time></trkpt><trkpt lat="45.48206709064274" lon="8.689832126826705"><ele>154.0</ele><time>2026-05-02T13:45:29.001Z</time></trkpt><trkpt lat="45.482089625124146" lon="8.689930195862125"><ele>154.0</ele><time>2026-05-02T13:45:30.001Z</time></trkpt><trkpt lat="45.48211112493552" lon="8.690023761913164"><ele>154.0</ele><time>2026-05-02T13:45:31.001Z</time></trkpt><trkpt lat="45.48213186779655" lon="8.690114033782537"><ele>154.0</ele><time>2026-05-02T13:45:32.001Z</time></trkpt><trkpt lat="45.482165772669475" lon="8.690191769030703"><ele>154.0</ele><time>2026-05-02T13:45:33.001Z</time></trkpt><trkpt lat="45.482202153180324" lon="8.690347547259114"><ele>154.0</ele><time>2026-05-02T13:45:35.001Z</time></trkpt><trkpt lat="45.482239443727444" lon="8.690520687469359"><ele>154.0</ele><time>2026-05-02T13:45:37.001Z</time></trkpt><trkpt lat="45.48226355290532" lon="8.690607186526139"><ele>154.0</ele><time>2026-05-02T13:45:38.001Z</time></trkpt><trkpt lat="45.48228715431424" lon="8.690704240164264"><ele>153.83333333333334</ele><time>2026-05-02T13:45:39.001Z</time></trkpt><trkpt lat="45.48230015960321" lon="8.690795251377306"><ele>153.66666666666669</ele><time>2026-05-02T13:45:40.001Z</time></trkpt><trkpt lat="45.48232118922984" lon="8.69088341720366"><ele>153.5</ele><time>2026-05-02T13:45:41.001Z</time></trkpt><trkpt lat="45.48234070915008" lon="8.690969701422505"><ele>153.33333333333334</ele><time>2026-05-02T13:45:42.001Z</time></trkpt><trkpt lat="45.48238403354187" lon="8.691116614570348"><ele>153.16666666666666</ele><time>2026-05-02T13:45:44.001Z</time></trkpt><trkpt lat="45.482393338782806" lon="8.691210104140863"><ele>153.0</ele><time>2026-05-02T13:45:47.001Z</time></trkpt><trkpt lat="45.48256273014825" lon="8.691128747628198"><ele>153.0</ele><time>2026-05-02T13:45:49.001Z</time></trkpt><trkpt lat="45.48268803449478" lon="8.691079575022172"><ele>153.0</ele><time>2026-05-02T13:45:51.001Z</time></trkpt><trkpt lat="45.48276262401009" lon="8.691038387446719"><ele>153.0</ele><time>2026-05-02T13:45:52.001Z</time></trkpt><trkpt lat="45.48284560385993" lon="8.69099256682699"><ele>153.0</ele><time>2026-05-02T13:45:53.001Z</time></trkpt><trkpt lat="45.482926818532064" lon="8.690947720948792"><ele>153.0</ele><time>2026-05-02T13:45:54.001Z</time></trkpt><trkpt lat="45.483001252458" lon="8.690907016434663"><ele>152.6</ele><time>2026-05-02T13:45:55.001Z</time></trkpt><trkpt lat="45.48308385709063" lon="8.690862645779218"><ele>152.20000000000002</ele><time>2026-05-02T13:45:56.001Z</time></trkpt><trkpt lat="45.483165268636164" lon="8.690818915984952"><ele>151.8</ele><time>2026-05-02T13:45:57.001Z</time></trkpt><trkpt lat="45.4832493575637" lon="8.690773748038815"><ele>151.4</ele><time>2026-05-02T13:45:58.001Z</time></trkpt><trkpt lat="45.48333728691876" lon="8.690728927943885"><ele>151.0</ele><time>2026-05-02T13:45:59.001Z</time></trkpt><trkpt lat="45.48343198938733" lon="8.690683793915795"><ele>151.0</ele><time>2026-05-02T13:46:00.001Z</time></trkpt><trkpt lat="45.48352333539091" lon="8.690644899033092"><ele>151.0</ele><time>2026-05-02T13:46:01.001Z</time></trkpt><trkpt lat="45.48360614730802" lon="8.690610469968522"><ele>151.0</ele><time>2026-05-02T13:46:02.001Z</time></trkpt><trkpt lat="45.483689485343454" lon="8.69057464239232"><ele>151.0</ele><time>2026-05-02T13:46:03.001Z</time></trkpt><trkpt lat="45.483769108103445" lon="8.690531899609892"><ele>151.0</ele><time>2026-05-02T13:46:04.001Z</time></trkpt><trkpt lat="45.48384679780299" lon="8.690482921630197"><ele>151.0</ele><time>2026-05-02T13:46:05.001Z</time></trkpt><trkpt lat="45.48392127177347" lon="8.690430812198562"><ele>151.33333333333334</ele><time>2026-05-02T13:46:06.001Z</time></trkpt><trkpt lat="45.48398587312621" lon="8.690361473930977"><ele>151.66666666666669</ele><time>2026-05-02T13:46:07.001Z</time></trkpt><trkpt lat="45.484031736267845" lon="8.69028933349173"><ele>152.0</ele><time>2026-05-02T13:46:08.001Z</time></trkpt><trkpt lat="45.48411634016108" lon="8.690221365128362"><ele>152.33333333333334</ele><time>2026-05-02T13:46:10.001Z</time></trkpt><trkpt lat="45.48418273615379" lon="8.690291937744906"><ele>152.66666666666666</ele><time>2026-05-02T13:48:32Z</time></trkpt><trkpt lat="45.484206304408154" lon="8.690408521439396"><ele>153.0</ele><time>2026-05-02T13:48:34Z</time></trkpt><trkpt lat="45.4842422365963" lon="8.690538477729456"><ele>153.16666666666666</ele><time>2026-05-02T13:48:35Z</time></trkpt><trkpt lat="45.48428364122049" lon="8.690685893421437"><ele>153.33333333333334</ele><time>2026-05-02T13:48:36Z</time></trkpt><trkpt lat="45.48430676171483" lon="8.690784079197558"><ele>153.5</ele><time>2026-05-02T13:48:37Z</time></trkpt><trkpt lat="45.48433430347113" lon="8.690882397760145"><ele>153.66666666666669</ele><time>2026-05-02T13:48:39Z</time></trkpt><trkpt lat="45.48435820372329" lon="8.690988962589305"><ele>153.83333333333334</ele><time>2026-05-02T13:48:43Z</time></trkpt><trkpt lat="45.48438461542982" lon="8.691094126385964"><ele>154.0</ele><time>2026-05-02T13:48:46Z</time></trkpt><trkpt lat="45.48440808881611" lon="8.691183797505097"><ele>154.0</ele><time>2026-05-02T13:48:48Z</time></trkpt><trkpt lat="45.48442990219022" lon="8.691303665488867"><ele>154.0</ele><time>2026-05-02T13:48:51Z</time></trkpt><trkpt lat="45.484463529526785" lon="8.691437820440301"><ele>154.0</ele><time>2026-05-02T13:48:53Z</time></trkpt><trkpt lat="45.48450296102073" lon="8.691580585208847"><ele>154.0</ele><time>2026-05-02T13:48:55Z</time></trkpt><trkpt lat="45.48452832180585" lon="8.691740872883218"><ele>154.0</ele><time>2026-05-02T13:48:57Z</time></trkpt><trkpt lat="45.484583149781706" lon="8.691899473398458"><ele>154.2</ele><time>2026-05-02T13:48:59Z</time></trkpt><trkpt lat="45.484631809548084" lon="8.692118098365803"><ele>154.4</ele><time>2026-05-02T13:49:01Z</time></trkpt><trkpt lat="45.48464437288218" lon="8.692226288696496"><ele>154.6</ele><time>2026-05-02T13:49:02Z</time></trkpt><trkpt lat="45.48467447724239" lon="8.692362031097675"><ele>154.8</ele><time>2026-05-02T13:49:04Z</time></trkpt><trkpt lat="45.484695024019835" lon="8.692511083480177"><ele>155.0</ele><time>2026-05-02T13:49:06Z</time></trkpt><trkpt lat="45.48474399888871" lon="8.692662347519077"><ele>154.8</ele><time>2026-05-02T13:49:08Z</time></trkpt><trkpt lat="45.484777087156765" lon="8.692833462365044"><ele>154.6</ele><time>2026-05-02T13:49:10Z</time></trkpt><trkpt lat="45.48480332704375" lon="8.692972737052427"><ele>154.4</ele><time>2026-05-02T13:49:12Z</time></trkpt><trkpt lat="45.48485000169949" lon="8.693099682079499"><ele>154.2</ele><time>2026-05-02T13:49:15Z</time></trkpt><trkpt lat="45.48496438894113" lon="8.693069020507686"><ele>154.0</ele><time>2026-05-02T13:49:17Z</time></trkpt><trkpt lat="45.48503734098265" lon="8.693051507568862"><ele>154.0</ele><time>2026-05-02T13:49:18Z</time></trkpt><trkpt lat="45.485109492845076" lon="8.693037621622025"><ele>154.0</ele><time>2026-05-02T13:49:19Z</time></trkpt><trkpt lat="45.485191265088574" lon="8.69302377778063"><ele>154.0</ele><time>2026-05-02T13:49:20Z</time></trkpt><trkpt lat="45.4852567522092" lon="8.693038746189291"><ele>154.0</ele><time>2026-05-02T13:49:21Z</time></trkpt><trkpt lat="45.48534736000817" lon="8.693016875443828"><ele>154.0</ele><time>2026-05-02T13:49:22Z</time></trkpt><trkpt lat="45.48544695359112" lon="8.692984601234649"><ele>154.0</ele><time>2026-05-02T13:49:23Z</time></trkpt><trkpt lat="45.48554337915621" lon="8.692950322148873"><ele>154.0</ele><time>2026-05-02T13:49:24Z</time></trkpt><trkpt lat="45.48562976222462" lon="8.692902889112666"><ele>154.0</ele><time>2026-05-02T13:49:25Z</time></trkpt><trkpt lat="45.48571731258205" lon="8.692861910817555"><ele>154.0</ele><time>2026-05-02T13:49:26Z</time></trkpt><trkpt lat="45.48579526831958" lon="8.69283130856198"><ele>154.0</ele><time>2026-05-02T13:49:27Z</time></trkpt><trkpt lat="45.485862438521984" lon="8.692796648699563"><ele>154.0</ele><time>2026-05-02T13:49:28Z</time></trkpt><trkpt lat="45.48593563736254" lon="8.692764293823894"><ele>154.0</ele><time>2026-05-02T13:49:29Z</time></trkpt><trkpt lat="45.486009888570884" lon="8.692733168282647"><ele>154.2</ele><time>2026-05-02T13:49:30Z</time></trkpt><trkpt lat="45.486094252416706" lon="8.692695224321469"><ele>154.4</ele><time>2026-05-02T13:49:31Z</time></trkpt><trkpt lat="45.48618395054667" lon="8.69267988143508"><ele>154.6</ele><time>2026-05-02T13:49:32Z</time></trkpt><trkpt lat="45.486259821718896" lon="8.692627738399356"><ele>154.8</ele><time>2026-05-02T13:49:33Z</time></trkpt><trkpt lat="45.48633421334588" lon="8.692592435520549"><ele>155.0</ele><time>2026-05-02T13:49:34Z</time></trkpt><trkpt lat="45.48644221819863" lon="8.692547693963032"><ele>155.0</ele><time>2026-05-02T13:49:36Z</time></trkpt><trkpt lat="45.486550988894614" lon="8.692497021496507"><ele>155.0</ele><time>2026-05-02T13:49:38Z</time></trkpt><trkpt lat="45.48661626146582" lon="8.692467402934279"><ele>155.0</ele><time>2026-05-02T13:49:39Z</time></trkpt><trkpt lat="45.48668600561847" lon="8.692434912558799"><ele>155.0</ele><time>2026-05-02T13:49:40Z</time></trkpt><trkpt lat="45.4867601315089" lon="8.692427712055782"><ele>155.0</ele><time>2026-05-02T13:49:41Z</time></trkpt><trkpt lat="45.486869073562595" lon="8.692348317189602"><ele>155.0</ele><time>2026-05-02T13:49:43Z</time></trkpt><trkpt lat="45.486971756529215" lon="8.692280804517083"><ele>155.0</ele><time>2026-05-02T13:49:45Z</time></trkpt><trkpt lat="45.487061723122" lon="8.692184121630973"><ele>155.0</ele><time>2026-05-02T13:49:47Z</time></trkpt><trkpt lat="45.487139779614616" lon="8.692084927889706"><ele>155.0</ele><time>2026-05-02T13:49:49Z</time></trkpt><trkpt lat="45.48720842008429" lon="8.692109771148361"><ele>155.0</ele><time>2026-05-02T13:49:50Z</time></trkpt><trkpt lat="45.487278865719354" lon="8.692130123259474"><ele>155.0</ele><time>2026-05-02T13:49:51Z</time></trkpt><trkpt lat="45.487352929411614" lon="8.692139263567775"><ele>155.0</ele><time>2026-05-02T13:49:52Z</time></trkpt><trkpt lat="45.487459426259264" lon="8.692122654476137"><ele>155.0</ele><time>2026-05-02T13:49:54Z</time></trkpt><trkpt lat="45.487529362657405" lon="8.692093838211525"><ele>155.0</ele><time>2026-05-02T13:49:55Z</time></trkpt><trkpt lat="45.48761261048231" lon="8.692049249191212"><ele>155.0</ele><time>2026-05-02T13:49:56Z</time></trkpt><trkpt lat="45.48769304054818" lon="8.69199734008257"><ele>155.0</ele><time>2026-05-02T13:49:57Z</time></trkpt><trkpt lat="45.487765974080766" lon="8.691946446506119"><ele>154.83333333333331</ele><time>2026-05-02T13:49:58Z</time></trkpt><trkpt lat="45.48784139135928" lon="8.69189527209313"><ele>154.66666666666666</ele><time>2026-05-02T13:49:59Z</time></trkpt><trkpt lat="45.48792985089375" lon="8.691841732511422"><ele>154.5</ele><time>2026-05-02T13:50:00Z</time></trkpt><trkpt lat="45.488002173599796" lon="8.6917991099727"><ele>154.33333333333334</ele><time>2026-05-02T13:50:01Z</time></trkpt><trkpt lat="45.48808243496655" lon="8.691755194418894"><ele>154.16666666666669</ele><time>2026-05-02T13:50:02Z</time></trkpt><trkpt lat="45.48816550367575" lon="8.691709628155493"><ele>154.0</ele><time>2026-05-02T13:50:03Z</time></trkpt><trkpt lat="45.48824506612769" lon="8.691665758495384"><ele>154.75</ele><time>2026-05-02T13:50:04Z</time></trkpt><trkpt lat="45.48834257798421" lon="8.691611991797798"><ele>155.5</ele><time>2026-05-02T13:50:05Z</time></trkpt><trkpt lat="45.48846934246375" lon="8.69154209561168"><ele>156.25</ele><time>2026-05-02T13:50:06Z</time></trkpt><trkpt lat="45.488597591954395" lon="8.691471291160324"><ele>157.0</ele><time>2026-05-02T13:50:07Z</time></trkpt><trkpt lat="45.48870557835406" lon="8.691411511853385"><ele>157.0</ele><time>2026-05-02T13:50:08Z</time></trkpt><trkpt lat="45.488804301714644" lon="8.691356860514858"><ele>157.0</ele><time>2026-05-02T13:50:09Z</time></trkpt><trkpt lat="45.48889707921345" lon="8.691305500613227"><ele>157.0</ele><time>2026-05-02T13:50:10Z</time></trkpt><trkpt lat="45.48898378518655" lon="8.69125615718917"><ele>157.0</ele><time>2026-05-02T13:50:11Z</time></trkpt><trkpt lat="45.48907909110366" lon="8.691199050249484"><ele>157.0</ele><time>2026-05-02T13:50:12Z</time></trkpt><trkpt lat="45.489181047055745" lon="8.691136770373426"><ele>157.0</ele><time>2026-05-02T13:50:13Z</time></trkpt><trkpt lat="45.489289795780245" lon="8.69108322736358"><ele>157.0</ele><time>2026-05-02T13:50:14Z</time></trkpt><trkpt lat="45.48937813469914" lon="8.691045162921034"><ele>157.0</ele><time>2026-05-02T13:50:15Z</time></trkpt><trkpt lat="45.48945799753203" lon="8.69099195569187"><ele>157.0</ele><time>2026-05-02T13:50:16Z</time></trkpt><trkpt lat="45.48953892715636" lon="8.690961305432333"><ele>157.0</ele><time>2026-05-02T13:50:17Z</time></trkpt><trkpt lat="45.48961878936847" lon="8.690930506174968"><ele>156.83333333333334</ele><time>2026-05-02T13:50:18Z</time></trkpt><trkpt lat="45.48970281189176" lon="8.690896704384004"><ele>156.66666666666669</ele><time>2026-05-02T13:50:19Z</time></trkpt><trkpt lat="45.48978773235068" lon="8.69086621912915"><ele>156.5</ele><time>2026-05-02T13:50:20Z</time></trkpt><trkpt lat="45.4898742148318" lon="8.690860598150275"><ele>156.33333333333334</ele><time>2026-05-02T13:50:21Z</time></trkpt><trkpt lat="45.48995761970006" lon="8.690817315740748"><ele>156.16666666666666</ele><time>2026-05-02T13:50:22Z</time></trkpt><trkpt lat="45.49004393363859" lon="8.690797213369903"><ele>156.0</ele><time>2026-05-02T13:50:23Z</time></trkpt><trkpt lat="45.49012863059723" lon="8.690777783786361"><ele>156.0</ele><time>2026-05-02T13:50:24Z</time></trkpt><trkpt lat="45.49021753603524" lon="8.69076208653799"><ele>156.0</ele><time>2026-05-02T13:50:25Z</time></trkpt><trkpt lat="45.49029641522924" lon="8.690750084782119"><ele>156.0</ele><time>2026-05-02T13:50:26Z</time></trkpt><trkpt lat="45.49037118533917" lon="8.690735752648242"><ele>156.0</ele><time>2026-05-02T13:50:27Z</time></trkpt><trkpt lat="45.49043751360791" lon="8.690707339925513"><ele>156.0</ele><time>2026-05-02T13:50:28Z</time></trkpt><trkpt lat="45.49050234412235" lon="8.690677845377468"><ele>156.0</ele><time>2026-05-02T13:50:29Z</time></trkpt><trkpt lat="45.49055748924946" lon="8.690631711335206"><ele>156.0</ele><time>2026-05-02T13:50:30Z</time></trkpt><trkpt lat="45.490667303375645" lon="8.690580368897312"><ele>156.4</ele><time>2026-05-02T13:50:32Z</time></trkpt><trkpt lat="45.49076226102735" lon="8.690539064713983"><ele>156.8</ele><time>2026-05-02T13:50:34Z</time></trkpt><trkpt lat="45.490852191408656" lon="8.690525694186084"><ele>157.20000000000002</ele><time>2026-05-02T13:50:36Z</time></trkpt><trkpt lat="45.490915058029785" lon="8.690548390104576"><ele>157.6</ele><time>2026-05-02T13:51:14Z</time></trkpt><trkpt lat="45.49101235525178" lon="8.69055733599053"><ele>158.0</ele><time>2026-05-02T13:51:16Z</time></trkpt><trkpt lat="45.49112514633255" lon="8.690569855429604"><ele>158.0</ele><time>2026-05-02T13:51:18Z</time></trkpt><trkpt lat="45.49123319798864" lon="8.690580332477381"><ele>158.0</ele><time>2026-05-02T13:51:20Z</time></trkpt><trkpt lat="45.4913384951751" lon="8.690563444729092"><ele>158.0</ele><time>2026-05-02T13:51:22Z</time></trkpt><trkpt lat="45.491441776281754" lon="8.690566238234283"><ele>158.0</ele><time>2026-05-02T13:51:24Z</time></trkpt><trkpt lat="45.49154482201829" lon="8.69057081403653"><ele>158.0</ele><time>2026-05-02T13:51:26Z</time></trkpt><trkpt lat="45.49164844499661" lon="8.690559764029295"><ele>158.20000000000002</ele><time>2026-05-02T13:51:28Z</time></trkpt><trkpt lat="45.49174974754309" lon="8.690554949466192"><ele>158.4</ele><time>2026-05-02T13:51:30Z</time></trkpt><trkpt lat="45.49185122691119" lon="8.690545949764806"><ele>158.60000000000002</ele><time>2026-05-02T13:51:32Z</time></trkpt><trkpt lat="45.49194424453054" lon="8.690549845684037"><ele>158.8</ele><time>2026-05-02T13:51:34Z</time></trkpt><trkpt lat="45.49204960444306" lon="8.690532576432359"><ele>159.0</ele><time>2026-05-02T13:51:36Z</time></trkpt><trkpt lat="45.49215077598085" lon="8.690515040818504"><ele>159.2</ele><time>2026-05-02T13:51:38Z</time></trkpt><trkpt lat="45.49225690026831" lon="8.690476340083961"><ele>159.4</ele><time>2026-05-02T13:51:40Z</time></trkpt><trkpt lat="45.49237081429672" lon="8.690460033317368"><ele>159.6</ele><time>2026-05-02T13:51:42Z</time></trkpt><trkpt lat="45.492437192671154" lon="8.690458252995429"><ele>159.8</ele><time>2026-05-02T13:51:43Z</time></trkpt><trkpt lat="45.492501729992654" lon="8.690450849484796"><ele>160.0</ele><time>2026-05-02T13:51:44Z</time></trkpt><trkpt lat="45.492624197060394" lon="8.690450643186889"><ele>160.0</ele><time>2026-05-02T13:51:46Z</time></trkpt><trkpt lat="45.492688525393994" lon="8.690452829301766"><ele>160.0</ele><time>2026-05-02T13:51:47Z</time></trkpt><trkpt lat="45.49279196520448" lon="8.690517793631718"><ele>160.0</ele><time>2026-05-02T13:51:49Z</time></trkpt><trkpt lat="45.49286306913844" lon="8.690614246977837"><ele>160.0</ele><time>2026-05-02T13:51:51Z</time></trkpt><trkpt lat="45.49302937058543" lon="8.6904487937891"><ele>159.4</ele><time>2026-05-02T13:51:53Z</time></trkpt><trkpt lat="45.493139944364984" lon="8.690471569074054"><ele>158.8</ele><time>2026-05-02T13:51:55Z</time></trkpt><trkpt lat="45.49324099818803" lon="8.690497460125465"><ele>158.2</ele><time>2026-05-02T13:51:57Z</time></trkpt><trkpt lat="45.49334330039163" lon="8.690535511854335"><ele>157.6</ele><time>2026-05-02T13:51:59Z</time></trkpt><trkpt lat="45.49344538525265" lon="8.690598483693694"><ele>157.0</ele><time>2026-05-02T13:52:01Z</time></trkpt><trkpt lat="45.493551151196144" lon="8.690691187136911"><ele>157.0</ele><time>2026-05-02T13:52:03Z</time></trkpt><trkpt lat="45.49361279235589" lon="8.690747254199103"><ele>157.0</ele><time>2026-05-02T13:52:04Z</time></trkpt><trkpt lat="45.493671709910714" lon="8.690801670721747"><ele>157.0</ele><time>2026-05-02T13:52:05Z</time></trkpt><trkpt lat="45.49374783994281" lon="8.690877335164519"><ele>157.0</ele><time>2026-05-02T13:52:07Z</time></trkpt><trkpt lat="45.493830239330045" lon="8.690946567691332"><ele>157.0</ele><time>2026-05-02T13:52:09Z</time></trkpt><trkpt lat="45.4939249440463" lon="8.691006073255584"><ele>157.0</ele><time>2026-05-02T13:52:11Z</time></trkpt><trkpt lat="45.4940276679936" lon="8.69106437715781"><ele>157.8</ele><time>2026-05-02T13:52:13Z</time></trkpt><trkpt lat="45.49412940147851" lon="8.691122921196088"><ele>158.6</ele><time>2026-05-02T13:52:15Z</time></trkpt><trkpt lat="45.49421192705612" lon="8.69117300254713"><ele>159.4</ele><time>2026-05-02T13:52:17Z</time></trkpt><trkpt lat="45.49427723284335" lon="8.691215356289911"><ele>160.20000000000002</ele><time>2026-05-02T13:52:19Z</time></trkpt><trkpt lat="45.49436640946998" lon="8.691261638846372"><ele>161.0</ele><time>2026-05-02T13:52:28Z</time></trkpt><trkpt lat="45.49448053009993" lon="8.691333211200673"><ele>161.0</ele><time>2026-05-02T13:52:30Z</time></trkpt><trkpt lat="45.49458702791299" lon="8.691390532887755"><ele>161.0</ele><time>2026-05-02T13:52:32Z</time></trkpt><trkpt lat="45.494715099697615" lon="8.69140205169002"><ele>161.0</ele><time>2026-05-02T13:52:34Z</time></trkpt><trkpt lat="45.4947794323227" lon="8.691388500920704"><ele>161.0</ele><time>2026-05-02T13:52:35Z</time></trkpt><trkpt lat="45.494880309616114" lon="8.691362138729096"><ele>161.0</ele><time>2026-05-02T13:52:37Z</time></trkpt><trkpt lat="45.49498572094541" lon="8.691342172544275"><ele>161.8</ele><time>2026-05-02T13:52:39Z</time></trkpt><trkpt lat="45.49510134616822" lon="8.691312296874836"><ele>162.60000000000002</ele><time>2026-05-02T13:52:41Z</time></trkpt><trkpt lat="45.49521267149444" lon="8.691276514126244"><ele>163.4</ele><time>2026-05-02T13:52:43Z</time></trkpt><trkpt lat="45.49532330383696" lon="8.691249433159818"><ele>164.2</ele><time>2026-05-02T13:52:45Z</time></trkpt><trkpt lat="45.495415971238124" lon="8.691219527626048"><ele>165.0</ele><time>2026-05-02T13:52:47Z</time></trkpt><trkpt lat="45.49552017485431" lon="8.691180288548772"><ele>165.2</ele><time>2026-05-02T13:52:49Z</time></trkpt><trkpt lat="45.49560257563319" lon="8.691154068429906"><ele>165.4</ele><time>2026-05-02T13:52:51Z</time></trkpt><trkpt lat="45.495695756646214" lon="8.691125582885585"><ele>165.60000000000002</ele><time>2026-05-02T13:52:53Z</time></trkpt><trkpt lat="45.49578775466119" lon="8.691089486811448"><ele>165.8</ele><time>2026-05-02T13:52:55Z</time></trkpt><trkpt lat="45.4958889270202" lon="8.691050411377132"><ele>166.0</ele><time>2026-05-02T13:52:57Z</time></trkpt><trkpt lat="45.49599254056198" lon="8.691010428269603"><ele>165.4</ele><time>2026-05-02T13:52:59Z</time></trkpt><trkpt lat="45.49609714396961" lon="8.690971117110854"><ele>164.8</ele><time>2026-05-02T13:53:01Z</time></trkpt><trkpt lat="45.49620720045312" lon="8.690925214526283"><ele>164.20000000000002</ele><time>2026-05-02T13:53:03Z</time></trkpt><trkpt lat="45.49630763587463" lon="8.690880960708855"><ele>163.60000000000002</ele><time>2026-05-02T13:53:05Z</time></trkpt><trkpt lat="45.496404740410206" lon="8.690846287609826"><ele>163.0</ele><time>2026-05-02T13:53:07Z</time></trkpt><trkpt lat="45.49650429747762" lon="8.690801341708482"><ele>162.5</ele><time>2026-05-02T13:53:09Z</time></trkpt><trkpt lat="45.496587247273354" lon="8.690764770784089"><ele>162.0</ele><time>2026-05-02T13:53:11Z</time></trkpt><trkpt lat="45.49667227314716" lon="8.690727517706176"><ele>161.5</ele><time>2026-05-02T13:53:13Z</time></trkpt><trkpt lat="45.49675001532419" lon="8.69075263068719"><ele>161.0</ele><time>2026-05-02T13:53:20Z</time></trkpt><trkpt lat="45.49666034719099" lon="8.690741661810737"><ele>160.5</ele><time>2026-05-02T13:55:10Z</time></trkpt><trkpt lat="45.49656174192636" lon="8.690784383562121"><ele>160.0</ele><time>2026-05-02T13:55:12Z</time></trkpt><trkpt lat="45.496455453449244" lon="8.690829276571584"><ele>160.0</ele><time>2026-05-02T13:55:14Z</time></trkpt><trkpt lat="45.496359647673366" lon="8.690872105985594"><ele>160.0</ele><time>2026-05-02T13:55:16Z</time></trkpt><trkpt lat="45.49625841845275" lon="8.690915406548127"><ele>160.0</ele><time>2026-05-02T13:55:18Z</time></trkpt><trkpt lat="45.49615443093205" lon="8.690958441935564"><ele>160.0</ele><time>2026-05-02T13:55:20Z</time></trkpt><trkpt lat="45.49604758694187" lon="8.69100221505812"><ele>160.0</ele><time>2026-05-02T13:55:22Z</time></trkpt><trkpt lat="45.49592786755174" lon="8.691048682403249"><ele>160.42857142857142</ele><time>2026-05-02T13:55:24Z</time></trkpt><trkpt lat="45.49585985471423" lon="8.691072947082514"><ele>160.85714285714286</ele><time>2026-05-02T13:55:25Z</time></trkpt><trkpt lat="45.495791009443515" lon="8.691099636627413"><ele>161.28571428571428</ele><time>2026-05-02T13:55:26Z</time></trkpt><trkpt lat="45.49572059944133" lon="8.69112598730255"><ele>161.71428571428572</ele><time>2026-05-02T13:55:27Z</time></trkpt><trkpt lat="45.495641148777246" lon="8.691151808797201"><ele>162.14285714285714</ele><time>2026-05-02T13:55:28Z</time></trkpt><trkpt lat="45.49556594917302" lon="8.691179602223379"><ele>162.57142857142858</ele><time>2026-05-02T13:55:29Z</time></trkpt><trkpt lat="45.49549416976396" lon="8.691202400675982"><ele>163.0</ele><time>2026-05-02T13:55:30Z</time></trkpt><trkpt lat="45.49537897513876" lon="8.691239677677057"><ele>163.33333333333334</ele><time>2026-05-02T13:55:32Z</time></trkpt><trkpt lat="45.495252130783754" lon="8.691281559727388"><ele>163.66666666666669</ele><time>2026-05-02T13:55:34Z</time></trkpt><trkpt lat="45.49518355348351" lon="8.691299753898077"><ele>164.0</ele><time>2026-05-02T13:55:35Z</time></trkpt><trkpt lat="45.49512176851445" lon="8.691321700471029"><ele>164.33333333333334</ele><time>2026-05-02T13:55:36Z</time></trkpt><trkpt lat="45.495054942901184" lon="8.691337973503359"><ele>164.66666666666666</ele><time>2026-05-02T13:55:37Z</time></trkpt><trkpt lat="45.49498531183224" lon="8.691355080859209"><ele>165.0</ele><time>2026-05-02T13:55:38Z</time></trkpt><trkpt lat="45.49486857951771" lon="8.691374747513693"><ele>165.0</ele><time>2026-05-02T13:55:40Z</time></trkpt><trkpt lat="45.49476938216502" lon="8.691394447524184"><ele>165.0</ele><time>2026-05-02T13:55:42Z</time></trkpt><trkpt lat="45.49469516220447" lon="8.69140338543565"><ele>165.0</ele><time>2026-05-02T13:55:44Z</time></trkpt><trkpt lat="45.49465136672726" lon="8.691478542767541"><ele>165.0</ele><time>2026-05-02T13:55:48Z</time></trkpt><trkpt lat="45.49470797898138" lon="8.691563890144772"><ele>165.0</ele><time>2026-05-02T13:56:03Z</time></trkpt><trkpt lat="45.49479580232199" lon="8.691661672608657"><ele>165.0</ele><time>2026-05-02T13:56:05Z</time></trkpt><trkpt lat="45.494880967060894" lon="8.691759083099265"><ele>165.0</ele><time>2026-05-02T13:56:07Z</time></trkpt><trkpt lat="45.49496883186918" lon="8.69184991688194"><ele>165.0</ele><time>2026-05-02T13:56:09Z</time></trkpt><trkpt lat="45.495067080159764" lon="8.6919091486784"><ele>165.0</ele><time>2026-05-02T13:56:11Z</time></trkpt><trkpt lat="45.495171752122396" lon="8.691983411279663"><ele>165.0</ele><time>2026-05-02T13:56:13Z</time></trkpt><trkpt lat="45.49526332363628" lon="8.692060154277815"><ele>165.0</ele><time>2026-05-02T13:56:15Z</time></trkpt><trkpt lat="45.495368419347756" lon="8.692150964132052"><ele>164.25</ele><time>2026-05-02T13:56:17Z</time></trkpt><trkpt lat="45.4954665164464" lon="8.69223238447324"><ele>163.5</ele><time>2026-05-02T13:56:19Z</time></trkpt><trkpt lat="45.495565671963114" lon="8.6923208668739"><ele>162.75</ele><time>2026-05-02T13:56:21Z</time></trkpt><trkpt lat="45.495672317177025" lon="8.692403262587888"><ele>162.0</ele><time>2026-05-02T13:56:23Z</time></trkpt><trkpt lat="45.495761835350336" lon="8.692479314346274"><ele>162.0</ele><time>2026-05-02T13:56:25Z</time></trkpt><trkpt lat="45.495859708097946" lon="8.692545874861898"><ele>162.0</ele><time>2026-05-02T13:56:27Z</time></trkpt><trkpt lat="45.49595820895086" lon="8.692609450287003"><ele>162.0</ele><time>2026-05-02T13:56:29Z</time></trkpt><trkpt lat="45.49606153539668" lon="8.692666731698887"><ele>162.0</ele><time>2026-05-02T13:56:31Z</time></trkpt><trkpt lat="45.496164046572325" lon="8.692716499787283"><ele>162.0</ele><time>2026-05-02T13:56:33Z</time></trkpt><trkpt lat="45.49626962681845" lon="8.692761256033743"><ele>162.0</ele><time>2026-05-02T13:56:35Z</time></trkpt><trkpt lat="45.49637926988318" lon="8.692803643083774"><ele>162.0</ele><time>2026-05-02T13:56:37Z</time></trkpt><trkpt lat="45.49648832663272" lon="8.692842803768254"><ele>162.0</ele><time>2026-05-02T13:56:39Z</time></trkpt><trkpt lat="45.49659805663769" lon="8.692881318551587"><ele>162.0</ele><time>2026-05-02T13:56:41Z</time></trkpt><trkpt lat="45.49671220582782" lon="8.69291898376048"><ele>162.0</ele><time>2026-05-02T13:56:43Z</time></trkpt><trkpt lat="45.496825025944" lon="8.692940281686743"><ele>162.0</ele><time>2026-05-02T13:56:45Z</time></trkpt><trkpt lat="45.49694184264667" lon="8.692960354671005"><ele>162.0</ele><time>2026-05-02T13:56:47Z</time></trkpt><trkpt lat="45.497057552434335" lon="8.692966238754149"><ele>162.0</ele><time>2026-05-02T13:56:49Z</time></trkpt><trkpt lat="45.49717019660239" lon="8.692960092903006"><ele>162.2</ele><time>2026-05-02T13:56:51Z</time></trkpt><trkpt lat="45.49728648037559" lon="8.692960145811162"><ele>162.39999999999998</ele><time>2026-05-02T13:56:53Z</time></trkpt><trkpt lat="45.49739587493481" lon="8.692958827265095"><ele>162.60000000000002</ele><time>2026-05-02T13:56:55Z</time></trkpt><trkpt lat="45.49750429682284" lon="8.692954187585784"><ele>162.8</ele><time>2026-05-02T13:56:57Z</time></trkpt><trkpt lat="45.497617305814494" lon="8.692943201763187"><ele>163.0</ele><time>2026-05-02T13:56:59Z</time></trkpt><trkpt lat="45.497740835373456" lon="8.69294768683978"><ele>163.0</ele><time>2026-05-02T13:57:01Z</time></trkpt><trkpt lat="45.49785248952657" lon="8.692948175847087"><ele>163.0</ele><time>2026-05-02T13:57:03Z</time></trkpt><trkpt lat="45.49796636970216" lon="8.692941869769054"><ele>163.0</ele><time>2026-05-02T13:57:05Z</time></trkpt><trkpt lat="45.49808184922298" lon="8.692935624389575"><ele>163.0</ele><time>2026-05-02T13:57:07Z</time></trkpt><trkpt lat="45.4981874113142" lon="8.692921005718667"><ele>163.0</ele><time>2026-05-02T13:57:09Z</time></trkpt><trkpt lat="45.49829253394832" lon="8.69291017282573"><ele>163.4</ele><time>2026-05-02T13:57:11Z</time></trkpt><trkpt lat="45.498389580394054" lon="8.692885357082599"><ele>163.8</ele><time>2026-05-02T13:57:13Z</time></trkpt><trkpt lat="45.49851445307526" lon="8.692843210659545"><ele>164.2</ele><time>2026-05-02T13:57:15Z</time></trkpt><trkpt lat="45.49858844090881" lon="8.692834740471461"><ele>164.6</ele><time>2026-05-02T13:57:16Z</time></trkpt><trkpt lat="45.49869013471716" lon="8.692810156305809"><ele>165.0</ele><time>2026-05-02T13:57:18Z</time></trkpt><trkpt lat="45.498767960439324" lon="8.69278624460733"><ele>165.83333333333334</ele><time>2026-05-02T13:57:20Z</time></trkpt><trkpt lat="45.49885055302166" lon="8.692770535132382"><ele>166.66666666666666</ele><time>2026-05-02T13:57:22Z</time></trkpt><trkpt lat="45.4989201212073" lon="8.692756441642397"><ele>167.5</ele><time>2026-05-02T13:57:37Z</time></trkpt><trkpt lat="45.49898873993837" lon="8.692756732131382"><ele>168.33333333333331</ele><time>2026-05-02T13:57:39Z</time></trkpt><trkpt lat="45.49905845900053" lon="8.692755068941036"><ele>169.16666666666666</ele><time>2026-05-02T13:57:41Z</time></trkpt><trkpt lat="45.49913572815131" lon="8.69274531292671"><ele>170.0</ele><time>2026-05-02T13:57:44Z</time></trkpt><trkpt lat="45.49923363596307" lon="8.692731982922057"><ele>170.0</ele><time>2026-05-02T13:57:47Z</time></trkpt><trkpt lat="45.49930853964398" lon="8.692729013173697"><ele>170.0</ele><time>2026-05-02T13:57:49Z</time></trkpt><trkpt lat="45.499398104649636" lon="8.692712525035873"><ele>170.0</ele><time>2026-05-02T13:57:52Z</time></trkpt><trkpt lat="45.49947174032611" lon="8.69271831036593"><ele>170.0</ele><time>2026-05-02T13:57:55Z</time></trkpt><trkpt lat="45.499528060792095" lon="8.692798187064984"><ele>170.0</ele><time>2026-05-02T13:58:10Z</time></trkpt><trkpt lat="45.49956603137019" lon="8.692928463500488"><ele>170.0</ele><time>2026-05-02T13:58:12Z</time></trkpt><trkpt lat="45.49959710668218" lon="8.693068120642643"><ele>170.0</ele><time>2026-05-02T13:58:14Z</time></trkpt><trkpt lat="45.49961834818118" lon="8.69319274032438"><ele>170.0</ele><time>2026-05-02T13:58:16Z</time></trkpt><trkpt lat="45.4996418198443" lon="8.693306678163367"><ele>170.0</ele><time>2026-05-02T13:58:18Z</time></trkpt><trkpt lat="45.49967391777398" lon="8.693406641460099"><ele>170.0</ele><time>2026-05-02T13:58:20Z</time></trkpt><trkpt lat="45.4997053716679" lon="8.693530399399046"><ele>170.0</ele><time>2026-05-02T13:58:22Z</time></trkpt><trkpt lat="45.49972812319272" lon="8.693665206274702"><ele>170.0</ele><time>2026-05-02T13:58:24Z</time></trkpt><trkpt lat="45.49974920422543" lon="8.693809464357573"><ele>169.66666666666666</ele><time>2026-05-02T13:58:26Z</time></trkpt><trkpt lat="45.499759797135994" lon="8.693956489978008"><ele>169.33333333333331</ele><time>2026-05-02T13:58:28Z</time></trkpt><trkpt lat="45.49978826089961" lon="8.694097281266627"><ele>169.0</ele><time>2026-05-02T13:58:30Z</time></trkpt><trkpt lat="45.49980537358995" lon="8.694222370922104"><ele>168.66666666666666</ele><time>2026-05-02T13:58:32Z</time></trkpt><trkpt lat="45.49982392263992" lon="8.694326620796794"><ele>168.33333333333334</ele><time>2026-05-02T13:58:34Z</time></trkpt><trkpt lat="45.49982898508941" lon="8.694434129790423"><ele>168.0</ele><time>2026-05-02T13:58:36Z</time></trkpt><trkpt lat="45.499855613771864" lon="8.69453514082702"><ele>167.60000000000002</ele><time>2026-05-02T13:58:38Z</time></trkpt><trkpt lat="45.49988586804308" lon="8.69468573446754"><ele>167.20000000000002</ele><time>2026-05-02T13:58:40Z</time></trkpt><trkpt lat="45.499905431713046" lon="8.694842804142914"><ele>166.8</ele><time>2026-05-02T13:58:42Z</time></trkpt><trkpt lat="45.499926901727356" lon="8.695002191094863"><ele>166.4</ele><time>2026-05-02T13:58:44Z</time></trkpt><trkpt lat="45.49994808775522" lon="8.695148775044148"><ele>166.0</ele><time>2026-05-02T13:58:46Z</time></trkpt><trkpt lat="45.49997003164417" lon="8.695296705601748"><ele>165.8</ele><time>2026-05-02T13:58:48Z</time></trkpt><trkpt lat="45.49999148461773" lon="8.69544435848055"><ele>165.60000000000002</ele><time>2026-05-02T13:58:50Z</time></trkpt><trkpt lat="45.500017033716844" lon="8.69558850661248"><ele>165.4</ele><time>2026-05-02T13:58:52Z</time></trkpt><trkpt lat="45.500047255480155" lon="8.69574174417549"><ele>165.2</ele><time>2026-05-02T13:58:54Z</time></trkpt><trkpt lat="45.50007615009474" lon="8.695873902593677"><ele>165.0</ele><time>2026-05-02T13:58:56Z</time></trkpt><trkpt lat="45.500103234989076" lon="8.695987721150429"><ele>165.5</ele><time>2026-05-02T13:58:58Z</time></trkpt><trkpt lat="45.50012646344672" lon="8.696116598185323"><ele>166.0</ele><time>2026-05-02T13:59:00Z</time></trkpt><trkpt lat="45.50015291514739" lon="8.696241907954283"><ele>166.5</ele><time>2026-05-02T13:59:02Z</time></trkpt><trkpt lat="45.50017551378113" lon="8.696360479985643"><ele>167.0</ele><time>2026-05-02T13:59:04Z</time></trkpt><trkpt lat="45.50020963159628" lon="8.696474171265919"><ele>167.5</ele><time>2026-05-02T13:59:06Z</time></trkpt><trkpt lat="45.50022233034231" lon="8.69659897907514"><ele>168.0</ele><time>2026-05-02T13:59:08Z</time></trkpt><trkpt lat="45.50023057331051" lon="8.696721526093498"><ele>168.0</ele><time>2026-05-02T13:59:10Z</time></trkpt><trkpt lat="45.500251559306186" lon="8.696843108131402"><ele>168.0</ele><time>2026-05-02T13:59:12Z</time></trkpt><trkpt lat="45.50026906669086" lon="8.696990154481613"><ele>168.0</ele><time>2026-05-02T13:59:14Z</time></trkpt><trkpt lat="45.500306233975856" lon="8.697129304684937"><ele>168.0</ele><time>2026-05-02T13:59:16Z</time></trkpt><trkpt lat="45.50032865536694" lon="8.697303218576069"><ele>168.0</ele><time>2026-05-02T13:59:18Z</time></trkpt><trkpt lat="45.50034890448408" lon="8.697466813383745"><ele>168.16666666666666</ele><time>2026-05-02T13:59:20Z</time></trkpt><trkpt lat="45.50037179140186" lon="8.697599347492702"><ele>168.33333333333334</ele><time>2026-05-02T13:59:22Z</time></trkpt><trkpt lat="45.50038445348073" lon="8.697698424905305"><ele>168.5</ele><time>2026-05-02T13:59:47Z</time></trkpt><trkpt lat="45.50046056686605" lon="8.697719811840809"><ele>168.66666666666669</ele><time>2026-05-02T13:59:50Z</time></trkpt><trkpt lat="45.50053242983377" lon="8.697685928930015"><ele>168.83333333333334</ele><time>2026-05-02T13:59:52Z</time></trkpt><trkpt lat="45.50061345829586" lon="8.69764933355193"><ele>169.0</ele><time>2026-05-02T13:59:54Z</time></trkpt><trkpt lat="45.50069304749554" lon="8.697609475528678"><ele>169.6</ele><time>2026-05-02T13:59:56Z</time></trkpt><trkpt lat="45.5007906601643" lon="8.697567497661156"><ele>170.2</ele><time>2026-05-02T13:59:58Z</time></trkpt><trkpt lat="45.50088687350699" lon="8.697521017518977"><ele>170.79999999999998</ele><time>2026-05-02T14:00:00Z</time></trkpt><trkpt lat="45.50097929245038" lon="8.697483982919342"><ele>171.39999999999998</ele><time>2026-05-02T14:00:02Z</time></trkpt><trkpt lat="45.50104942257374" lon="8.697444874471227"><ele>172.0</ele><time>2026-05-02T14:00:04Z</time></trkpt><trkpt lat="45.50112979831689" lon="8.697444297428435"><ele>172.0</ele><time>2026-05-02T14:00:07Z</time></trkpt><trkpt lat="45.50117588816893" lon="8.697580135348742"><ele>172.0</ele><time>2026-05-02T14:00:10Z</time></trkpt><trkpt lat="45.5011880394685" lon="8.697685896109025"><ele>172.0</ele><time>2026-05-02T14:00:12Z</time></trkpt><trkpt lat="45.50122584392168" lon="8.697806250490098"><ele>172.0</ele><time>2026-05-02T14:00:14Z</time></trkpt><trkpt lat="45.50125533486746" lon="8.697906701570638"><ele>172.0</ele><time>2026-05-02T14:00:16Z</time></trkpt><trkpt lat="45.50127138721794" lon="8.697993992357645"><ele>172.0</ele><time>2026-05-02T14:00:18Z</time></trkpt><trkpt lat="45.50130393709768" lon="8.698101237371525"><ele>171.8</ele><time>2026-05-02T14:00:28Z</time></trkpt><trkpt lat="45.501322595662714" lon="8.698232893846757"><ele>171.6</ele><time>2026-05-02T14:00:30Z</time></trkpt><trkpt lat="45.50135114161868" lon="8.698378530276043"><ele>171.4</ele><time>2026-05-02T14:00:32Z</time></trkpt><trkpt lat="45.50139283278949" lon="8.698519577510593"><ele>171.20000000000002</ele><time>2026-05-02T14:00:34Z</time></trkpt><trkpt lat="45.50141964261757" lon="8.69865414599794"><ele>171.0</ele><time>2026-05-02T14:00:36Z</time></trkpt><trkpt lat="45.50144352308113" lon="8.698796644913532"><ele>171.0</ele><time>2026-05-02T14:00:38Z</time></trkpt><trkpt lat="45.50146995619254" lon="8.69894959011769"><ele>171.0</ele><time>2026-05-02T14:00:40Z</time></trkpt><trkpt lat="45.5015083958538" lon="8.69909986417096"><ele>171.0</ele><time>2026-05-02T14:00:42Z</time></trkpt><trkpt lat="45.50153508839328" lon="8.699254516403824"><ele>171.0</ele><time>2026-05-02T14:00:44Z</time></trkpt><trkpt lat="45.50155972882835" lon="8.699360306482717"><ele>171.0</ele><time>2026-05-02T14:00:45Z</time></trkpt><trkpt lat="45.501576738120654" lon="8.699462122074825"><ele>170.8</ele><time>2026-05-02T14:00:46Z</time></trkpt><trkpt lat="45.50159917611854" lon="8.699605419044984"><ele>170.60000000000002</ele><time>2026-05-02T14:00:48Z</time></trkpt><trkpt lat="45.501623329891544" lon="8.699765029116563"><ele>170.4</ele><time>2026-05-02T14:00:50Z</time></trkpt><trkpt lat="45.501637222218285" lon="8.699857687404563"><ele>170.2</ele><time>2026-05-02T14:00:51Z</time></trkpt><trkpt lat="45.50166226096511" lon="8.70003375498637"><ele>170.0</ele><time>2026-05-02T14:00:53Z</time></trkpt><trkpt lat="45.5016631323326" lon="8.700131637364157"><ele>170.33333333333331</ele><time>2026-05-02T14:00:54Z</time></trkpt><trkpt lat="45.50168403250222" lon="8.700298446701598"><ele>170.66666666666666</ele><time>2026-05-02T14:00:56Z</time></trkpt><trkpt lat="45.50168421639003" lon="8.700393315174349"><ele>171.0</ele><time>2026-05-02T14:00:57Z</time></trkpt><trkpt lat="45.50168699033683" lon="8.70053430271872"><ele>171.33333333333334</ele><time>2026-05-02T14:00:59Z</time></trkpt><trkpt lat="45.50170128667574" lon="8.700633698749481"><ele>171.66666666666669</ele><time>2026-05-02T14:01:01Z</time></trkpt><trkpt lat="45.50173138934208" lon="8.70075662471165"><ele>172.0</ele><time>2026-05-02T14:01:03Z</time></trkpt><trkpt lat="45.50175481457781" lon="8.700888386557411"><ele>172.0</ele><time>2026-05-02T14:01:05Z</time></trkpt><trkpt lat="45.50176123377008" lon="8.701014891903693"><ele>172.0</ele><time>2026-05-02T14:01:07Z</time></trkpt><trkpt lat="45.501774399184384" lon="8.701127769948286"><ele>172.0</ele><time>2026-05-02T14:01:09Z</time></trkpt><trkpt lat="45.50178205472497" lon="8.70123931636461"><ele>172.0</ele><time>2026-05-02T14:01:11Z</time></trkpt><trkpt lat="45.50178220148882" lon="8.701351049000898"><ele>172.0</ele><time>2026-05-02T14:01:13Z</time></trkpt><trkpt lat="45.50176373061796" lon="8.701468733558393"><ele>172.0</ele><time>2026-05-02T14:01:15Z</time></trkpt><trkpt lat="45.501752951682" lon="8.701587322502185"><ele>172.0</ele><time>2026-05-02T14:01:17Z</time></trkpt><trkpt lat="45.501739629765524" lon="8.701680974706647"><ele>172.0</ele><time>2026-05-02T14:01:19Z</time></trkpt><trkpt lat="45.501697671424424" lon="8.701783378026045"><ele>172.0</ele><time>2026-05-02T14:01:22Z</time></trkpt><trkpt lat="45.50167383823849" lon="8.701899897742598"><ele>172.0</ele><time>2026-05-02T14:02:55Z</time></trkpt><trkpt lat="45.50168759449225" lon="8.70199626285715"><ele>172.0</ele><time>2026-05-02T14:02:57Z</time></trkpt><trkpt lat="45.50169502850372" lon="8.702093064206913"><ele>172.0</ele><time>2026-05-02T14:02:59Z</time></trkpt><trkpt lat="45.50170416109467" lon="8.702203934971593"><ele>172.0</ele><time>2026-05-02T14:03:02Z</time></trkpt><trkpt lat="45.50173817786297" lon="8.702285669780105"><ele>172.0</ele><time>2026-05-02T14:03:06Z</time></trkpt><trkpt lat="45.501707218828855" lon="8.702190221378203"><ele>172.0</ele><time>2026-05-02T14:03:40Z</time></trkpt><trkpt lat="45.50169123208708" lon="8.702071083569866"><ele>172.0</ele><time>2026-05-02T14:03:42Z</time></trkpt><trkpt lat="45.50168435198278" lon="8.701947688895276"><ele>172.0</ele><time>2026-05-02T14:03:45Z</time></trkpt><trkpt lat="45.501648639293634" lon="8.70185914150921"><ele>172.0</ele><time>2026-05-02T14:03:55Z</time></trkpt><trkpt lat="45.501550758988785" lon="8.701875805943027"><ele>172.0</ele><time>2026-05-02T14:03:58Z</time></trkpt><trkpt lat="45.50146611003706" lon="8.701891713712085"><ele>172.0</ele><time>2026-05-02T14:04:00Z</time></trkpt><trkpt lat="45.50138760580496" lon="8.701912269862577"><ele>172.0</ele><time>2026-05-02T14:04:02Z</time></trkpt><trkpt lat="45.50130965605171" lon="8.70192893535914"><ele>172.0</ele><time>2026-05-02T14:04:04Z</time></trkpt><trkpt lat="45.50121512278024" lon="8.701930632789066"><ele>172.0</ele><time>2026-05-02T14:04:06Z</time></trkpt><trkpt lat="45.50112196212788" lon="8.701936641442444"><ele>172.0</ele><time>2026-05-02T14:04:08Z</time></trkpt><trkpt lat="45.501019871070326" lon="8.701951608685627"><ele>171.8</ele><time>2026-05-02T14:04:10Z</time></trkpt><trkpt lat="45.50089151513421" lon="8.701976105519309"><ele>171.6</ele><time>2026-05-02T14:04:12Z</time></trkpt><trkpt lat="45.500786851637784" lon="8.702004208752166"><ele>171.4</ele><time>2026-05-02T14:04:14Z</time></trkpt><trkpt lat="45.500686653125655" lon="8.702036212989489"><ele>171.20000000000002</ele><time>2026-05-02T14:04:16Z</time></trkpt><trkpt lat="45.50059984395613" lon="8.70203811700959"><ele>171.0</ele><time>2026-05-02T14:04:18Z</time></trkpt><trkpt lat="45.50052495922259" lon="8.702019598840247"><ele>171.0</ele><time>2026-05-02T14:04:20Z</time></trkpt><trkpt lat="45.50043063288007" lon="8.702026061567395"><ele>171.0</ele><time>2026-05-02T14:04:22Z</time></trkpt><trkpt lat="45.50034330758159" lon="8.702049900943416"><ele>171.0</ele><time>2026-05-02T14:04:24Z</time></trkpt><trkpt lat="45.50027547040512" lon="8.702050560316474"><ele>171.0</ele><time>2026-05-02T14:04:26Z</time></trkpt><trkpt lat="45.50019261480065" lon="8.702086381416947"><ele>171.0</ele><time>2026-05-02T14:04:28Z</time></trkpt><trkpt lat="45.500101203556824" lon="8.702110932443253"><ele>171.0</ele><time>2026-05-02T14:04:30Z</time></trkpt><trkpt lat="45.49999780233605" lon="8.702126440527255"><ele>171.16666666666666</ele><time>2026-05-02T14:04:32Z</time></trkpt><trkpt lat="45.49992198715567" lon="8.702157792878177"><ele>171.33333333333334</ele><time>2026-05-02T14:04:34Z</time></trkpt><trkpt lat="45.49984382705684" lon="8.702169802768044"><ele>171.5</ele><time>2026-05-02T14:04:37Z</time></trkpt><trkpt lat="45.49978799530768" lon="8.70223327529422"><ele>171.66666666666669</ele><time>2026-05-02T14:05:11Z</time></trkpt><trkpt lat="45.49980329373962" lon="8.702344436622772"><ele>171.83333333333334</ele><time>2026-05-02T14:05:13Z</time></trkpt><trkpt lat="45.49982438180002" lon="8.702463325749253"><ele>172.0</ele><time>2026-05-02T14:05:15Z</time></trkpt><trkpt lat="45.49984360651505" lon="8.702583643562248"><ele>172.0</ele><time>2026-05-02T14:05:17Z</time></trkpt><trkpt lat="45.4998581159323" lon="8.70270773241873"><ele>172.0</ele><time>2026-05-02T14:05:19Z</time></trkpt><trkpt lat="45.49987597426513" lon="8.702847036167325"><ele>172.0</ele><time>2026-05-02T14:05:21Z</time></trkpt><trkpt lat="45.499897836792876" lon="8.702995951325592"><ele>172.0</ele><time>2026-05-02T14:05:23Z</time></trkpt><trkpt lat="45.49992404153144" lon="8.703143209415344"><ele>172.0</ele><time>2026-05-02T14:05:25Z</time></trkpt><trkpt lat="45.49994367051936" lon="8.703273530459064"><ele>171.6</ele><time>2026-05-02T14:05:27Z</time></trkpt><trkpt lat="45.49996828868968" lon="8.703406445979054"><ele>171.2</ele><time>2026-05-02T14:05:29Z</time></trkpt><trkpt lat="45.49999500801478" lon="8.703556272863402"><ele>170.8</ele><time>2026-05-02T14:05:31Z</time></trkpt><trkpt lat="45.50001271047435" lon="8.703691646417063"><ele>170.4</ele><time>2026-05-02T14:05:33Z</time></trkpt><trkpt lat="45.500045898564935" lon="8.703820456846497"><ele>170.0</ele><time>2026-05-02T14:05:35Z</time></trkpt><trkpt lat="45.500060421151986" lon="8.703956683000683"><ele>170.0</ele><time>2026-05-02T14:05:37Z</time></trkpt><trkpt lat="45.50007837156635" lon="8.70409939026124"><ele>170.0</ele><time>2026-05-02T14:05:39Z</time></trkpt><trkpt lat="45.50010119062807" lon="8.704225928454319"><ele>170.0</ele><time>2026-05-02T14:05:41Z</time></trkpt><trkpt lat="45.50011990679301" lon="8.704343614199134"><ele>170.0</ele><time>2026-05-02T14:05:43Z</time></trkpt><trkpt lat="45.50015681550978" lon="8.704482545783994"><ele>170.0</ele><time>2026-05-02T14:05:45Z</time></trkpt><trkpt lat="45.50017961954968" lon="8.704640891530108"><ele>169.83333333333331</ele><time>2026-05-02T14:05:47Z</time></trkpt><trkpt lat="45.5001926190086" lon="8.7047669228373"><ele>169.66666666666666</ele><time>2026-05-02T14:05:49Z</time></trkpt><trkpt lat="45.500213572456445" lon="8.704891838678726"><ele>169.5</ele><time>2026-05-02T14:05:51Z</time></trkpt><trkpt lat="45.50022588072727" lon="8.704989868647516"><ele>169.33333333333334</ele><time>2026-05-02T14:05:53Z</time></trkpt><trkpt lat="45.50023317133663" lon="8.705091629848084"><ele>169.16666666666669</ele><time>2026-05-02T14:05:55.001Z</time></trkpt><trkpt lat="45.50025600568893" lon="8.705181306323478"><ele>169.0</ele><time>2026-05-02T14:06:01.001Z</time></trkpt><trkpt lat="45.50033832021741" lon="8.705172677653687"><ele>169.0</ele><time>2026-05-02T14:06:04.001Z</time></trkpt><trkpt lat="45.50043286871918" lon="8.705138441800484"><ele>169.0</ele><time>2026-05-02T14:06:06.001Z</time></trkpt><trkpt lat="45.50054347145206" lon="8.705106281172963"><ele>169.0</ele><time>2026-05-02T14:06:08.001Z</time></trkpt><trkpt lat="45.500635331993564" lon="8.705082974324196"><ele>169.0</ele><time>2026-05-02T14:06:10.001Z</time></trkpt><trkpt lat="45.50073248413127" lon="8.705034811954635"><ele>169.0</ele><time>2026-05-02T14:06:12.001Z</time></trkpt><trkpt lat="45.500829289422846" lon="8.704989124372833"><ele>169.0</ele><time>2026-05-02T14:06:14.001Z</time></trkpt><trkpt lat="45.50092150663249" lon="8.704934685057953"><ele>169.0</ele><time>2026-05-02T14:06:16.001Z</time></trkpt><trkpt lat="45.50101214748692" lon="8.704877266248408"><ele>169.0</ele><time>2026-05-02T14:06:46Z</time></trkpt><trkpt lat="45.501123516163446" lon="8.704823650554525"><ele>169.0</ele><time>2026-05-02T14:06:48Z</time></trkpt><trkpt lat="45.501201081871244" lon="8.704782772625068"><ele>169.0</ele><time>2026-05-02T14:06:49Z</time></trkpt><trkpt lat="45.50130063201142" lon="8.704732349834364"><ele>169.33333333333334</ele><time>2026-05-02T14:06:50Z</time></trkpt><trkpt lat="45.501383279929996" lon="8.704686113140488"><ele>169.66666666666669</ele><time>2026-05-02T14:06:51Z</time></trkpt><trkpt lat="45.50145843944925" lon="8.704654397596585"><ele>170.0</ele><time>2026-05-02T14:06:52Z</time></trkpt><trkpt lat="45.50153579485979" lon="8.704629784604863"><ele>170.33333333333334</ele><time>2026-05-02T14:06:53Z</time></trkpt><trkpt lat="45.50162990830416" lon="8.704570757616167"><ele>170.66666666666666</ele><time>2026-05-02T14:06:55Z</time></trkpt><trkpt lat="45.50171845960176" lon="8.7045069151349"><ele>171.0</ele><time>2026-05-02T14:06:57Z</time></trkpt><trkpt lat="45.50180273358364" lon="8.704439291372116"><ele>171.0</ele><time>2026-05-02T14:06:59Z</time></trkpt><trkpt lat="45.501905399704405" lon="8.704386474392654"><ele>171.0</ele><time>2026-05-02T14:07:01Z</time></trkpt><trkpt lat="45.501999871745305" lon="8.704351187834838"><ele>171.0</ele><time>2026-05-02T14:07:03Z</time></trkpt><trkpt lat="45.50209759182033" lon="8.7043039915221"><ele>171.0</ele><time>2026-05-02T14:07:05Z</time></trkpt><trkpt lat="45.502195508879176" lon="8.704279346782911"><ele>171.0</ele><time>2026-05-02T14:07:07Z</time></trkpt><trkpt lat="45.502285326976946" lon="8.704237393133914"><ele>171.4</ele><time>2026-05-02T14:07:09Z</time></trkpt><trkpt lat="45.502384488450154" lon="8.704200202151014"><ele>171.8</ele><time>2026-05-02T14:07:11Z</time></trkpt><trkpt lat="45.50249475465998" lon="8.704141838265764"><ele>172.20000000000002</ele><time>2026-05-02T14:07:13Z</time></trkpt><trkpt lat="45.50259215715031" lon="8.704103475167527"><ele>172.60000000000002</ele><time>2026-05-02T14:07:14Z</time></trkpt><trkpt lat="45.50267373939641" lon="8.704063172027114"><ele>173.0</ele><time>2026-05-02T14:07:15Z</time></trkpt><trkpt lat="45.50274376634444" lon="8.70404082476177"><ele>173.0</ele><time>2026-05-02T14:07:16Z</time></trkpt><trkpt lat="45.502849049514985" lon="8.70400933814917"><ele>173.0</ele><time>2026-05-02T14:07:18Z</time></trkpt><trkpt lat="45.50295374590282" lon="8.703956686206709"><ele>173.0</ele><time>2026-05-02T14:07:20Z</time></trkpt><trkpt lat="45.50301955218741" lon="8.703922862270405"><ele>173.0</ele><time>2026-05-02T14:07:21Z</time></trkpt><trkpt lat="45.50311520397714" lon="8.703875306820573"><ele>173.0</ele><time>2026-05-02T14:07:23Z</time></trkpt><trkpt lat="45.503228665282435" lon="8.703833111978687"><ele>172.8</ele><time>2026-05-02T14:07:25Z</time></trkpt><trkpt lat="45.503289651318845" lon="8.703806659598728"><ele>172.60000000000002</ele><time>2026-05-02T14:07:26Z</time></trkpt><trkpt lat="45.50338990722122" lon="8.70376122509769"><ele>172.39999999999998</ele><time>2026-05-02T14:07:28Z</time></trkpt><trkpt lat="45.503485580374345" lon="8.703718024911137"><ele>172.2</ele><time>2026-05-02T14:07:30Z</time></trkpt><trkpt lat="45.503570958417626" lon="8.703680054160534"><ele>172.0</ele><time>2026-05-02T14:07:32Z</time></trkpt><trkpt lat="45.50367839427797" lon="8.703626923497692"><ele>172.0</ele><time>2026-05-02T14:07:34Z</time></trkpt><trkpt lat="45.5037586843689" lon="8.703590385085045"><ele>172.0</ele><time>2026-05-02T14:07:36Z</time></trkpt><trkpt lat="45.5038298707278" lon="8.703574635650925"><ele>172.0</ele><time>2026-05-02T14:07:38Z</time></trkpt><trkpt lat="45.50391470375911" lon="8.703529705776116"><ele>172.0</ele><time>2026-05-02T14:08:41Z</time></trkpt><trkpt lat="45.504007839779234" lon="8.703483241143124"><ele>172.0</ele><time>2026-05-02T14:08:43Z</time></trkpt><trkpt lat="45.5040866540133" lon="8.703449490242955"><ele>172.0</ele><time>2026-05-02T14:08:45Z</time></trkpt><trkpt lat="45.50415667321071" lon="8.703410046538696"><ele>172.00000000000003</ele><time>2026-05-02T14:08:47Z</time></trkpt><trkpt lat="45.50422452294409" lon="8.703386747084908"><ele>172.0</ele><time>2026-05-02T14:08:49Z</time></trkpt><trkpt lat="45.50428873900402" lon="8.703358543378528"><ele>172.0</ele><time>2026-05-02T14:08:51Z</time></trkpt><trkpt lat="45.50435108420934" lon="8.703328419021881"><ele>172.0</ele><time>2026-05-02T14:08:53Z</time></trkpt><trkpt lat="45.504418535800255" lon="8.703292627313926"><ele>172.0</ele><time>2026-05-02T14:08:55Z</time></trkpt><trkpt lat="45.50451077866065" lon="8.703248688032641"><ele>172.00000000000003</ele><time>2026-05-02T14:08:58Z</time></trkpt><trkpt lat="45.50457459841945" lon="8.703220394523967"><ele>172.0</ele><time>2026-05-02T14:09:00Z</time></trkpt><trkpt lat="45.50464424687899" lon="8.703175797646676"><ele>172.00000000000003</ele><time>2026-05-02T14:09:02Z</time></trkpt><trkpt lat="45.50470553772325" lon="8.703135858550423"><ele>172.0</ele><time>2026-05-02T14:09:04Z</time></trkpt><trkpt lat="45.504771299858135" lon="8.703110682929609"><ele>172.0</ele><time>2026-05-02T14:09:06Z</time></trkpt><trkpt lat="45.50483203341723" lon="8.703073851371622"><ele>172.0</ele><time>2026-05-02T14:09:08Z</time></trkpt><trkpt lat="45.50489499312583" lon="8.703041808192008"><ele>172.0</ele><time>2026-05-02T14:09:10Z</time></trkpt><trkpt lat="45.50496425627014" lon="8.703008177191476"><ele>172.00000000000003</ele><time>2026-05-02T14:09:12Z</time></trkpt><trkpt lat="45.50504427291826" lon="8.70297291571683"><ele>172.0</ele><time>2026-05-02T14:09:15Z</time></trkpt><trkpt lat="45.50512976776036" lon="8.702928871021632"><ele>172.0</ele><time>2026-05-02T14:09:18Z</time></trkpt><trkpt lat="45.50520631844033" lon="8.702904030862928"><ele>172.0</ele><time>2026-05-02T14:09:20Z</time></trkpt><trkpt lat="45.505281090728154" lon="8.70287896305894"><ele>172.0</ele><time>2026-05-02T14:09:22Z</time></trkpt><trkpt lat="45.50534651536139" lon="8.702849881418793"><ele>172.0</ele><time>2026-05-02T14:09:24Z</time></trkpt><trkpt lat="45.50542099673571" lon="8.70281294037691"><ele>172.0</ele><time>2026-05-02T14:09:26Z</time></trkpt><trkpt lat="45.5054937496285" lon="8.70277224806256"><ele>172.0</ele><time>2026-05-02T14:09:28Z</time></trkpt><trkpt lat="45.505569851301544" lon="8.702735947625781"><ele>172.2857142857143</ele><time>2026-05-02T14:09:30Z</time></trkpt><trkpt lat="45.505637389368594" lon="8.702710881091235"><ele>172.57142857142858</ele><time>2026-05-02T14:09:32Z</time></trkpt><trkpt lat="45.50570375379912" lon="8.702697629522843"><ele>172.85714285714286</ele><time>2026-05-02T14:09:34Z</time></trkpt><trkpt lat="45.505779998566275" lon="8.702670826017787"><ele>173.14285714285717</ele><time>2026-05-02T14:09:36Z</time></trkpt><trkpt lat="45.505866251809" lon="8.702621309160646"><ele>173.42857142857144</ele><time>2026-05-02T14:09:39Z</time></trkpt><trkpt lat="45.50592826354029" lon="8.702600018858286"><ele>173.71428571428572</ele><time>2026-05-02T14:09:41Z</time></trkpt><trkpt lat="45.505991335475116" lon="8.702560416030213"><ele>174.0</ele><time>2026-05-02T14:09:43Z</time></trkpt><trkpt lat="45.50604469785591" lon="8.70251124629672"><ele>174.0</ele><time>2026-05-02T14:09:45Z</time></trkpt><trkpt lat="45.50612969852507" lon="8.702460656118555"><ele>174.0</ele><time>2026-05-02T14:09:48Z</time></trkpt><trkpt lat="45.50619332415937" lon="8.702433070856818"><ele>174.0</ele><time>2026-05-02T14:09:50Z</time></trkpt><trkpt lat="45.50626685499014" lon="8.702380038120785"><ele>174.0</ele><time>2026-05-02T14:09:52Z</time></trkpt><trkpt lat="45.50634382038057" lon="8.702314057705893"><ele>174.0</ele><time>2026-05-02T14:09:55Z</time></trkpt><trkpt lat="45.50642328221882" lon="8.70224618410083"><ele>174.0</ele><time>2026-05-02T14:09:57Z</time></trkpt><trkpt lat="45.506487332227266" lon="8.702186143196927"><ele>174.0</ele><time>2026-05-02T14:09:59Z</time></trkpt><trkpt lat="45.50655039237767" lon="8.702121021557582"><ele>174.0</ele><time>2026-05-02T14:10:01Z</time></trkpt><trkpt lat="45.50660633411043" lon="8.70206153872895"><ele>174.0</ele><time>2026-05-02T14:10:03Z</time></trkpt><trkpt lat="45.506670836893065" lon="8.701974426336117"><ele>174.0</ele><time>2026-05-02T14:10:06.001Z</time></trkpt><trkpt lat="45.50674173613398" lon="8.701904158339133"><ele>174.0</ele><time>2026-05-02T14:10:09.001Z</time></trkpt><trkpt lat="45.5067950253469" lon="8.701847890489882"><ele>174.0</ele><time>2026-05-02T14:10:11.001Z</time></trkpt><trkpt lat="45.50686601758769" lon="8.701771338563002"><ele>173.71428571428572</ele><time>2026-05-02T14:10:14Z</time></trkpt><trkpt lat="45.506914227357335" lon="8.701682437906275"><ele>173.42857142857144</ele><time>2026-05-02T14:10:17Z</time></trkpt><trkpt lat="45.50695153940886" lon="8.70159157784176"><ele>173.14285714285717</ele><time>2026-05-02T14:10:19Z</time></trkpt><trkpt lat="45.506955842212825" lon="8.701493128382308"><ele>172.85714285714286</ele><time>2026-05-02T14:10:21Z</time></trkpt><trkpt lat="45.50694378204535" lon="8.701401489116602"><ele>172.57142857142858</ele><time>2026-05-02T14:10:23Z</time></trkpt><trkpt lat="45.506925554096775" lon="8.701313111854194"><ele>172.2857142857143</ele><time>2026-05-02T14:10:25Z</time></trkpt><trkpt lat="45.50690675151786" lon="8.70120898962522"><ele>172.0</ele><time>2026-05-02T14:10:27Z</time></trkpt><trkpt lat="45.506881989094005" lon="8.701097245398334"><ele>171.8</ele><time>2026-05-02T14:10:29Z</time></trkpt><trkpt lat="45.50685851068035" lon="8.700980805069166"><ele>171.6</ele><time>2026-05-02T14:10:31Z</time></trkpt><trkpt lat="45.506835250739" lon="8.700859940307431"><ele>171.4</ele><time>2026-05-02T14:10:33Z</time></trkpt><trkpt lat="45.50678689750667" lon="8.700727801327401"><ele>171.20000000000002</ele><time>2026-05-02T14:10:35Z</time></trkpt><trkpt lat="45.506739475875506" lon="8.700583141198207"><ele>171.0</ele><time>2026-05-02T14:10:37Z</time></trkpt><trkpt lat="45.50670415713581" lon="8.700445049829536"><ele>171.0</ele><time>2026-05-02T14:10:39Z</time></trkpt><trkpt lat="45.50667857254877" lon="8.70033178227985"><ele>171.0</ele><time>2026-05-02T14:10:41Z</time></trkpt><trkpt lat="45.50665168796854" lon="8.700222128372454"><ele>171.0</ele><time>2026-05-02T14:10:43Z</time></trkpt><trkpt lat="45.5066239749695" lon="8.700103900154149"><ele>171.0</ele><time>2026-05-02T14:10:45Z</time></trkpt><trkpt lat="45.50659532012683" lon="8.699991725477139"><ele>171.0</ele><time>2026-05-02T14:10:47Z</time></trkpt><trkpt lat="45.506566990279495" lon="8.699888724746156"><ele>171.0</ele><time>2026-05-02T14:10:49Z</time></trkpt><trkpt lat="45.5065466498309" lon="8.699790274303066"><ele>171.0</ele><time>2026-05-02T14:10:51Z</time></trkpt><trkpt lat="45.50651628435751" lon="8.699677398824381"><ele>171.0</ele><time>2026-05-02T14:10:53Z</time></trkpt><trkpt lat="45.5064918459903" lon="8.699579739102488"><ele>171.0</ele><time>2026-05-02T14:10:55Z</time></trkpt><trkpt lat="45.50646106122589" lon="8.699471148629026"><ele>171.0</ele><time>2026-05-02T14:10:57Z</time></trkpt><trkpt lat="45.506431437925436" lon="8.699373790415786"><ele>171.0</ele><time>2026-05-02T14:10:59Z</time></trkpt><trkpt lat="45.50640103350018" lon="8.699275680591867"><ele>171.0</ele><time>2026-05-02T14:11:01Z</time></trkpt><trkpt lat="45.50637908523824" lon="8.699187250625943"><ele>171.0</ele><time>2026-05-02T14:11:03Z</time></trkpt><trkpt lat="45.5063477828563" lon="8.699077929341508"><ele>171.0</ele><time>2026-05-02T14:11:06Z</time></trkpt><trkpt lat="45.50631019485623" lon="8.698965757193694"><ele>171.0</ele><time>2026-05-02T14:11:09Z</time></trkpt><trkpt lat="45.50628956774011" lon="8.698862611039695"><ele>171.0</ele><time>2026-05-02T14:11:12Z</time></trkpt><trkpt lat="45.50626432920975" lon="8.69874420010855"><ele>171.0</ele><time>2026-05-02T14:11:15Z</time></trkpt><trkpt lat="45.506247355007616" lon="8.69864731671817"><ele>171.0</ele><time>2026-05-02T14:11:17Z</time></trkpt><trkpt lat="45.50622183696718" lon="8.698544203422479"><ele>170.0</ele><time>2026-05-02T14:11:18Z</time></trkpt><trkpt lat="45.50620409702469" lon="8.698428630409609"><ele>169.0</ele><time>2026-05-02T14:11:19Z</time></trkpt><trkpt lat="45.5062321691731" lon="8.698313320972563"><ele>168.0</ele><time>2026-05-02T14:11:20Z</time></trkpt><trkpt lat="45.5062109718626" lon="8.698214833559067"><ele>167.0</ele><time>2026-05-02T14:11:21Z</time></trkpt><trkpt lat="45.50618663506458" lon="8.698101883207551"><ele>166.0</ele><time>2026-05-02T14:11:22Z</time></trkpt><trkpt lat="45.506159229361494" lon="8.697974689637899"><ele>165.0</ele><time>2026-05-02T14:11:23Z</time></trkpt><trkpt lat="45.50612780774705" lon="8.697831497285792"><ele>164.8</ele><time>2026-05-02T14:11:24Z</time></trkpt><trkpt lat="45.50609499928119" lon="8.697684480666826"><ele>164.6</ele><time>2026-05-02T14:11:25Z</time></trkpt><trkpt lat="45.506061808288614" lon="8.697541675881121"><ele>164.39999999999998</ele><time>2026-05-02T14:11:26Z</time></trkpt><trkpt lat="45.5060322379133" lon="8.697416066547447"><ele>164.2</ele><time>2026-05-02T14:11:27Z</time></trkpt><trkpt lat="45.5060017558779" lon="8.697286584665093"><ele>164.0</ele><time>2026-05-02T14:11:28Z</time></trkpt><trkpt lat="45.50597086555235" lon="8.697157553558561"><ele>164.0</ele><time>2026-05-02T14:11:29Z</time></trkpt><trkpt lat="45.50593781220876" lon="8.697021487057517"><ele>164.0</ele><time>2026-05-02T14:11:30Z</time></trkpt><trkpt lat="45.50590265733865" lon="8.696876973014634"><ele>164.0</ele><time>2026-05-02T14:11:31Z</time></trkpt><trkpt lat="45.50586665942411" lon="8.696728993406552"><ele>164.0</ele><time>2026-05-02T14:11:32Z</time></trkpt><trkpt lat="45.50583083772342" lon="8.696581738171334"><ele>164.0</ele><time>2026-05-02T14:11:33Z</time></trkpt><trkpt lat="45.505795719735" lon="8.696436504473372"><ele>164.0</ele><time>2026-05-02T14:11:34Z</time></trkpt><trkpt lat="45.505761277732276" lon="8.696291403253058"><ele>164.0</ele><time>2026-05-02T14:11:35Z</time></trkpt><trkpt lat="45.50572978473265" lon="8.696153961123882"><ele>164.0</ele><time>2026-05-02T14:11:36Z</time></trkpt><trkpt lat="45.5057016131817" lon="8.696027488846282"><ele>164.0</ele><time>2026-05-02T14:11:37Z</time></trkpt><trkpt lat="45.505673739185625" lon="8.695902185483758"><ele>164.0</ele><time>2026-05-02T14:11:38Z</time></trkpt><trkpt lat="45.50564440968663" lon="8.695768833199248"><ele>163.6</ele><time>2026-05-02T14:11:39Z</time></trkpt><trkpt lat="45.505612976526365" lon="8.695626526701636"><ele>163.2</ele><time>2026-05-02T14:11:40Z</time></trkpt><trkpt lat="45.50558155785854" lon="8.695482350651979"><ele>162.79999999999998</ele><time>2026-05-02T14:11:41Z</time></trkpt><trkpt lat="45.50554911571858" lon="8.69534119781339"><ele>162.39999999999998</ele><time>2026-05-02T14:11:42Z</time></trkpt><trkpt lat="45.50551715956104" lon="8.695199206313868"><ele>162.0</ele><time>2026-05-02T14:11:43Z</time></trkpt><trkpt lat="45.50548586971327" lon="8.695061063576352"><ele>161.8</ele><time>2026-05-02T14:11:44Z</time></trkpt><trkpt lat="45.505455541624784" lon="8.694927166957418"><ele>161.6</ele><time>2026-05-02T14:11:45Z</time></trkpt><trkpt lat="45.50542437561133" lon="8.694793467144159"><ele>161.4</ele><time>2026-05-02T14:11:46Z</time></trkpt><trkpt lat="45.5053921093758" lon="8.694657018754418"><ele>161.20000000000002</ele><time>2026-05-02T14:11:47Z</time></trkpt><trkpt lat="45.50535619680987" lon="8.694518067900402"><ele>161.0</ele><time>2026-05-02T14:11:48Z</time></trkpt><trkpt lat="45.505322194005565" lon="8.694389784017954"><ele>161.0</ele><time>2026-05-02T14:11:49Z</time></trkpt><trkpt lat="45.50529204206702" lon="8.69427999476451"><ele>161.0</ele><time>2026-05-02T14:11:50Z</time></trkpt><trkpt lat="45.50526567342384" lon="8.694183981250129"><ele>161.0</ele><time>2026-05-02T14:11:51Z</time></trkpt><trkpt lat="45.50523722223287" lon="8.694087769732132"><ele>161.0</ele><time>2026-05-02T14:11:52Z</time></trkpt><trkpt lat="45.50520968052236" lon="8.693996182161882"><ele>161.0</ele><time>2026-05-02T14:11:53Z</time></trkpt><trkpt lat="45.50517982558797" lon="8.693896902170465"><ele>161.0</ele><time>2026-05-02T14:11:54Z</time></trkpt><trkpt lat="45.50514523705496" lon="8.693785092081349"><ele>161.0</ele><time>2026-05-02T14:11:55Z</time></trkpt><trkpt lat="45.50510617693146" lon="8.693662016812443"><ele>161.0</ele><time>2026-05-02T14:11:56Z</time></trkpt><trkpt lat="45.50506283632122" lon="8.693528438296818"><ele>161.0</ele><time>2026-05-02T14:11:57Z</time></trkpt><trkpt lat="45.50501250209209" lon="8.693378532180205"><ele>161.0</ele><time>2026-05-02T14:11:58Z</time></trkpt><trkpt lat="45.50495983862345" lon="8.693219599581393"><ele>161.0</ele><time>2026-05-02T14:11:59Z</time></trkpt><trkpt lat="45.504897222712756" lon="8.693027421617934"><ele>160.66666666666666</ele><time>2026-05-02T14:12:00Z</time></trkpt><trkpt lat="45.50482621615936" lon="8.692802421920579"><ele>160.33333333333334</ele><time>2026-05-02T14:12:01Z</time></trkpt><trkpt lat="45.504764645529285" lon="8.692604341697162"><ele>160.0</ele><time>2026-05-02T14:12:02Z</time></trkpt><trkpt lat="45.504684766446495" lon="8.69234857464561"><ele>160.0</ele><time>2026-05-02T14:12:03Z</time></trkpt><trkpt lat="45.5046041798279" lon="8.692094319467685"><ele>160.0</ele><time>2026-05-02T14:12:04Z</time></trkpt><trkpt lat="45.504548135953165" lon="8.691913635945102"><ele>160.0</ele><time>2026-05-02T14:12:05Z</time></trkpt><trkpt lat="45.504491944544505" lon="8.691723840498735"><ele>160.25</ele><time>2026-05-02T14:12:06Z</time></trkpt><trkpt lat="45.504443442766295" lon="8.691548661901695"><ele>160.5</ele><time>2026-05-02T14:12:07Z</time></trkpt><trkpt lat="45.50440138250536" lon="8.691379546105535"><ele>160.75</ele><time>2026-05-02T14:12:08Z</time></trkpt><trkpt lat="45.50436535708728" lon="8.69121644690359"><ele>161.0</ele><time>2026-05-02T14:12:09Z</time></trkpt><trkpt lat="45.50432132067887" lon="8.691052216615105"><ele>161.5</ele><time>2026-05-02T14:12:10Z</time></trkpt><trkpt lat="45.50429212203112" lon="8.690868692320153"><ele>162.0</ele><time>2026-05-02T14:12:11Z</time></trkpt><trkpt lat="45.50426262841994" lon="8.690675917745624"><ele>162.5</ele><time>2026-05-02T14:12:12.001Z</time></trkpt><trkpt lat="45.504234213457565" lon="8.690481504782898"><ele>163.0</ele><time>2026-05-02T14:12:13.001Z</time></trkpt><trkpt lat="45.50420661450039" lon="8.690266643314272"><ele>162.75</ele><time>2026-05-02T14:12:14.001Z</time></trkpt><trkpt lat="45.50417770409415" lon="8.690047229637331"><ele>162.5</ele><time>2026-05-02T14:12:15.001Z</time></trkpt><trkpt lat="45.504171862782094" lon="8.689862454940217"><ele>162.25</ele><time>2026-05-02T14:12:16.001Z</time></trkpt><trkpt lat="45.50415720658223" lon="8.689726737820362"><ele>162.0</ele><time>2026-05-02T14:12:17.001Z</time></trkpt><trkpt lat="45.504146889619314" lon="8.689631202248952"><ele>162.0</ele><time>2026-05-02T14:12:18.001Z</time></trkpt><trkpt lat="45.504119275252464" lon="8.689519526279929"><ele>162.0</ele><time>2026-05-02T14:12:19.001Z</time></trkpt><trkpt lat="45.504136247987915" lon="8.689414150250066"><ele>162.0</ele><time>2026-05-02T14:12:22.001Z</time></trkpt><trkpt lat="45.50422445414709" lon="8.68940938739219"><ele>162.0</ele><time>2026-05-02T14:12:24.001Z</time></trkpt><trkpt lat="45.50433525938014" lon="8.689311457842262"><ele>162.0</ele><time>2026-05-02T14:12:26.001Z</time></trkpt><trkpt lat="45.5044105726555" lon="8.68922278389659"><ele>162.0</ele><time>2026-05-02T14:12:27.001Z</time></trkpt><trkpt lat="45.504496168273" lon="8.689133125615164"><ele>162.0</ele><time>2026-05-02T14:12:28.001Z</time></trkpt><trkpt lat="45.504576920442105" lon="8.689058831467777"><ele>162.0</ele><time>2026-05-02T14:12:29.001Z</time></trkpt><trkpt lat="45.50465149430777" lon="8.688997340061425"><ele>162.0</ele><time>2026-05-02T14:12:30.001Z</time></trkpt><trkpt lat="45.50472022837459" lon="8.688937030888122"><ele>162.0</ele><time>2026-05-02T14:12:31.001Z</time></trkpt><trkpt lat="45.50478312591595" lon="8.688877923445784"><ele>162.0</ele><time>2026-05-02T14:12:32.001Z</time></trkpt><trkpt lat="45.50484722791253" lon="8.688825164548907"><ele>162.0</ele><time>2026-05-02T14:12:33Z</time></trkpt><trkpt lat="45.50491601774749" lon="8.68878928516686"><ele>162.0</ele><time>2026-05-02T14:12:34Z</time></trkpt><trkpt lat="45.5050051399058" lon="8.688759089031548"><ele>162.0</ele><time>2026-05-02T14:12:35Z</time></trkpt><trkpt lat="45.50511828605562" lon="8.688724500297623"><ele>162.0</ele><time>2026-05-02T14:12:36Z</time></trkpt><trkpt lat="45.50526442223832" lon="8.688689813380229"><ele>162.0</ele><time>2026-05-02T14:12:37Z</time></trkpt><trkpt lat="45.50541384063127" lon="8.688651415359871"><ele>162.0</ele><time>2026-05-02T14:12:38Z</time></trkpt><trkpt lat="45.50555293191013" lon="8.68861536716405"><ele>162.0</ele><time>2026-05-02T14:12:39Z</time></trkpt><trkpt lat="45.50573870551337" lon="8.688566700593222"><ele>162.0</ele><time>2026-05-02T14:12:40Z</time></trkpt><trkpt lat="45.505890961138455" lon="8.688532698560481"><ele>162.0</ele><time>2026-05-02T14:12:41Z</time></trkpt><trkpt lat="45.5060235575806" lon="8.688500975431422"><ele>162.0</ele><time>2026-05-02T14:12:42Z</time></trkpt><trkpt lat="45.5061740836432" lon="8.688472229291552"><ele>162.0</ele><time>2026-05-02T14:12:43Z</time></trkpt><trkpt lat="45.5063338322937" lon="8.688425703502963"><ele>162.0</ele><time>2026-05-02T14:12:44Z</time></trkpt><trkpt lat="45.50650936150561" lon="8.688372576607128"><ele>162.25</ele><time>2026-05-02T14:12:45Z</time></trkpt><trkpt lat="45.506664426970474" lon="8.688329454188963"><ele>162.5</ele><time>2026-05-02T14:12:46Z</time></trkpt><trkpt lat="45.50680262155758" lon="8.688295057777534"><ele>162.75</ele><time>2026-05-02T14:12:47Z</time></trkpt><trkpt lat="45.50693567576117" lon="8.688286125470976"><ele>163.0</ele><time>2026-05-02T14:12:48Z</time></trkpt><trkpt lat="45.50707208762844" lon="8.688229197283203"><ele>163.5</ele><time>2026-05-02T14:12:49Z</time></trkpt><trkpt lat="45.50721580308123" lon="8.688195123976943"><ele>164.0</ele><time>2026-05-02T14:12:50Z</time></trkpt><trkpt lat="45.50736411925766" lon="8.688160277290693"><ele>164.5</ele><time>2026-05-02T14:12:51Z</time></trkpt><trkpt lat="45.507509019431566" lon="8.688110751166258"><ele>165.0</ele><time>2026-05-02T14:12:52Z</time></trkpt><trkpt lat="45.507651337221375" lon="8.688052863630029"><ele>165.0</ele><time>2026-05-02T14:12:53Z</time></trkpt><trkpt lat="45.50778814475739" lon="8.687997993362599"><ele>165.0</ele><time>2026-05-02T14:12:54Z</time></trkpt><trkpt lat="45.507911247086895" lon="8.687951220648863"><ele>165.0</ele><time>2026-05-02T14:12:55Z</time></trkpt><trkpt lat="45.508025574797706" lon="8.687906231429768"><ele>165.0</ele><time>2026-05-02T14:12:56Z</time></trkpt><trkpt lat="45.5081289862281" lon="8.68786307290601"><ele>165.25</ele><time>2026-05-02T14:12:57Z</time></trkpt><trkpt lat="45.50822822081953" lon="8.687823128617902"><ele>165.5</ele><time>2026-05-02T14:12:58Z</time></trkpt><trkpt lat="45.50832512965356" lon="8.687768007652343"><ele>165.75</ele><time>2026-05-02T14:12:59Z</time></trkpt><trkpt lat="45.50843288233" lon="8.687659953401067"><ele>166.0</ele><time>2026-05-02T14:13:00Z</time></trkpt><trkpt lat="45.50856743366659" lon="8.687557021183"><ele>166.0</ele><time>2026-05-02T14:13:01Z</time></trkpt><trkpt lat="45.50869194231711" lon="8.687424461152746"><ele>166.0</ele><time>2026-05-02T14:13:02Z</time></trkpt><trkpt lat="45.508819404034135" lon="8.687316517621866"><ele>166.0</ele><time>2026-05-02T14:13:03Z</time></trkpt><trkpt lat="45.50894698283205" lon="8.687211297951919"><ele>166.0</ele><time>2026-05-02T14:13:04Z</time></trkpt><trkpt lat="45.50908912365948" lon="8.687085422218683"><ele>166.0</ele><time>2026-05-02T14:13:05Z</time></trkpt><trkpt lat="45.509228517628166" lon="8.68695821153856"><ele>166.0</ele><time>2026-05-02T14:13:06Z</time></trkpt><trkpt lat="45.50935621894955" lon="8.686859826958187"><ele>166.0</ele><time>2026-05-02T14:13:07Z</time></trkpt><trkpt lat="45.509499396942985" lon="8.686764752322619"><ele>166.0</ele><time>2026-05-02T14:13:08Z</time></trkpt><trkpt lat="45.50963861878101" lon="8.68667673252598"><ele>166.0</ele><time>2026-05-02T14:13:09Z</time></trkpt><trkpt lat="45.509771549236554" lon="8.686592245816676"><ele>165.25</ele><time>2026-05-02T14:13:10Z</time></trkpt><trkpt lat="45.509898582301396" lon="8.686509287625169"><ele>164.5</ele><time>2026-05-02T14:13:11Z</time></trkpt><trkpt lat="45.510010541425075" lon="8.686435708927561"><ele>163.75</ele><time>2026-05-02T14:13:12Z</time></trkpt><trkpt lat="45.51011526152189" lon="8.686365186813232"><ele>163.0</ele><time>2026-05-02T14:13:13Z</time></trkpt><trkpt lat="45.51021600692865" lon="8.686299489131468"><ele>163.0</ele><time>2026-05-02T14:13:14Z</time></trkpt><trkpt lat="45.51030371324566" lon="8.68623568113657"><ele>163.0</ele><time>2026-05-02T14:13:15Z</time></trkpt><trkpt lat="45.510370278989065" lon="8.686178776062576"><ele>163.0</ele><time>2026-05-02T14:13:16Z</time></trkpt><trkpt lat="45.510459238814434" lon="8.68610864108331"><ele>163.0</ele><time>2026-05-02T14:13:18Z</time></trkpt><trkpt lat="45.51058002969133" lon="8.68606997571367"><ele>163.0</ele><time>2026-05-02T14:13:20Z</time></trkpt><trkpt lat="45.510693502165665" lon="8.686027825595419"><ele>163.66666666666669</ele><time>2026-05-02T14:13:21Z</time></trkpt><trkpt lat="45.51085358270977" lon="8.685963780352443"><ele>164.33333333333334</ele><time>2026-05-02T14:13:22Z</time></trkpt><trkpt lat="45.51104942140635" lon="8.685864515529765"><ele>165.0</ele><time>2026-05-02T14:13:23Z</time></trkpt><trkpt lat="45.51125916060218" lon="8.685782802989984"><ele>165.0</ele><time>2026-05-02T14:13:24Z</time></trkpt><trkpt lat="45.51147059316662" lon="8.685687171865148"><ele>165.0</ele><time>2026-05-02T14:13:25Z</time></trkpt><trkpt lat="45.511639050895994" lon="8.685610496225927"><ele>165.0</ele><time>2026-05-02T14:13:26Z</time></trkpt><trkpt lat="45.511756264710264" lon="8.685539180735319"><ele>165.0</ele><time>2026-05-02T14:13:27Z</time></trkpt><trkpt lat="45.511847957601105" lon="8.685499326314009"><ele>165.0</ele><time>2026-05-02T14:13:28Z</time></trkpt><trkpt lat="45.511929223122344" lon="8.685478461195448"><ele>165.0</ele><time>2026-05-02T14:13:29Z</time></trkpt><trkpt lat="45.51199886009529" lon="8.685506470921453"><ele>165.0</ele><time>2026-05-02T14:13:30Z</time></trkpt><trkpt lat="45.51204739303013" lon="8.685578713759183"><ele>165.0</ele><time>2026-05-02T14:13:31Z</time></trkpt><trkpt lat="45.51205264631151" lon="8.685700419317069"><ele>165.0</ele><time>2026-05-02T14:13:32Z</time></trkpt><trkpt lat="45.51207150580477" lon="8.685830210238036"><ele>165.5</ele><time>2026-05-02T14:13:33Z</time></trkpt><trkpt lat="45.512105644521604" lon="8.685951677540618"><ele>166.0</ele><time>2026-05-02T14:13:34Z</time></trkpt><trkpt lat="45.51212563334342" lon="8.686066706713675"><ele>166.5</ele><time>2026-05-02T14:13:35Z</time></trkpt><trkpt lat="45.51214689747334" lon="8.686176564799187"><ele>167.0</ele><time>2026-05-02T14:13:36Z</time></trkpt><trkpt lat="45.51217100409806" lon="8.686296970307719"><ele>167.5</ele><time>2026-05-02T14:13:37Z</time></trkpt><trkpt lat="45.512199902267" lon="8.686430778001107"><ele>168.0</ele><time>2026-05-02T14:13:38Z</time></trkpt><trkpt lat="45.512224252617216" lon="8.686572458308065"><ele>168.0</ele><time>2026-05-02T14:13:39Z</time></trkpt><trkpt lat="45.51225267529938" lon="8.686711071012265"><ele>168.0</ele><time>2026-05-02T14:13:40Z</time></trkpt><trkpt lat="45.512277380701505" lon="8.686849243165113"><ele>168.0</ele><time>2026-05-02T14:13:41Z</time></trkpt><trkpt lat="45.512304087586834" lon="8.686992834347615"><ele>168.0</ele><time>2026-05-02T14:13:42Z</time></trkpt><trkpt lat="45.5123358574291" lon="8.687149019306641"><ele>168.0</ele><time>2026-05-02T14:13:43Z</time></trkpt><trkpt lat="45.51237174363524" lon="8.68731382192435"><ele>168.0</ele><time>2026-05-02T14:13:44Z</time></trkpt><trkpt lat="45.512400933155476" lon="8.687475394485988"><ele>168.0</ele><time>2026-05-02T14:13:45Z</time></trkpt><trkpt lat="45.51243071572079" lon="8.687638029638956"><ele>168.0</ele><time>2026-05-02T14:13:46Z</time></trkpt><trkpt lat="45.51245653734344" lon="8.687791359374186"><ele>168.0</ele><time>2026-05-02T14:13:47Z</time></trkpt><trkpt lat="45.51248273886106" lon="8.6879264313547"><ele>168.0</ele><time>2026-05-02T14:13:48Z</time></trkpt><trkpt lat="45.51250860773553" lon="8.688041520098375"><ele>168.0</ele><time>2026-05-02T14:13:49Z</time></trkpt><trkpt lat="45.5125306834874" lon="8.688148653768556"><ele>168.0</ele><time>2026-05-02T14:13:50Z</time></trkpt><trkpt lat="45.5125534992276" lon="8.688246248714186"><ele>168.0</ele><time>2026-05-02T14:13:51Z</time></trkpt><trkpt lat="45.512572598394534" lon="8.688344188199679"><ele>168.0</ele><time>2026-05-02T14:13:52Z</time></trkpt><trkpt lat="45.51259159019091" lon="8.6884478119201"><ele>168.0</ele><time>2026-05-02T14:13:53Z</time></trkpt><trkpt lat="45.51261223636469" lon="8.688564057468833"><ele>168.0</ele><time>2026-05-02T14:13:54Z</time></trkpt><trkpt lat="45.512636907361575" lon="8.688704525624688"><ele>168.0</ele><time>2026-05-02T14:13:55Z</time></trkpt><trkpt lat="45.51268197961839" lon="8.688941524434155"><ele>168.0</ele><time>2026-05-02T14:13:56Z</time></trkpt><trkpt lat="45.512730205566015" lon="8.689164796258568"><ele>168.0</ele><time>2026-05-02T14:13:57Z</time></trkpt><trkpt lat="45.51278514177963" lon="8.689428587991825"><ele>168.0</ele><time>2026-05-02T14:13:58Z</time></trkpt><trkpt lat="45.512812437059374" lon="8.689637048845546"><ele>168.0</ele><time>2026-05-02T14:13:59Z</time></trkpt><trkpt lat="45.512844740008305" lon="8.68980233577763"><ele>168.0</ele><time>2026-05-02T14:14:00Z</time></trkpt><trkpt lat="45.512886817262775" lon="8.689947779189842"><ele>168.0</ele><time>2026-05-02T14:14:01Z</time></trkpt><trkpt lat="45.51291918295053" lon="8.690123164223294"><ele>167.5</ele><time>2026-05-02T14:14:02Z</time></trkpt><trkpt lat="45.51295820532525" lon="8.690320858945334"><ele>167.0</ele><time>2026-05-02T14:14:03Z</time></trkpt><trkpt lat="45.51298824934903" lon="8.690480065044213"><ele>166.5</ele><time>2026-05-02T14:14:04Z</time></trkpt><trkpt lat="45.51301304100073" lon="8.690619385460792"><ele>166.0</ele><time>2026-05-02T14:14:05Z</time></trkpt><trkpt lat="45.51303794495958" lon="8.690750157190317"><ele>166.0</ele><time>2026-05-02T14:14:06Z</time></trkpt><trkpt lat="45.513060503071" lon="8.69087142768851"><ele>166.0</ele><time>2026-05-02T14:14:07Z</time></trkpt><trkpt lat="45.51308742353153" lon="8.69100831071825"><ele>166.0</ele><time>2026-05-02T14:14:08Z</time></trkpt><trkpt lat="45.51311979708675" lon="8.691162924256366"><ele>166.0</ele><time>2026-05-02T14:14:09Z</time></trkpt><trkpt lat="45.51315334532403" lon="8.691323506686494"><ele>166.0</ele><time>2026-05-02T14:14:10Z</time></trkpt><trkpt lat="45.51319978694067" lon="8.691562435075117"><ele>166.0</ele><time>2026-05-02T14:14:11Z</time></trkpt><trkpt lat="45.51325883343544" lon="8.691866368738236"><ele>166.0</ele><time>2026-05-02T14:14:12Z</time></trkpt><trkpt lat="45.513303534337474" lon="8.692095642397247"><ele>166.0</ele><time>2026-05-02T14:14:13Z</time></trkpt><trkpt lat="45.51334398369864" lon="8.692309434756375"><ele>166.0</ele><time>2026-05-02T14:14:14Z</time></trkpt><trkpt lat="45.513400537511565" lon="8.692599955520501"><ele>166.0</ele><time>2026-05-02T14:14:15Z</time></trkpt><trkpt lat="45.51346372151501" lon="8.692916364917396"><ele>166.0</ele><time>2026-05-02T14:14:16Z</time></trkpt><trkpt lat="45.51352091030599" lon="8.693210036966057"><ele>166.0</ele><time>2026-05-02T14:14:17Z</time></trkpt><trkpt lat="45.51356751764177" lon="8.693449179367832"><ele>166.0</ele><time>2026-05-02T14:14:18Z</time></trkpt><trkpt lat="45.51360760316757" lon="8.693659344911822"><ele>166.0</ele><time>2026-05-02T14:14:19Z</time></trkpt><trkpt lat="45.51364247838029" lon="8.693843955463011"><ele>166.0</ele><time>2026-05-02T14:14:20Z</time></trkpt><trkpt lat="45.51367178864855" lon="8.694001472789182"><ele>166.0</ele><time>2026-05-02T14:14:21Z</time></trkpt><trkpt lat="45.5136988868905" lon="8.694146222773346"><ele>166.0</ele><time>2026-05-02T14:14:22Z</time></trkpt><trkpt lat="45.51372208942587" lon="8.694275661068293"><ele>166.0</ele><time>2026-05-02T14:14:23Z</time></trkpt><trkpt lat="45.51374418803392" lon="8.694388399787508"><ele>166.0</ele><time>2026-05-02T14:14:24Z</time></trkpt><trkpt lat="45.51376704403995" lon="8.69449697697476"><ele>166.33333333333334</ele><time>2026-05-02T14:14:25Z</time></trkpt><trkpt lat="45.51379044394064" lon="8.694606367387461"><ele>166.66666666666669</ele><time>2026-05-02T14:14:26Z</time></trkpt><trkpt lat="45.51380949130715" lon="8.694703677623679"><ele>167.0</ele><time>2026-05-02T14:14:27Z</time></trkpt><trkpt lat="45.513825946355446" lon="8.69479045751338"><ele>167.33333333333334</ele><time>2026-05-02T14:14:28Z</time></trkpt><trkpt lat="45.513858548114456" lon="8.694948624658076"><ele>167.66666666666666</ele><time>2026-05-02T14:14:30Z</time></trkpt><trkpt lat="45.51388024319274" lon="8.695049171049515"><ele>168.0</ele><time>2026-05-02T14:14:32Z</time></trkpt><trkpt lat="45.51402669659223" lon="8.695078115811404"><ele>168.0</ele><time>2026-05-02T14:14:37Z</time></trkpt><trkpt lat="45.51408857900146" lon="8.695039494084929"><ele>168.0</ele><time>2026-05-02T14:14:38Z</time></trkpt><trkpt lat="45.514176221847904" lon="8.695000077566073"><ele>168.0</ele><time>2026-05-02T14:14:39Z</time></trkpt><trkpt lat="45.51429496037789" lon="8.69495548632043"><ele>168.0</ele><time>2026-05-02T14:14:40Z</time></trkpt><trkpt lat="45.51440530435881" lon="8.694916881570574"><ele>168.0</ele><time>2026-05-02T14:14:41Z</time></trkpt><trkpt lat="45.51449951422924" lon="8.694867184682247"><ele>167.83333333333334</ele><time>2026-05-02T14:14:42Z</time></trkpt><trkpt lat="45.51458212636712" lon="8.69483502413435"><ele>167.66666666666666</ele><time>2026-05-02T14:14:43Z</time></trkpt><trkpt lat="45.514660528001514" lon="8.694805823994864"><ele>167.5</ele><time>2026-05-02T14:14:44Z</time></trkpt><trkpt lat="45.51473631074409" lon="8.694774070813732"><ele>167.33333333333331</ele><time>2026-05-02T14:14:45Z</time></trkpt><trkpt lat="45.51481445684897" lon="8.694740476785016"><ele>167.16666666666666</ele><time>2026-05-02T14:14:46Z</time></trkpt><trkpt lat="45.51489319139438" lon="8.694705886864561"><ele>167.0</ele><time>2026-05-02T14:14:47Z</time></trkpt><trkpt lat="45.51496238074575" lon="8.694676350556108"><ele>167.0</ele><time>2026-05-02T14:14:48Z</time></trkpt><trkpt lat="45.51508318104708" lon="8.694621474912983"><ele>167.0</ele><time>2026-05-02T14:14:50Z</time></trkpt><trkpt lat="45.515151708826224" lon="8.694595511815015"><ele>167.0</ele><time>2026-05-02T14:14:51Z</time></trkpt><trkpt lat="45.515217737585886" lon="8.694568370670543"><ele>167.0</ele><time>2026-05-02T14:14:52Z</time></trkpt><trkpt lat="45.51529099714591" lon="8.694536193912638"><ele>167.0</ele><time>2026-05-02T14:14:53Z</time></trkpt><trkpt lat="45.51536232172429" lon="8.694505581397907"><ele>167.0</ele><time>2026-05-02T14:14:54Z</time></trkpt><trkpt lat="45.51543513362777" lon="8.694472027398577"><ele>167.0</ele><time>2026-05-02T14:14:55Z</time></trkpt><trkpt lat="45.515506676772716" lon="8.694441402543825"><ele>167.0</ele><time>2026-05-02T14:14:56Z</time></trkpt><trkpt lat="45.51557805393901" lon="8.694410580890883"><ele>167.0</ele><time>2026-05-02T14:14:57Z</time></trkpt><trkpt lat="45.515647793714756" lon="8.694382086867263"><ele>167.0</ele><time>2026-05-02T14:14:58Z</time></trkpt><trkpt lat="45.51571728490042" lon="8.694353726370155"><ele>167.0</ele><time>2026-05-02T14:14:59Z</time></trkpt><trkpt lat="45.51578699320247" lon="8.694323829806637"><ele>167.0</ele><time>2026-05-02T14:15:00Z</time></trkpt><trkpt lat="45.51585777010807" lon="8.694292785517167"><ele>167.0</ele><time>2026-05-02T14:15:01Z</time></trkpt><trkpt lat="45.5159230087573" lon="8.694265004057831"><ele>167.0</ele><time>2026-05-02T14:15:02Z</time></trkpt><trkpt lat="45.516035499839774" lon="8.694216516738852"><ele>167.0</ele><time>2026-05-02T14:15:04Z</time></trkpt><trkpt lat="45.516113919295435" lon="8.694187862797092"><ele>167.0</ele><time>2026-05-02T14:15:06Z</time></trkpt><trkpt lat="45.51618254336911" lon="8.694169016888099"><ele>167.0</ele><time>2026-05-02T14:15:20Z</time></trkpt><trkpt lat="45.5162429811063" lon="8.69414245518671"><ele>167.0</ele><time>2026-05-02T14:15:21Z</time></trkpt><trkpt lat="45.516353900085115" lon="8.694093364615519"><ele>167.0</ele><time>2026-05-02T14:15:23Z</time></trkpt><trkpt lat="45.51646012609336" lon="8.694047710886915"><ele>167.2</ele><time>2026-05-02T14:15:25Z</time></trkpt><trkpt lat="45.51656853561792" lon="8.694005519290101"><ele>167.39999999999998</ele><time>2026-05-02T14:15:27Z</time></trkpt><trkpt lat="45.51667720790842" lon="8.693956087998219"><ele>167.60000000000002</ele><time>2026-05-02T14:15:29Z</time></trkpt><trkpt lat="45.51677821817701" lon="8.693911525795748"><ele>167.8</ele><time>2026-05-02T14:15:31Z</time></trkpt><trkpt lat="45.51687374427597" lon="8.69387155922374"><ele>168.0</ele><time>2026-05-02T14:15:33Z</time></trkpt><trkpt lat="45.5169683191236" lon="8.693829719597527"><ele>168.0</ele><time>2026-05-02T14:15:35Z</time></trkpt><trkpt lat="45.51706279567138" lon="8.693780729596023"><ele>168.0</ele><time>2026-05-02T14:15:37Z</time></trkpt><trkpt lat="45.51716288580437" lon="8.693737359536728"><ele>168.0</ele><time>2026-05-02T14:15:39Z</time></trkpt><trkpt lat="45.5172617668351" lon="8.693692856988411"><ele>168.0</ele><time>2026-05-02T14:15:41Z</time></trkpt><trkpt lat="45.51735809595013" lon="8.693651202653328"><ele>168.0</ele><time>2026-05-02T14:15:43Z</time></trkpt><trkpt lat="45.51746135065371" lon="8.693606788689774"><ele>168.0</ele><time>2026-05-02T14:15:45Z</time></trkpt><trkpt lat="45.517561368230524" lon="8.6935648062763"><ele>168.0</ele><time>2026-05-02T14:15:47Z</time></trkpt><trkpt lat="45.5176712064864" lon="8.693516548835724"><ele>168.0</ele><time>2026-05-02T14:15:49Z</time></trkpt><trkpt lat="45.517778367061695" lon="8.693471415443339"><ele>168.0</ele><time>2026-05-02T14:15:51Z</time></trkpt><trkpt lat="45.51788816512569" lon="8.693419415688162"><ele>168.0</ele><time>2026-05-02T14:15:53Z</time></trkpt><trkpt lat="45.517949517406244" lon="8.693392784881018"><ele>167.60000000000002</ele><time>2026-05-02T14:15:54Z</time></trkpt><trkpt lat="45.51801280587019" lon="8.693365493671394"><ele>167.20000000000002</ele><time>2026-05-02T14:15:55Z</time></trkpt><trkpt lat="45.51807382222416" lon="8.693338886568302"><ele>166.8</ele><time>2026-05-02T14:15:56Z</time></trkpt><trkpt lat="45.51819809692093" lon="8.69327975793051"><ele>166.4</ele><time>2026-05-02T14:15:58Z</time></trkpt><trkpt lat="45.518266720217426" lon="8.69325087310258"><ele>166.0</ele><time>2026-05-02T14:15:59Z</time></trkpt><trkpt lat="45.518390631646476" lon="8.693195381344232"><ele>166.0</ele><time>2026-05-02T14:16:01Z</time></trkpt><trkpt lat="45.518520852021815" lon="8.693142794151376"><ele>166.0</ele><time>2026-05-02T14:16:03Z</time></trkpt><trkpt lat="45.51859667550317" lon="8.69311232574077"><ele>166.0</ele><time>2026-05-02T14:16:04Z</time></trkpt><trkpt lat="45.51867712553797" lon="8.69307612068431"><ele>166.0</ele><time>2026-05-02T14:16:05Z</time></trkpt><trkpt lat="45.518752423636876" lon="8.693042634789768"><ele>166.0</ele><time>2026-05-02T14:16:06Z</time></trkpt><trkpt lat="45.5188321578831" lon="8.693009938902946"><ele>166.4</ele><time>2026-05-02T14:16:07Z</time></trkpt><trkpt lat="45.51892651674306" lon="8.69297133737742"><ele>166.8</ele><time>2026-05-02T14:16:08Z</time></trkpt><trkpt lat="45.51901841421865" lon="8.692933126551296"><ele>167.20000000000002</ele><time>2026-05-02T14:16:09Z</time></trkpt><trkpt lat="45.51910368457733" lon="8.692895948136977"><ele>167.60000000000002</ele><time>2026-05-02T14:16:10Z</time></trkpt><trkpt lat="45.51917645981688" lon="8.692864280057295"><ele>168.0</ele><time>2026-05-02T14:16:11Z</time></trkpt><trkpt lat="45.51927522560555" lon="8.692822727639587"><ele>168.0</ele><time>2026-05-02T14:16:13Z</time></trkpt><trkpt lat="45.51937960486799" lon="8.692779038825096"><ele>168.0</ele><time>2026-05-02T14:16:20Z</time></trkpt><trkpt lat="45.51945826241535" lon="8.692743843801027"><ele>168.0</ele><time>2026-05-02T14:16:21Z</time></trkpt><trkpt lat="45.519525214676" lon="8.692713261729732"><ele>168.0</ele><time>2026-05-02T14:16:22Z</time></trkpt><trkpt lat="45.51959274967756" lon="8.692684344044737"><ele>168.0</ele><time>2026-05-02T14:16:23Z</time></trkpt><trkpt lat="45.519663352502526" lon="8.692656202317814"><ele>168.0</ele><time>2026-05-02T14:16:24Z</time></trkpt><trkpt lat="45.5197365286693" lon="8.69262478426672"><ele>168.0</ele><time>2026-05-02T14:16:25Z</time></trkpt><trkpt lat="45.519805776383" lon="8.692595575804019"><ele>168.0</ele><time>2026-05-02T14:16:26Z</time></trkpt><trkpt lat="45.5198752718782" lon="8.692565224200656"><ele>168.0</ele><time>2026-05-02T14:16:27Z</time></trkpt><trkpt lat="45.51993929410737" lon="8.692534590561392"><ele>168.0</ele><time>2026-05-02T14:16:28Z</time></trkpt><trkpt lat="45.52006146818273" lon="8.692484594485808"><ele>168.0</ele><time>2026-05-02T14:16:30Z</time></trkpt><trkpt lat="45.52017736034552" lon="8.692432909233721"><ele>168.0</ele><time>2026-05-02T14:16:32Z</time></trkpt><trkpt lat="45.520283395239595" lon="8.69238709855507"><ele>168.0</ele><time>2026-05-02T14:16:34Z</time></trkpt><trkpt lat="45.52040204050795" lon="8.692335600707318"><ele>168.0</ele><time>2026-05-02T14:16:36Z</time></trkpt><trkpt lat="45.520515679529915" lon="8.69229256108229"><ele>168.0</ele><time>2026-05-02T14:16:38Z</time></trkpt><trkpt lat="45.52063029845789" lon="8.692245801710339"><ele>168.0</ele><time>2026-05-02T14:16:40Z</time></trkpt><trkpt lat="45.52073316583936" lon="8.692213549744382"><ele>168.0</ele><time>2026-05-02T14:16:42Z</time></trkpt><trkpt lat="45.52080018868818" lon="8.692176611410156"><ele>168.0</ele><time>2026-05-02T14:16:44Z</time></trkpt><trkpt lat="45.52087880807653" lon="8.692107054161157"><ele>168.0</ele><time>2026-05-02T14:16:46Z</time></trkpt><trkpt lat="45.52098149321731" lon="8.692022261094552"><ele>168.0</ele><time>2026-05-02T14:16:48Z</time></trkpt><trkpt lat="45.52106713274487" lon="8.691956968132688"><ele>168.0</ele><time>2026-05-02T14:16:50Z</time></trkpt><trkpt lat="45.52117150305774" lon="8.691872431587841"><ele>168.0</ele><time>2026-05-02T14:16:52Z</time></trkpt><trkpt lat="45.52127607328974" lon="8.69179750718703"><ele>168.0</ele><time>2026-05-02T14:16:54Z</time></trkpt><trkpt lat="45.521371554802485" lon="8.691717984083626"><ele>168.0</ele><time>2026-05-02T14:16:56Z</time></trkpt><trkpt lat="45.52146473930098" lon="8.69163420191895"><ele>169.60000000000002</ele><time>2026-05-02T14:16:58Z</time></trkpt><trkpt lat="45.521551790558014" lon="8.69152028789878"><ele>171.20000000000002</ele><time>2026-05-02T14:17:00Z</time></trkpt><trkpt lat="45.5216225301464" lon="8.691378188456376"><ele>172.8</ele><time>2026-05-02T14:17:02Z</time></trkpt><trkpt lat="45.52165397765837" lon="8.691296853492057"><ele>174.4</ele><time>2026-05-02T14:17:03Z</time></trkpt><trkpt lat="45.521695735175946" lon="8.691143370466179"><ele>176.0</ele><time>2026-05-02T14:17:05Z</time></trkpt><trkpt lat="45.5217268233496" lon="8.690973655313444"><ele>176.0</ele><time>2026-05-02T14:17:07Z</time></trkpt><trkpt lat="45.52174956476581" lon="8.690864589594277"><ele>176.0</ele><time>2026-05-02T14:17:09Z</time></trkpt><trkpt lat="45.52181227397447" lon="8.690773990196766"><ele>176.0</ele><time>2026-05-02T14:17:16Z</time></trkpt><trkpt lat="45.52191448080161" lon="8.690748431578482"><ele>176.0</ele><time>2026-05-02T14:17:34Z</time></trkpt><trkpt lat="45.52198575941665" lon="8.690736470238505"><ele>176.0</ele><time>2026-05-02T14:17:35Z</time></trkpt><trkpt lat="45.52205159328149" lon="8.690726697152215"><ele>176.0</ele><time>2026-05-02T14:17:36Z</time></trkpt><trkpt lat="45.52211584002312" lon="8.690715862645078"><ele>176.33333333333331</ele><time>2026-05-02T14:17:37Z</time></trkpt><trkpt lat="45.52224573968111" lon="8.690702745534594"><ele>176.66666666666666</ele><time>2026-05-02T14:17:39Z</time></trkpt><trkpt lat="45.522313597734346" lon="8.690697625761754"><ele>177.0</ele><time>2026-05-02T14:17:40Z</time></trkpt><trkpt lat="45.522386554417686" lon="8.690692153507392"><ele>177.33333333333334</ele><time>2026-05-02T14:17:41Z</time></trkpt><trkpt lat="45.522456724146096" lon="8.69068073192172"><ele>177.66666666666669</ele><time>2026-05-02T14:17:42Z</time></trkpt><trkpt lat="45.522530254536726" lon="8.690677212302754"><ele>178.0</ele><time>2026-05-02T14:17:43Z</time></trkpt><trkpt lat="45.522614374961954" lon="8.690667105065167"><ele>178.0</ele><time>2026-05-02T14:17:44Z</time></trkpt><trkpt lat="45.52269117529828" lon="8.690657269041463"><ele>178.0</ele><time>2026-05-02T14:17:45Z</time></trkpt><trkpt lat="45.52275985401191" lon="8.69064727306664"><ele>178.0</ele><time>2026-05-02T14:17:46Z</time></trkpt><trkpt lat="45.522884631667765" lon="8.690626397725088"><ele>178.0</ele><time>2026-05-02T14:17:48Z</time></trkpt><trkpt lat="45.522952013181886" lon="8.690613803331894"><ele>178.0</ele><time>2026-05-02T14:17:49Z</time></trkpt><trkpt lat="45.52301493358575" lon="8.690600170561611"><ele>178.0</ele><time>2026-05-02T14:17:50Z</time></trkpt><trkpt lat="45.523080451561384" lon="8.690585975013036"><ele>178.0</ele><time>2026-05-02T14:17:51Z</time></trkpt><trkpt lat="45.52319084246357" lon="8.69054365855203"><ele>178.0</ele><time>2026-05-02T14:17:53Z</time></trkpt><trkpt lat="45.52331207875957" lon="8.690518124385214"><ele>178.0</ele><time>2026-05-02T14:17:55Z</time></trkpt><trkpt lat="45.52342584064943" lon="8.69052374481261"><ele>178.0</ele><time>2026-05-02T14:17:57Z</time></trkpt><trkpt lat="45.52352619233928" lon="8.690472448449604"><ele>178.0</ele><time>2026-05-02T14:17:59Z</time></trkpt><trkpt lat="45.52362155772311" lon="8.690379239901393"><ele>178.0</ele><time>2026-05-02T14:18:01Z</time></trkpt><trkpt lat="45.52368252176845" lon="8.690338956345792"><ele>178.0</ele><time>2026-05-02T14:18:02Z</time></trkpt><trkpt lat="45.52377913384134" lon="8.690216930042013"><ele>178.0</ele><time>2026-05-02T14:18:04Z</time></trkpt><trkpt lat="45.523828620716834" lon="8.690132308366966"><ele>178.0</ele><time>2026-05-02T14:18:05Z</time></trkpt><trkpt lat="45.5239212369073" lon="8.68998567159475"><ele>178.14285714285714</ele><time>2026-05-02T14:18:07Z</time></trkpt><trkpt lat="45.52393913071672" lon="8.689882103756208"><ele>178.28571428571428</ele><time>2026-05-02T14:18:08Z</time></trkpt><trkpt lat="45.523952062960966" lon="8.689771432423594"><ele>178.42857142857144</ele><time>2026-05-02T14:18:09Z</time></trkpt><trkpt lat="45.52395968405174" lon="8.689666366138495"><ele>178.57142857142856</ele><time>2026-05-02T14:18:10Z</time></trkpt><trkpt lat="45.523966331732396" lon="8.689554513967577"><ele>178.71428571428572</ele><time>2026-05-02T14:18:11Z</time></trkpt><trkpt lat="45.52397111985216" lon="8.689460601577654"><ele>178.85714285714286</ele><time>2026-05-02T14:18:12Z</time></trkpt><trkpt lat="45.52397617085013" lon="8.689361533319829"><ele>179.0</ele><time>2026-05-02T14:18:13Z</time></trkpt><trkpt lat="45.52398057350998" lon="8.689268582478151"><ele>179.0</ele><time>2026-05-02T14:18:14Z</time></trkpt><trkpt lat="45.52398522278806" lon="8.689170034503867"><ele>179.0</ele><time>2026-05-02T14:18:15Z</time></trkpt><trkpt lat="45.523990379911396" lon="8.689060912523129"><ele>179.0</ele><time>2026-05-02T14:18:16Z</time></trkpt><trkpt lat="45.523996346154384" lon="8.688925715896984"><ele>179.0</ele><time>2026-05-02T14:18:17Z</time></trkpt><trkpt lat="45.524003268482545" lon="8.688786827274624"><ele>179.0</ele><time>2026-05-02T14:18:18Z</time></trkpt><trkpt lat="45.5239990887815" lon="8.688681793352321"><ele>179.0</ele><time>2026-05-02T14:18:19Z</time></trkpt><trkpt lat="45.52401165273965" lon="8.688583066456768"><ele>179.0</ele><time>2026-05-02T14:18:20Z</time></trkpt><trkpt lat="45.52404210521557" lon="8.688442949978457"><ele>179.0</ele><time>2026-05-02T14:18:22Z</time></trkpt><trkpt lat="45.52407180434952" lon="8.688362398015022"><ele>179.0</ele><time>2026-05-02T14:18:25Z</time></trkpt><trkpt lat="45.52422529295599" lon="8.688495387643119"><ele>179.0</ele><time>2026-05-02T14:19:02Z</time></trkpt><trkpt lat="45.524272648459814" lon="8.688559319216715"><ele>179.0</ele><time>2026-05-02T14:19:03Z</time></trkpt><trkpt lat="45.52432959277752" lon="8.688628505968714"><ele>179.0</ele><time>2026-05-02T14:19:04Z</time></trkpt><trkpt lat="45.5243939765912" lon="8.688706441221415"><ele>179.0</ele><time>2026-05-02T14:19:05Z</time></trkpt><trkpt lat="45.524452551206714" lon="8.688778059460072"><ele>179.0</ele><time>2026-05-02T14:19:06Z</time></trkpt><trkpt lat="45.52451316993908" lon="8.688854082323417"><ele>179.0</ele><time>2026-05-02T14:19:07Z</time></trkpt><trkpt lat="45.52457309822118" lon="8.688927562041119"><ele>179.0</ele><time>2026-05-02T14:19:08Z</time></trkpt><trkpt lat="45.5246311977648" lon="8.688999553334053"><ele>179.0</ele><time>2026-05-02T14:19:09Z</time></trkpt><trkpt lat="45.52469036697266" lon="8.689071079341922"><ele>179.16666666666666</ele><time>2026-05-02T14:19:10Z</time></trkpt><trkpt lat="45.524744489266766" lon="8.689136775262606"><ele>179.33333333333331</ele><time>2026-05-02T14:19:11Z</time></trkpt><trkpt lat="45.524796535458606" lon="8.68920324479254"><ele>179.5</ele><time>2026-05-02T14:19:12Z</time></trkpt><trkpt lat="45.52484830352987" lon="8.689272088189458"><ele>179.66666666666666</ele><time>2026-05-02T14:19:13Z</time></trkpt><trkpt lat="45.52490047803684" lon="8.689334221931386"><ele>179.83333333333334</ele><time>2026-05-02T14:19:14Z</time></trkpt><trkpt lat="45.524950998823286" lon="8.689395537095702"><ele>180.0</ele><time>2026-05-02T14:19:15Z</time></trkpt><trkpt lat="45.525043772237986" lon="8.689507164013296"><ele>180.0</ele><time>2026-05-02T14:19:17Z</time></trkpt><trkpt lat="45.52511617380838" lon="8.68962497172839"><ele>180.0</ele><time>2026-05-02T14:19:19Z</time></trkpt><trkpt lat="45.52519221142325" lon="8.68972933325527"><ele>180.0</ele><time>2026-05-02T14:19:21Z</time></trkpt><trkpt lat="45.525260942591316" lon="8.689786789335367"><ele>180.0</ele><time>2026-05-02T14:19:23Z</time></trkpt><trkpt lat="45.52531352784616" lon="8.689858039750906"><ele>180.0</ele><time>2026-05-02T14:19:26Z</time></trkpt><trkpt lat="45.52537408762193" lon="8.6899315612423"><ele>180.0</ele><time>2026-05-02T14:19:30Z</time></trkpt><trkpt lat="45.52583335814325" lon="8.68972387951155"><ele>180.14285714285714</ele><time>2026-05-02T14:19:50Z</time></trkpt><trkpt lat="45.52589859209992" lon="8.689702820753542"><ele>180.2857142857143</ele><time>2026-05-02T14:19:52Z</time></trkpt><trkpt lat="45.525971265842834" lon="8.68969402023444"><ele>180.42857142857144</ele><time>2026-05-02T14:19:54Z</time></trkpt><trkpt lat="45.52604450321283" lon="8.689668919845259"><ele>180.57142857142856</ele><time>2026-05-02T14:19:56Z</time></trkpt><trkpt lat="45.52611437267132" lon="8.689651206662822"><ele>180.71428571428572</ele><time>2026-05-02T14:19:58Z</time></trkpt><trkpt lat="45.526194463036994" lon="8.689641452825288"><ele>180.85714285714286</ele><time>2026-05-02T14:20:00Z</time></trkpt><trkpt lat="45.526257112804146" lon="8.689618909924786"><ele>181.0</ele><time>2026-05-02T14:20:02Z</time></trkpt><trkpt lat="45.52632099396379" lon="8.689598499910765"><ele>181.0</ele><time>2026-05-02T14:20:04Z</time></trkpt><trkpt lat="45.526383957831385" lon="8.689544776854477"><ele>181.0</ele><time>2026-05-02T14:20:07Z</time></trkpt><trkpt lat="45.52645610580974" lon="8.689517551645976"><ele>181.0</ele><time>2026-05-02T14:20:08.999Z</time></trkpt><trkpt lat="45.52652129669494" lon="8.689522839155453"><ele>181.0</ele><time>2026-05-02T14:20:10.999Z</time></trkpt><trkpt lat="45.526594579754466" lon="8.689530078789902"><ele>181.0</ele><time>2026-05-02T14:20:12.999Z</time></trkpt><trkpt lat="45.52668369086866" lon="8.689542385839767"><ele>181.0</ele><time>2026-05-02T14:20:14.999Z</time></trkpt><trkpt lat="45.52675740716713" lon="8.689534254788251"><ele>181.0</ele><time>2026-05-02T14:20:16.999Z</time></trkpt><trkpt lat="45.526851213613654" lon="8.689536571146386"><ele>181.0</ele><time>2026-05-02T14:20:19.999Z</time></trkpt><trkpt lat="45.526916055239894" lon="8.689503818359395"><ele>181.0</ele><time>2026-05-02T14:20:21.999Z</time></trkpt><trkpt lat="45.52699425382073" lon="8.689483618017379"><ele>181.0</ele><time>2026-05-02T14:20:24.999Z</time></trkpt><trkpt lat="45.527058357998214" lon="8.689465355789784"><ele>181.0</ele><time>2026-05-02T14:21:23Z</time></trkpt><trkpt lat="45.52713056196615" lon="8.68946396403984"><ele>181.0</ele><time>2026-05-02T14:21:59Z</time></trkpt><trkpt lat="45.52719378826045" lon="8.689474964943258"><ele>181.0</ele><time>2026-05-02T14:22:02Z</time></trkpt><trkpt lat="45.52726505692139" lon="8.6894369108894"><ele>181.0</ele><time>2026-05-02T14:22:05Z</time></trkpt><trkpt lat="45.52733120483186" lon="8.689426974734403"><ele>181.0</ele><time>2026-05-02T14:22:51Z</time></trkpt><trkpt lat="45.52739766177522" lon="8.689435739912462"><ele>181.0</ele><time>2026-05-02T14:22:54Z</time></trkpt><trkpt lat="45.52749376256128" lon="8.689422896750523"><ele>181.0</ele><time>2026-05-02T14:22:57Z</time></trkpt><trkpt lat="45.52758854120116" lon="8.689409361467188"><ele>181.0</ele><time>2026-05-02T14:23:00Z</time></trkpt><trkpt lat="45.5276830786271" lon="8.689394568801163"><ele>181.0</ele><time>2026-05-02T14:23:03Z</time></trkpt><trkpt lat="45.52775604090105" lon="8.689366649490056"><ele>180.83333333333334</ele><time>2026-05-02T14:23:05Z</time></trkpt><trkpt lat="45.527825210319435" lon="8.689339320053376"><ele>180.66666666666669</ele><time>2026-05-02T14:23:07Z</time></trkpt><trkpt lat="45.52789292721036" lon="8.689330656495281"><ele>180.5</ele><time>2026-05-02T14:23:09Z</time></trkpt><trkpt lat="45.52800239592962" lon="8.689328504628152"><ele>180.33333333333334</ele><time>2026-05-02T14:23:12Z</time></trkpt><trkpt lat="45.52807428588488" lon="8.689330712167498"><ele>180.16666666666666</ele><time>2026-05-02T14:23:14Z</time></trkpt><trkpt lat="45.52816904597795" lon="8.68933808623484"><ele>180.0</ele><time>2026-05-02T14:23:17Z</time></trkpt><trkpt lat="45.52825592133841" lon="8.68933563540075"><ele>179.83333333333334</ele><time>2026-05-02T14:23:19Z</time></trkpt><trkpt lat="45.52832311148475" lon="8.689302947500966"><ele>179.66666666666666</ele><time>2026-05-02T14:23:22Z</time></trkpt><trkpt lat="45.52838990855807" lon="8.689277464508356"><ele>179.5</ele><time>2026-05-02T14:23:24Z</time></trkpt><trkpt lat="45.52845452541078" lon="8.689276502453085"><ele>179.33333333333331</ele><time>2026-05-02T14:23:38Z</time></trkpt><trkpt lat="45.52852044948854" lon="8.68925781509846"><ele>179.16666666666666</ele><time>2026-05-02T14:23:47Z</time></trkpt><trkpt lat="45.52860176979519" lon="8.689245271119972"><ele>179.0</ele><time>2026-05-02T14:23:59Z</time></trkpt><trkpt lat="45.52869735528026" lon="8.68922971673858"><ele>179.33333333333331</ele><time>2026-05-02T14:24:01Z</time></trkpt><trkpt lat="45.52876535889142" lon="8.689206578521343"><ele>179.66666666666666</ele><time>2026-05-02T14:24:03Z</time></trkpt><trkpt lat="45.52885020360953" lon="8.689172379906376"><ele>180.0</ele><time>2026-05-02T14:24:06Z</time></trkpt><trkpt lat="45.52892843222916" lon="8.689147390720306"><ele>180.33333333333334</ele><time>2026-05-02T14:24:08Z</time></trkpt><trkpt lat="45.52899906221716" lon="8.689123183866629"><ele>180.66666666666669</ele><time>2026-05-02T14:24:10Z</time></trkpt><trkpt lat="45.52908363263857" lon="8.689118672851277"><ele>181.0</ele><time>2026-05-02T14:24:12Z</time></trkpt><trkpt lat="45.52916839828725" lon="8.689119705136898"><ele>181.0</ele><time>2026-05-02T14:24:14Z</time></trkpt><trkpt lat="45.529271092270605" lon="8.689082729449444"><ele>181.0</ele><time>2026-05-02T14:24:16Z</time></trkpt><trkpt lat="45.529335140878146" lon="8.689060920951059"><ele>181.0</ele><time>2026-05-02T14:24:17Z</time></trkpt><trkpt lat="45.529414510215275" lon="8.689026835845985"><ele>181.0</ele><time>2026-05-02T14:24:19Z</time></trkpt><trkpt lat="45.52950543595976" lon="8.68898999245095"><ele>181.0</ele><time>2026-05-02T14:24:21Z</time></trkpt><trkpt lat="45.52957659333742" lon="8.688938826321113"><ele>181.0</ele><time>2026-05-02T14:24:23Z</time></trkpt><trkpt lat="45.52965255278018" lon="8.688891825587486"><ele>181.0</ele><time>2026-05-02T14:24:26Z</time></trkpt><trkpt lat="45.52956965663957" lon="8.68896952552816"><ele>181.0</ele><time>2026-05-02T14:33:52Z</time></trkpt><trkpt lat="45.52949824407495" lon="8.68900875854638"><ele>181.0</ele><time>2026-05-02T14:33:53Z</time></trkpt><trkpt lat="45.52942732766605" lon="8.689026338002478"><ele>181.0</ele><time>2026-05-02T14:33:54Z</time></trkpt><trkpt lat="45.52935511462356" lon="8.689052378009428"><ele>181.0</ele><time>2026-05-02T14:33:55Z</time></trkpt><trkpt lat="45.52924497620616" lon="8.689107419995713"><ele>181.0</ele><time>2026-05-02T14:33:57Z</time></trkpt><trkpt lat="45.52915190594243" lon="8.689128354986238"><ele>181.0</ele><time>2026-05-02T14:33:59Z</time></trkpt><trkpt lat="45.529052567120935" lon="8.689120844680915"><ele>181.0</ele><time>2026-05-02T14:34:01Z</time></trkpt><trkpt lat="45.52894221504681" lon="8.689163146693911"><ele>181.0</ele><time>2026-05-02T14:34:03Z</time></trkpt><trkpt lat="45.52881713770766" lon="8.689197769728343"><ele>181.0</ele><time>2026-05-02T14:34:05Z</time></trkpt><trkpt lat="45.5286930282754" lon="8.68923880889689"><ele>180.66666666666669</ele><time>2026-05-02T14:34:07Z</time></trkpt><trkpt lat="45.52862344724606" lon="8.689252165428233"><ele>180.33333333333334</ele><time>2026-05-02T14:34:08Z</time></trkpt><trkpt lat="45.52852538871946" lon="8.689253056364679"><ele>180.0</ele><time>2026-05-02T14:34:10Z</time></trkpt><trkpt lat="45.528452767857225" lon="8.68928642920043"><ele>179.66666666666666</ele><time>2026-05-02T14:34:15Z</time></trkpt><trkpt lat="45.528387700994905" lon="8.689271762511089"><ele>179.33333333333331</ele><time>2026-05-02T14:37:17.999Z</time></trkpt><trkpt lat="45.52831447089482" lon="8.689292137349751"><ele>179.0</ele><time>2026-05-02T14:37:20.999Z</time></trkpt><trkpt lat="45.52823277502242" lon="8.689332985189676"><ele>179.0</ele><time>2026-05-02T14:37:30Z</time></trkpt><trkpt lat="45.52816494726159" lon="8.68933352155585"><ele>179.0</ele><time>2026-05-02T14:37:45Z</time></trkpt><trkpt lat="45.52808539528705" lon="8.68933930684065"><ele>179.0</ele><time>2026-05-02T14:37:48Z</time></trkpt><trkpt lat="45.528008677293464" lon="8.68935760245336"><ele>179.0</ele><time>2026-05-02T14:37:51Z</time></trkpt><trkpt lat="45.52793921450347" lon="8.689361021725697"><ele>179.0</ele><time>2026-05-02T14:37:54Z</time></trkpt><trkpt lat="45.52786454236215" lon="8.689360638515929"><ele>179.0</ele><time>2026-05-02T14:37:57Z</time></trkpt><trkpt lat="45.52778511320116" lon="8.68938612787254"><ele>179.16666666666666</ele><time>2026-05-02T14:38:01Z</time></trkpt><trkpt lat="45.52771509476241" lon="8.689416380904932"><ele>179.33333333333331</ele><time>2026-05-02T14:38:05Z</time></trkpt><trkpt lat="45.52763709908196" lon="8.689428248108472"><ele>179.5</ele><time>2026-05-02T14:38:08Z</time></trkpt><trkpt lat="45.527553387315116" lon="8.689437050862326"><ele>179.66666666666666</ele><time>2026-05-02T14:38:12Z</time></trkpt><trkpt lat="45.527485487166444" lon="8.689438459505434"><ele>179.83333333333334</ele><time>2026-05-02T14:38:15Z</time></trkpt><trkpt lat="45.527420413789024" lon="8.689439877909464"><ele>180.0</ele><time>2026-05-02T14:38:22.999Z</time></trkpt><trkpt lat="45.52733938214639" lon="8.68942465681476"><ele>180.16666666666666</ele><time>2026-05-02T14:38:25.999Z</time></trkpt><trkpt lat="45.527265104595465" lon="8.689443893818122"><ele>180.33333333333334</ele><time>2026-05-02T14:38:28.999Z</time></trkpt><trkpt lat="45.52718705945462" lon="8.689469053616657"><ele>180.5</ele><time>2026-05-02T14:38:31.999Z</time></trkpt><trkpt lat="45.52712440220334" lon="8.68945647456567"><ele>180.66666666666669</ele><time>2026-05-02T14:38:41.999Z</time></trkpt><trkpt lat="45.52703397969802" lon="8.689472291989617"><ele>180.83333333333334</ele><time>2026-05-02T14:38:47.999Z</time></trkpt><trkpt lat="45.52694560370713" lon="8.689509865516934"><ele>181.0</ele><time>2026-05-02T14:38:50.999Z</time></trkpt><trkpt lat="45.5268818795429" lon="8.68952944532078"><ele>181.0</ele><time>2026-05-02T14:38:52.999Z</time></trkpt><trkpt lat="45.526805706517706" lon="8.689540347791649"><ele>181.0</ele><time>2026-05-02T14:38:54.999Z</time></trkpt><trkpt lat="45.52671755091631" lon="8.689537800210545"><ele>181.0</ele><time>2026-05-02T14:38:56.999Z</time></trkpt><trkpt lat="45.52664158454239" lon="8.689537131426299"><ele>181.0</ele><time>2026-05-02T14:38:59.999Z</time></trkpt><trkpt lat="45.52656112906195" lon="8.689529935380591"><ele>181.0</ele><time>2026-05-02T14:39:02.999Z</time></trkpt><trkpt lat="45.52647306276131" lon="8.68954057894645"><ele>181.0</ele><time>2026-05-02T14:39:05.999Z</time></trkpt><trkpt lat="45.52641182819429" lon="8.689580622051112"><ele>181.0</ele><time>2026-05-02T14:39:08.999Z</time></trkpt><trkpt lat="45.5263395415604" lon="8.689613200926024"><ele>181.0</ele><time>2026-05-02T14:39:11.999Z</time></trkpt><trkpt lat="45.5262636897515" lon="8.689638512584308"><ele>181.0</ele><time>2026-05-02T14:39:14.999Z</time></trkpt><trkpt lat="45.52618563315622" lon="8.689661482829948"><ele>181.0</ele><time>2026-05-02T14:39:17.999Z</time></trkpt><trkpt lat="45.52610740158849" lon="8.689669486850779"><ele>181.0</ele><time>2026-05-02T14:39:20.999Z</time></trkpt><trkpt lat="45.526027665665175" lon="8.689706902538358"><ele>181.0</ele><time>2026-05-02T14:39:23.999Z</time></trkpt><trkpt lat="45.52594788001672" lon="8.689711077126676"><ele>181.0</ele><time>2026-05-02T14:39:26.999Z</time></trkpt><trkpt lat="45.525867768002584" lon="8.689736628587228"><ele>181.0</ele><time>2026-05-02T14:39:29.999Z</time></trkpt><trkpt lat="45.5257887225051" lon="8.689759334457102"><ele>181.0</ele><time>2026-05-02T14:39:32.999Z</time></trkpt><trkpt lat="45.5257221775563" lon="8.689770070748516"><ele>181.0</ele><time>2026-05-02T14:39:34.999Z</time></trkpt><trkpt lat="45.52563891713544" lon="8.689777450912619"><ele>181.0</ele><time>2026-05-02T14:39:37.999Z</time></trkpt><trkpt lat="45.52555114586289" lon="8.689809878913767"><ele>181.0</ele><time>2026-05-02T14:39:40.999Z</time></trkpt><trkpt lat="45.52548415782439" lon="8.68981136089268"><ele>181.0</ele><time>2026-05-02T14:39:42.999Z</time></trkpt><trkpt lat="45.525411530424506" lon="8.689781675798066"><ele>181.0</ele><time>2026-05-02T14:39:45.999Z</time></trkpt><trkpt lat="45.52534783568331" lon="8.689797066035577"><ele>181.0</ele><time>2026-05-02T14:39:48.999Z</time></trkpt><trkpt lat="45.52528429972721" lon="8.689786412070777"><ele>181.0</ele><time>2026-05-02T14:39:50.999Z</time></trkpt><trkpt lat="45.52522311586806" lon="8.689713850873524"><ele>181.0</ele><time>2026-05-02T14:39:51.999Z</time></trkpt><trkpt lat="45.52516189790632" lon="8.689626233010703"><ele>181.0</ele><time>2026-05-02T14:39:52.999Z</time></trkpt><trkpt lat="45.525098554918266" lon="8.689545794332448"><ele>181.0</ele><time>2026-05-02T14:39:53.999Z</time></trkpt><trkpt lat="45.525031535225665" lon="8.689460501935738"><ele>181.0</ele><time>2026-05-02T14:39:54.999Z</time></trkpt><trkpt lat="45.52494365495126" lon="8.68936164526505"><ele>181.0</ele><time>2026-05-02T14:39:55.999Z</time></trkpt><trkpt lat="45.52486450860979" lon="8.689234088505808"><ele>181.0</ele><time>2026-05-02T14:39:56.999Z</time></trkpt><trkpt lat="45.52479004291121" lon="8.689139707474638"><ele>181.0</ele><time>2026-05-02T14:39:57.999Z</time></trkpt><trkpt lat="45.52468806796356" lon="8.689014965752685"><ele>181.0</ele><time>2026-05-02T14:39:58.999Z</time></trkpt><trkpt lat="45.524585583174506" lon="8.688889464032055"><ele>181.0</ele><time>2026-05-02T14:39:59.999Z</time></trkpt><trkpt lat="45.52446997418307" lon="8.688760725897904"><ele>181.0</ele><time>2026-05-02T14:40:00.999Z</time></trkpt><trkpt lat="45.5243672396452" lon="8.68863738517047"><ele>181.0</ele><time>2026-05-02T14:40:01.999Z</time></trkpt><trkpt lat="45.5242770744757" lon="8.68852718079547"><ele>180.0</ele><time>2026-05-02T14:40:02.999Z</time></trkpt><trkpt lat="45.524191420131324" lon="8.688418003934158"><ele>179.0</ele><time>2026-05-02T14:40:03.999Z</time></trkpt><trkpt lat="45.52411171473128" lon="8.688317145776814"><ele>178.0</ele><time>2026-05-02T14:40:04.999Z</time></trkpt><trkpt lat="45.524034353380614" lon="8.68822285500858"><ele>177.0</ele><time>2026-05-02T14:40:05.999Z</time></trkpt><trkpt lat="45.523957653184745" lon="8.688130707069158"><ele>176.0</ele><time>2026-05-02T14:40:06.999Z</time></trkpt><trkpt lat="45.523888316991844" lon="8.688035116286553"><ele>176.0</ele><time>2026-05-02T14:40:07.999Z</time></trkpt><trkpt lat="45.52382147128807" lon="8.687924660537917"><ele>176.0</ele><time>2026-05-02T14:40:08.999Z</time></trkpt><trkpt lat="45.52375440773114" lon="8.687792260993938"><ele>176.0</ele><time>2026-05-02T14:40:09.999Z</time></trkpt><trkpt lat="45.52369050802312" lon="8.687637742063767"><ele>176.0</ele><time>2026-05-02T14:40:10.999Z</time></trkpt><trkpt lat="45.523619537875526" lon="8.6874596114959"><ele>176.5</ele><time>2026-05-02T14:40:11.999Z</time></trkpt><trkpt lat="45.52355418242273" lon="8.687293403856245"><ele>177.0</ele><time>2026-05-02T14:40:12.999Z</time></trkpt><trkpt lat="45.523485904716054" lon="8.68712663980824"><ele>177.5</ele><time>2026-05-02T14:40:13.999Z</time></trkpt><trkpt lat="45.523408113075774" lon="8.686958192376016"><ele>178.0</ele><time>2026-05-02T14:40:14.999Z</time></trkpt><trkpt lat="45.52333558519809" lon="8.686801608274571"><ele>178.0</ele><time>2026-05-02T14:40:15.999Z</time></trkpt><trkpt lat="45.52326140755874" lon="8.6866554228313"><ele>178.0</ele><time>2026-05-02T14:40:16.999Z</time></trkpt><trkpt lat="45.52318040317407" lon="8.686491407465857"><ele>178.0</ele><time>2026-05-02T14:40:17.999Z</time></trkpt><trkpt lat="45.52309844557648" lon="8.686328088461412"><ele>178.0</ele><time>2026-05-02T14:40:18.999Z</time></trkpt><trkpt lat="45.523014385492665" lon="8.686154664503148"><ele>178.75</ele><time>2026-05-02T14:40:19.999Z</time></trkpt><trkpt lat="45.52293010592021" lon="8.685988889147199"><ele>179.5</ele><time>2026-05-02T14:40:20.999Z</time></trkpt><trkpt lat="45.52284665005845" lon="8.685822052970824"><ele>180.25</ele><time>2026-05-02T14:40:21.999Z</time></trkpt><trkpt lat="45.522757001786516" lon="8.68565370786379"><ele>181.0</ele><time>2026-05-02T14:40:22.999Z</time></trkpt><trkpt lat="45.52265852892254" lon="8.68547293621861"><ele>179.66666666666669</ele><time>2026-05-02T14:40:23.999Z</time></trkpt><trkpt lat="45.522554919341026" lon="8.68529608482192"><ele>178.33333333333334</ele><time>2026-05-02T14:40:24.999Z</time></trkpt><trkpt lat="45.52245143797769" lon="8.685096770331544"><ele>177.0</ele><time>2026-05-02T14:40:25.999Z</time></trkpt><trkpt lat="45.522333495973605" lon="8.684883166056636"><ele>177.0</ele><time>2026-05-02T14:40:26.999Z</time></trkpt><trkpt lat="45.52222181985128" lon="8.684677637568733"><ele>177.0</ele><time>2026-05-02T14:40:27.999Z</time></trkpt><trkpt lat="45.52211414246503" lon="8.684473828765313"><ele>177.0</ele><time>2026-05-02T14:40:28.999Z</time></trkpt><trkpt lat="45.52201362874949" lon="8.684281210411648"><ele>176.33333333333334</ele><time>2026-05-02T14:40:29.999Z</time></trkpt><trkpt lat="45.52191877696783" lon="8.684090978705251"><ele>175.66666666666669</ele><time>2026-05-02T14:40:30.999Z</time></trkpt><trkpt lat="45.52183172079922" lon="8.683911963400732"><ele>175.0</ele><time>2026-05-02T14:40:31.999Z</time></trkpt><trkpt lat="45.52174611974558" lon="8.683740078826036"><ele>176.66666666666669</ele><time>2026-05-02T14:40:32.999Z</time></trkpt><trkpt lat="45.52166212990039" lon="8.683571954625616"><ele>178.33333333333334</ele><time>2026-05-02T14:40:33.999Z</time></trkpt><trkpt lat="45.521566224704394" lon="8.683401239782528"><ele>180.0</ele><time>2026-05-02T14:40:34.999Z</time></trkpt><trkpt lat="45.52142983835" lon="8.683232809056127"><ele>180.0</ele><time>2026-05-02T14:40:35.999Z</time></trkpt><trkpt lat="45.52130434750306" lon="8.68307165791884"><ele>180.0</ele><time>2026-05-02T14:40:36.999Z</time></trkpt><trkpt lat="45.52114572745877" lon="8.682919817301565"><ele>180.0</ele><time>2026-05-02T14:40:37.999Z</time></trkpt><trkpt lat="45.520977729865436" lon="8.682778752763163"><ele>179.33333333333334</ele><time>2026-05-02T14:40:38.999Z</time></trkpt><trkpt lat="45.52081913534578" lon="8.68263403662567"><ele>178.66666666666669</ele><time>2026-05-02T14:40:39.999Z</time></trkpt><trkpt lat="45.52067699983971" lon="8.682486920786005"><ele>178.0</ele><time>2026-05-02T14:40:40.999Z</time></trkpt><trkpt lat="45.52053605806728" lon="8.68234423226883"><ele>177.66666666666669</ele><time>2026-05-02T14:40:41.999Z</time></trkpt><trkpt lat="45.52038921893914" lon="8.682194886680735"><ele>177.33333333333334</ele><time>2026-05-02T14:40:42.999Z</time></trkpt><trkpt lat="45.52023515055715" lon="8.682047061731328"><ele>177.0</ele><time>2026-05-02T14:40:43.999Z</time></trkpt><trkpt lat="45.52008497531989" lon="8.681903851429235"><ele>177.0</ele><time>2026-05-02T14:40:44.999Z</time></trkpt><trkpt lat="45.5199402119712" lon="8.681769157094557"><ele>177.0</ele><time>2026-05-02T14:40:45.999Z</time></trkpt><trkpt lat="45.51981054618619" lon="8.68164412176488"><ele>177.0</ele><time>2026-05-02T14:40:46.999Z</time></trkpt><trkpt lat="45.519690046345275" lon="8.68152302000138"><ele>177.0</ele><time>2026-05-02T14:40:47.999Z</time></trkpt><trkpt lat="45.51957314926028" lon="8.681400236927498"><ele>177.0</ele><time>2026-05-02T14:40:48.999Z</time></trkpt><trkpt lat="45.519452773321476" lon="8.681269316126352"><ele>177.0</ele><time>2026-05-02T14:40:49.999Z</time></trkpt><trkpt lat="45.5193261293737" lon="8.681136761484845"><ele>177.33333333333334</ele><time>2026-05-02T14:40:50.999Z</time></trkpt><trkpt lat="45.51918853504399" lon="8.681003064759345"><ele>177.66666666666669</ele><time>2026-05-02T14:40:51.999Z</time></trkpt><trkpt lat="45.51905345376633" lon="8.680873481498837"><ele>178.0</ele><time>2026-05-02T14:40:52.999Z</time></trkpt><trkpt lat="45.518922641440064" lon="8.680747384288049"><ele>178.0</ele><time>2026-05-02T14:40:53.999Z</time></trkpt><trkpt lat="45.518793893316854" lon="8.680619028082361"><ele>178.0</ele><time>2026-05-02T14:40:54.999Z</time></trkpt><trkpt lat="45.518661036169796" lon="8.680483124500332"><ele>178.0</ele><time>2026-05-02T14:40:55.999Z</time></trkpt><trkpt lat="45.51853027365569" lon="8.680344855215226"><ele>177.66666666666669</ele><time>2026-05-02T14:40:56.999Z</time></trkpt><trkpt lat="45.51839653786829" lon="8.680210041353469"><ele>177.33333333333334</ele><time>2026-05-02T14:40:57.999Z</time></trkpt><trkpt lat="45.518266384927955" lon="8.680075084170698"><ele>177.0</ele><time>2026-05-02T14:40:58.999Z</time></trkpt><trkpt lat="45.51813628214113" lon="8.679950437943681"><ele>177.0</ele><time>2026-05-02T14:40:59.999Z</time></trkpt><trkpt lat="45.518011540716444" lon="8.679828839943184"><ele>177.0</ele><time>2026-05-02T14:41:00.999Z</time></trkpt><trkpt lat="45.517895789103186" lon="8.679707821704822"><ele>177.0</ele><time>2026-05-02T14:41:01.999Z</time></trkpt><trkpt lat="45.517806669501596" lon="8.679595402175886"><ele>177.0</ele><time>2026-05-02T14:41:02.999Z</time></trkpt><trkpt lat="45.517727606527544" lon="8.679486988793368"><ele>176.6</ele><time>2026-05-02T14:41:03.999Z</time></trkpt><trkpt lat="45.51765135268068" lon="8.679380652183108"><ele>176.2</ele><time>2026-05-02T14:41:04.999Z</time></trkpt><trkpt lat="45.51758742604802" lon="8.6792746057314"><ele>175.8</ele><time>2026-05-02T14:41:05.999Z</time></trkpt><trkpt lat="45.517533776049994" lon="8.679186610978492"><ele>175.4</ele><time>2026-05-02T14:41:06.999Z</time></trkpt><trkpt lat="45.51748970993612" lon="8.679104786976133"><ele>175.0</ele><time>2026-05-02T14:41:07.999Z</time></trkpt><trkpt lat="45.51744891438414" lon="8.678945969759617"><ele>175.0</ele><time>2026-05-02T14:41:09.999Z</time></trkpt><trkpt lat="45.51746329754494" lon="8.678791498604044"><ele>175.0</ele><time>2026-05-02T14:41:11.999Z</time></trkpt><trkpt lat="45.51740268109189" lon="8.678757722297025"><ele>175.0</ele><time>2026-05-02T14:41:14.999Z</time></trkpt><trkpt lat="45.51733057907502" lon="8.678735540062009"><ele>175.0</ele><time>2026-05-02T14:41:17.999Z</time></trkpt><trkpt lat="45.517241945763125" lon="8.678718237387162"><ele>175.0</ele><time>2026-05-02T14:41:18.999Z</time></trkpt><trkpt lat="45.51715043177049" lon="8.678731360960235"><ele>175.0</ele><time>2026-05-02T14:41:19.999Z</time></trkpt><trkpt lat="45.51708088340314" lon="8.67852679668167"><ele>174.25</ele><time>2026-05-02T14:41:20.999Z</time></trkpt><trkpt lat="45.516982694852864" lon="8.678406049449993"><ele>173.5</ele><time>2026-05-02T14:41:21.999Z</time></trkpt><trkpt lat="45.51688866841234" lon="8.678260927083924"><ele>172.75</ele><time>2026-05-02T14:41:22.999Z</time></trkpt><trkpt lat="45.516792984090806" lon="8.678125153680444"><ele>172.0</ele><time>2026-05-02T14:41:23.999Z</time></trkpt><trkpt lat="45.51669406484661" lon="8.677981014934112"><ele>172.0</ele><time>2026-05-02T14:41:24.999Z</time></trkpt><trkpt lat="45.51658620362585" lon="8.677817064624266"><ele>172.0</ele><time>2026-05-02T14:41:25.999Z</time></trkpt><trkpt lat="45.51646480349279" lon="8.677644121231188"><ele>172.0</ele><time>2026-05-02T14:41:26.999Z</time></trkpt><trkpt lat="45.51634981374514" lon="8.677483586156429"><ele>171.33333333333334</ele><time>2026-05-02T14:41:27.999Z</time></trkpt><trkpt lat="45.51623314415396" lon="8.677321159490123"><ele>170.66666666666666</ele><time>2026-05-02T14:41:28.999Z</time></trkpt><trkpt lat="45.51612024617615" lon="8.677154692556508"><ele>170.0</ele><time>2026-05-02T14:41:29.999Z</time></trkpt><trkpt lat="45.51601292459898" lon="8.676985395266495"><ele>169.33333333333331</ele><time>2026-05-02T14:41:30.999Z</time></trkpt><trkpt lat="45.51590399437597" lon="8.676816434948696"><ele>168.66666666666666</ele><time>2026-05-02T14:41:31.999Z</time></trkpt><trkpt lat="45.51579332111819" lon="8.676645903252194"><ele>168.0</ele><time>2026-05-02T14:41:32.999Z</time></trkpt><trkpt lat="45.5156852172145" lon="8.676473008134678"><ele>168.0</ele><time>2026-05-02T14:41:33.999Z</time></trkpt><trkpt lat="45.515574194183905" lon="8.676290325531191"><ele>168.0</ele><time>2026-05-02T14:41:34.999Z</time></trkpt><trkpt lat="45.5154609691729" lon="8.676100663054061"><ele>168.0</ele><time>2026-05-02T14:41:35.999Z</time></trkpt><trkpt lat="45.51534625273625" lon="8.675907760627988"><ele>168.0</ele><time>2026-05-02T14:41:36.999Z</time></trkpt><trkpt lat="45.51523049384367" lon="8.675712337798233"><ele>168.0</ele><time>2026-05-02T14:41:37.999Z</time></trkpt><trkpt lat="45.51510410652622" lon="8.675504696421728"><ele>168.0</ele><time>2026-05-02T14:41:38.999Z</time></trkpt><trkpt lat="45.514971283680815" lon="8.675294747340565"><ele>167.66666666666666</ele><time>2026-05-02T14:41:39.999Z</time></trkpt><trkpt lat="45.51482983837651" lon="8.675077670103832"><ele>167.33333333333331</ele><time>2026-05-02T14:41:40.999Z</time></trkpt><trkpt lat="45.514688254127165" lon="8.674855333899167"><ele>167.0</ele><time>2026-05-02T14:41:41.999Z</time></trkpt><trkpt lat="45.51455129428787" lon="8.674640731781986"><ele>167.33333333333331</ele><time>2026-05-02T14:41:42.999Z</time></trkpt><trkpt lat="45.51441252717629" lon="8.674430627470972"><ele>167.66666666666666</ele><time>2026-05-02T14:41:43.999Z</time></trkpt><trkpt lat="45.51427347115989" lon="8.674224000448435"><ele>168.0</ele><time>2026-05-02T14:41:44.999Z</time></trkpt><trkpt lat="45.51413695281161" lon="8.674019647823336"><ele>168.0</ele><time>2026-05-02T14:41:45.999Z</time></trkpt><trkpt lat="45.51400716129347" lon="8.673816209371319"><ele>168.0</ele><time>2026-05-02T14:41:46.999Z</time></trkpt><trkpt lat="45.513880483945584" lon="8.673605728669257"><ele>168.0</ele><time>2026-05-02T14:41:47.999Z</time></trkpt><trkpt lat="45.51375524074646" lon="8.673391711211824"><ele>167.66666666666666</ele><time>2026-05-02T14:41:48.999Z</time></trkpt><trkpt lat="45.51362919967727" lon="8.673170929342444"><ele>167.33333333333331</ele><time>2026-05-02T14:41:49.999Z</time></trkpt><trkpt lat="45.51350484106837" lon="8.672946273785415"><ele>167.0</ele><time>2026-05-02T14:41:50.999Z</time></trkpt><trkpt lat="45.513385107420206" lon="8.672713762469115"><ele>167.0</ele><time>2026-05-02T14:41:51.999Z</time></trkpt><trkpt lat="45.51327044289641" lon="8.672481612671312"><ele>167.0</ele><time>2026-05-02T14:41:52.999Z</time></trkpt><trkpt lat="45.513162196294275" lon="8.672259864704632"><ele>167.0</ele><time>2026-05-02T14:41:53.999Z</time></trkpt><trkpt lat="45.513065535792386" lon="8.67204064118291"><ele>166.66666666666666</ele><time>2026-05-02T14:41:54.999Z</time></trkpt><trkpt lat="45.51298249611195" lon="8.671822887319246"><ele>166.33333333333334</ele><time>2026-05-02T14:41:55.999Z</time></trkpt><trkpt lat="45.512922470915555" lon="8.671587886257175"><ele>166.0</ele><time>2026-05-02T14:41:56.999Z</time></trkpt><trkpt lat="45.512877551270115" lon="8.671337564973737"><ele>166.0</ele><time>2026-05-02T14:41:57.999Z</time></trkpt><trkpt lat="45.51283220695893" lon="8.671079491783615"><ele>166.0</ele><time>2026-05-02T14:41:58.999Z</time></trkpt><trkpt lat="45.51276121999377" lon="8.67083421013861"><ele>166.0</ele><time>2026-05-02T14:41:59.999Z</time></trkpt><trkpt lat="45.51265290078007" lon="8.670595221197468"><ele>166.0</ele><time>2026-05-02T14:42:00.999Z</time></trkpt><trkpt lat="45.51251103212496" lon="8.670369191236528"><ele>166.0</ele><time>2026-05-02T14:42:01.999Z</time></trkpt><trkpt lat="45.512351864191075" lon="8.67015038311346"><ele>166.0</ele><time>2026-05-02T14:42:02.999Z</time></trkpt><trkpt lat="45.51219433316733" lon="8.669945320511106"><ele>165.66666666666669</ele><time>2026-05-02T14:42:03.999Z</time></trkpt><trkpt lat="45.512050921869424" lon="8.669758164227458"><ele>165.33333333333334</ele><time>2026-05-02T14:42:04.999Z</time></trkpt><trkpt lat="45.51192532488375" lon="8.6695966654059"><ele>165.0</ele><time>2026-05-02T14:42:05.999Z</time></trkpt><trkpt lat="45.51180217634867" lon="8.669453156126552"><ele>164.5</ele><time>2026-05-02T14:42:06.999Z</time></trkpt><trkpt lat="45.51167437819401" lon="8.669329712111425"><ele>164.0</ele><time>2026-05-02T14:42:07.999Z</time></trkpt><trkpt lat="45.51154434628758" lon="8.669222262047105"><ele>163.5</ele><time>2026-05-02T14:42:08.999Z</time></trkpt><trkpt lat="45.51142202290084" lon="8.66911545773073"><ele>163.0</ele><time>2026-05-02T14:42:09.999Z</time></trkpt><trkpt lat="45.51130947248343" lon="8.668992444719606"><ele>163.0</ele><time>2026-05-02T14:42:10.999Z</time></trkpt><trkpt lat="45.51120304600629" lon="8.668837592696894"><ele>163.0</ele><time>2026-05-02T14:42:11.999Z</time></trkpt><trkpt lat="45.51109930482469" lon="8.66865973494378"><ele>163.0</ele><time>2026-05-02T14:42:12.999Z</time></trkpt><trkpt lat="45.51099784917768" lon="8.668464427881204"><ele>163.0</ele><time>2026-05-02T14:42:13.999Z</time></trkpt><trkpt lat="45.51089602854879" lon="8.668262795916135"><ele>163.0</ele><time>2026-05-02T14:42:14.999Z</time></trkpt><trkpt lat="45.51079527653298" lon="8.66805636739351"><ele>163.0</ele><time>2026-05-02T14:42:15.999Z</time></trkpt><trkpt lat="45.51070081639942" lon="8.667861376940142"><ele>163.75</ele><time>2026-05-02T14:42:16.999Z</time></trkpt><trkpt lat="45.51061183867221" lon="8.66768326671736"><ele>164.5</ele><time>2026-05-02T14:42:17.999Z</time></trkpt><trkpt lat="45.510523003534274" lon="8.667516066203518"><ele>165.25</ele><time>2026-05-02T14:42:18.999Z</time></trkpt><trkpt lat="45.510434446015296" lon="8.667369939967012"><ele>166.0</ele><time>2026-05-02T14:42:19.999Z</time></trkpt><trkpt lat="45.51034686696836" lon="8.66723788660986"><ele>166.0</ele><time>2026-05-02T14:42:20.999Z</time></trkpt><trkpt lat="45.510255707963765" lon="8.667114383567927"><ele>166.0</ele><time>2026-05-02T14:42:21.999Z</time></trkpt><trkpt lat="45.51016398996434" lon="8.667007840642631"><ele>166.0</ele><time>2026-05-02T14:42:22.999Z</time></trkpt><trkpt lat="45.51008622310593" lon="8.6669234401541"><ele>166.0</ele><time>2026-05-02T14:42:23.999Z</time></trkpt><trkpt lat="45.510023141810805" lon="8.666858776047455"><ele>166.0</ele><time>2026-05-02T14:42:24.999Z</time></trkpt><trkpt lat="45.50996818517022" lon="8.666808692830895"><ele>166.4</ele><time>2026-05-02T14:42:25.999Z</time></trkpt><trkpt lat="45.509898282647754" lon="8.666687307311342"><ele>166.8</ele><time>2026-05-02T14:42:27.999Z</time></trkpt><trkpt lat="45.50993425830279" lon="8.666520539912021"><ele>167.20000000000002</ele><time>2026-05-02T14:42:29.999Z</time></trkpt><trkpt lat="45.50999820477672" lon="8.66644582803343"><ele>167.60000000000002</ele><time>2026-05-02T14:42:30.999Z</time></trkpt><trkpt lat="45.51009808757768" lon="8.666408850209422"><ele>168.0</ele><time>2026-05-02T14:42:31.999Z</time></trkpt><trkpt lat="45.51020064216843" lon="8.666345427152548"><ele>168.0</ele><time>2026-05-02T14:42:32.999Z</time></trkpt><trkpt lat="45.510305656417785" lon="8.666314874476464"><ele>168.0</ele><time>2026-05-02T14:42:33.999Z</time></trkpt><trkpt lat="45.51039897772154" lon="8.66627232798917"><ele>168.0</ele><time>2026-05-02T14:42:34.999Z</time></trkpt><trkpt lat="45.5104949597115" lon="8.666201550379242"><ele>168.0</ele><time>2026-05-02T14:42:35.999Z</time></trkpt><trkpt lat="45.51061192621745" lon="8.66611558828192"><ele>168.0</ele><time>2026-05-02T14:42:36.999Z</time></trkpt><trkpt lat="45.5107267074075" lon="8.66603183592679"><ele>167.25</ele><time>2026-05-02T14:42:37.999Z</time></trkpt><trkpt lat="45.510830598258465" lon="8.665945289160462"><ele>166.5</ele><time>2026-05-02T14:42:38.999Z</time></trkpt><trkpt lat="45.51092730788419" lon="8.66585551962804"><ele>165.75</ele><time>2026-05-02T14:42:39.999Z</time></trkpt><trkpt lat="45.511020264078425" lon="8.665762773850348"><ele>165.0</ele><time>2026-05-02T14:42:40.999Z</time></trkpt><trkpt lat="45.51111682815588" lon="8.665659149279369"><ele>165.0</ele><time>2026-05-02T14:42:41.999Z</time></trkpt><trkpt lat="45.511212971856025" lon="8.665540036083806"><ele>165.0</ele><time>2026-05-02T14:42:42.999Z</time></trkpt><trkpt lat="45.51131347417789" lon="8.665405210334676"><ele>165.0</ele><time>2026-05-02T14:42:43.999Z</time></trkpt><trkpt lat="45.51141707167048" lon="8.665262017281872"><ele>165.0</ele><time>2026-05-02T14:42:44.999Z</time></trkpt><trkpt lat="45.51152418342468" lon="8.665096364187603"><ele>165.0</ele><time>2026-05-02T14:42:45.999Z</time></trkpt><trkpt lat="45.51162317051465" lon="8.664930487843886"><ele>165.0</ele><time>2026-05-02T14:42:46.999Z</time></trkpt><trkpt lat="45.511726040567595" lon="8.664748115674438"><ele>165.0</ele><time>2026-05-02T14:42:47.999Z</time></trkpt><trkpt lat="45.51186295359579" lon="8.664550689425736"><ele>165.5</ele><time>2026-05-02T14:42:48.999Z</time></trkpt><trkpt lat="45.51202997133635" lon="8.664278495464764"><ele>166.0</ele><time>2026-05-02T14:42:49.999Z</time></trkpt><trkpt lat="45.512189691750166" lon="8.664018194130524"><ele>166.33333333333334</ele><time>2026-05-02T14:42:50.999Z</time></trkpt><trkpt lat="45.512327392410775" lon="8.663770286435305"><ele>166.66666666666666</ele><time>2026-05-02T14:42:51.999Z</time></trkpt><trkpt lat="45.51246645722583" lon="8.663555997112573"><ele>167.0</ele><time>2026-05-02T14:42:52.999Z</time></trkpt><trkpt lat="45.51258754105873" lon="8.663349458739747"><ele>167.0</ele><time>2026-05-02T14:42:53.999Z</time></trkpt><trkpt lat="45.51270239025276" lon="8.66315489477589"><ele>167.0</ele><time>2026-05-02T14:42:54.999Z</time></trkpt><trkpt lat="45.512822003272674" lon="8.66297250901205"><ele>167.0</ele><time>2026-05-02T14:42:55.999Z</time></trkpt><trkpt lat="45.51294958956311" lon="8.66278454222291"><ele>167.0</ele><time>2026-05-02T14:42:56.999Z</time></trkpt><trkpt lat="45.513060769907625" lon="8.662598331223021"><ele>167.0</ele><time>2026-05-02T14:42:57.999Z</time></trkpt><trkpt lat="45.51316591867613" lon="8.662407626408648"><ele>167.0</ele><time>2026-05-02T14:42:58.999Z</time></trkpt><trkpt lat="45.5132848671429" lon="8.662219285020392"><ele>167.0</ele><time>2026-05-02T14:42:59.999Z</time></trkpt><trkpt lat="45.513410776304966" lon="8.662034238781438"><ele>167.0</ele><time>2026-05-02T14:43:00.999Z</time></trkpt><trkpt lat="45.513555029303475" lon="8.661867501489235"><ele>167.0</ele><time>2026-05-02T14:43:01.999Z</time></trkpt><trkpt lat="45.51370095752336" lon="8.661701096062208"><ele>165.66666666666666</ele><time>2026-05-02T14:43:02.999Z</time></trkpt><trkpt lat="45.51386035760474" lon="8.661545949909556"><ele>164.33333333333334</ele><time>2026-05-02T14:43:03.999Z</time></trkpt><trkpt lat="45.51404328942752" lon="8.661413558751251"><ele>163.0</ele><time>2026-05-02T14:43:04.999Z</time></trkpt><trkpt lat="45.51424005674819" lon="8.66127022573795"><ele>163.0</ele><time>2026-05-02T14:43:05.999Z</time></trkpt><trkpt lat="45.51445514791218" lon="8.661119730640246"><ele>163.0</ele><time>2026-05-02T14:43:06.999Z</time></trkpt><trkpt lat="45.514675952829506" lon="8.660966794376922"><ele>163.66666666666669</ele><time>2026-05-02T14:43:07.999Z</time></trkpt><trkpt lat="45.51487123793078" lon="8.660827030969255"><ele>164.33333333333334</ele><time>2026-05-02T14:43:08.999Z</time></trkpt><trkpt lat="45.51505698741993" lon="8.66069252771037"><ele>165.0</ele><time>2026-05-02T14:43:09.999Z</time></trkpt><trkpt lat="45.51523277423842" lon="8.660564556270643"><ele>164.66666666666666</ele><time>2026-05-02T14:43:10.999Z</time></trkpt><trkpt lat="45.51541086398752" lon="8.660434933772658"><ele>164.33333333333331</ele><time>2026-05-02T14:43:11.999Z</time></trkpt><trkpt lat="45.51558856654386" lon="8.660308608012926"><ele>164.0</ele><time>2026-05-02T14:43:12.999Z</time></trkpt><trkpt lat="45.51576862566117" lon="8.660189485334207"><ele>164.0</ele><time>2026-05-02T14:43:13.999Z</time></trkpt><trkpt lat="45.515952976560754" lon="8.660067728705048"><ele>164.0</ele><time>2026-05-02T14:43:14.999Z</time></trkpt><trkpt lat="45.51613864869839" lon="8.659946862592223"><ele>164.0</ele><time>2026-05-02T14:43:15.999Z</time></trkpt><trkpt lat="45.51632252754426" lon="8.65982660919995"><ele>164.33333333333331</ele><time>2026-05-02T14:43:16.999Z</time></trkpt><trkpt lat="45.51651227127837" lon="8.659712793261898"><ele>164.66666666666666</ele><time>2026-05-02T14:43:17.999Z</time></trkpt><trkpt lat="45.51671325493809" lon="8.659602963378402"><ele>165.0</ele><time>2026-05-02T14:43:18.999Z</time></trkpt><trkpt lat="45.5169198400155" lon="8.659496533289948"><ele>166.5</ele><time>2026-05-02T14:43:19.999Z</time></trkpt><trkpt lat="45.51713367058715" lon="8.659389136026622"><ele>168.0</ele><time>2026-05-02T14:43:20.999Z</time></trkpt><trkpt lat="45.51735529007364" lon="8.65927713658719"><ele>168.0</ele><time>2026-05-02T14:43:21.999Z</time></trkpt><trkpt lat="45.51756803398799" lon="8.65917338298704"><ele>168.0</ele><time>2026-05-02T14:43:22.999Z</time></trkpt><trkpt lat="45.517766940772546" lon="8.65908774049948"><ele>168.0</ele><time>2026-05-02T14:43:23.999Z</time></trkpt><trkpt lat="45.5179599744752" lon="8.659008832415074"><ele>167.66666666666666</ele><time>2026-05-02T14:43:24.999Z</time></trkpt><trkpt lat="45.51815677224899" lon="8.65893255162532"><ele>167.33333333333331</ele><time>2026-05-02T14:43:25.999Z</time></trkpt><trkpt lat="45.518357894712835" lon="8.658856563714732"><ele>167.0</ele><time>2026-05-02T14:43:26.999Z</time></trkpt><trkpt lat="45.5185633100709" lon="8.658781569484068"><ele>166.66666666666666</ele><time>2026-05-02T14:43:27.999Z</time></trkpt><trkpt lat="45.51876728181715" lon="8.658715889309043"><ele>166.33333333333334</ele><time>2026-05-02T14:43:28.999Z</time></trkpt><trkpt lat="45.518963065657715" lon="8.658664627224633"><ele>166.0</ele><time>2026-05-02T14:43:29.999Z</time></trkpt><trkpt lat="45.51914776846194" lon="8.658622513672075"><ele>165.66666666666669</ele><time>2026-05-02T14:43:30.999Z</time></trkpt><trkpt lat="45.5193308327261" lon="8.65857472639317"><ele>165.33333333333334</ele><time>2026-05-02T14:43:31.999Z</time></trkpt><trkpt lat="45.519518237501124" lon="8.658524733488028"><ele>165.0</ele><time>2026-05-02T14:43:32.999Z</time></trkpt><trkpt lat="45.51970745861411" lon="8.658480065129305"><ele>166.0</ele><time>2026-05-02T14:43:33.999Z</time></trkpt><trkpt lat="45.519895987972205" lon="8.658442310841986"><ele>167.0</ele><time>2026-05-02T14:43:34.999Z</time></trkpt><trkpt lat="45.520083006252605" lon="8.658408262442588"><ele>168.0</ele><time>2026-05-02T14:43:35.999Z</time></trkpt><trkpt lat="45.52026501945413" lon="8.658379828307407"><ele>168.0</ele><time>2026-05-02T14:43:36.999Z</time></trkpt><trkpt lat="45.52043887567867" lon="8.658359576803953"><ele>168.0</ele><time>2026-05-02T14:43:37.999Z</time></trkpt><trkpt lat="45.520608353265324" lon="8.658346576804906"><ele>168.0</ele><time>2026-05-02T14:43:38.999Z</time></trkpt><trkpt lat="45.52077371324022" lon="8.658336155557802"><ele>168.0</ele><time>2026-05-02T14:43:39.999Z</time></trkpt><trkpt lat="45.5209390910944" lon="8.658322513416126"><ele>168.0</ele><time>2026-05-02T14:43:40.999Z</time></trkpt><trkpt lat="45.521103813012225" lon="8.658305000238492"><ele>168.0</ele><time>2026-05-02T14:43:41.999Z</time></trkpt><trkpt lat="45.52125675476983" lon="8.658292216042424"><ele>168.5</ele><time>2026-05-02T14:43:42.999Z</time></trkpt><trkpt lat="45.52139572485421" lon="8.658286103493458"><ele>169.0</ele><time>2026-05-02T14:43:43.999Z</time></trkpt><trkpt lat="45.52151882162988" lon="8.658287681787417"><ele>169.5</ele><time>2026-05-02T14:43:44.999Z</time></trkpt><trkpt lat="45.52163673791562" lon="8.658292354256261"><ele>170.0</ele><time>2026-05-02T14:43:45.999Z</time></trkpt><trkpt lat="45.52176308514984" lon="8.65830005863951"><ele>170.0</ele><time>2026-05-02T14:43:46.999Z</time></trkpt><trkpt lat="45.521908763979106" lon="8.658274106542274"><ele>170.0</ele><time>2026-05-02T14:43:47.999Z</time></trkpt><trkpt lat="45.52207497573871" lon="8.65828944642385"><ele>170.0</ele><time>2026-05-02T14:43:48.999Z</time></trkpt><trkpt lat="45.522252271252924" lon="8.658284558008923"><ele>170.33333333333331</ele><time>2026-05-02T14:43:49.999Z</time></trkpt><trkpt lat="45.522441707293424" lon="8.658288712408869"><ele>170.66666666666666</ele><time>2026-05-02T14:43:50.999Z</time></trkpt><trkpt lat="45.522632307261745" lon="8.65829517330173"><ele>171.0</ele><time>2026-05-02T14:43:51.999Z</time></trkpt><trkpt lat="45.522810743401266" lon="8.658295055571726"><ele>172.0</ele><time>2026-05-02T14:43:52.999Z</time></trkpt><trkpt lat="45.52298089052495" lon="8.65829386202978"><ele>173.0</ele><time>2026-05-02T14:43:53.999Z</time></trkpt><trkpt lat="45.52314348658415" lon="8.65829256611839"><ele>174.0</ele><time>2026-05-02T14:43:54.999Z</time></trkpt><trkpt lat="45.523309847066685" lon="8.658294036121617"><ele>174.0</ele><time>2026-05-02T14:43:55.999Z</time></trkpt><trkpt lat="45.52347031230599" lon="8.658292516624863"><ele>174.0</ele><time>2026-05-02T14:43:56.999Z</time></trkpt><trkpt lat="45.52363574018698" lon="8.658293944355847"><ele>174.0</ele><time>2026-05-02T14:43:57.999Z</time></trkpt><trkpt lat="45.52380364250131" lon="8.658289603867907"><ele>173.66666666666666</ele><time>2026-05-02T14:43:58.999Z</time></trkpt><trkpt lat="45.52396671103275" lon="8.65828813591167"><ele>173.33333333333331</ele><time>2026-05-02T14:43:59.999Z</time></trkpt><trkpt lat="45.524128285845734" lon="8.658290163835932"><ele>173.0</ele><time>2026-05-02T14:44:00.999Z</time></trkpt><trkpt lat="45.52428862357831" lon="8.658292612355396"><ele>173.0</ele><time>2026-05-02T14:44:01.999Z</time></trkpt><trkpt lat="45.524448735667164" lon="8.658291430794664"><ele>173.0</ele><time>2026-05-02T14:44:03Z</time></trkpt><trkpt lat="45.52460095133913" lon="8.65829195269341"><ele>173.0</ele><time>2026-05-02T14:44:04Z</time></trkpt><trkpt lat="45.52474548941119" lon="8.658290680711943"><ele>173.75</ele><time>2026-05-02T14:44:05Z</time></trkpt><trkpt lat="45.524885619363666" lon="8.658279620725272"><ele>174.5</ele><time>2026-05-02T14:44:06Z</time></trkpt><trkpt lat="45.52502579142751" lon="8.658253786310425"><ele>175.25</ele><time>2026-05-02T14:44:07Z</time></trkpt><trkpt lat="45.52515734633967" lon="8.65821321512283"><ele>176.0</ele><time>2026-05-02T14:44:08Z</time></trkpt><trkpt lat="45.52527927917633" lon="8.658155497021562"><ele>176.0</ele><time>2026-05-02T14:44:09Z</time></trkpt><trkpt lat="45.52538982509203" lon="8.658086183800693"><ele>176.0</ele><time>2026-05-02T14:44:10Z</time></trkpt><trkpt lat="45.525496648738205" lon="8.658014790541621"><ele>176.0</ele><time>2026-05-02T14:44:11Z</time></trkpt><trkpt lat="45.52559660261176" lon="8.657951835173774"><ele>176.0</ele><time>2026-05-02T14:44:12Z</time></trkpt><trkpt lat="45.525680322604494" lon="8.657905514987815"><ele>176.0</ele><time>2026-05-02T14:44:13Z</time></trkpt><trkpt lat="45.52575681506122" lon="8.657875628389418"><ele>175.75</ele><time>2026-05-02T14:44:14Z</time></trkpt><trkpt lat="45.525845737133366" lon="8.657840840232124"><ele>175.5</ele><time>2026-05-02T14:44:15Z</time></trkpt><trkpt lat="45.52594684224701" lon="8.65779822487609"><ele>175.25</ele><time>2026-05-02T14:44:16Z</time></trkpt><trkpt lat="45.52606840750416" lon="8.65775417590575"><ele>175.0</ele><time>2026-05-02T14:44:17Z</time></trkpt><trkpt lat="45.52619767995792" lon="8.657713472855715"><ele>175.0</ele><time>2026-05-02T14:44:18Z</time></trkpt><trkpt lat="45.52633608697686" lon="8.657656638957432"><ele>175.0</ele><time>2026-05-02T14:44:19Z</time></trkpt><trkpt lat="45.526488323444475" lon="8.657579433331032"><ele>175.0</ele><time>2026-05-02T14:44:20Z</time></trkpt><trkpt lat="45.526629036081864" lon="8.657480457211966"><ele>175.0</ele><time>2026-05-02T14:44:21Z</time></trkpt><trkpt lat="45.52677528905628" lon="8.657358397954335"><ele>175.0</ele><time>2026-05-02T14:44:22Z</time></trkpt><trkpt lat="45.526927200817646" lon="8.657220506416019"><ele>175.0</ele><time>2026-05-02T14:44:23Z</time></trkpt><trkpt lat="45.527091438378" lon="8.65707413057175"><ele>175.0</ele><time>2026-05-02T14:44:24Z</time></trkpt><trkpt lat="45.52725713112013" lon="8.656927212640612"><ele>175.0</ele><time>2026-05-02T14:44:25Z</time></trkpt><trkpt lat="45.52741233174728" lon="8.656793692851139"><ele>175.0</ele><time>2026-05-02T14:44:26Z</time></trkpt><trkpt lat="45.52756993204767" lon="8.656661713671634"><ele>175.0</ele><time>2026-05-02T14:44:27Z</time></trkpt><trkpt lat="45.52773701583372" lon="8.656519106729029"><ele>175.0</ele><time>2026-05-02T14:44:28Z</time></trkpt><trkpt lat="45.52790398155849" lon="8.656376476828484"><ele>175.0</ele><time>2026-05-02T14:44:29Z</time></trkpt><trkpt lat="45.528065303208336" lon="8.656229070718865"><ele>175.66666666666669</ele><time>2026-05-02T14:44:30Z</time></trkpt><trkpt lat="45.528228463381694" lon="8.656085011762208"><ele>176.33333333333334</ele><time>2026-05-02T14:44:31Z</time></trkpt><trkpt lat="45.52840645937671" lon="8.655929992817473"><ele>177.0</ele><time>2026-05-02T14:44:32Z</time></trkpt><trkpt lat="45.5285997961691" lon="8.655760671909023"><ele>177.33333333333334</ele><time>2026-05-02T14:44:33Z</time></trkpt><trkpt lat="45.528786644462635" lon="8.65559736170609"><ele>177.66666666666669</ele><time>2026-05-02T14:44:34Z</time></trkpt><trkpt lat="45.52895956260004" lon="8.655444326480675"><ele>178.0</ele><time>2026-05-02T14:44:35Z</time></trkpt><trkpt lat="45.5291267351737" lon="8.655297227046253"><ele>177.0</ele><time>2026-05-02T14:44:36Z</time></trkpt><trkpt lat="45.529286362424685" lon="8.65516024003588"><ele>176.0</ele><time>2026-05-02T14:44:37Z</time></trkpt><trkpt lat="45.52944073164368" lon="8.655027820958699"><ele>175.0</ele><time>2026-05-02T14:44:38Z</time></trkpt><trkpt lat="45.52959609727511" lon="8.654893541807546"><ele>175.0</ele><time>2026-05-02T14:44:39Z</time></trkpt><trkpt lat="45.529746812424406" lon="8.654762498250577"><ele>175.0</ele><time>2026-05-02T14:44:40Z</time></trkpt><trkpt lat="45.529889085898766" lon="8.654638100645462"><ele>175.0</ele><time>2026-05-02T14:44:41Z</time></trkpt><trkpt lat="45.53002531942497" lon="8.654521405529556"><ele>174.66666666666669</ele><time>2026-05-02T14:44:42Z</time></trkpt><trkpt lat="45.53015756529699" lon="8.654407347591244"><ele>174.33333333333334</ele><time>2026-05-02T14:44:43Z</time></trkpt><trkpt lat="45.5302916354245" lon="8.654294470013271"><ele>174.0</ele><time>2026-05-02T14:44:44Z</time></trkpt><trkpt lat="45.53042337487099" lon="8.654191592925718"><ele>174.0</ele><time>2026-05-02T14:44:45Z</time></trkpt><trkpt lat="45.53054649610056" lon="8.654104016998868"><ele>174.0</ele><time>2026-05-02T14:44:46Z</time></trkpt><trkpt lat="45.53066152347629" lon="8.654023974169784"><ele>174.0</ele><time>2026-05-02T14:44:47Z</time></trkpt><trkpt lat="45.53077284714715" lon="8.653953971091477"><ele>174.0</ele><time>2026-05-02T14:44:48Z</time></trkpt><trkpt lat="45.530886449839876" lon="8.653893084752788"><ele>174.0</ele><time>2026-05-02T14:44:49Z</time></trkpt><trkpt lat="45.53099442343957" lon="8.653847495529392"><ele>174.0</ele><time>2026-05-02T14:44:50Z</time></trkpt><trkpt lat="45.531094042880866" lon="8.653831890410038"><ele>174.0</ele><time>2026-05-02T14:44:51Z</time></trkpt><trkpt lat="45.531194891237334" lon="8.653847231217473"><ele>174.0</ele><time>2026-05-02T14:44:52Z</time></trkpt><trkpt lat="45.531294288175964" lon="8.653934037208632"><ele>174.0</ele><time>2026-05-02T14:44:53Z</time></trkpt><trkpt lat="45.53142338338863" lon="8.653960810173153"><ele>174.25</ele><time>2026-05-02T14:44:54Z</time></trkpt><trkpt lat="45.53155335796062" lon="8.653890590835715"><ele>174.5</ele><time>2026-05-02T14:44:55Z</time></trkpt><trkpt lat="45.531688332177126" lon="8.653846547069254"><ele>174.75</ele><time>2026-05-02T14:44:56Z</time></trkpt><trkpt lat="45.53182990870057" lon="8.653841087345123"><ele>175.0</ele><time>2026-05-02T14:44:57Z</time></trkpt><trkpt lat="45.53197439411625" lon="8.65388877552209"><ele>176.0</ele><time>2026-05-02T14:44:57.999Z</time></trkpt><trkpt lat="45.53212478945737" lon="8.653962300028148"><ele>177.0</ele><time>2026-05-02T14:44:58.999Z</time></trkpt><trkpt lat="45.53229086346767" lon="8.654043773200218"><ele>178.0</ele><time>2026-05-02T14:44:59.999Z</time></trkpt><trkpt lat="45.53247115608919" lon="8.654128119914114"><ele>178.0</ele><time>2026-05-02T14:45:00.999Z</time></trkpt><trkpt lat="45.53264439808485" lon="8.654208366060272"><ele>178.0</ele><time>2026-05-02T14:45:01.999Z</time></trkpt><trkpt lat="45.5328166631129" lon="8.654289529707436"><ele>178.0</ele><time>2026-05-02T14:45:02.999Z</time></trkpt><trkpt lat="45.53299278001949" lon="8.654375857029692"><ele>179.33333333333334</ele><time>2026-05-02T14:45:03.999Z</time></trkpt><trkpt lat="45.53317516825794" lon="8.654465772904008"><ele>180.66666666666666</ele><time>2026-05-02T14:45:04.999Z</time></trkpt><trkpt lat="45.53335632876555" lon="8.65455171948143"><ele>182.0</ele><time>2026-05-02T14:45:05.999Z</time></trkpt><trkpt lat="45.53354389714813" lon="8.654641770960271"><ele>181.0</ele><time>2026-05-02T14:45:06.999Z</time></trkpt><trkpt lat="45.533733553234725" lon="8.654726483976644"><ele>180.0</ele><time>2026-05-02T14:45:07.999Z</time></trkpt><trkpt lat="45.53391986581602" lon="8.654809973830208"><ele>179.0</ele><time>2026-05-02T14:45:08.999Z</time></trkpt><trkpt lat="45.534098108001" lon="8.654893780508555"><ele>179.0</ele><time>2026-05-02T14:45:09.999Z</time></trkpt><trkpt lat="45.534269091054284" lon="8.654978284686987"><ele>179.0</ele><time>2026-05-02T14:45:10.999Z</time></trkpt><trkpt lat="45.534437028049034" lon="8.655061059968103"><ele>179.0</ele><time>2026-05-02T14:45:11.999Z</time></trkpt><trkpt lat="45.534601083268434" lon="8.655137952008637"><ele>178.33333333333331</ele><time>2026-05-02T14:45:12.999Z</time></trkpt><trkpt lat="45.53476519454399" lon="8.655211564131884"><ele>177.66666666666666</ele><time>2026-05-02T14:45:13.999Z</time></trkpt><trkpt lat="45.53492124839936" lon="8.655274789647617"><ele>177.0</ele><time>2026-05-02T14:45:14.999Z</time></trkpt><trkpt lat="45.53507672980488" lon="8.65532453132976"><ele>177.0</ele><time>2026-05-02T14:45:15.999Z</time></trkpt><trkpt lat="45.53524281331466" lon="8.655354862610332"><ele>177.0</ele><time>2026-05-02T14:45:16.999Z</time></trkpt><trkpt lat="45.535424687365555" lon="8.655363523518627"><ele>177.0</ele><time>2026-05-02T14:45:17.999Z</time></trkpt><trkpt lat="45.53561101514091" lon="8.655360986568063"><ele>177.0</ele><time>2026-05-02T14:45:18.999Z</time></trkpt><trkpt lat="45.535799068713914" lon="8.655342871432167"><ele>177.0</ele><time>2026-05-02T14:45:19.999Z</time></trkpt><trkpt lat="45.535984927792406" lon="8.655289515347267"><ele>177.0</ele><time>2026-05-02T14:45:20.999Z</time></trkpt><trkpt lat="45.53616395493734" lon="8.655216914424852"><ele>178.0</ele><time>2026-05-02T14:45:21.999Z</time></trkpt><trkpt lat="45.5364046199051" lon="8.655129270311946"><ele>179.0</ele><time>2026-05-02T14:45:22.999Z</time></trkpt><trkpt lat="45.53664107342166" lon="8.655020083422638"><ele>179.0</ele><time>2026-05-02T14:45:23.999Z</time></trkpt><trkpt lat="45.536857011260516" lon="8.654931354898443"><ele>179.0</ele><time>2026-05-02T14:45:24.999Z</time></trkpt><trkpt lat="45.53708259593076" lon="8.65484539278481"><ele>178.5</ele><time>2026-05-02T14:45:25.999Z</time></trkpt><trkpt lat="45.537314942708555" lon="8.654750236856641"><ele>178.0</ele><time>2026-05-02T14:45:26.999Z</time></trkpt><trkpt lat="45.53755339603698" lon="8.654649222160293"><ele>178.0</ele><time>2026-05-02T14:45:27.999Z</time></trkpt><trkpt lat="45.53779641026287" lon="8.654546929729962"><ele>178.0</ele><time>2026-05-02T14:45:28.999Z</time></trkpt><trkpt lat="45.53802630151486" lon="8.65445657788054"><ele>179.0</ele><time>2026-05-02T14:45:29.999Z</time></trkpt><trkpt lat="45.53824974247072" lon="8.65436121292526"><ele>180.0</ele><time>2026-05-02T14:45:30.999Z</time></trkpt><trkpt lat="45.53846912947038" lon="8.654266018097612"><ele>180.0</ele><time>2026-05-02T14:45:31.999Z</time></trkpt><trkpt lat="45.538689611546125" lon="8.654173035334763"><ele>180.0</ele><time>2026-05-02T14:45:32.999Z</time></trkpt><trkpt lat="45.53890736214138" lon="8.654082496096944"><ele>179.5</ele><time>2026-05-02T14:45:33.999Z</time></trkpt><trkpt lat="45.53912671530609" lon="8.653993517522066"><ele>179.0</ele><time>2026-05-02T14:45:34.999Z</time></trkpt><trkpt lat="45.53935343411471" lon="8.653901410651335"><ele>179.0</ele><time>2026-05-02T14:45:35.999Z</time></trkpt><trkpt lat="45.53958672433211" lon="8.653810662529015"><ele>179.0</ele><time>2026-05-02T14:45:36.999Z</time></trkpt><trkpt lat="45.53981727688251" lon="8.653715556121094"><ele>178.5</ele><time>2026-05-02T14:45:37.999Z</time></trkpt><trkpt lat="45.540046538421784" lon="8.653619979542295"><ele>178.0</ele><time>2026-05-02T14:45:38.999Z</time></trkpt><trkpt lat="45.54027547549347" lon="8.653523657359738"><ele>178.0</ele><time>2026-05-02T14:45:39.999Z</time></trkpt><trkpt lat="45.54050955353057" lon="8.653420367543028"><ele>178.0</ele><time>2026-05-02T14:45:40.999Z</time></trkpt><trkpt lat="45.54075578870003" lon="8.653313026044925"><ele>178.0</ele><time>2026-05-02T14:45:41.999Z</time></trkpt><trkpt lat="45.54100793591542" lon="8.65321187239664"><ele>178.0</ele><time>2026-05-02T14:45:42.999Z</time></trkpt><trkpt lat="45.54124555522594" lon="8.653121601873211"><ele>176.0</ele><time>2026-05-02T14:45:43.999Z</time></trkpt><trkpt lat="45.54147355949861" lon="8.653031156575821"><ele>174.0</ele><time>2026-05-02T14:45:44.999Z</time></trkpt><trkpt lat="45.541699487665596" lon="8.652939113183166"><ele>174.0</ele><time>2026-05-02T14:45:46Z</time></trkpt><trkpt lat="45.5419167350509" lon="8.652848122347937"><ele>174.0</ele><time>2026-05-02T14:45:47Z</time></trkpt><trkpt lat="45.542134351402126" lon="8.652759529404237"><ele>178.0</ele><time>2026-05-02T14:45:48Z</time></trkpt><trkpt lat="45.542353558941805" lon="8.6526666254577"><ele>182.0</ele><time>2026-05-02T14:45:49Z</time></trkpt><trkpt lat="45.54257551858966" lon="8.652571396635523"><ele>182.0</ele><time>2026-05-02T14:45:50Z</time></trkpt><trkpt lat="45.5428047086461" lon="8.652478446912596"><ele>182.0</ele><time>2026-05-02T14:45:51Z</time></trkpt><trkpt lat="45.543032776160594" lon="8.652385804340522"><ele>182.0</ele><time>2026-05-02T14:45:52Z</time></trkpt><trkpt lat="45.5432644009541" lon="8.652288735375082"><ele>182.0</ele><time>2026-05-02T14:45:53Z</time></trkpt><trkpt lat="45.543505323442716" lon="8.652187329806761"><ele>183.0</ele><time>2026-05-02T14:45:54Z</time></trkpt><trkpt lat="45.54373954488473" lon="8.652091471951142"><ele>184.0</ele><time>2026-05-02T14:45:55Z</time></trkpt><trkpt lat="45.54397139484143" lon="8.65199734897173"><ele>184.5</ele><time>2026-05-02T14:45:56Z</time></trkpt><trkpt lat="45.5441978534325" lon="8.651906347045896"><ele>185.0</ele><time>2026-05-02T14:45:57Z</time></trkpt><trkpt lat="45.54442827366464" lon="8.651826010432044"><ele>184.0</ele><time>2026-05-02T14:45:58Z</time></trkpt><trkpt lat="45.54464965807805" lon="8.651746810565133"><ele>183.0</ele><time>2026-05-02T14:45:59Z</time></trkpt><trkpt lat="45.54485437298946" lon="8.651684065253482"><ele>182.0</ele><time>2026-05-02T14:46:00Z</time></trkpt><trkpt lat="45.54505003568324" lon="8.651617568173876"><ele>182.0</ele><time>2026-05-02T14:46:01Z</time></trkpt><trkpt lat="45.54524672333613" lon="8.651548581200657"><ele>182.0</ele><time>2026-05-02T14:46:02Z</time></trkpt><trkpt lat="45.54544385682962" lon="8.65148567423142"><ele>182.0</ele><time>2026-05-02T14:46:03Z</time></trkpt><trkpt lat="45.54564414630468" lon="8.651416709529284"><ele>182.0</ele><time>2026-05-02T14:46:04Z</time></trkpt><trkpt lat="45.545846075301384" lon="8.651353365361352"><ele>182.0</ele><time>2026-05-02T14:46:05Z</time></trkpt><trkpt lat="45.546051656966675" lon="8.651283657323976"><ele>182.0</ele><time>2026-05-02T14:46:06Z</time></trkpt><trkpt lat="45.54625603735153" lon="8.651211779844816"><ele>182.0</ele><time>2026-05-02T14:46:07Z</time></trkpt><trkpt lat="45.54646722107635" lon="8.651134507607411"><ele>182.0</ele><time>2026-05-02T14:46:08Z</time></trkpt><trkpt lat="45.5466798960594" lon="8.651055686168114"><ele>182.0</ele><time>2026-05-02T14:46:09Z</time></trkpt><trkpt lat="45.54690059482476" lon="8.650974257252752"><ele>183.0</ele><time>2026-05-02T14:46:10Z</time></trkpt><trkpt lat="45.54712184862749" lon="8.650893199918087"><ele>184.0</ele><time>2026-05-02T14:46:11Z</time></trkpt><trkpt lat="45.5473397300272" lon="8.650814969878908"><ele>184.0</ele><time>2026-05-02T14:46:12Z</time></trkpt><trkpt lat="45.54755898305198" lon="8.650736210270088"><ele>184.0</ele><time>2026-05-02T14:46:13Z</time></trkpt><trkpt lat="45.54777805474471" lon="8.65065698168163"><ele>184.66666666666669</ele><time>2026-05-02T14:46:14Z</time></trkpt><trkpt lat="45.54799089622524" lon="8.650580106912999"><ele>185.33333333333334</ele><time>2026-05-02T14:46:15Z</time></trkpt><trkpt lat="45.5482008854393" lon="8.650500371526697"><ele>186.0</ele><time>2026-05-02T14:46:16Z</time></trkpt><trkpt lat="45.548409856987746" lon="8.650418187482284"><ele>186.0</ele><time>2026-05-02T14:46:17Z</time></trkpt><trkpt lat="45.54861895204652" lon="8.650341590401714"><ele>186.0</ele><time>2026-05-02T14:46:18Z</time></trkpt><trkpt lat="45.54882780258973" lon="8.650266339042286"><ele>186.0</ele><time>2026-05-02T14:46:19Z</time></trkpt><trkpt lat="45.54903325843637" lon="8.650194925439612"><ele>185.33333333333334</ele><time>2026-05-02T14:46:20Z</time></trkpt><trkpt lat="45.549243086689415" lon="8.650120529228591"><ele>184.66666666666669</ele><time>2026-05-02T14:46:21Z</time></trkpt><trkpt lat="45.549454811985896" lon="8.650042263368675"><ele>184.0</ele><time>2026-05-02T14:46:22Z</time></trkpt><trkpt lat="45.549673822344474" lon="8.64996028288493"><ele>183.5</ele><time>2026-05-02T14:46:23Z</time></trkpt><trkpt lat="45.54989917033762" lon="8.649878617713243"><ele>183.0</ele><time>2026-05-02T14:46:24Z</time></trkpt><trkpt lat="45.55012665696443" lon="8.649797030667921"><ele>183.0</ele><time>2026-05-02T14:46:25Z</time></trkpt><trkpt lat="45.55034865556891" lon="8.649714154089033"><ele>183.0</ele><time>2026-05-02T14:46:26Z</time></trkpt><trkpt lat="45.55058177549388" lon="8.649624600944167"><ele>183.0</ele><time>2026-05-02T14:46:27Z</time></trkpt><trkpt lat="45.550812131735405" lon="8.64953747396143"><ele>183.0</ele><time>2026-05-02T14:46:28Z</time></trkpt><trkpt lat="45.55102530587907" lon="8.649460685525009"><ele>183.0</ele><time>2026-05-02T14:46:29Z</time></trkpt><trkpt lat="45.55122822026971" lon="8.64938642113138"><ele>183.0</ele><time>2026-05-02T14:46:30Z</time></trkpt><trkpt lat="45.551435322651464" lon="8.649311046798758"><ele>183.0</ele><time>2026-05-02T14:46:31Z</time></trkpt><trkpt lat="45.551642232463784" lon="8.649235221861451"><ele>183.0</ele><time>2026-05-02T14:46:32Z</time></trkpt><trkpt lat="45.551837042949025" lon="8.649162490758075"><ele>183.0</ele><time>2026-05-02T14:46:33Z</time></trkpt><trkpt lat="45.552026120363735" lon="8.649090578279088"><ele>183.0</ele><time>2026-05-02T14:46:34Z</time></trkpt><trkpt lat="45.55222013998777" lon="8.649022209711209"><ele>183.33333333333334</ele><time>2026-05-02T14:46:35Z</time></trkpt><trkpt lat="45.55241670722709" lon="8.64895447268867"><ele>183.66666666666669</ele><time>2026-05-02T14:46:36Z</time></trkpt><trkpt lat="45.55260822584336" lon="8.648888295899567"><ele>184.0</ele><time>2026-05-02T14:46:37Z</time></trkpt><trkpt lat="45.552787869847904" lon="8.6488256347723"><ele>184.33333333333334</ele><time>2026-05-02T14:46:38Z</time></trkpt><trkpt lat="45.55296202581018" lon="8.648766195943399"><ele>184.66666666666666</ele><time>2026-05-02T14:46:39Z</time></trkpt><trkpt lat="45.55312872448208" lon="8.6487136531265"><ele>185.0</ele><time>2026-05-02T14:46:40Z</time></trkpt><trkpt lat="45.55327724211183" lon="8.648671079704345"><ele>185.0</ele><time>2026-05-02T14:46:41Z</time></trkpt><trkpt lat="45.553416483209034" lon="8.648630868967672"><ele>185.0</ele><time>2026-05-02T14:46:42Z</time></trkpt><trkpt lat="45.553549385822365" lon="8.64858873816804"><ele>185.0</ele><time>2026-05-02T14:46:43Z</time></trkpt><trkpt lat="45.55367826453544" lon="8.648539455504118"><ele>185.0</ele><time>2026-05-02T14:46:44Z</time></trkpt><trkpt lat="45.55381044411255" lon="8.648484835799275"><ele>184.66666666666666</ele><time>2026-05-02T14:46:45Z</time></trkpt><trkpt lat="45.55396134546712" lon="8.648433900018377"><ele>184.33333333333334</ele><time>2026-05-02T14:46:46Z</time></trkpt><trkpt lat="45.554128507515415" lon="8.648398258762015"><ele>184.0</ele><time>2026-05-02T14:46:47Z</time></trkpt><trkpt lat="45.55430615183477" lon="8.648374561531654"><ele>184.0</ele><time>2026-05-02T14:46:48Z</time></trkpt><trkpt lat="45.554486992369526" lon="8.64835658620286"><ele>184.0</ele><time>2026-05-02T14:46:49Z</time></trkpt><trkpt lat="45.5546691379213" lon="8.648336853774566"><ele>184.0</ele><time>2026-05-02T14:46:50Z</time></trkpt><trkpt lat="45.55484954373194" lon="8.648320083521172"><ele>184.66666666666669</ele><time>2026-05-02T14:46:51Z</time></trkpt><trkpt lat="45.555014621769004" lon="8.648314749064964"><ele>185.33333333333334</ele><time>2026-05-02T14:46:52Z</time></trkpt><trkpt lat="45.555168052223735" lon="8.64832662220411"><ele>186.0</ele><time>2026-05-02T14:46:53Z</time></trkpt><trkpt lat="45.55531279141208" lon="8.648338341513016"><ele>186.0</ele><time>2026-05-02T14:46:54Z</time></trkpt><trkpt lat="45.55546125088764" lon="8.64834316583943"><ele>186.0</ele><time>2026-05-02T14:46:55Z</time></trkpt><trkpt lat="45.555611263623405" lon="8.648341396197235"><ele>186.0</ele><time>2026-05-02T14:46:56Z</time></trkpt><trkpt lat="45.55576940179114" lon="8.648354239900717"><ele>186.0</ele><time>2026-05-02T14:46:57Z</time></trkpt><trkpt lat="45.55593538795353" lon="8.648367236937949"><ele>186.0</ele><time>2026-05-02T14:46:58Z</time></trkpt><trkpt lat="45.55609699965662" lon="8.64837402833239"><ele>186.0</ele><time>2026-05-02T14:46:59Z</time></trkpt><trkpt lat="45.55625247187009" lon="8.648369285521616"><ele>186.25</ele><time>2026-05-02T14:47:00Z</time></trkpt><trkpt lat="45.55639772709134" lon="8.648366307700527"><ele>186.5</ele><time>2026-05-02T14:47:01Z</time></trkpt><trkpt lat="45.55654195738588" lon="8.64836299736708"><ele>186.75</ele><time>2026-05-02T14:47:02Z</time></trkpt><trkpt lat="45.556686760236296" lon="8.64835652153038"><ele>187.0</ele><time>2026-05-02T14:47:03Z</time></trkpt><trkpt lat="45.55683873954562" lon="8.648342677762692"><ele>187.0</ele><time>2026-05-02T14:47:04Z</time></trkpt><trkpt lat="45.556991407740014" lon="8.648311419117386"><ele>187.0</ele><time>2026-05-02T14:47:05Z</time></trkpt><trkpt lat="45.55713448982228" lon="8.648274850861903"><ele>187.0</ele><time>2026-05-02T14:47:06Z</time></trkpt><trkpt lat="45.55727708832493" lon="8.648234835604068"><ele>187.0</ele><time>2026-05-02T14:47:07Z</time></trkpt><trkpt lat="45.55741934864408" lon="8.648185652379706"><ele>187.0</ele><time>2026-05-02T14:47:08Z</time></trkpt><trkpt lat="45.557564120099386" lon="8.648127414233077"><ele>187.0</ele><time>2026-05-02T14:47:09Z</time></trkpt><trkpt lat="45.5577188841898" lon="8.648053286723298"><ele>187.0</ele><time>2026-05-02T14:47:10Z</time></trkpt><trkpt lat="45.557888173018334" lon="8.647946298674793"><ele>187.0</ele><time>2026-05-02T14:47:11Z</time></trkpt><trkpt lat="45.55808664977958" lon="8.647846063963433"><ele>187.0</ele><time>2026-05-02T14:47:12Z</time></trkpt><trkpt lat="45.558325184377814" lon="8.647730361969273"><ele>187.0</ele><time>2026-05-02T14:47:13Z</time></trkpt><trkpt lat="45.55856965901175" lon="8.64762331875163"><ele>187.0</ele><time>2026-05-02T14:47:14Z</time></trkpt><trkpt lat="45.558816082826525" lon="8.647549014913523"><ele>187.5</ele><time>2026-05-02T14:47:15Z</time></trkpt><trkpt lat="45.55906877855183" lon="8.647407058528747"><ele>188.0</ele><time>2026-05-02T14:47:16Z</time></trkpt><trkpt lat="45.55931871591207" lon="8.64728575830404"><ele>187.0</ele><time>2026-05-02T14:47:17Z</time></trkpt><trkpt lat="45.55955738918999" lon="8.647173156772803"><ele>186.0</ele><time>2026-05-02T14:47:18Z</time></trkpt><trkpt lat="45.55979436319387" lon="8.647058470608346"><ele>186.0</ele><time>2026-05-02T14:47:19Z</time></trkpt><trkpt lat="45.56001829043336" lon="8.646946951902033"><ele>186.0</ele><time>2026-05-02T14:47:20Z</time></trkpt><trkpt lat="45.56022862745025" lon="8.64684251587762"><ele>185.66666666666666</ele><time>2026-05-02T14:47:21Z</time></trkpt><trkpt lat="45.56042817473206" lon="8.646745144226648"><ele>185.33333333333331</ele><time>2026-05-02T14:47:22Z</time></trkpt><trkpt lat="45.56061948363902" lon="8.64665084436096"><ele>185.0</ele><time>2026-05-02T14:47:23Z</time></trkpt><trkpt lat="45.560808271629234" lon="8.646553046959315"><ele>185.0</ele><time>2026-05-02T14:47:24Z</time></trkpt><trkpt lat="45.561004306758775" lon="8.646453946967316"><ele>185.0</ele><time>2026-05-02T14:47:25Z</time></trkpt><trkpt lat="45.56120189304556" lon="8.646359509227503"><ele>185.0</ele><time>2026-05-02T14:47:26Z</time></trkpt><trkpt lat="45.56139965645205" lon="8.646266327877278"><ele>185.66666666666666</ele><time>2026-05-02T14:47:27Z</time></trkpt><trkpt lat="45.56159420051176" lon="8.646171948930961"><ele>186.33333333333334</ele><time>2026-05-02T14:47:28Z</time></trkpt><trkpt lat="45.56178100314331" lon="8.646080709282499"><ele>187.0</ele><time>2026-05-02T14:47:29Z</time></trkpt><trkpt lat="45.56196206979528" lon="8.6459920369494"><ele>188.0</ele><time>2026-05-02T14:47:30Z</time></trkpt><trkpt lat="45.56214977833992" lon="8.645899605103104"><ele>189.0</ele><time>2026-05-02T14:47:31Z</time></trkpt><trkpt lat="45.56233379795594" lon="8.645808868759904"><ele>190.0</ele><time>2026-05-02T14:47:32Z</time></trkpt><trkpt lat="45.56251429576725" lon="8.645718177419617"><ele>190.0</ele><time>2026-05-02T14:47:33Z</time></trkpt><trkpt lat="45.56268719705303" lon="8.645630640010074"><ele>190.0</ele><time>2026-05-02T14:47:34Z</time></trkpt><trkpt lat="45.56285894703435" lon="8.645546595588984"><ele>190.0</ele><time>2026-05-02T14:47:35Z</time></trkpt><trkpt lat="45.56302338571602" lon="8.64546790555144"><ele>190.0</ele><time>2026-05-02T14:47:36Z</time></trkpt><trkpt lat="45.56319134481564" lon="8.645392547293707"><ele>190.0</ele><time>2026-05-02T14:47:37Z</time></trkpt><trkpt lat="45.56335555527587" lon="8.645312823591723"><ele>190.0</ele><time>2026-05-02T14:47:38Z</time></trkpt><trkpt lat="45.56351376857659" lon="8.645234694913706"><ele>190.25</ele><time>2026-05-02T14:47:39Z</time></trkpt><trkpt lat="45.56366483987231" lon="8.645160206328312"><ele>190.5</ele><time>2026-05-02T14:47:40Z</time></trkpt><trkpt lat="45.56380551639074" lon="8.645090848509746"><ele>190.75</ele><time>2026-05-02T14:47:41Z</time></trkpt><trkpt lat="45.563931929959885" lon="8.645024629843551"><ele>191.0</ele><time>2026-05-02T14:47:42Z</time></trkpt><trkpt lat="45.564041895418505" lon="8.644967904205211"><ele>191.16666666666666</ele><time>2026-05-02T14:47:43Z</time></trkpt><trkpt lat="45.56414582132143" lon="8.644909909168955"><ele>191.33333333333331</ele><time>2026-05-02T14:47:44Z</time></trkpt><trkpt lat="45.56423373995052" lon="8.644864896367313"><ele>191.5</ele><time>2026-05-02T14:47:45Z</time></trkpt><trkpt lat="45.564314784828056" lon="8.644845356516244"><ele>191.66666666666666</ele><time>2026-05-02T14:47:46Z</time></trkpt><trkpt lat="45.56438879285549" lon="8.644858384339848"><ele>191.83333333333334</ele><time>2026-05-02T14:47:47Z</time></trkpt><trkpt lat="45.56445658755065" lon="8.644900287542148"><ele>192.0</ele><time>2026-05-02T14:47:48Z</time></trkpt><trkpt lat="45.564515630174505" lon="8.644933209201085"><ele>191.8</ele><time>2026-05-02T14:47:49Z</time></trkpt><trkpt lat="45.56461817170533" lon="8.644877081729794"><ele>191.6</ele><time>2026-05-02T14:47:51Z</time></trkpt><trkpt lat="45.564653596019696" lon="8.644794145572574"><ele>191.4</ele><time>2026-05-02T14:47:52Z</time></trkpt><trkpt lat="45.5647026018028" lon="8.644686626066777"><ele>191.20000000000002</ele><time>2026-05-02T14:47:53Z</time></trkpt><trkpt lat="45.564786411540425" lon="8.644597281340836"><ele>191.0</ele><time>2026-05-02T14:47:54Z</time></trkpt><trkpt lat="45.564903353317064" lon="8.644535167939107"><ele>191.0</ele><time>2026-05-02T14:47:55Z</time></trkpt><trkpt lat="45.56503652988648" lon="8.644478813292363"><ele>191.0</ele><time>2026-05-02T14:47:56Z</time></trkpt><trkpt lat="45.565159648563295" lon="8.644420409451058"><ele>191.0</ele><time>2026-05-02T14:47:57Z</time></trkpt><trkpt lat="45.56527435325069" lon="8.644360706042136"><ele>191.0</ele><time>2026-05-02T14:47:58Z</time></trkpt><trkpt lat="45.5653877455615" lon="8.64430411156152"><ele>191.25</ele><time>2026-05-02T14:47:59Z</time></trkpt><trkpt lat="45.56550194627563" lon="8.644247542064816"><ele>191.5</ele><time>2026-05-02T14:48:00Z</time></trkpt><trkpt lat="45.565616725247054" lon="8.644191131918872"><ele>191.75</ele><time>2026-05-02T14:48:01Z</time></trkpt><trkpt lat="45.56573225063055" lon="8.644134058877867"><ele>192.0</ele><time>2026-05-02T14:48:02Z</time></trkpt><trkpt lat="45.56584578092767" lon="8.644080310644423"><ele>192.0</ele><time>2026-05-02T14:48:03Z</time></trkpt><trkpt lat="45.565932750617414" lon="8.644036234335536"><ele>192.0</ele><time>2026-05-02T14:48:04Z</time></trkpt><trkpt lat="45.56602009535725" lon="8.644003732224434"><ele>192.0</ele><time>2026-05-02T14:48:05Z</time></trkpt><trkpt lat="45.566105550498875" lon="8.643965039800165"><ele>192.0</ele><time>2026-05-02T14:48:06Z</time></trkpt><trkpt lat="45.56620416571858" lon="8.64391941844266"><ele>192.0</ele><time>2026-05-02T14:48:07Z</time></trkpt><trkpt lat="45.56630937620981" lon="8.643850386326884"><ele>192.0</ele><time>2026-05-02T14:48:08Z</time></trkpt><trkpt lat="45.56642167454119" lon="8.64379858072297"><ele>192.0</ele><time>2026-05-02T14:48:09Z</time></trkpt><trkpt lat="45.56652837372122" lon="8.64375064811233"><ele>192.0</ele><time>2026-05-02T14:48:10Z</time></trkpt><trkpt lat="45.56663338901842" lon="8.643698106938494"><ele>192.0</ele><time>2026-05-02T14:48:11Z</time></trkpt><trkpt lat="45.566739507005344" lon="8.643648111589009"><ele>191.75</ele><time>2026-05-02T14:48:12Z</time></trkpt><trkpt lat="45.56684830871201" lon="8.643596733085861"><ele>191.5</ele><time>2026-05-02T14:48:13Z</time></trkpt><trkpt lat="45.56695726069285" lon="8.643547132775025"><ele>191.25</ele><time>2026-05-02T14:48:14Z</time></trkpt><trkpt lat="45.567064486358554" lon="8.643496328153937"><ele>191.0</ele><time>2026-05-02T14:48:15Z</time></trkpt><trkpt lat="45.56717151995502" lon="8.643440927040638"><ele>191.5</ele><time>2026-05-02T14:48:16Z</time></trkpt><trkpt lat="45.567285608784005" lon="8.64338127458349"><ele>192.0</ele><time>2026-05-02T14:48:17Z</time></trkpt><trkpt lat="45.567398582312066" lon="8.643307437659102"><ele>192.5</ele><time>2026-05-02T14:48:18Z</time></trkpt><trkpt lat="45.56750867040562" lon="8.643225187490971"><ele>193.0</ele><time>2026-05-02T14:48:19Z</time></trkpt><trkpt lat="45.56761393966962" lon="8.64313436265899"><ele>193.0</ele><time>2026-05-02T14:48:20Z</time></trkpt><trkpt lat="45.56771143218737" lon="8.643029992176542"><ele>193.0</ele><time>2026-05-02T14:48:21Z</time></trkpt><trkpt lat="45.56780985059593" lon="8.642934267126984"><ele>193.0</ele><time>2026-05-02T14:48:22Z</time></trkpt><trkpt lat="45.567896424066014" lon="8.642857776877975"><ele>193.0</ele><time>2026-05-02T14:48:23Z</time></trkpt><trkpt lat="45.567985122577426" lon="8.642783700820898"><ele>193.0</ele><time>2026-05-02T14:48:24Z</time></trkpt><trkpt lat="45.56806093581066" lon="8.642728201566001"><ele>193.33333333333331</ele><time>2026-05-02T14:48:25Z</time></trkpt><trkpt lat="45.56813584744977" lon="8.6426709612144"><ele>193.66666666666666</ele><time>2026-05-02T14:48:26Z</time></trkpt><trkpt lat="45.56820043767279" lon="8.642618951434583"><ele>194.0</ele><time>2026-05-02T14:48:27Z</time></trkpt><trkpt lat="45.56826315393976" lon="8.642569210857063"><ele>194.33333333333331</ele><time>2026-05-02T14:48:28Z</time></trkpt><trkpt lat="45.56832871990433" lon="8.642534361014814"><ele>194.66666666666666</ele><time>2026-05-02T14:48:29Z</time></trkpt><trkpt lat="45.56840648452951" lon="8.642499660787902"><ele>195.0</ele><time>2026-05-02T14:48:30Z</time></trkpt><trkpt lat="45.56850207137794" lon="8.642457132014163"><ele>195.0</ele><time>2026-05-02T14:48:31Z</time></trkpt><trkpt lat="45.568618746703955" lon="8.642410861212397"><ele>195.0</ele><time>2026-05-02T14:48:32Z</time></trkpt><trkpt lat="45.568731169642504" lon="8.642363981974922"><ele>195.0</ele><time>2026-05-02T14:48:33Z</time></trkpt><trkpt lat="45.56884136455601" lon="8.64233243434801"><ele>195.0</ele><time>2026-05-02T14:48:34Z</time></trkpt><trkpt lat="45.56895841490996" lon="8.642287463611046"><ele>194.8</ele><time>2026-05-02T14:48:35Z</time></trkpt><trkpt lat="45.56906581143791" lon="8.642245000394167"><ele>194.6</ele><time>2026-05-02T14:48:36Z</time></trkpt><trkpt lat="45.56915766368465" lon="8.642207189534487"><ele>194.39999999999998</ele><time>2026-05-02T14:48:37Z</time></trkpt><trkpt lat="45.569250259601304" lon="8.642158140479856"><ele>194.2</ele><time>2026-05-02T14:48:38Z</time></trkpt><trkpt lat="45.56933221077649" lon="8.64213335762222"><ele>194.0</ele><time>2026-05-02T14:48:39Z</time></trkpt><trkpt lat="45.56940974114007" lon="8.642110555287731"><ele>194.0</ele><time>2026-05-02T14:48:40Z</time></trkpt><trkpt lat="45.56949701271757" lon="8.64208366542955"><ele>194.0</ele><time>2026-05-02T14:48:41Z</time></trkpt><trkpt lat="45.56959371495963" lon="8.642027706572872"><ele>194.0</ele><time>2026-05-02T14:48:42Z</time></trkpt><trkpt lat="45.5696861417202" lon="8.64199175202581"><ele>194.0</ele><time>2026-05-02T14:48:43Z</time></trkpt><trkpt lat="45.5697746679054" lon="8.64197733598654"><ele>194.0</ele><time>2026-05-02T14:48:44Z</time></trkpt><trkpt lat="45.56985848897111" lon="8.64194646879523"><ele>194.16666666666669</ele><time>2026-05-02T14:48:45Z</time></trkpt><trkpt lat="45.569946736927115" lon="8.641915186426733"><ele>194.33333333333334</ele><time>2026-05-02T14:48:46Z</time></trkpt><trkpt lat="45.57002553508069" lon="8.64187209093712"><ele>194.5</ele><time>2026-05-02T14:48:47Z</time></trkpt><trkpt lat="45.57010193938553" lon="8.641846430985373"><ele>194.66666666666669</ele><time>2026-05-02T14:48:48Z</time></trkpt><trkpt lat="45.57017462927701" lon="8.641822743168122"><ele>194.83333333333334</ele><time>2026-05-02T14:48:49Z</time></trkpt><trkpt lat="45.570250104697095" lon="8.641821339662203"><ele>195.0</ele><time>2026-05-02T14:48:50Z</time></trkpt><trkpt lat="45.57032252665703" lon="8.64179970584915"><ele>195.14285714285714</ele><time>2026-05-02T14:48:51Z</time></trkpt><trkpt lat="45.57040255693584" lon="8.641775799602742"><ele>195.28571428571428</ele><time>2026-05-02T14:48:52Z</time></trkpt><trkpt lat="45.570481371779906" lon="8.641757011086234"><ele>195.42857142857144</ele><time>2026-05-02T14:48:53Z</time></trkpt><trkpt lat="45.57055346734331" lon="8.641740720457818"><ele>195.57142857142856</ele><time>2026-05-02T14:48:54Z</time></trkpt><trkpt lat="45.57062754067291" lon="8.641725691054706"><ele>195.71428571428572</ele><time>2026-05-02T14:48:55Z</time></trkpt><trkpt lat="45.57069229237124" lon="8.64169007442317"><ele>195.85714285714286</ele><time>2026-05-02T14:48:56Z</time></trkpt><trkpt lat="45.5707614327025" lon="8.641697246747682"><ele>196.0</ele><time>2026-05-02T14:48:57Z</time></trkpt><trkpt lat="45.57088123337424" lon="8.641669283353382"><ele>196.0</ele><time>2026-05-02T14:48:59Z</time></trkpt><trkpt lat="45.570991683611716" lon="8.641629893022435"><ele>196.0</ele><time>2026-05-02T14:49:01Z</time></trkpt><trkpt lat="45.57110737043611" lon="8.641574194677618"><ele>196.0</ele><time>2026-05-02T14:49:03Z</time></trkpt><trkpt lat="45.57120739095164" lon="8.641524698100293"><ele>196.0</ele><time>2026-05-02T14:49:04Z</time></trkpt><trkpt lat="45.57133720930792" lon="8.641459850139768"><ele>196.0</ele><time>2026-05-02T14:49:05Z</time></trkpt><trkpt lat="45.57147973358466" lon="8.641394856710916"><ele>196.0</ele><time>2026-05-02T14:49:06Z</time></trkpt><trkpt lat="45.57159562101323" lon="8.641283163997727"><ele>196.0</ele><time>2026-05-02T14:49:07Z</time></trkpt><trkpt lat="45.57172465547896" lon="8.641194983612468"><ele>196.0</ele><time>2026-05-02T14:49:08Z</time></trkpt><trkpt lat="45.5718692883548" lon="8.641118745783581"><ele>196.0</ele><time>2026-05-02T14:49:09Z</time></trkpt><trkpt lat="45.57200972677321" lon="8.641019901261032"><ele>196.0</ele><time>2026-05-02T14:49:10Z</time></trkpt><trkpt lat="45.572145687181724" lon="8.640924408624517"><ele>196.0</ele><time>2026-05-02T14:49:11Z</time></trkpt><trkpt lat="45.572267596334264" lon="8.640838784932088"><ele>196.0</ele><time>2026-05-02T14:49:12Z</time></trkpt><trkpt lat="45.57237848193028" lon="8.640760892337681"><ele>196.25</ele><time>2026-05-02T14:49:13Z</time></trkpt><trkpt lat="45.57248572688158" lon="8.640687358935589"><ele>196.5</ele><time>2026-05-02T14:49:14Z</time></trkpt><trkpt lat="45.57259516158056" lon="8.640612872949282"><ele>196.75</ele><time>2026-05-02T14:49:15Z</time></trkpt><trkpt lat="45.572708569342396" lon="8.640549842656739"><ele>197.0</ele><time>2026-05-02T14:49:16Z</time></trkpt><trkpt lat="45.57282965703894" lon="8.640514982534915"><ele>197.0</ele><time>2026-05-02T14:49:17Z</time></trkpt><trkpt lat="45.57296475968724" lon="8.640498499318063"><ele>197.0</ele><time>2026-05-02T14:49:18Z</time></trkpt><trkpt lat="45.57311546574939" lon="8.640468632775121"><ele>197.0</ele><time>2026-05-02T14:49:19Z</time></trkpt><trkpt lat="45.573281553210705" lon="8.64042632280781"><ele>197.0</ele><time>2026-05-02T14:49:20Z</time></trkpt><trkpt lat="45.573461901801764" lon="8.640380038405128"><ele>197.0</ele><time>2026-05-02T14:49:21Z</time></trkpt><trkpt lat="45.573636722565894" lon="8.640337966610359"><ele>197.0</ele><time>2026-05-02T14:49:22Z</time></trkpt><trkpt lat="45.57380194874958" lon="8.640301877575906"><ele>196.66666666666669</ele><time>2026-05-02T14:49:23Z</time></trkpt><trkpt lat="45.57396427226173" lon="8.64026776783855"><ele>196.33333333333331</ele><time>2026-05-02T14:49:24Z</time></trkpt><trkpt lat="45.57412411033275" lon="8.640233301595165"><ele>196.0</ele><time>2026-05-02T14:49:25Z</time></trkpt><trkpt lat="45.57427014828518" lon="8.640200666508365"><ele>196.0</ele><time>2026-05-02T14:49:26Z</time></trkpt><trkpt lat="45.57440624928867" lon="8.640170252575999"><ele>196.0</ele><time>2026-05-02T14:49:27Z</time></trkpt><trkpt lat="45.57454259652548" lon="8.640138672949849"><ele>196.0</ele><time>2026-05-02T14:49:28Z</time></trkpt><trkpt lat="45.574693195325466" lon="8.640104859204348"><ele>196.0</ele><time>2026-05-02T14:49:29Z</time></trkpt><trkpt lat="45.574841214049954" lon="8.640071533978322"><ele>196.0</ele><time>2026-05-02T14:49:30Z</time></trkpt><trkpt lat="45.57498930041208" lon="8.640038896037648"><ele>196.0</ele><time>2026-05-02T14:49:31Z</time></trkpt><trkpt lat="45.57513054041454" lon="8.640008191405247"><ele>196.0</ele><time>2026-05-02T14:49:32Z</time></trkpt><trkpt lat="45.57526653781252" lon="8.639953501453686"><ele>196.0</ele><time>2026-05-02T14:49:33Z</time></trkpt><trkpt lat="45.57539650707533" lon="8.639926449926739"><ele>196.0</ele><time>2026-05-02T14:49:34Z</time></trkpt><trkpt lat="45.57551892394028" lon="8.639902506533522"><ele>196.0</ele><time>2026-05-02T14:49:35Z</time></trkpt><trkpt lat="45.575635609829796" lon="8.639878374780402"><ele>196.0</ele><time>2026-05-02T14:49:36Z</time></trkpt><trkpt lat="45.575748544255056" lon="8.63984908817242"><ele>196.0</ele><time>2026-05-02T14:49:37Z</time></trkpt><trkpt lat="45.57586594563474" lon="8.639844934840887"><ele>196.0</ele><time>2026-05-02T14:49:38Z</time></trkpt><trkpt lat="45.57598060811352" lon="8.639819498445492"><ele>196.0</ele><time>2026-05-02T14:49:39Z</time></trkpt><trkpt lat="45.57609238611776" lon="8.639794791976206"><ele>196.0</ele><time>2026-05-02T14:49:40Z</time></trkpt><trkpt lat="45.57620727148657" lon="8.63976939600826"><ele>196.0</ele><time>2026-05-02T14:49:41Z</time></trkpt><trkpt lat="45.576323523866726" lon="8.63972900836412"><ele>196.25</ele><time>2026-05-02T14:49:42Z</time></trkpt><trkpt lat="45.57643903407767" lon="8.639701669899745"><ele>196.5</ele><time>2026-05-02T14:49:43Z</time></trkpt><trkpt lat="45.57655328157985" lon="8.639671393339402"><ele>196.75</ele><time>2026-05-02T14:49:44Z</time></trkpt><trkpt lat="45.5766664615614" lon="8.639667065077093"><ele>197.0</ele><time>2026-05-02T14:49:45Z</time></trkpt><trkpt lat="45.576768202955485" lon="8.63962260151959"><ele>197.0</ele><time>2026-05-02T14:49:46Z</time></trkpt><trkpt lat="45.57686880149581" lon="8.63960524088177"><ele>197.0</ele><time>2026-05-02T14:49:47Z</time></trkpt><trkpt lat="45.57696877580845" lon="8.639585748421577"><ele>197.0</ele><time>2026-05-02T14:49:48Z</time></trkpt><trkpt lat="45.57706687489024" lon="8.639565622049567"><ele>197.0</ele><time>2026-05-02T14:49:49Z</time></trkpt><trkpt lat="45.57715563020087" lon="8.639540949019391"><ele>197.0</ele><time>2026-05-02T14:49:50Z</time></trkpt><trkpt lat="45.57723262049132" lon="8.639522485071877"><ele>197.16666666666669</ele><time>2026-05-02T14:49:51Z</time></trkpt><trkpt lat="45.577306019595554" lon="8.639506416503846"><ele>197.33333333333334</ele><time>2026-05-02T14:49:52Z</time></trkpt><trkpt lat="45.57737695743399" lon="8.639490416370627"><ele>197.5</ele><time>2026-05-02T14:49:53Z</time></trkpt><trkpt lat="45.577455041360906" lon="8.639479720610879"><ele>197.66666666666669</ele><time>2026-05-02T14:49:54Z</time></trkpt><trkpt lat="45.57753184526233" lon="8.639467722818855"><ele>197.83333333333334</ele><time>2026-05-02T14:49:55Z</time></trkpt><trkpt lat="45.57761560578602" lon="8.639449091286423"><ele>198.0</ele><time>2026-05-02T14:49:56Z</time></trkpt><trkpt lat="45.5777043598432" lon="8.639431948853503"><ele>198.0</ele><time>2026-05-02T14:49:57Z</time></trkpt><trkpt lat="45.577781229223284" lon="8.639412470791822"><ele>198.0</ele><time>2026-05-02T14:49:58Z</time></trkpt><trkpt lat="45.57785612419052" lon="8.639385620193677"><ele>198.0</ele><time>2026-05-02T14:49:59Z</time></trkpt><trkpt lat="45.57792424543884" lon="8.639364431997679"><ele>198.0</ele><time>2026-05-02T14:50:00Z</time></trkpt><trkpt lat="45.57804475693765" lon="8.639360721228611"><ele>198.0</ele><time>2026-05-02T14:50:02Z</time></trkpt><trkpt lat="45.578151671998285" lon="8.639322757543797"><ele>198.0</ele><time>2026-05-02T14:50:04Z</time></trkpt><trkpt lat="45.578264753044806" lon="8.639290725117286"><ele>198.0</ele><time>2026-05-02T14:50:06Z</time></trkpt><trkpt lat="45.578365205378304" lon="8.639245547926636"><ele>198.0</ele><time>2026-05-02T14:50:08Z</time></trkpt><trkpt lat="45.57843078272092" lon="8.639214005612313"><ele>198.0</ele><time>2026-05-02T14:50:09Z</time></trkpt><trkpt lat="45.578509322201754" lon="8.639248549603215"><ele>198.0</ele><time>2026-05-02T14:50:10Z</time></trkpt><trkpt lat="45.57858568416981" lon="8.63925878751493"><ele>198.0</ele><time>2026-05-02T14:50:11Z</time></trkpt><trkpt lat="45.5786768030634" lon="8.639270667375435"><ele>198.16666666666666</ele><time>2026-05-02T14:50:12Z</time></trkpt><trkpt lat="45.5787645753192" lon="8.639270059780017"><ele>198.33333333333331</ele><time>2026-05-02T14:50:13Z</time></trkpt><trkpt lat="45.578846856213154" lon="8.639256668664197"><ele>198.5</ele><time>2026-05-02T14:50:14Z</time></trkpt><trkpt lat="45.57892789010136" lon="8.639247248456316"><ele>198.66666666666666</ele><time>2026-05-02T14:50:15Z</time></trkpt><trkpt lat="45.5790128498524" lon="8.639242100195895"><ele>198.83333333333331</ele><time>2026-05-02T14:50:16Z</time></trkpt><trkpt lat="45.579093125254566" lon="8.639238002930076"><ele>199.0</ele><time>2026-05-02T14:50:17Z</time></trkpt><trkpt lat="45.57916178721809" lon="8.639235971845622"><ele>198.99999999999997</ele><time>2026-05-02T14:50:18Z</time></trkpt><trkpt lat="45.57923342723014" lon="8.639234996258335"><ele>199.0</ele><time>2026-05-02T14:50:19Z</time></trkpt><trkpt lat="45.57930768558103" lon="8.639230717650829"><ele>199.0</ele><time>2026-05-02T14:50:20Z</time></trkpt><trkpt lat="45.57937909787429" lon="8.639231587361712"><ele>199.0</ele><time>2026-05-02T14:50:21Z</time></trkpt><trkpt lat="45.57945562307486" lon="8.639227475943082"><ele>198.99999999999997</ele><time>2026-05-02T14:50:22Z</time></trkpt><trkpt lat="45.57953752560019" lon="8.639220804402749"><ele>199.0</ele><time>2026-05-02T14:50:23Z</time></trkpt><trkpt lat="45.5796305269078" lon="8.639215223623072"><ele>198.83333333333331</ele><time>2026-05-02T14:50:24Z</time></trkpt><trkpt lat="45.579728046636816" lon="8.639215969036083"><ele>198.66666666666666</ele><time>2026-05-02T14:50:25Z</time></trkpt><trkpt lat="45.57982340016636" lon="8.63920863862136"><ele>198.5</ele><time>2026-05-02T14:50:26Z</time></trkpt><trkpt lat="45.57990968409255" lon="8.639199971489242"><ele>198.33333333333331</ele><time>2026-05-02T14:50:27Z</time></trkpt><trkpt lat="45.579985113142236" lon="8.639194514652822"><ele>198.16666666666666</ele><time>2026-05-02T14:50:28Z</time></trkpt><trkpt lat="45.58006707162449" lon="8.639196076294532"><ele>198.0</ele><time>2026-05-02T14:50:29Z</time></trkpt><trkpt lat="45.58016933822639" lon="8.639194495396818"><ele>198.0</ele><time>2026-05-02T14:50:30Z</time></trkpt><trkpt lat="45.5802837143455" lon="8.639185523729761"><ele>198.0</ele><time>2026-05-02T14:50:31Z</time></trkpt><trkpt lat="45.58040310477654" lon="8.639179707079814"><ele>198.0</ele><time>2026-05-02T14:50:32Z</time></trkpt><trkpt lat="45.58051349128639" lon="8.639176785750685"><ele>198.0</ele><time>2026-05-02T14:50:33Z</time></trkpt><trkpt lat="45.580618106879406" lon="8.639172286688195"><ele>198.0</ele><time>2026-05-02T14:50:34Z</time></trkpt><trkpt lat="45.580728527969875" lon="8.639167808795836"><ele>198.2</ele><time>2026-05-02T14:50:35Z</time></trkpt><trkpt lat="45.58083310228932" lon="8.639161839101725"><ele>198.4</ele><time>2026-05-02T14:50:36Z</time></trkpt><trkpt lat="45.580928121205034" lon="8.639157998149296"><ele>198.6</ele><time>2026-05-02T14:50:37Z</time></trkpt><trkpt lat="45.58102358271865" lon="8.63915445545731"><ele>198.79999999999998</ele><time>2026-05-02T14:50:38Z</time></trkpt><trkpt lat="45.58112514975013" lon="8.639149151821792"><ele>199.0</ele><time>2026-05-02T14:50:39Z</time></trkpt><trkpt lat="45.58123558798427" lon="8.63913709133789"><ele>199.2</ele><time>2026-05-02T14:50:40Z</time></trkpt><trkpt lat="45.58133618761209" lon="8.639125239231895"><ele>199.39999999999998</ele><time>2026-05-02T14:50:41Z</time></trkpt><trkpt lat="45.58142842793348" lon="8.639125376498425"><ele>199.6</ele><time>2026-05-02T14:50:42Z</time></trkpt><trkpt lat="45.58152896703971" lon="8.639129720582961"><ele>199.8</ele><time>2026-05-02T14:50:43Z</time></trkpt><trkpt lat="45.58164452191321" lon="8.639125696310026"><ele>200.0</ele><time>2026-05-02T14:50:44Z</time></trkpt><trkpt lat="45.58176853960882" lon="8.639114013379414"><ele>200.0</ele><time>2026-05-02T14:50:45Z</time></trkpt><trkpt lat="45.58189506821144" lon="8.639107159747011"><ele>200.0</ele><time>2026-05-02T14:50:46Z</time></trkpt><trkpt lat="45.582012732836155" lon="8.639100309660117"><ele>200.0</ele><time>2026-05-02T14:50:47Z</time></trkpt><trkpt lat="45.58211854615025" lon="8.639095263109928"><ele>200.0</ele><time>2026-05-02T14:50:48Z</time></trkpt><trkpt lat="45.58221426094709" lon="8.639091123736423"><ele>200.0</ele><time>2026-05-02T14:50:49Z</time></trkpt><trkpt lat="45.58231321262748" lon="8.639083749010878"><ele>199.8</ele><time>2026-05-02T14:50:50Z</time></trkpt><trkpt lat="45.582417946368665" lon="8.639080676020791"><ele>199.6</ele><time>2026-05-02T14:50:51Z</time></trkpt><trkpt lat="45.58252017659552" lon="8.639074618934815"><ele>199.39999999999998</ele><time>2026-05-02T14:50:52Z</time></trkpt><trkpt lat="45.58262190157569" lon="8.639070797236926"><ele>199.2</ele><time>2026-05-02T14:50:53Z</time></trkpt><trkpt lat="45.58272645124393" lon="8.639063963959284"><ele>199.0</ele><time>2026-05-02T14:50:54Z</time></trkpt><trkpt lat="45.582836713416185" lon="8.63905545357455"><ele>199.2</ele><time>2026-05-02T14:50:55Z</time></trkpt><trkpt lat="45.58294733010039" lon="8.639047887265194"><ele>199.39999999999998</ele><time>2026-05-02T14:50:56Z</time></trkpt><trkpt lat="45.583053965794804" lon="8.639043237660962"><ele>199.6</ele><time>2026-05-02T14:50:57Z</time></trkpt><trkpt lat="45.58315412354206" lon="8.639041573880567"><ele>199.8</ele><time>2026-05-02T14:50:58Z</time></trkpt><trkpt lat="45.58324932439934" lon="8.639038648485405"><ele>200.0</ele><time>2026-05-02T14:50:59Z</time></trkpt><trkpt lat="45.58335341002723" lon="8.639051540227168"><ele>200.00000000000003</ele><time>2026-05-02T14:51:00Z</time></trkpt><trkpt lat="45.58345321385279" lon="8.63908893304195"><ele>200.0</ele><time>2026-05-02T14:51:01Z</time></trkpt><trkpt lat="45.58354134255943" lon="8.639142869758466"><ele>200.0</ele><time>2026-05-02T14:51:02Z</time></trkpt><trkpt lat="45.5836042890147" lon="8.639206740166937"><ele>200.0</ele><time>2026-05-02T14:51:03Z</time></trkpt><trkpt lat="45.58365828169725" lon="8.639279195770358"><ele>200.00000000000003</ele><time>2026-05-02T14:51:04Z</time></trkpt><trkpt lat="45.583714980707875" lon="8.639345317061768"><ele>200.0</ele><time>2026-05-02T14:51:05Z</time></trkpt><trkpt lat="45.583786106330855" lon="8.639398121517734"><ele>200.0</ele><time>2026-05-02T14:51:06Z</time></trkpt><trkpt lat="45.58386623040625" lon="8.639468398828962"><ele>200.0</ele><time>2026-05-02T14:51:07Z</time></trkpt><trkpt lat="45.583954846802506" lon="8.639557984056587"><ele>200.0</ele><time>2026-05-02T14:51:08Z</time></trkpt><trkpt lat="45.584064708656435" lon="8.639643156607985"><ele>200.0</ele><time>2026-05-02T14:51:09Z</time></trkpt><trkpt lat="45.58419728023628" lon="8.639720595517208"><ele>200.0</ele><time>2026-05-02T14:51:10Z</time></trkpt><trkpt lat="45.58434398841998" lon="8.639801991074494"><ele>200.0</ele><time>2026-05-02T14:51:11Z</time></trkpt><trkpt lat="45.5844740513666" lon="8.639900402620516"><ele>200.0</ele><time>2026-05-02T14:51:12Z</time></trkpt><trkpt lat="45.584617448977895" lon="8.639988497680699"><ele>200.33333333333334</ele><time>2026-05-02T14:51:13Z</time></trkpt><trkpt lat="45.58473850742041" lon="8.640063022704762"><ele>200.66666666666669</ele><time>2026-05-02T14:51:14Z</time></trkpt><trkpt lat="45.58502062562542" lon="8.640221403474948"><ele>201.0</ele><time>2026-05-02T14:51:15Z</time></trkpt><trkpt lat="45.5852016472167" lon="8.640324859964132"><ele>200.0</ele><time>2026-05-02T14:51:16Z</time></trkpt><trkpt lat="45.58537215260911" lon="8.640432570576822"><ele>199.0</ele><time>2026-05-02T14:51:17Z</time></trkpt><trkpt lat="45.58552387770023" lon="8.640531194674208"><ele>198.0</ele><time>2026-05-02T14:51:18Z</time></trkpt><trkpt lat="45.58565114257954" lon="8.640616755876136"><ele>198.0</ele><time>2026-05-02T14:51:19Z</time></trkpt><trkpt lat="45.58575716688332" lon="8.640690247593977"><ele>198.0</ele><time>2026-05-02T14:51:20Z</time></trkpt><trkpt lat="45.585855729486376" lon="8.640740684575965"><ele>198.0</ele><time>2026-05-02T14:51:21Z</time></trkpt><trkpt lat="45.5859491237219" lon="8.640751892834706"><ele>198.0</ele><time>2026-05-02T14:51:22Z</time></trkpt><trkpt lat="45.58603165183443" lon="8.640720112327857"><ele>198.0</ele><time>2026-05-02T14:51:23Z</time></trkpt><trkpt lat="45.58609858545532" lon="8.640640737460537"><ele>198.0</ele><time>2026-05-02T14:51:24Z</time></trkpt><trkpt lat="45.586155406445215" lon="8.640513167775158"><ele>198.0</ele><time>2026-05-02T14:51:25Z</time></trkpt><trkpt lat="45.58617784217174" lon="8.640372114129194"><ele>198.0</ele><time>2026-05-02T14:51:26Z</time></trkpt><trkpt lat="45.58626024243121" lon="8.64032585527884"><ele>198.0</ele><time>2026-05-02T14:51:27Z</time></trkpt><trkpt lat="45.58634795897418" lon="8.64034187077131"><ele>198.0</ele><time>2026-05-02T14:51:29Z</time></trkpt><trkpt lat="45.58643924898306" lon="8.640415741395856"><ele>198.75</ele><time>2026-05-02T14:51:31Z</time></trkpt><trkpt lat="45.58650144876038" lon="8.640461920421268"><ele>199.5</ele><time>2026-05-02T14:51:32Z</time></trkpt><trkpt lat="45.58659851155285" lon="8.640518492868921"><ele>200.25</ele><time>2026-05-02T14:51:33Z</time></trkpt><trkpt lat="45.58673191853242" lon="8.640597313939299"><ele>201.0</ele><time>2026-05-02T14:51:34Z</time></trkpt><trkpt lat="45.58686224839081" lon="8.64067615319326"><ele>201.0</ele><time>2026-05-02T14:51:35Z</time></trkpt><trkpt lat="45.58704219197461" lon="8.64078210591278"><ele>201.0</ele><time>2026-05-02T14:51:36Z</time></trkpt><trkpt lat="45.58720890558198" lon="8.640876476675313"><ele>201.0</ele><time>2026-05-02T14:51:37Z</time></trkpt><trkpt lat="45.58736036978182" lon="8.640967155275458"><ele>201.0</ele><time>2026-05-02T14:51:38Z</time></trkpt><trkpt lat="45.58752643428819" lon="8.641067420053762"><ele>201.0</ele><time>2026-05-02T14:51:39Z</time></trkpt><trkpt lat="45.58771460884235" lon="8.641188650937362"><ele>201.0</ele><time>2026-05-02T14:51:40Z</time></trkpt><trkpt lat="45.58788341996994" lon="8.641297110050363"><ele>201.0</ele><time>2026-05-02T14:51:41Z</time></trkpt><trkpt lat="45.588050075123064" lon="8.641403753333197"><ele>201.0</ele><time>2026-05-02T14:51:42Z</time></trkpt><trkpt lat="45.58821049482863" lon="8.641494453135488"><ele>201.0</ele><time>2026-05-02T14:51:43Z</time></trkpt><trkpt lat="45.588363293012165" lon="8.641584586784269"><ele>201.0</ele><time>2026-05-02T14:51:44Z</time></trkpt><trkpt lat="45.58850941035625" lon="8.641676943927047"><ele>201.0</ele><time>2026-05-02T14:51:45Z</time></trkpt><trkpt lat="45.588655269370264" lon="8.641761096391258"><ele>201.0</ele><time>2026-05-02T14:51:46Z</time></trkpt><trkpt lat="45.58880165719828" lon="8.641849541780221"><ele>201.33333333333331</ele><time>2026-05-02T14:51:47Z</time></trkpt><trkpt lat="45.588953720636944" lon="8.641942229946965"><ele>201.66666666666666</ele><time>2026-05-02T14:51:48Z</time></trkpt><trkpt lat="45.58910495040916" lon="8.642044184564682"><ele>202.0</ele><time>2026-05-02T14:51:49Z</time></trkpt><trkpt lat="45.58927131590144" lon="8.64214566950454"><ele>202.0</ele><time>2026-05-02T14:51:50Z</time></trkpt><trkpt lat="45.5894469335255" lon="8.6422563761557"><ele>202.0</ele><time>2026-05-02T14:51:51Z</time></trkpt><trkpt lat="45.589631006835" lon="8.642367145999609"><ele>202.0</ele><time>2026-05-02T14:51:52Z</time></trkpt><trkpt lat="45.58980111068478" lon="8.64246855392516"><ele>202.0</ele><time>2026-05-02T14:51:53Z</time></trkpt><trkpt lat="45.58996063453785" lon="8.64256159082807"><ele>202.0</ele><time>2026-05-02T14:51:54Z</time></trkpt><trkpt lat="45.59011316074835" lon="8.642649906268264"><ele>202.0</ele><time>2026-05-02T14:51:55Z</time></trkpt><trkpt lat="45.59026934808182" lon="8.642738780404695"><ele>202.33333333333331</ele><time>2026-05-02T14:51:56Z</time></trkpt><trkpt lat="45.59041279826965" lon="8.6428232341909"><ele>202.66666666666669</ele><time>2026-05-02T14:51:57Z</time></trkpt><trkpt lat="45.5905543003211" lon="8.642908809881135"><ele>203.0</ele><time>2026-05-02T14:51:58Z</time></trkpt><trkpt lat="45.590687286290105" lon="8.64299210533471"><ele>203.0</ele><time>2026-05-02T14:51:59Z</time></trkpt><trkpt lat="45.59080899786484" lon="8.643071933653275"><ele>203.0</ele><time>2026-05-02T14:52:00Z</time></trkpt><trkpt lat="45.59092351823493" lon="8.643145550250201"><ele>203.0</ele><time>2026-05-02T14:52:01Z</time></trkpt><trkpt lat="45.591026330829905" lon="8.64320724366056"><ele>203.0</ele><time>2026-05-02T14:52:02Z</time></trkpt><trkpt lat="45.591100436815786" lon="8.643258604512662"><ele>203.0</ele><time>2026-05-02T14:52:03Z</time></trkpt><trkpt lat="45.59116805698724" lon="8.643341488383534"><ele>203.0</ele><time>2026-05-02T14:52:05Z</time></trkpt><trkpt lat="45.59121698479357" lon="8.643435783543598"><ele>203.0</ele><time>2026-05-02T14:52:08Z</time></trkpt><trkpt lat="45.59132942638755" lon="8.643527724104775"><ele>203.0</ele><time>2026-05-02T14:52:10Z</time></trkpt><trkpt lat="45.59143124928389" lon="8.643556894704867"><ele>203.0</ele><time>2026-05-02T14:52:11Z</time></trkpt><trkpt lat="45.591574066141405" lon="8.643573227243543"><ele>203.33333333333334</ele><time>2026-05-02T14:52:12Z</time></trkpt><trkpt lat="45.59170917333198" lon="8.643610740720433"><ele>203.66666666666669</ele><time>2026-05-02T14:52:13Z</time></trkpt><trkpt lat="45.5918597593964" lon="8.643704594252121"><ele>204.0</ele><time>2026-05-02T14:52:14Z</time></trkpt><trkpt lat="45.592004955560064" lon="8.64381367874812"><ele>203.66666666666669</ele><time>2026-05-02T14:52:15Z</time></trkpt><trkpt lat="45.5921552081359" lon="8.643913369810315"><ele>203.33333333333334</ele><time>2026-05-02T14:52:16Z</time></trkpt><trkpt lat="45.59231981113895" lon="8.644003520543274"><ele>203.0</ele><time>2026-05-02T14:52:17Z</time></trkpt><trkpt lat="45.59250963967318" lon="8.644109319195527"><ele>203.0</ele><time>2026-05-02T14:52:18Z</time></trkpt><trkpt lat="45.59268794669751" lon="8.64421932889444"><ele>203.0</ele><time>2026-05-02T14:52:19Z</time></trkpt><trkpt lat="45.5928602537617" lon="8.64432573668136"><ele>203.0</ele><time>2026-05-02T14:52:20Z</time></trkpt><trkpt lat="45.593022179717906" lon="8.644426256693146"><ele>203.66666666666669</ele><time>2026-05-02T14:52:21Z</time></trkpt><trkpt lat="45.5931790495517" lon="8.644525004217241"><ele>204.33333333333331</ele><time>2026-05-02T14:52:22Z</time></trkpt><trkpt lat="45.593336285921126" lon="8.644624811975502"><ele>205.0</ele><time>2026-05-02T14:52:23Z</time></trkpt><trkpt lat="45.59349142163572" lon="8.644721301261304"><ele>205.0</ele><time>2026-05-02T14:52:24Z</time></trkpt><trkpt lat="45.59363838651855" lon="8.64480600553297"><ele>205.0</ele><time>2026-05-02T14:52:25Z</time></trkpt><trkpt lat="45.59379075830325" lon="8.644888329171826"><ele>205.0</ele><time>2026-05-02T14:52:26Z</time></trkpt><trkpt lat="45.593950583013374" lon="8.644972128080864"><ele>204.33333333333331</ele><time>2026-05-02T14:52:27Z</time></trkpt><trkpt lat="45.59410505126531" lon="8.645042619389113"><ele>203.66666666666669</ele><time>2026-05-02T14:52:28Z</time></trkpt><trkpt lat="45.59426635753569" lon="8.645108627114936"><ele>203.0</ele><time>2026-05-02T14:52:29Z</time></trkpt><trkpt lat="45.59443334975723" lon="8.645164402461194"><ele>203.33333333333334</ele><time>2026-05-02T14:52:30Z</time></trkpt><trkpt lat="45.59460362310174" lon="8.645216738818979"><ele>203.66666666666669</ele><time>2026-05-02T14:52:31Z</time></trkpt><trkpt lat="45.59477819419578" lon="8.645267079758145"><ele>204.0</ele><time>2026-05-02T14:52:32Z</time></trkpt><trkpt lat="45.59494625626686" lon="8.645300810797178"><ele>204.0</ele><time>2026-05-02T14:52:33Z</time></trkpt><trkpt lat="45.595116649173" lon="8.645319920386212"><ele>204.0</ele><time>2026-05-02T14:52:34Z</time></trkpt><trkpt lat="45.595293932714355" lon="8.645330979075698"><ele>204.0</ele><time>2026-05-02T14:52:35Z</time></trkpt><trkpt lat="45.59548371656563" lon="8.645333743939819"><ele>204.0</ele><time>2026-05-02T14:52:36Z</time></trkpt><trkpt lat="45.59567473205061" lon="8.645320154745557"><ele>204.0</ele><time>2026-05-02T14:52:37Z</time></trkpt><trkpt lat="45.5958644096868" lon="8.64529173057651"><ele>204.0</ele><time>2026-05-02T14:52:38Z</time></trkpt><trkpt lat="45.59605465065883" lon="8.64526138002047"><ele>204.33333333333331</ele><time>2026-05-02T14:52:39Z</time></trkpt><trkpt lat="45.59624799262489" lon="8.645227669474979"><ele>204.66666666666666</ele><time>2026-05-02T14:52:40Z</time></trkpt><trkpt lat="45.59644020854871" lon="8.6451924351492"><ele>205.0</ele><time>2026-05-02T14:52:41Z</time></trkpt><trkpt lat="45.59662330979748" lon="8.645160091979392"><ele>205.0</ele><time>2026-05-02T14:52:42Z</time></trkpt><trkpt lat="45.59680632749085" lon="8.645122404347717"><ele>205.0</ele><time>2026-05-02T14:52:43Z</time></trkpt><trkpt lat="45.59698015886828" lon="8.645079801732303"><ele>205.0</ele><time>2026-05-02T14:52:44Z</time></trkpt><trkpt lat="45.597148008402435" lon="8.645047799539206"><ele>205.5</ele><time>2026-05-02T14:52:45Z</time></trkpt><trkpt lat="45.59730345218232" lon="8.645018840877102"><ele>206.0</ele><time>2026-05-02T14:52:46Z</time></trkpt><trkpt lat="45.59745313640057" lon="8.644988249449826"><ele>206.5</ele><time>2026-05-02T14:52:47Z</time></trkpt><trkpt lat="45.59759088264588" lon="8.644957799708259"><ele>207.0</ele><time>2026-05-02T14:52:48Z</time></trkpt><trkpt lat="45.59772180019758" lon="8.644926019235228"><ele>206.5</ele><time>2026-05-02T14:52:49Z</time></trkpt><trkpt lat="45.597846382528935" lon="8.644895382094747"><ele>206.0</ele><time>2026-05-02T14:52:50Z</time></trkpt><trkpt lat="45.597966286468285" lon="8.644868140113271"><ele>205.5</ele><time>2026-05-02T14:52:51Z</time></trkpt><trkpt lat="45.59808907901898" lon="8.644839427337686"><ele>205.0</ele><time>2026-05-02T14:52:52Z</time></trkpt><trkpt lat="45.598208940928444" lon="8.644808583912747"><ele>205.0</ele><time>2026-05-02T14:52:53Z</time></trkpt><trkpt lat="45.59832812080525" lon="8.644778788562615"><ele>205.0</ele><time>2026-05-02T14:52:54Z</time></trkpt><trkpt lat="45.59844433544952" lon="8.644750630812148"><ele>205.0</ele><time>2026-05-02T14:52:55Z</time></trkpt><trkpt lat="45.598555576486525" lon="8.644726694504655"><ele>205.0</ele><time>2026-05-02T14:52:56Z</time></trkpt><trkpt lat="45.59866441782169" lon="8.644707979121277"><ele>205.0</ele><time>2026-05-02T14:52:57Z</time></trkpt><trkpt lat="45.598769229620274" lon="8.64469420091097"><ele>205.0</ele><time>2026-05-02T14:52:58Z</time></trkpt><trkpt lat="45.598871225240025" lon="8.644687931214373"><ele>205.0</ele><time>2026-05-02T14:52:59Z</time></trkpt><trkpt lat="45.59896990048031" lon="8.64468426526227"><ele>205.0</ele><time>2026-05-02T14:53:00Z</time></trkpt><trkpt lat="45.599065076932945" lon="8.644684946843293"><ele>205.0</ele><time>2026-05-02T14:53:01Z</time></trkpt><trkpt lat="45.599159375281054" lon="8.644693099001612"><ele>204.99999999999997</ele><time>2026-05-02T14:53:02Z</time></trkpt><trkpt lat="45.59924850974341" lon="8.644711787246946"><ele>205.0</ele><time>2026-05-02T14:53:03Z</time></trkpt><trkpt lat="45.59933268677186" lon="8.644738506059658"><ele>205.0</ele><time>2026-05-02T14:53:04Z</time></trkpt><trkpt lat="45.59941587975663" lon="8.644769807149139"><ele>205.0</ele><time>2026-05-02T14:53:05Z</time></trkpt><trkpt lat="45.59949300915001" lon="8.644800453457648"><ele>204.99999999999997</ele><time>2026-05-02T14:53:06Z</time></trkpt><trkpt lat="45.59956791676775" lon="8.644832140776408"><ele>205.0</ele><time>2026-05-02T14:53:07Z</time></trkpt><trkpt lat="45.599638935778266" lon="8.644871109168069"><ele>205.16666666666666</ele><time>2026-05-02T14:53:08Z</time></trkpt><trkpt lat="45.59970383650283" lon="8.64492600433659"><ele>205.33333333333331</ele><time>2026-05-02T14:53:09Z</time></trkpt><trkpt lat="45.59977006080334" lon="8.645008356049445"><ele>205.5</ele><time>2026-05-02T14:53:10Z</time></trkpt><trkpt lat="45.5998387601195" lon="8.64509516125201"><ele>205.66666666666669</ele><time>2026-05-02T14:53:11Z</time></trkpt><trkpt lat="45.59991280298318" lon="8.645136072925682"><ele>205.83333333333334</ele><time>2026-05-02T14:53:12Z</time></trkpt><trkpt lat="45.59998839648498" lon="8.645116647833355"><ele>206.0</ele><time>2026-05-02T14:53:13Z</time></trkpt><trkpt lat="45.600060357771916" lon="8.645051458431258"><ele>206.0</ele><time>2026-05-02T14:53:14Z</time></trkpt><trkpt lat="45.60012931459323" lon="8.64493533094799"><ele>206.0</ele><time>2026-05-02T14:53:15Z</time></trkpt><trkpt lat="45.600157900552304" lon="8.644766693715171"><ele>206.0</ele><time>2026-05-02T14:53:16Z</time></trkpt><trkpt lat="45.600288831870614" lon="8.644638097204842"><ele>206.0</ele><time>2026-05-02T14:53:17Z</time></trkpt><trkpt lat="45.6004218720449" lon="8.644519394619339"><ele>206.5</ele><time>2026-05-02T14:53:18Z</time></trkpt><trkpt lat="45.600559108452956" lon="8.644428937287078"><ele>207.0</ele><time>2026-05-02T14:53:19Z</time></trkpt><trkpt lat="45.60068124889606" lon="8.64435363692949"><ele>207.5</ele><time>2026-05-02T14:53:20Z</time></trkpt><trkpt lat="45.60080505705444" lon="8.644296949356663"><ele>208.0</ele><time>2026-05-02T14:53:21Z</time></trkpt><trkpt lat="45.60093684209966" lon="8.644259810765814"><ele>208.0</ele><time>2026-05-02T14:53:22Z</time></trkpt><trkpt lat="45.60107083473856" lon="8.644239562078294"><ele>208.0</ele><time>2026-05-02T14:53:23Z</time></trkpt><trkpt lat="45.60121167814058" lon="8.644216959598419"><ele>208.0</ele><time>2026-05-02T14:53:24Z</time></trkpt><trkpt lat="45.60135607848947" lon="8.644192551013937"><ele>208.0</ele><time>2026-05-02T14:53:25Z</time></trkpt><trkpt lat="45.60149925901088" lon="8.64416869177563"><ele>207.75</ele><time>2026-05-02T14:53:26Z</time></trkpt><trkpt lat="45.601640831983794" lon="8.644139892468106"><ele>207.5</ele><time>2026-05-02T14:53:27Z</time></trkpt><trkpt lat="45.60178523203376" lon="8.644112460182383"><ele>207.25</ele><time>2026-05-02T14:53:28Z</time></trkpt><trkpt lat="45.60192822805944" lon="8.644088490363101"><ele>207.0</ele><time>2026-05-02T14:53:29Z</time></trkpt><trkpt lat="45.60207477224376" lon="8.644070981582248"><ele>208.0</ele><time>2026-05-02T14:53:30Z</time></trkpt><trkpt lat="45.602227410718676" lon="8.644053325008436"><ele>209.0</ele><time>2026-05-02T14:53:31Z</time></trkpt><trkpt lat="45.60237930309855" lon="8.644031253743925"><ele>210.0</ele><time>2026-05-02T14:53:32Z</time></trkpt><trkpt lat="45.60254662563937" lon="8.644000862567779"><ele>210.0</ele><time>2026-05-02T14:53:33Z</time></trkpt><trkpt lat="45.60271217931045" lon="8.643969617112365"><ele>210.0</ele><time>2026-05-02T14:53:34Z</time></trkpt><trkpt lat="45.602871664362105" lon="8.643947332996232"><ele>210.0</ele><time>2026-05-02T14:53:35Z</time></trkpt><trkpt lat="45.60303436963023" lon="8.643923883742895"><ele>211.33333333333331</ele><time>2026-05-02T14:53:36Z</time></trkpt><trkpt lat="45.60319065304726" lon="8.643898417557502"><ele>212.66666666666666</ele><time>2026-05-02T14:53:37Z</time></trkpt><trkpt lat="45.60334069594192" lon="8.643871131233174"><ele>214.0</ele><time>2026-05-02T14:53:38Z</time></trkpt><trkpt lat="45.603482866075716" lon="8.643845637206953"><ele>214.0</ele><time>2026-05-02T14:53:39Z</time></trkpt><trkpt lat="45.60362948364473" lon="8.643826063413355"><ele>214.0</ele><time>2026-05-02T14:53:40Z</time></trkpt><trkpt lat="45.6037848924957" lon="8.64380463939597"><ele>214.0</ele><time>2026-05-02T14:53:41Z</time></trkpt><trkpt lat="45.60393817906777" lon="8.643780496149551"><ele>214.25</ele><time>2026-05-02T14:53:42Z</time></trkpt><trkpt lat="45.6040888172776" lon="8.643756031979807"><ele>214.5</ele><time>2026-05-02T14:53:43Z</time></trkpt><trkpt lat="45.604233456820836" lon="8.643731033996058"><ele>214.75</ele><time>2026-05-02T14:53:44Z</time></trkpt><trkpt lat="45.604374103975104" lon="8.643694401662247"><ele>215.0</ele><time>2026-05-02T14:53:45Z</time></trkpt><trkpt lat="45.604517251827055" lon="8.643643349207364"><ele>216.75</ele><time>2026-05-02T14:53:46Z</time></trkpt><trkpt lat="45.60465363985664" lon="8.643583745058315"><ele>218.5</ele><time>2026-05-02T14:53:47Z</time></trkpt><trkpt lat="45.60479074304848" lon="8.643521717928758"><ele>220.25</ele><time>2026-05-02T14:53:48Z</time></trkpt><trkpt lat="45.60493289044433" lon="8.643451099311475"><ele>222.0</ele><time>2026-05-02T14:53:49Z</time></trkpt><trkpt lat="45.60507680985496" lon="8.643369508569048"><ele>222.0</ele><time>2026-05-02T14:53:50Z</time></trkpt><trkpt lat="45.60522650204917" lon="8.643283179398663"><ele>222.0</ele><time>2026-05-02T14:53:51Z</time></trkpt><trkpt lat="45.60537369102387" lon="8.64319508174543"><ele>222.0</ele><time>2026-05-02T14:53:52Z</time></trkpt><trkpt lat="45.605520036748096" lon="8.643084719760925"><ele>223.66666666666669</ele><time>2026-05-02T14:53:53Z</time></trkpt><trkpt lat="45.60566725397092" lon="8.642974245446986"><ele>225.33333333333334</ele><time>2026-05-02T14:53:54Z</time></trkpt><trkpt lat="45.605804707061125" lon="8.642876228142628"><ele>227.0</ele><time>2026-05-02T14:53:55Z</time></trkpt><trkpt lat="45.60593446805734" lon="8.642782504633496"><ele>227.75</ele><time>2026-05-02T14:53:56Z</time></trkpt><trkpt lat="45.6060557054552" lon="8.642691024623666"><ele>228.5</ele><time>2026-05-02T14:53:57Z</time></trkpt><trkpt lat="45.606191465213826" lon="8.642602528376983"><ele>229.25</ele><time>2026-05-02T14:53:58Z</time></trkpt><trkpt lat="45.606335597860195" lon="8.642499306026798"><ele>230.0</ele><time>2026-05-02T14:53:59Z</time></trkpt><trkpt lat="45.60649078993933" lon="8.642386441033805"><ele>231.33333333333334</ele><time>2026-05-02T14:54:00Z</time></trkpt><trkpt lat="45.60664499204115" lon="8.642276122615325"><ele>232.66666666666669</ele><time>2026-05-02T14:54:01Z</time></trkpt><trkpt lat="45.60680692015454" lon="8.642160042077254"><ele>234.0</ele><time>2026-05-02T14:54:02Z</time></trkpt><trkpt lat="45.60697540239916" lon="8.642041788037687"><ele>235.0</ele><time>2026-05-02T14:54:03Z</time></trkpt><trkpt lat="45.60714570327517" lon="8.641925493889977"><ele>236.0</ele><time>2026-05-02T14:54:04Z</time></trkpt><trkpt lat="45.60731157525029" lon="8.641815198064606"><ele>237.0</ele><time>2026-05-02T14:54:05Z</time></trkpt><trkpt lat="45.60747494928889" lon="8.641702520580395"><ele>237.0</ele><time>2026-05-02T14:54:06Z</time></trkpt><trkpt lat="45.607636604683854" lon="8.641588494404376"><ele>237.0</ele><time>2026-05-02T14:54:07Z</time></trkpt><trkpt lat="45.60780100132812" lon="8.641465343248335"><ele>237.0</ele><time>2026-05-02T14:54:08Z</time></trkpt><trkpt lat="45.60796074553911" lon="8.64134174211226"><ele>237.66666666666669</ele><time>2026-05-02T14:54:09Z</time></trkpt><trkpt lat="45.60811574169526" lon="8.641229557755002"><ele>238.33333333333334</ele><time>2026-05-02T14:54:10Z</time></trkpt><trkpt lat="45.60826394738406" lon="8.64112496690964"><ele>239.0</ele><time>2026-05-02T14:54:11Z</time></trkpt><trkpt lat="45.60840855806701" lon="8.64102020819344"><ele>239.33333333333334</ele><time>2026-05-02T14:54:12Z</time></trkpt><trkpt lat="45.608548608608324" lon="8.640919021007898"><ele>239.66666666666669</ele><time>2026-05-02T14:54:13Z</time></trkpt><trkpt lat="45.60868709070598" lon="8.6408188854363"><ele>240.0</ele><time>2026-05-02T14:54:14Z</time></trkpt><trkpt lat="45.60882199864965" lon="8.640711906487013"><ele>242.0</ele><time>2026-05-02T14:54:15Z</time></trkpt><trkpt lat="45.608954631400884" lon="8.640597534168068"><ele>244.0</ele><time>2026-05-02T14:54:16Z</time></trkpt><trkpt lat="45.609090096685144" lon="8.640467340687222"><ele>246.0</ele><time>2026-05-02T14:54:17Z</time></trkpt><trkpt lat="45.60923595174431" lon="8.6403145232601"><ele>246.0</ele><time>2026-05-02T14:54:18Z</time></trkpt><trkpt lat="45.609383844608764" lon="8.640148428859247"><ele>246.0</ele><time>2026-05-02T14:54:19Z</time></trkpt><trkpt lat="45.609531496340935" lon="8.639975988907713"><ele>246.0</ele><time>2026-05-02T14:54:20Z</time></trkpt><trkpt lat="45.609694063532096" lon="8.63983006844072"><ele>246.0</ele><time>2026-05-02T14:54:21Z</time></trkpt><trkpt lat="45.609903377782466" lon="8.639610841374287"><ele>246.0</ele><time>2026-05-02T14:54:22Z</time></trkpt><trkpt lat="45.61011352299534" lon="8.639389940428819"><ele>246.5</ele><time>2026-05-02T14:54:23Z</time></trkpt><trkpt lat="45.61034402692558" lon="8.639146983039485"><ele>247.0</ele><time>2026-05-02T14:54:24Z</time></trkpt><trkpt lat="45.61055387250658" lon="8.638925800032709"><ele>247.0</ele><time>2026-05-02T14:54:25Z</time></trkpt><trkpt lat="45.61076565638046" lon="8.63870374803292"><ele>247.0</ele><time>2026-05-02T14:54:26Z</time></trkpt><trkpt lat="45.61096092801495" lon="8.638473855917539"><ele>246.0</ele><time>2026-05-02T14:54:27Z</time></trkpt><trkpt lat="45.6111623937564" lon="8.638286166439299"><ele>245.0</ele><time>2026-05-02T14:54:28Z</time></trkpt><trkpt lat="45.61135895627124" lon="8.638083421407881"><ele>245.0</ele><time>2026-05-02T14:54:29Z</time></trkpt><trkpt lat="45.61157401136226" lon="8.637865072378416"><ele>245.0</ele><time>2026-05-02T14:54:30Z</time></trkpt><trkpt lat="45.61177936047545" lon="8.637661541625297"><ele>246.0</ele><time>2026-05-02T14:54:31Z</time></trkpt><trkpt lat="45.61196893980483" lon="8.637461164185709"><ele>247.0</ele><time>2026-05-02T14:54:32Z</time></trkpt><trkpt lat="45.612141716546276" lon="8.637267453117436"><ele>247.0</ele><time>2026-05-02T14:54:33Z</time></trkpt><trkpt lat="45.612304203737516" lon="8.637072472636863"><ele>247.0</ele><time>2026-05-02T14:54:34Z</time></trkpt><trkpt lat="45.61246352383219" lon="8.636871403936885"><ele>247.0</ele><time>2026-05-02T14:54:35Z</time></trkpt><trkpt lat="45.61262410843072" lon="8.636672407072195"><ele>247.0</ele><time>2026-05-02T14:54:36Z</time></trkpt><trkpt lat="45.61278887814583" lon="8.63648030854686"><ele>247.0</ele><time>2026-05-02T14:54:37Z</time></trkpt><trkpt lat="45.61295443795729" lon="8.63628918236898"><ele>247.0</ele><time>2026-05-02T14:54:38Z</time></trkpt><trkpt lat="45.61311982938357" lon="8.636086375018152"><ele>247.0</ele><time>2026-05-02T14:54:39Z</time></trkpt><trkpt lat="45.61327470002152" lon="8.635895607350179"><ele>247.0</ele><time>2026-05-02T14:54:40Z</time></trkpt><trkpt lat="45.61342052397576" lon="8.635714455865312"><ele>247.0</ele><time>2026-05-02T14:54:41Z</time></trkpt><trkpt lat="45.6135742564835" lon="8.635530812921626"><ele>246.33333333333331</ele><time>2026-05-02T14:54:42Z</time></trkpt><trkpt lat="45.613734183498316" lon="8.635343886879939"><ele>245.66666666666669</ele><time>2026-05-02T14:54:43Z</time></trkpt><trkpt lat="45.613897545461576" lon="8.63515780316764"><ele>245.0</ele><time>2026-05-02T14:54:44Z</time></trkpt><trkpt lat="45.6140587966228" lon="8.634958651898009"><ele>245.0</ele><time>2026-05-02T14:54:45Z</time></trkpt><trkpt lat="45.614225285979884" lon="8.63475828029273"><ele>245.0</ele><time>2026-05-02T14:54:46Z</time></trkpt><trkpt lat="45.61439480791927" lon="8.634553282033282"><ele>245.0</ele><time>2026-05-02T14:54:47Z</time></trkpt><trkpt lat="45.614566397260916" lon="8.634347213263615"><ele>245.0</ele><time>2026-05-02T14:54:48Z</time></trkpt><trkpt lat="45.61474504661681" lon="8.634135408208138"><ele>245.0</ele><time>2026-05-02T14:54:49Z</time></trkpt><trkpt lat="45.614927547300915" lon="8.63392280708289"><ele>245.0</ele><time>2026-05-02T14:54:50Z</time></trkpt><trkpt lat="45.61511779651817" lon="8.63370490832688"><ele>245.0</ele><time>2026-05-02T14:54:51Z</time></trkpt><trkpt lat="45.61530494363432" lon="8.63347939914386"><ele>245.5</ele><time>2026-05-02T14:54:52Z</time></trkpt><trkpt lat="45.6154964115922" lon="8.633252609052006"><ele>246.0</ele><time>2026-05-02T14:54:53Z</time></trkpt><trkpt lat="45.615688198361575" lon="8.633020106611214"><ele>246.0</ele><time>2026-05-02T14:54:54Z</time></trkpt><trkpt lat="45.61588090409715" lon="8.632783421361758"><ele>246.0</ele><time>2026-05-02T14:54:55Z</time></trkpt><trkpt lat="45.61608334886445" lon="8.632548460005152"><ele>245.5</ele><time>2026-05-02T14:54:56Z</time></trkpt><trkpt lat="45.61628987732979" lon="8.632302834404351"><ele>245.0</ele><time>2026-05-02T14:54:57Z</time></trkpt><trkpt lat="45.61649474135779" lon="8.632047746309652"><ele>247.5</ele><time>2026-05-02T14:54:58Z</time></trkpt><trkpt lat="45.616705588201015" lon="8.631787803586016"><ele>250.0</ele><time>2026-05-02T14:54:59Z</time></trkpt><trkpt lat="45.6169206692784" lon="8.631525488730503"><ele>249.5</ele><time>2026-05-02T14:55:00Z</time></trkpt><trkpt lat="45.61712538163246" lon="8.631286173385117"><ele>249.0</ele><time>2026-05-02T14:55:01Z</time></trkpt><trkpt lat="45.61732161378532" lon="8.631050783349545"><ele>250.0</ele><time>2026-05-02T14:55:02Z</time></trkpt><trkpt lat="45.617515169407056" lon="8.630819468405042"><ele>251.0</ele><time>2026-05-02T14:55:03Z</time></trkpt><trkpt lat="45.61770775079331" lon="8.63059035695264"><ele>250.5</ele><time>2026-05-02T14:55:04Z</time></trkpt><trkpt lat="45.617894379977976" lon="8.630365722904042"><ele>250.0</ele><time>2026-05-02T14:55:05Z</time></trkpt><trkpt lat="45.61808132567575" lon="8.630140118952454"><ele>252.5</ele><time>2026-05-02T14:55:06Z</time></trkpt><trkpt lat="45.618255909321284" lon="8.629924103247857"><ele>255.0</ele><time>2026-05-02T14:55:07Z</time></trkpt><trkpt lat="45.61842936294403" lon="8.629710808322303"><ele>255.0</ele><time>2026-05-02T14:55:08Z</time></trkpt><trkpt lat="45.61860280046157" lon="8.629501764690362"><ele>255.0</ele><time>2026-05-02T14:55:09Z</time></trkpt><trkpt lat="45.618777237216925" lon="8.629298331554164"><ele>254.0</ele><time>2026-05-02T14:55:10Z</time></trkpt><trkpt lat="45.61895193446334" lon="8.629096789244608"><ele>253.0</ele><time>2026-05-02T14:55:11Z</time></trkpt><trkpt lat="45.61912752062902" lon="8.628894418622268"><ele>253.0</ele><time>2026-05-02T14:55:12Z</time></trkpt><trkpt lat="45.6193027201347" lon="8.628680640870598"><ele>253.0</ele><time>2026-05-02T14:55:13Z</time></trkpt><trkpt lat="45.6194781540357" lon="8.62846507521283"><ele>253.0</ele><time>2026-05-02T14:55:14Z</time></trkpt><trkpt lat="45.61964804083008" lon="8.628255378487465"><ele>253.0</ele><time>2026-05-02T14:55:15Z</time></trkpt><trkpt lat="45.61981441001887" lon="8.628055957657054"><ele>253.0</ele><time>2026-05-02T14:55:16Z</time></trkpt><trkpt lat="45.61997836835013" lon="8.627860627129685"><ele>253.0</ele><time>2026-05-02T14:55:17Z</time></trkpt><trkpt lat="45.62014193908364" lon="8.627667707338894"><ele>253.0</ele><time>2026-05-02T14:55:18Z</time></trkpt><trkpt lat="45.62030872774072" lon="8.627467013706031"><ele>253.0</ele><time>2026-05-02T14:55:19Z</time></trkpt><trkpt lat="45.62047434562838" lon="8.627267437821134"><ele>253.0</ele><time>2026-05-02T14:55:20Z</time></trkpt><trkpt lat="45.620636341985296" lon="8.627082729191555"><ele>253.0</ele><time>2026-05-02T14:55:21Z</time></trkpt><trkpt lat="45.62080143792179" lon="8.626887685868713"><ele>253.0</ele><time>2026-05-02T14:55:22Z</time></trkpt><trkpt lat="45.62097462488918" lon="8.626698714017353"><ele>253.66666666666666</ele><time>2026-05-02T14:55:23Z</time></trkpt><trkpt lat="45.62115095167946" lon="8.626516545142442"><ele>254.33333333333331</ele><time>2026-05-02T14:55:24Z</time></trkpt><trkpt lat="45.62132835746967" lon="8.626342431114756"><ele>255.0</ele><time>2026-05-02T14:55:25Z</time></trkpt><trkpt lat="45.62150723366653" lon="8.626177845024863"><ele>256.0</ele><time>2026-05-02T14:55:26Z</time></trkpt><trkpt lat="45.621696968343564" lon="8.626014862957883"><ele>257.0</ele><time>2026-05-02T14:55:27Z</time></trkpt><trkpt lat="45.62189380822982" lon="8.625848644816612"><ele>255.0</ele><time>2026-05-02T14:55:28Z</time></trkpt><trkpt lat="45.62209995665207" lon="8.625686221286346"><ele>253.0</ele><time>2026-05-02T14:55:29Z</time></trkpt><trkpt lat="45.62232008441854" lon="8.625516000764469"><ele>253.0</ele><time>2026-05-02T14:55:30Z</time></trkpt><trkpt lat="45.6225404112368" lon="8.625358546339951"><ele>253.0</ele><time>2026-05-02T14:55:31Z</time></trkpt><trkpt lat="45.62276509119031" lon="8.625206143255827"><ele>254.0</ele><time>2026-05-02T14:55:32Z</time></trkpt><trkpt lat="45.62298837124731" lon="8.625064355159807"><ele>255.0</ele><time>2026-05-02T14:55:33Z</time></trkpt><trkpt lat="45.62322237870426" lon="8.62494512728415"><ele>255.0</ele><time>2026-05-02T14:55:34Z</time></trkpt><trkpt lat="45.62345901722629" lon="8.62483227645103"><ele>255.0</ele><time>2026-05-02T14:55:35Z</time></trkpt><trkpt lat="45.62369308886681" lon="8.624724063806486"><ele>253.5</ele><time>2026-05-02T14:55:36Z</time></trkpt><trkpt lat="45.623922537797334" lon="8.624626871759348"><ele>252.0</ele><time>2026-05-02T14:55:37Z</time></trkpt><trkpt lat="45.62415039581723" lon="8.624540280681558"><ele>252.0</ele><time>2026-05-02T14:55:38Z</time></trkpt><trkpt lat="45.62438127737475" lon="8.624462386329936"><ele>252.0</ele><time>2026-05-02T14:55:39Z</time></trkpt><trkpt lat="45.624612192904806" lon="8.624391917844086"><ele>251.5</ele><time>2026-05-02T14:55:40Z</time></trkpt><trkpt lat="45.62484728821146" lon="8.624326875706403"><ele>251.0</ele><time>2026-05-02T14:55:41Z</time></trkpt><trkpt lat="45.62507883621379" lon="8.62427503835674"><ele>251.0</ele><time>2026-05-02T14:55:42Z</time></trkpt><trkpt lat="45.62531137388971" lon="8.62423302975398"><ele>251.0</ele><time>2026-05-02T14:55:43Z</time></trkpt><trkpt lat="45.62554458092032" lon="8.624200844349863"><ele>251.5</ele><time>2026-05-02T14:55:44Z</time></trkpt><trkpt lat="45.625774716678144" lon="8.624166624056302"><ele>252.0</ele><time>2026-05-02T14:55:45Z</time></trkpt><trkpt lat="45.62600633272191" lon="8.624129644217296"><ele>252.0</ele><time>2026-05-02T14:55:46Z</time></trkpt><trkpt lat="45.62623755179054" lon="8.624090790090838"><ele>252.0</ele><time>2026-05-02T14:55:47Z</time></trkpt><trkpt lat="45.626465264705274" lon="8.624053270682328"><ele>252.0</ele><time>2026-05-02T14:55:48Z</time></trkpt><trkpt lat="45.62668915214607" lon="8.62401474764402"><ele>252.0</ele><time>2026-05-02T14:55:49Z</time></trkpt><trkpt lat="45.62690879666318" lon="8.623977032640404"><ele>252.0</ele><time>2026-05-02T14:55:50Z</time></trkpt><trkpt lat="45.62713047529904" lon="8.623942590274863"><ele>252.33333333333331</ele><time>2026-05-02T14:55:51Z</time></trkpt><trkpt lat="45.62734911870837" lon="8.6239093459745"><ele>252.66666666666666</ele><time>2026-05-02T14:55:52Z</time></trkpt><trkpt lat="45.62756804596324" lon="8.623877926192376"><ele>253.0</ele><time>2026-05-02T14:55:53Z</time></trkpt><trkpt lat="45.627783520833844" lon="8.623842551663937"><ele>252.66666666666666</ele><time>2026-05-02T14:55:54Z</time></trkpt><trkpt lat="45.627997473723994" lon="8.623806389840105"><ele>252.33333333333331</ele><time>2026-05-02T14:55:55Z</time></trkpt><trkpt lat="45.62820737011994" lon="8.623771898372551"><ele>252.0</ele><time>2026-05-02T14:55:56Z</time></trkpt><trkpt lat="45.62842001550637" lon="8.623736963507058"><ele>252.0</ele><time>2026-05-02T14:55:57Z</time></trkpt><trkpt lat="45.628631651063166" lon="8.623701578122102"><ele>252.0</ele><time>2026-05-02T14:55:58Z</time></trkpt><trkpt lat="45.628844006167434" lon="8.623666929005275"><ele>252.0</ele><time>2026-05-02T14:55:59Z</time></trkpt><trkpt lat="45.6290569471691" lon="8.623635828749906"><ele>253.0</ele><time>2026-05-02T14:56:00Z</time></trkpt><trkpt lat="45.62926829033346" lon="8.623606391018114"><ele>254.0</ele><time>2026-05-02T14:56:01Z</time></trkpt><trkpt lat="45.629482249693446" lon="8.623573829553752"><ele>255.0</ele><time>2026-05-02T14:56:02Z</time></trkpt><trkpt lat="45.62969135856579" lon="8.623535495387182"><ele>255.0</ele><time>2026-05-02T14:56:03Z</time></trkpt><trkpt lat="45.62990135064204" lon="8.623497654087185"><ele>255.0</ele><time>2026-05-02T14:56:04Z</time></trkpt><trkpt lat="45.63011221076767" lon="8.623466128847182"><ele>255.0</ele><time>2026-05-02T14:56:05Z</time></trkpt><trkpt lat="45.630324750704936" lon="8.623430590709214"><ele>255.0</ele><time>2026-05-02T14:56:06Z</time></trkpt><trkpt lat="45.63053691954731" lon="8.623397437842947"><ele>255.0</ele><time>2026-05-02T14:56:07Z</time></trkpt><trkpt lat="45.630756674830934" lon="8.623363068860485"><ele>255.0</ele><time>2026-05-02T14:56:08Z</time></trkpt><trkpt lat="45.6309691918776" lon="8.623331578416389"><ele>254.0</ele><time>2026-05-02T14:56:09Z</time></trkpt><trkpt lat="45.6311963609953" lon="8.623295223482632"><ele>253.0</ele><time>2026-05-02T14:56:10Z</time></trkpt><trkpt lat="45.631426222777456" lon="8.623261528892593"><ele>253.0</ele><time>2026-05-02T14:56:11Z</time></trkpt><trkpt lat="45.63165980301453" lon="8.62322611442015"><ele>253.0</ele><time>2026-05-02T14:56:12Z</time></trkpt><trkpt lat="45.63189184890471" lon="8.623188505209894"><ele>254.0</ele><time>2026-05-02T14:56:13Z</time></trkpt><trkpt lat="45.632125078027805" lon="8.623151423741815"><ele>255.0</ele><time>2026-05-02T14:56:14Z</time></trkpt><trkpt lat="45.63236273680762" lon="8.623114049372738"><ele>255.0</ele><time>2026-05-02T14:56:15Z</time></trkpt><trkpt lat="45.632591418121265" lon="8.623078760782441"><ele>255.0</ele><time>2026-05-02T14:56:16.001Z</time></trkpt><trkpt lat="45.63282044332139" lon="8.623039743483988"><ele>256.3333333333333</ele><time>2026-05-02T14:56:17.001Z</time></trkpt><trkpt lat="45.63304257815947" lon="8.623000268478581"><ele>257.66666666666663</ele><time>2026-05-02T14:56:18.001Z</time></trkpt><trkpt lat="45.633264526203114" lon="8.622960862594038"><ele>259.0</ele><time>2026-05-02T14:56:19.001Z</time></trkpt><trkpt lat="45.63347969022493" lon="8.622927192657373"><ele>259.0</ele><time>2026-05-02T14:56:20.001Z</time></trkpt><trkpt lat="45.63368947414149" lon="8.622896776708291"><ele>259.0</ele><time>2026-05-02T14:56:21.001Z</time></trkpt><trkpt lat="45.633889719832695" lon="8.622866448197854"><ele>259.0</ele><time>2026-05-02T14:56:22.001Z</time></trkpt><trkpt lat="45.63408255747887" lon="8.62283502469752"><ele>259.0</ele><time>2026-05-02T14:56:23.001Z</time></trkpt><trkpt lat="45.63426980292002" lon="8.62280299993105"><ele>259.0</ele><time>2026-05-02T14:56:24.001Z</time></trkpt><trkpt lat="45.63445274458443" lon="8.62277429273823"><ele>259.0</ele><time>2026-05-02T14:56:25.001Z</time></trkpt><trkpt lat="45.63463336589546" lon="8.622742758829405"><ele>259.0</ele><time>2026-05-02T14:56:26.001Z</time></trkpt><trkpt lat="45.63481963794033" lon="8.622713242014145"><ele>259.0</ele><time>2026-05-02T14:56:27.001Z</time></trkpt><trkpt lat="45.635007032186685" lon="8.622681409474888"><ele>259.0</ele><time>2026-05-02T14:56:28.001Z</time></trkpt><trkpt lat="45.63519857352639" lon="8.62265154879165"><ele>259.3333333333333</ele><time>2026-05-02T14:56:29.001Z</time></trkpt><trkpt lat="45.635379683645304" lon="8.622620244715225"><ele>259.6666666666667</ele><time>2026-05-02T14:56:30.001Z</time></trkpt><trkpt lat="45.63555386203681" lon="8.622590686839978"><ele>260.0</ele><time>2026-05-02T14:56:31Z</time></trkpt><trkpt lat="45.63573208903139" lon="8.622559751376604"><ele>260.0</ele><time>2026-05-02T14:56:32Z</time></trkpt><trkpt lat="45.63591251483457" lon="8.622525308002933"><ele>260.0</ele><time>2026-05-02T14:56:33Z</time></trkpt><trkpt lat="45.63609491288473" lon="8.622495056431395"><ele>260.0</ele><time>2026-05-02T14:56:34Z</time></trkpt><trkpt lat="45.63627598012645" lon="8.622466899408936"><ele>261.0</ele><time>2026-05-02T14:56:35Z</time></trkpt><trkpt lat="45.636458395032626" lon="8.622435867921112"><ele>262.0</ele><time>2026-05-02T14:56:36Z</time></trkpt><trkpt lat="45.63663679961747" lon="8.62240704608174"><ele>263.0</ele><time>2026-05-02T14:56:37Z</time></trkpt><trkpt lat="45.636811826317455" lon="8.622378160099517"><ele>264.6666666666667</ele><time>2026-05-02T14:56:38Z</time></trkpt><trkpt lat="45.63699142708536" lon="8.622347350046864"><ele>266.3333333333333</ele><time>2026-05-02T14:56:39Z</time></trkpt><trkpt lat="45.63716922659504" lon="8.62231739260174"><ele>268.0</ele><time>2026-05-02T14:56:40Z</time></trkpt><trkpt lat="45.637349531506146" lon="8.62229047046014"><ele>268.0</ele><time>2026-05-02T14:56:41Z</time></trkpt><trkpt lat="45.637519451333084" lon="8.62226589500681"><ele>268.0</ele><time>2026-05-02T14:56:42Z</time></trkpt><trkpt lat="45.637691026514936" lon="8.622239845969299"><ele>268.0</ele><time>2026-05-02T14:56:43Z</time></trkpt><trkpt lat="45.63785335046446" lon="8.622209941962119"><ele>268.3333333333333</ele><time>2026-05-02T14:56:44Z</time></trkpt><trkpt lat="45.63801894721081" lon="8.622182586581765"><ele>268.6666666666667</ele><time>2026-05-02T14:56:44.999Z</time></trkpt><trkpt lat="45.6381932733703" lon="8.622154781895256"><ele>269.0</ele><time>2026-05-02T14:56:45.999Z</time></trkpt><trkpt lat="45.638364292890714" lon="8.622126824073584"><ele>269.0</ele><time>2026-05-02T14:56:46.999Z</time></trkpt><trkpt lat="45.63854644116293" lon="8.622100535498564"><ele>269.0</ele><time>2026-05-02T14:56:47.999Z</time></trkpt><trkpt lat="45.63872656343166" lon="8.622071242775755"><ele>269.0</ele><time>2026-05-02T14:56:48.999Z</time></trkpt><trkpt lat="45.63891004986275" lon="8.622043845165313"><ele>268.6666666666667</ele><time>2026-05-02T14:56:49.999Z</time></trkpt><trkpt lat="45.63909315080475" lon="8.622007001648482"><ele>268.3333333333333</ele><time>2026-05-02T14:56:50.999Z</time></trkpt><trkpt lat="45.63929118373592" lon="8.621966657215644"><ele>268.0</ele><time>2026-05-02T14:56:51.999Z</time></trkpt><trkpt lat="45.63951046318771" lon="8.621926496942395"><ele>268.0</ele><time>2026-05-02T14:56:52.999Z</time></trkpt><trkpt lat="45.639739226936655" lon="8.621891542491195"><ele>268.0</ele><time>2026-05-02T14:56:53.999Z</time></trkpt><trkpt lat="45.63996542935264" lon="8.621862739885486"><ele>268.0</ele><time>2026-05-02T14:56:54.999Z</time></trkpt><trkpt lat="45.640179042477634" lon="8.621839600733079"><ele>268.0</ele><time>2026-05-02T14:56:55.999Z</time></trkpt><trkpt lat="45.640378144951086" lon="8.621813331381016"><ele>268.0</ele><time>2026-05-02T14:56:56.999Z</time></trkpt><trkpt lat="45.64056672340949" lon="8.62178422029639"><ele>269.3333333333333</ele><time>2026-05-02T14:56:57.999Z</time></trkpt><trkpt lat="45.640757947958626" lon="8.621749943991588"><ele>270.6666666666667</ele><time>2026-05-02T14:56:58.999Z</time></trkpt><trkpt lat="45.640948107663135" lon="8.621722231869331"><ele>272.0</ele><time>2026-05-02T14:56:59.999Z</time></trkpt><trkpt lat="45.641121257420394" lon="8.621695385837224"><ele>272.6666666666667</ele><time>2026-05-02T14:57:00.999Z</time></trkpt><trkpt lat="45.64129318824052" lon="8.62166356793211"><ele>273.3333333333333</ele><time>2026-05-02T14:57:01.999Z</time></trkpt><trkpt lat="45.64146968849197" lon="8.621634002935487"><ele>274.0</ele><time>2026-05-02T14:57:02.999Z</time></trkpt><trkpt lat="45.641649509426934" lon="8.621603282393867"><ele>274.0</ele><time>2026-05-02T14:57:03.999Z</time></trkpt><trkpt lat="45.64182948817179" lon="8.621575047764777"><ele>274.0</ele><time>2026-05-02T14:57:04.999Z</time></trkpt><trkpt lat="45.64200180903698" lon="8.621550434666986"><ele>274.0</ele><time>2026-05-02T14:57:05.999Z</time></trkpt><trkpt lat="45.64217105363269" lon="8.621525409474117"><ele>273.66666666666663</ele><time>2026-05-02T14:57:06.999Z</time></trkpt><trkpt lat="45.64232852559169" lon="8.621502949502272"><ele>273.3333333333333</ele><time>2026-05-02T14:57:07.999Z</time></trkpt><trkpt lat="45.642483089817475" lon="8.621478719616812"><ele>273.0</ele><time>2026-05-02T14:57:08.999Z</time></trkpt><trkpt lat="45.64263127553525" lon="8.621451544142202"><ele>273.0</ele><time>2026-05-02T14:57:09.999Z</time></trkpt><trkpt lat="45.64277638285233" lon="8.621424070316063"><ele>273.0</ele><time>2026-05-02T14:57:10.999Z</time></trkpt><trkpt lat="45.64291373741982" lon="8.621402438940374"><ele>273.0</ele><time>2026-05-02T14:57:11.999Z</time></trkpt><trkpt lat="45.64304226341863" lon="8.621384450809016"><ele>273.0</ele><time>2026-05-02T14:57:12.999Z</time></trkpt><trkpt lat="45.643159138570766" lon="8.621370243365883"><ele>273.2</ele><time>2026-05-02T14:57:13.999Z</time></trkpt><trkpt lat="45.64326710720493" lon="8.621347964876696"><ele>273.4</ele><time>2026-05-02T14:57:14.999Z</time></trkpt><trkpt lat="45.64336226268718" lon="8.621342970813302"><ele>273.59999999999997</ele><time>2026-05-02T14:57:15.999Z</time></trkpt><trkpt lat="45.64345328721284" lon="8.621374744655947"><ele>273.8</ele><time>2026-05-02T14:57:16.999Z</time></trkpt><trkpt lat="45.64353374932626" lon="8.621434372938705"><ele>274.0</ele><time>2026-05-02T14:57:17.999Z</time></trkpt><trkpt lat="45.643612847536424" lon="8.621509520140654"><ele>274.4</ele><time>2026-05-02T14:57:18.999Z</time></trkpt><trkpt lat="45.643698028341426" lon="8.621553344572693"><ele>274.79999999999995</ele><time>2026-05-02T14:57:19.999Z</time></trkpt><trkpt lat="45.64378948654785" lon="8.621551169880158"><ele>275.20000000000005</ele><time>2026-05-02T14:57:20.999Z</time></trkpt><trkpt lat="45.64387736172766" lon="8.621506577646677"><ele>275.6</ele><time>2026-05-02T14:57:21.999Z</time></trkpt><trkpt lat="45.64395452118477" lon="8.621416268215043"><ele>276.0</ele><time>2026-05-02T14:57:22.999Z</time></trkpt><trkpt lat="45.64403293364033" lon="8.62130198980015"><ele>276.0</ele><time>2026-05-02T14:57:23.999Z</time></trkpt><trkpt lat="45.64412712401075" lon="8.62121014882771"><ele>276.0</ele><time>2026-05-02T14:57:24.999Z</time></trkpt><trkpt lat="45.64424156601639" lon="8.62115518199674"><ele>276.0</ele><time>2026-05-02T14:57:25.999Z</time></trkpt><trkpt lat="45.64437333552218" lon="8.621111729306488"><ele>276.0</ele><time>2026-05-02T14:57:26.999Z</time></trkpt><trkpt lat="45.644520971284315" lon="8.621074255812909"><ele>276.75</ele><time>2026-05-02T14:57:27.999Z</time></trkpt><trkpt lat="45.64466238295679" lon="8.621030443987063"><ele>277.5</ele><time>2026-05-02T14:57:28.999Z</time></trkpt><trkpt lat="45.64478991419547" lon="8.620976326336372"><ele>278.25</ele><time>2026-05-02T14:57:29.999Z</time></trkpt><trkpt lat="45.64491587097924" lon="8.620920349718656"><ele>279.0</ele><time>2026-05-02T14:57:30.999Z</time></trkpt><trkpt lat="45.64504697647616" lon="8.620861915113638"><ele>279.0</ele><time>2026-05-02T14:57:31.999Z</time></trkpt><trkpt lat="45.64517735866634" lon="8.62080734480165"><ele>279.0</ele><time>2026-05-02T14:57:32.999Z</time></trkpt><trkpt lat="45.645302437247196" lon="8.620756575066256"><ele>279.0</ele><time>2026-05-02T14:57:33.999Z</time></trkpt><trkpt lat="45.6454326399071" lon="8.620695108725412"><ele>279.0</ele><time>2026-05-02T14:57:34.999Z</time></trkpt><trkpt lat="45.64557346914829" lon="8.62062316695004"><ele>280.3333333333333</ele><time>2026-05-02T14:57:35.999Z</time></trkpt><trkpt lat="45.6457273535126" lon="8.620550915272714"><ele>281.66666666666663</ele><time>2026-05-02T14:57:36.999Z</time></trkpt><trkpt lat="45.6458966824474" lon="8.620475353466015"><ele>283.0</ele><time>2026-05-02T14:57:37.999Z</time></trkpt><trkpt lat="45.64607003482889" lon="8.620391531535656"><ele>283.66666666666663</ele><time>2026-05-02T14:57:38.999Z</time></trkpt><trkpt lat="45.64627181469445" lon="8.620296273860507"><ele>284.3333333333333</ele><time>2026-05-02T14:57:39.999Z</time></trkpt><trkpt lat="45.64646307673474" lon="8.620199487231169"><ele>285.0</ele><time>2026-05-02T14:57:40.999Z</time></trkpt><trkpt lat="45.646655232413174" lon="8.62010272701521"><ele>285.0</ele><time>2026-05-02T14:57:41.999Z</time></trkpt><trkpt lat="45.64682764936835" lon="8.620017700659913"><ele>285.0</ele><time>2026-05-02T14:57:42.999Z</time></trkpt><trkpt lat="45.64699541306811" lon="8.619927941308173"><ele>285.0</ele><time>2026-05-02T14:57:43.999Z</time></trkpt><trkpt lat="45.64716695481899" lon="8.61984230103247"><ele>285.0</ele><time>2026-05-02T14:57:44.999Z</time></trkpt><trkpt lat="45.64735032457188" lon="8.61975989350384"><ele>285.0</ele><time>2026-05-02T14:57:45.999Z</time></trkpt><trkpt lat="45.64753868244555" lon="8.619675553269753"><ele>285.0</ele><time>2026-05-02T14:57:46.999Z</time></trkpt><trkpt lat="45.647730523800064" lon="8.619581062104269"><ele>284.0</ele><time>2026-05-02T14:57:47.999Z</time></trkpt><trkpt lat="45.64792923501015" lon="8.619482461063749"><ele>283.0</ele><time>2026-05-02T14:57:48.999Z</time></trkpt><trkpt lat="45.64812321863195" lon="8.619388025495494"><ele>282.0</ele><time>2026-05-02T14:57:49.999Z</time></trkpt><trkpt lat="45.64830530077217" lon="8.619301268293427"><ele>282.0</ele><time>2026-05-02T14:57:50.999Z</time></trkpt><trkpt lat="45.64848031643195" lon="8.61923298605202"><ele>282.0</ele><time>2026-05-02T14:57:51.999Z</time></trkpt><trkpt lat="45.64864687135077" lon="8.619166063701877"><ele>282.0</ele><time>2026-05-02T14:57:52.999Z</time></trkpt><trkpt lat="45.64880541490035" lon="8.619099775594956"><ele>283.0</ele><time>2026-05-02T14:57:53.999Z</time></trkpt><trkpt lat="45.64896805369463" lon="8.61905031986048"><ele>284.0</ele><time>2026-05-02T14:57:54.999Z</time></trkpt><trkpt lat="45.64914166502648" lon="8.619016614779751"><ele>285.0</ele><time>2026-05-02T14:57:55.999Z</time></trkpt><trkpt lat="45.64932174696951" lon="8.618989066030455"><ele>285.3333333333333</ele><time>2026-05-02T14:57:56.999Z</time></trkpt><trkpt lat="45.64951342361924" lon="8.618947779313254"><ele>285.66666666666663</ele><time>2026-05-02T14:57:57.999Z</time></trkpt><trkpt lat="45.64972423029212" lon="8.618923327065481"><ele>286.0</ele><time>2026-05-02T14:57:58.999Z</time></trkpt><trkpt lat="45.6499525793714" lon="8.618904785899074"><ele>286.0</ele><time>2026-05-02T14:57:59.999Z</time></trkpt><trkpt lat="45.65018806011428" lon="8.618879690876332"><ele>286.0</ele><time>2026-05-02T14:58:00.999Z</time></trkpt><trkpt lat="45.650413277538235" lon="8.618856351318888"><ele>285.3333333333333</ele><time>2026-05-02T14:58:01.999Z</time></trkpt><trkpt lat="45.65061935837559" lon="8.618837388069414"><ele>284.6666666666667</ele><time>2026-05-02T14:58:02.999Z</time></trkpt><trkpt lat="45.65080328436849" lon="8.618815469877095"><ele>284.0</ele><time>2026-05-02T14:58:03.999Z</time></trkpt><trkpt lat="45.65094908714625" lon="8.61879585464246"><ele>284.0</ele><time>2026-05-02T14:58:04.999Z</time></trkpt><trkpt lat="45.65108208673103" lon="8.618781066537881"><ele>284.0</ele><time>2026-05-02T14:58:05.999Z</time></trkpt><trkpt lat="45.65121791245464" lon="8.61876338856773"><ele>284.0</ele><time>2026-05-02T14:58:06.999Z</time></trkpt><trkpt lat="45.651342583635056" lon="8.618748254812974"><ele>284.0</ele><time>2026-05-02T14:58:07.999Z</time></trkpt><trkpt lat="45.6514600219029" lon="8.618733847193958"><ele>284.2</ele><time>2026-05-02T14:58:08.999Z</time></trkpt><trkpt lat="45.651575981337274" lon="8.618719858334785"><ele>284.4</ele><time>2026-05-02T14:58:09.999Z</time></trkpt><trkpt lat="45.65168698096333" lon="8.618707532147543"><ele>284.6</ele><time>2026-05-02T14:58:10.999Z</time></trkpt><trkpt lat="45.651788455006574" lon="8.61870007448512"><ele>284.8</ele><time>2026-05-02T14:58:11.999Z</time></trkpt><trkpt lat="45.65187771013219" lon="8.618708056039122"><ele>285.0</ele><time>2026-05-02T14:58:12.999Z</time></trkpt><trkpt lat="45.65195888338555" lon="8.618747319271009"><ele>285.2</ele><time>2026-05-02T14:58:13.999Z</time></trkpt><trkpt lat="45.65204666012205" lon="8.618807609058127"><ele>285.4</ele><time>2026-05-02T14:58:14.999Z</time></trkpt><trkpt lat="45.65213401131615" lon="8.618847351946963"><ele>285.6</ele><time>2026-05-02T14:58:15.999Z</time></trkpt><trkpt lat="45.65222441313562" lon="8.618832475039882"><ele>285.8</ele><time>2026-05-02T14:58:16.999Z</time></trkpt><trkpt lat="45.65231564074716" lon="8.618783401498925"><ele>286.0</ele><time>2026-05-02T14:58:17.999Z</time></trkpt><trkpt lat="45.652406534062905" lon="8.618723368053846"><ele>286.0</ele><time>2026-05-02T14:58:18.999Z</time></trkpt><trkpt lat="45.652510894591465" lon="8.618685295087175"><ele>286.0</ele><time>2026-05-02T14:58:19.999Z</time></trkpt><trkpt lat="45.65262252100131" lon="8.618676887657918"><ele>286.0</ele><time>2026-05-02T14:58:20.999Z</time></trkpt><trkpt lat="45.65273386009585" lon="8.618677487400312"><ele>286.0</ele><time>2026-05-02T14:58:22Z</time></trkpt><trkpt lat="45.652843390864824" lon="8.61866681889969"><ele>286.0</ele><time>2026-05-02T14:58:23Z</time></trkpt><trkpt lat="45.65296231478617" lon="8.61865087222024"><ele>287.0</ele><time>2026-05-02T14:58:24Z</time></trkpt><trkpt lat="45.65308713550122" lon="8.61863021358992"><ele>288.0</ele><time>2026-05-02T14:58:25Z</time></trkpt><trkpt lat="45.65321114176482" lon="8.61860826240882"><ele>289.0</ele><time>2026-05-02T14:58:26Z</time></trkpt><trkpt lat="45.653329094426816" lon="8.618585115258472"><ele>290.0</ele><time>2026-05-02T14:58:27Z</time></trkpt><trkpt lat="45.65344760738142" lon="8.618557317508893"><ele>290.0</ele><time>2026-05-02T14:58:28Z</time></trkpt><trkpt lat="45.653572974518035" lon="8.618531015782908"><ele>290.0</ele><time>2026-05-02T14:58:29Z</time></trkpt><trkpt lat="45.65368989501085" lon="8.618509230520495"><ele>290.0</ele><time>2026-05-02T14:58:30Z</time></trkpt><trkpt lat="45.65380799103003" lon="8.618491083380238"><ele>290.0</ele><time>2026-05-02T14:58:31Z</time></trkpt><trkpt lat="45.653935808546606" lon="8.618473985056163"><ele>290.75</ele><time>2026-05-02T14:58:32Z</time></trkpt><trkpt lat="45.65406420577598" lon="8.618458230465606"><ele>291.5</ele><time>2026-05-02T14:58:33Z</time></trkpt><trkpt lat="45.65420214503855" lon="8.618450177193205"><ele>292.25</ele><time>2026-05-02T14:58:34Z</time></trkpt><trkpt lat="45.6543459912903" lon="8.618446781878921"><ele>293.0</ele><time>2026-05-02T14:58:35Z</time></trkpt><trkpt lat="45.65448324370195" lon="8.618453224372558"><ele>293.25</ele><time>2026-05-02T14:58:36Z</time></trkpt><trkpt lat="45.65461896793466" lon="8.61846443814552"><ele>293.5</ele><time>2026-05-02T14:58:37Z</time></trkpt><trkpt lat="45.6547526431877" lon="8.618474852955021"><ele>293.75</ele><time>2026-05-02T14:58:38Z</time></trkpt><trkpt lat="45.654884953979824" lon="8.618485315212569"><ele>294.0</ele><time>2026-05-02T14:58:39Z</time></trkpt><trkpt lat="45.655013381335955" lon="8.618499582999641"><ele>294.0</ele><time>2026-05-02T14:58:40Z</time></trkpt><trkpt lat="45.655137040498886" lon="8.618521196977381"><ele>294.0</ele><time>2026-05-02T14:58:41Z</time></trkpt><trkpt lat="45.65526242856665" lon="8.618549765782147"><ele>294.0</ele><time>2026-05-02T14:58:42Z</time></trkpt><trkpt lat="45.6553920925919" lon="8.618574706835059"><ele>294.0</ele><time>2026-05-02T14:58:43Z</time></trkpt><trkpt lat="45.65552770964027" lon="8.618587907349733"><ele>294.0</ele><time>2026-05-02T14:58:44Z</time></trkpt><trkpt lat="45.65567005388041" lon="8.61860237235187"><ele>294.0</ele><time>2026-05-02T14:58:45Z</time></trkpt><trkpt lat="45.65581365276473" lon="8.618616471097745"><ele>294.0</ele><time>2026-05-02T14:58:46Z</time></trkpt><trkpt lat="45.655956073973826" lon="8.618633595360256"><ele>294.0</ele><time>2026-05-02T14:58:47Z</time></trkpt><trkpt lat="45.65610262811492" lon="8.618651791005032"><ele>293.5</ele><time>2026-05-02T14:58:48Z</time></trkpt><trkpt lat="45.65625342603875" lon="8.61866753498893"><ele>293.0</ele><time>2026-05-02T14:58:49Z</time></trkpt><trkpt lat="45.65639939415399" lon="8.618684368194359"><ele>292.5</ele><time>2026-05-02T14:58:50Z</time></trkpt><trkpt lat="45.65654194216685" lon="8.618699848689891"><ele>292.0</ele><time>2026-05-02T14:58:51Z</time></trkpt><trkpt lat="45.65668924649656" lon="8.618713536091649"><ele>292.0</ele><time>2026-05-02T14:58:52Z</time></trkpt><trkpt lat="45.656837181771266" lon="8.61873150640843"><ele>292.0</ele><time>2026-05-02T14:58:53Z</time></trkpt><trkpt lat="45.65698272240663" lon="8.618745248891937"><ele>292.0</ele><time>2026-05-02T14:58:54Z</time></trkpt><trkpt lat="45.65712112057557" lon="8.618763313113625"><ele>292.0</ele><time>2026-05-02T14:58:55Z</time></trkpt><trkpt lat="45.657256186963835" lon="8.61878640616047"><ele>292.25</ele><time>2026-05-02T14:58:56Z</time></trkpt><trkpt lat="45.65739174894148" lon="8.618812013558921"><ele>292.5</ele><time>2026-05-02T14:58:57Z</time></trkpt><trkpt lat="45.657533996324275" lon="8.618832347720105"><ele>292.75</ele><time>2026-05-02T14:58:58Z</time></trkpt><trkpt lat="45.65768285698166" lon="8.618850362631168"><ele>293.0</ele><time>2026-05-02T14:58:59Z</time></trkpt><trkpt lat="45.65782753232215" lon="8.618866515210831"><ele>293.5</ele><time>2026-05-02T14:59:00Z</time></trkpt><trkpt lat="45.65796628557538" lon="8.618882923330224"><ele>294.0</ele><time>2026-05-02T14:59:01Z</time></trkpt><trkpt lat="45.65810872767144" lon="8.61889457694695"><ele>294.5</ele><time>2026-05-02T14:59:02Z</time></trkpt><trkpt lat="45.658255029599125" lon="8.618910959386962"><ele>295.0</ele><time>2026-05-02T14:59:03Z</time></trkpt><trkpt lat="45.65839415046888" lon="8.618931678660385"><ele>295.0</ele><time>2026-05-02T14:59:04Z</time></trkpt><trkpt lat="45.65853610528689" lon="8.618950613136988"><ele>295.0</ele><time>2026-05-02T14:59:05Z</time></trkpt><trkpt lat="45.65868756103551" lon="8.618954530773642"><ele>295.0</ele><time>2026-05-02T14:59:06Z</time></trkpt><trkpt lat="45.65884435891233" lon="8.618951156054061"><ele>295.25</ele><time>2026-05-02T14:59:07Z</time></trkpt><trkpt lat="45.65899989490572" lon="8.618944521840216"><ele>295.5</ele><time>2026-05-02T14:59:08Z</time></trkpt><trkpt lat="45.659149183404224" lon="8.618937649023506"><ele>295.75</ele><time>2026-05-02T14:59:09Z</time></trkpt><trkpt lat="45.65929350659448" lon="8.618930290871857"><ele>296.0</ele><time>2026-05-02T14:59:10Z</time></trkpt><trkpt lat="45.65943957337806" lon="8.618921377523955"><ele>296.33333333333337</ele><time>2026-05-02T14:59:11Z</time></trkpt><trkpt lat="45.65961274908911" lon="8.618901203261608"><ele>296.6666666666667</ele><time>2026-05-02T14:59:12Z</time></trkpt><trkpt lat="45.65979999993261" lon="8.618875499921186"><ele>297.0</ele><time>2026-05-02T14:59:13Z</time></trkpt><trkpt lat="45.65997898458251" lon="8.618858276014075"><ele>297.0</ele><time>2026-05-02T14:59:14Z</time></trkpt><trkpt lat="45.660144035153465" lon="8.618851303091965"><ele>297.0</ele><time>2026-05-02T14:59:15Z</time></trkpt><trkpt lat="45.660313703544965" lon="8.618832209100924"><ele>297.0</ele><time>2026-05-02T14:59:16Z</time></trkpt><trkpt lat="45.660481399907255" lon="8.61881991766505"><ele>296.6666666666667</ele><time>2026-05-02T14:59:17Z</time></trkpt><trkpt lat="45.66064284947419" lon="8.618806699860603"><ele>296.33333333333337</ele><time>2026-05-02T14:59:18Z</time></trkpt><trkpt lat="45.66079846161044" lon="8.618789555752652"><ele>296.0</ele><time>2026-05-02T14:59:19Z</time></trkpt><trkpt lat="45.660953255878226" lon="8.618773126443415"><ele>294.0</ele><time>2026-05-02T14:59:20Z</time></trkpt><trkpt lat="45.66111901938417" lon="8.618758831236821"><ele>292.0</ele><time>2026-05-02T14:59:21Z</time></trkpt><trkpt lat="45.66129118237724" lon="8.618749304061783"><ele>290.0</ele><time>2026-05-02T14:59:22Z</time></trkpt><trkpt lat="45.66146465792637" lon="8.618734156402548"><ele>290.0</ele><time>2026-05-02T14:59:23Z</time></trkpt><trkpt lat="45.66162594013059" lon="8.618720685081515"><ele>290.0</ele><time>2026-05-02T14:59:24Z</time></trkpt><trkpt lat="45.661782028032775" lon="8.618705762452745"><ele>290.0</ele><time>2026-05-02T14:59:25Z</time></trkpt><trkpt lat="45.66193530573573" lon="8.618691156875984"><ele>290.0</ele><time>2026-05-02T14:59:26Z</time></trkpt><trkpt lat="45.66208706396496" lon="8.618679435088264"><ele>290.0</ele><time>2026-05-02T14:59:27Z</time></trkpt><trkpt lat="45.662239218131454" lon="8.618668867477806"><ele>290.0</ele><time>2026-05-02T14:59:28Z</time></trkpt><trkpt lat="45.662391160127164" lon="8.618657321720326"><ele>291.33333333333337</ele><time>2026-05-02T14:59:29Z</time></trkpt><trkpt lat="45.66254240844044" lon="8.61864046745187"><ele>292.6666666666667</ele><time>2026-05-02T14:59:30Z</time></trkpt><trkpt lat="45.66269924051521" lon="8.618624847513312"><ele>294.0</ele><time>2026-05-02T14:59:31Z</time></trkpt><trkpt lat="45.662845902166175" lon="8.618610413812773"><ele>294.0</ele><time>2026-05-02T14:59:32Z</time></trkpt><trkpt lat="45.66298039877248" lon="8.618603480818345"><ele>294.0</ele><time>2026-05-02T14:59:33Z</time></trkpt><trkpt lat="45.663113627587826" lon="8.618599841236154"><ele>294.0</ele><time>2026-05-02T14:59:34Z</time></trkpt><trkpt lat="45.66323653467768" lon="8.618598261651846"><ele>294.0</ele><time>2026-05-02T14:59:35Z</time></trkpt><trkpt lat="45.6633603225317" lon="8.618593267680788"><ele>294.0</ele><time>2026-05-02T14:59:36Z</time></trkpt><trkpt lat="45.663477610497566" lon="8.61857811785973"><ele>294.0</ele><time>2026-05-02T14:59:37Z</time></trkpt><trkpt lat="45.6635964650504" lon="8.618562093842957"><ele>294.0</ele><time>2026-05-02T14:59:38Z</time></trkpt><trkpt lat="45.663712489938064" lon="8.618551610397054"><ele>294.0</ele><time>2026-05-02T14:59:39Z</time></trkpt><trkpt lat="45.663820843557836" lon="8.61854336203199"><ele>294.2</ele><time>2026-05-02T14:59:40Z</time></trkpt><trkpt lat="45.66391130681035" lon="8.618531530337432"><ele>294.4</ele><time>2026-05-02T14:59:41Z</time></trkpt><trkpt lat="45.663986337181086" lon="8.618523646175124"><ele>294.6</ele><time>2026-05-02T14:59:42Z</time></trkpt><trkpt lat="45.66408933185232" lon="8.618529422647857"><ele>294.8</ele><time>2026-05-02T14:59:44Z</time></trkpt><trkpt lat="45.66418313028469" lon="8.618563274942119"><ele>295.0</ele><time>2026-05-02T14:59:46Z</time></trkpt><trkpt lat="45.66425896556863" lon="8.618624095676301"><ele>294.8333333333333</ele><time>2026-05-02T14:59:53Z</time></trkpt><trkpt lat="45.664319079978206" lon="8.618743774888852"><ele>294.66666666666663</ele><time>2026-05-02T15:00:00Z</time></trkpt><trkpt lat="45.66437423547193" lon="8.618814748665061"><ele>294.5</ele><time>2026-05-02T15:00:01Z</time></trkpt><trkpt lat="45.66444302259996" lon="8.618856330549155"><ele>294.3333333333333</ele><time>2026-05-02T15:00:02Z</time></trkpt><trkpt lat="45.66452357309494" lon="8.618838620268084"><ele>294.1666666666667</ele><time>2026-05-02T15:00:03Z</time></trkpt><trkpt lat="45.66459412938317" lon="8.618802249168287"><ele>294.0</ele><time>2026-05-02T15:00:04Z</time></trkpt><trkpt lat="45.66466545506081" lon="8.618742807546784"><ele>294.4</ele><time>2026-05-02T15:00:05Z</time></trkpt><trkpt lat="45.66472975294759" lon="8.618635130495246"><ele>294.79999999999995</ele><time>2026-05-02T15:00:06Z</time></trkpt><trkpt lat="45.66480248529954" lon="8.618532096466199"><ele>295.20000000000005</ele><time>2026-05-02T15:00:07Z</time></trkpt><trkpt lat="45.66489388324943" lon="8.618465791681361"><ele>295.6</ele><time>2026-05-02T15:00:08Z</time></trkpt><trkpt lat="45.664973293865366" lon="8.61838286697556"><ele>296.0</ele><time>2026-05-02T15:00:09Z</time></trkpt><trkpt lat="45.665113064561936" lon="8.618400633920038"><ele>296.0</ele><time>2026-05-02T15:00:10Z</time></trkpt><trkpt lat="45.66522877622572" lon="8.618375705797487"><ele>296.0</ele><time>2026-05-02T15:00:11Z</time></trkpt><trkpt lat="45.66533991090686" lon="8.618359589195556"><ele>296.0</ele><time>2026-05-02T15:00:12Z</time></trkpt><trkpt lat="45.66546531673312" lon="8.618353153531848"><ele>296.0</ele><time>2026-05-02T15:00:13Z</time></trkpt><trkpt lat="45.66560058142197" lon="8.61834567817073"><ele>295.75</ele><time>2026-05-02T15:00:14Z</time></trkpt><trkpt lat="45.66573584796316" lon="8.618331012720159"><ele>295.5</ele><time>2026-05-02T15:00:15Z</time></trkpt><trkpt lat="45.66587609960136" lon="8.61831726136966"><ele>295.25</ele><time>2026-05-02T15:00:16Z</time></trkpt><trkpt lat="45.66603178667231" lon="8.618306313628091"><ele>295.0</ele><time>2026-05-02T15:00:17Z</time></trkpt><trkpt lat="45.66620628500071" lon="8.618288411020764"><ele>295.0</ele><time>2026-05-02T15:00:18Z</time></trkpt><trkpt lat="45.666384312363604" lon="8.618267025214562"><ele>295.0</ele><time>2026-05-02T15:00:19Z</time></trkpt><trkpt lat="45.66655280848808" lon="8.618251524969306"><ele>295.0</ele><time>2026-05-02T15:00:20Z</time></trkpt><trkpt lat="45.6667202900383" lon="8.618233432858583"><ele>295.0</ele><time>2026-05-02T15:00:21Z</time></trkpt><trkpt lat="45.66687832315662" lon="8.618214760405893"><ele>295.0</ele><time>2026-05-02T15:00:22Z</time></trkpt><trkpt lat="45.6670313957807" lon="8.618194166174836"><ele>295.0</ele><time>2026-05-02T15:00:23Z</time></trkpt><trkpt lat="45.66717800888007" lon="8.618175537554016"><ele>296.25</ele><time>2026-05-02T15:00:24Z</time></trkpt><trkpt lat="45.66732159635714" lon="8.618159969423083"><ele>297.5</ele><time>2026-05-02T15:00:25Z</time></trkpt><trkpt lat="45.66745773467136" lon="8.618145369361047"><ele>298.75</ele><time>2026-05-02T15:00:26Z</time></trkpt><trkpt lat="45.66758484898496" lon="8.618129998489389"><ele>300.0</ele><time>2026-05-02T15:00:27.001Z</time></trkpt><trkpt lat="45.66770669392372" lon="8.618113086944984"><ele>300.25</ele><time>2026-05-02T15:00:28.001Z</time></trkpt><trkpt lat="45.66783054471945" lon="8.618094212388852"><ele>300.5</ele><time>2026-05-02T15:00:29.001Z</time></trkpt><trkpt lat="45.66795544974356" lon="8.618063884941161"><ele>300.75</ele><time>2026-05-02T15:00:30.001Z</time></trkpt><trkpt lat="45.668072217377016" lon="8.618021499852233"><ele>301.0</ele><time>2026-05-02T15:00:31.001Z</time></trkpt><trkpt lat="45.66817604557449" lon="8.617961172266558"><ele>301.0</ele><time>2026-05-02T15:00:32.001Z</time></trkpt><trkpt lat="45.66827713294777" lon="8.61789935362786"><ele>301.0</ele><time>2026-05-02T15:00:33.001Z</time></trkpt><trkpt lat="45.66838441475668" lon="8.617858191783014"><ele>301.0</ele><time>2026-05-02T15:00:34.001Z</time></trkpt><trkpt lat="45.66849171907372" lon="8.617836571260899"><ele>301.0</ele><time>2026-05-02T15:00:35.001Z</time></trkpt><trkpt lat="45.66858743401627" lon="8.6178150885729"><ele>301.0</ele><time>2026-05-02T15:00:36.001Z</time></trkpt><trkpt lat="45.6686663266321" lon="8.61770916852568"><ele>301.8</ele><time>2026-05-02T15:00:37.001Z</time></trkpt><trkpt lat="45.668735098018594" lon="8.617613808161039"><ele>302.6</ele><time>2026-05-02T15:00:38.001Z</time></trkpt><trkpt lat="45.66881506025642" lon="8.617542096785956"><ele>303.4</ele><time>2026-05-02T15:00:39.001Z</time></trkpt><trkpt lat="45.668908540659125" lon="8.617497375892745"><ele>304.2</ele><time>2026-05-02T15:00:40.001Z</time></trkpt><trkpt lat="45.66900572202435" lon="8.617474767501346"><ele>305.0</ele><time>2026-05-02T15:00:41.001Z</time></trkpt><trkpt lat="45.669103480764385" lon="8.617448290458427"><ele>305.0</ele><time>2026-05-02T15:00:42Z</time></trkpt><trkpt lat="45.669197834483576" lon="8.617422364396118"><ele>305.0</ele><time>2026-05-02T15:00:43Z</time></trkpt><trkpt lat="45.669291957816164" lon="8.617389004697763"><ele>305.0</ele><time>2026-05-02T15:00:44Z</time></trkpt><trkpt lat="45.669392025994796" lon="8.61734559056649"><ele>305.0</ele><time>2026-05-02T15:00:45Z</time></trkpt><trkpt lat="45.669496541619104" lon="8.617290871614692"><ele>305.0</ele><time>2026-05-02T15:00:46Z</time></trkpt><trkpt lat="45.66960735596248" lon="8.617228808805585"><ele>305.25</ele><time>2026-05-02T15:00:47Z</time></trkpt><trkpt lat="45.669725950764686" lon="8.617155560893227"><ele>305.5</ele><time>2026-05-02T15:00:48Z</time></trkpt><trkpt lat="45.66984497242271" lon="8.617066907534262"><ele>305.75</ele><time>2026-05-02T15:00:49Z</time></trkpt><trkpt lat="45.669971520016574" lon="8.616968089307905"><ele>306.0</ele><time>2026-05-02T15:00:50Z</time></trkpt><trkpt lat="45.670105612162764" lon="8.616868301761393"><ele>306.0</ele><time>2026-05-02T15:00:51Z</time></trkpt><trkpt lat="45.67022295911554" lon="8.616770304137136"><ele>306.0</ele><time>2026-05-02T15:00:52Z</time></trkpt><trkpt lat="45.670385621966695" lon="8.616644602331592"><ele>306.0</ele><time>2026-05-02T15:00:53Z</time></trkpt><trkpt lat="45.67058487041427" lon="8.61650184666497"><ele>306.0</ele><time>2026-05-02T15:00:54Z</time></trkpt><trkpt lat="45.67077418575906" lon="8.616372707893103"><ele>306.0</ele><time>2026-05-02T15:00:55Z</time></trkpt><trkpt lat="45.67094199069996" lon="8.616253097511652"><ele>306.0</ele><time>2026-05-02T15:00:56Z</time></trkpt><trkpt lat="45.671096183304506" lon="8.616135207822111"><ele>306.3333333333333</ele><time>2026-05-02T15:00:57Z</time></trkpt><trkpt lat="45.67123877306901" lon="8.61602231058617"><ele>306.66666666666663</ele><time>2026-05-02T15:00:58Z</time></trkpt><trkpt lat="45.671371968435984" lon="8.615914933243255"><ele>307.0</ele><time>2026-05-02T15:00:59Z</time></trkpt><trkpt lat="45.67151452481512" lon="8.615800935535635"><ele>307.0</ele><time>2026-05-02T15:01:00Z</time></trkpt><trkpt lat="45.67162058803786" lon="8.615719572257811"><ele>307.0</ele><time>2026-05-02T15:01:01Z</time></trkpt><trkpt lat="45.67170786857107" lon="8.61565625874739"><ele>307.0</ele><time>2026-05-02T15:01:02Z</time></trkpt><trkpt lat="45.671779882851034" lon="8.615613207957269"><ele>307.0</ele><time>2026-05-02T15:01:03Z</time></trkpt><trkpt lat="45.67186496932232" lon="8.615588899927937"><ele>307.0</ele><time>2026-05-02T15:01:04Z</time></trkpt><trkpt lat="45.671955844551746" lon="8.615593493191493"><ele>306.8333333333333</ele><time>2026-05-02T15:01:05Z</time></trkpt><trkpt lat="45.67203078885796" lon="8.615576355143311"><ele>306.66666666666663</ele><time>2026-05-02T15:01:06Z</time></trkpt><trkpt lat="45.67208977000563" lon="8.615506925436126"><ele>306.5</ele><time>2026-05-02T15:01:07Z</time></trkpt><trkpt lat="45.67213912354726" lon="8.615391931201374"><ele>306.3333333333333</ele><time>2026-05-02T15:01:08Z</time></trkpt><trkpt lat="45.67217272106472" lon="8.615254894822694"><ele>306.1666666666667</ele><time>2026-05-02T15:01:09Z</time></trkpt><trkpt lat="45.67221970818009" lon="8.61512707651696"><ele>306.0</ele><time>2026-05-02T15:01:10Z</time></trkpt><trkpt lat="45.67231167378667" lon="8.614992062058477"><ele>306.0</ele><time>2026-05-02T15:01:11Z</time></trkpt><trkpt lat="45.67244638479179" lon="8.614881911190928"><ele>306.0</ele><time>2026-05-02T15:01:12Z</time></trkpt><trkpt lat="45.672594848693265" lon="8.614747131344881"><ele>306.0</ele><time>2026-05-02T15:01:13Z</time></trkpt><trkpt lat="45.67272138753807" lon="8.614613421579127"><ele>305.3333333333333</ele><time>2026-05-02T15:01:14Z</time></trkpt><trkpt lat="45.67285059168545" lon="8.614484684059791"><ele>304.66666666666663</ele><time>2026-05-02T15:01:15Z</time></trkpt><trkpt lat="45.67297982275577" lon="8.614350536244737"><ele>304.0</ele><time>2026-05-02T15:01:16Z</time></trkpt><trkpt lat="45.67311156230406" lon="8.614204076197714"><ele>304.0</ele><time>2026-05-02T15:01:17Z</time></trkpt><trkpt lat="45.67324803390973" lon="8.614051732985132"><ele>304.0</ele><time>2026-05-02T15:01:18Z</time></trkpt><trkpt lat="45.67338891197961" lon="8.613893728202159"><ele>304.0</ele><time>2026-05-02T15:01:19Z</time></trkpt><trkpt lat="45.673523706701225" lon="8.613739818442173"><ele>303.66666666666663</ele><time>2026-05-02T15:01:20Z</time></trkpt><trkpt lat="45.67365535141938" lon="8.613575009705079"><ele>303.3333333333333</ele><time>2026-05-02T15:01:21Z</time></trkpt><trkpt lat="45.6737809743934" lon="8.61340531409707"><ele>303.0</ele><time>2026-05-02T15:01:22Z</time></trkpt><trkpt lat="45.673916318326924" lon="8.613248355949041"><ele>303.0</ele><time>2026-05-02T15:01:23Z</time></trkpt><trkpt lat="45.674053181611335" lon="8.613083393381824"><ele>303.0</ele><time>2026-05-02T15:01:24Z</time></trkpt><trkpt lat="45.67419202360551" lon="8.612903971793834"><ele>303.0</ele><time>2026-05-02T15:01:25Z</time></trkpt><trkpt lat="45.674329337236614" lon="8.612710425650839"><ele>302.6666666666667</ele><time>2026-05-02T15:01:26Z</time></trkpt><trkpt lat="45.674469161864856" lon="8.612520804626973"><ele>302.33333333333337</ele><time>2026-05-02T15:01:27Z</time></trkpt><trkpt lat="45.67461252685674" lon="8.612332978235187"><ele>302.0</ele><time>2026-05-02T15:01:28Z</time></trkpt><trkpt lat="45.67475412711111" lon="8.612150988406762"><ele>302.33333333333337</ele><time>2026-05-02T15:01:29Z</time></trkpt><trkpt lat="45.67488980316536" lon="8.61197429719455"><ele>302.6666666666667</ele><time>2026-05-02T15:01:30Z</time></trkpt><trkpt lat="45.67502349845123" lon="8.611792811488982"><ele>303.0</ele><time>2026-05-02T15:01:31Z</time></trkpt><trkpt lat="45.67515978726744" lon="8.611607586959728"><ele>302.3333333333333</ele><time>2026-05-02T15:01:32Z</time></trkpt><trkpt lat="45.67529151348883" lon="8.61142785027917"><ele>301.66666666666663</ele><time>2026-05-02T15:01:33Z</time></trkpt><trkpt lat="45.675418119942535" lon="8.611257556589239"><ele>301.0</ele><time>2026-05-02T15:01:34Z</time></trkpt><trkpt lat="45.67554054209934" lon="8.61110495314183"><ele>301.0</ele><time>2026-05-02T15:01:35Z</time></trkpt><trkpt lat="45.675661046988836" lon="8.61095902611567"><ele>301.0</ele><time>2026-05-02T15:01:36Z</time></trkpt><trkpt lat="45.675779564019564" lon="8.610822147434124"><ele>301.0</ele><time>2026-05-02T15:01:37Z</time></trkpt><trkpt lat="45.675895191104004" lon="8.610687448920617"><ele>301.0</ele><time>2026-05-02T15:01:38Z</time></trkpt><trkpt lat="45.6760035943325" lon="8.610565092253225"><ele>301.0</ele><time>2026-05-02T15:01:39Z</time></trkpt><trkpt lat="45.67610767892652" lon="8.61045661340045"><ele>301.0</ele><time>2026-05-02T15:01:40Z</time></trkpt><trkpt lat="45.67621057659559" lon="8.610361029763489"><ele>301.0</ele><time>2026-05-02T15:01:41Z</time></trkpt><trkpt lat="45.676301384399025" lon="8.610297848183622"><ele>301.0</ele><time>2026-05-02T15:01:42Z</time></trkpt><trkpt lat="45.676375807768174" lon="8.610268013910797"><ele>301.0</ele><time>2026-05-02T15:01:43Z</time></trkpt><trkpt lat="45.67645109309226" lon="8.610240585608143"><ele>301.0</ele><time>2026-05-02T15:01:44Z</time></trkpt><trkpt lat="45.67653644749743" lon="8.610232808498585"><ele>301.0</ele><time>2026-05-02T15:01:45Z</time></trkpt><trkpt lat="45.67662189567067" lon="8.61023113656934"><ele>301.0</ele><time>2026-05-02T15:01:46Z</time></trkpt><trkpt lat="45.676699481244825" lon="8.610208797630674"><ele>301.0</ele><time>2026-05-02T15:01:47Z</time></trkpt><trkpt lat="45.67677463804655" lon="8.610140676170149"><ele>301.0</ele><time>2026-05-02T15:01:48Z</time></trkpt><trkpt lat="45.676838471438" lon="8.610039387398034"><ele>301.0</ele><time>2026-05-02T15:01:49Z</time></trkpt><trkpt lat="45.67688834765938" lon="8.609910176018294"><ele>301.0</ele><time>2026-05-02T15:01:50Z</time></trkpt><trkpt lat="45.67693754977902" lon="8.609775262300063"><ele>301.0</ele><time>2026-05-02T15:01:51Z</time></trkpt><trkpt lat="45.67701586091831" lon="8.609676086856759"><ele>301.0</ele><time>2026-05-02T15:01:52Z</time></trkpt><trkpt lat="45.67709965436223" lon="8.609570517269445"><ele>299.5</ele><time>2026-05-02T15:01:53Z</time></trkpt><trkpt lat="45.67721163716723" lon="8.609487720768792"><ele>298.0</ele><time>2026-05-02T15:01:54Z</time></trkpt><trkpt lat="45.67731822074593" lon="8.609407811331883"><ele>296.5</ele><time>2026-05-02T15:01:55Z</time></trkpt><trkpt lat="45.67742816116901" lon="8.609317616239327"><ele>295.0</ele><time>2026-05-02T15:01:56Z</time></trkpt><trkpt lat="45.67754151341735" lon="8.609228388394781"><ele>295.0</ele><time>2026-05-02T15:01:57Z</time></trkpt><trkpt lat="45.6776609847713" lon="8.609146220194472"><ele>295.0</ele><time>2026-05-02T15:01:58Z</time></trkpt><trkpt lat="45.677786999225944" lon="8.60905518482865"><ele>295.0</ele><time>2026-05-02T15:01:59Z</time></trkpt><trkpt lat="45.67791849038603" lon="8.608979819785013"><ele>295.0</ele><time>2026-05-02T15:02:00Z</time></trkpt><trkpt lat="45.678057018396956" lon="8.608907436896715"><ele>293.0</ele><time>2026-05-02T15:02:01Z</time></trkpt><trkpt lat="45.678201277713754" lon="8.608838737604206"><ele>291.0</ele><time>2026-05-02T15:02:02Z</time></trkpt><trkpt lat="45.67834824536682" lon="8.608768395745516"><ele>289.0</ele><time>2026-05-02T15:02:03Z</time></trkpt><trkpt lat="45.678504214364665" lon="8.608683732994152"><ele>289.0</ele><time>2026-05-02T15:02:04Z</time></trkpt><trkpt lat="45.67867752780386" lon="8.608599453780538"><ele>289.0</ele><time>2026-05-02T15:02:05Z</time></trkpt><trkpt lat="45.67884717747557" lon="8.60851142363836"><ele>289.0</ele><time>2026-05-02T15:02:06Z</time></trkpt><trkpt lat="45.67900898181892" lon="8.608430180638068"><ele>289.0</ele><time>2026-05-02T15:02:07Z</time></trkpt><trkpt lat="45.67917169366768" lon="8.608350057569766"><ele>289.0</ele><time>2026-05-02T15:02:08Z</time></trkpt><trkpt lat="45.679341590864325" lon="8.608271976645948"><ele>289.0</ele><time>2026-05-02T15:02:09Z</time></trkpt><trkpt lat="45.67951391080354" lon="8.608189684404392"><ele>288.3333333333333</ele><time>2026-05-02T15:02:10Z</time></trkpt><trkpt lat="45.67969391175918" lon="8.608104123094515"><ele>287.6666666666667</ele><time>2026-05-02T15:02:11Z</time></trkpt><trkpt lat="45.67987466067838" lon="8.608016638013147"><ele>287.0</ele><time>2026-05-02T15:02:12Z</time></trkpt><trkpt lat="45.68004952175046" lon="8.607927108841722"><ele>287.0</ele><time>2026-05-02T15:02:13Z</time></trkpt><trkpt lat="45.68021663170821" lon="8.607844446325387"><ele>287.0</ele><time>2026-05-02T15:02:14Z</time></trkpt><trkpt lat="45.68038015740002" lon="8.607765925534487"><ele>287.0</ele><time>2026-05-02T15:02:15Z</time></trkpt><trkpt lat="45.680542133330924" lon="8.607686816552691"><ele>288.0</ele><time>2026-05-02T15:02:16Z</time></trkpt><trkpt lat="45.68070466604998" lon="8.607602739295997"><ele>289.0</ele><time>2026-05-02T15:02:17Z</time></trkpt><trkpt lat="45.680871507772586" lon="8.607521891852581"><ele>290.0</ele><time>2026-05-02T15:02:18Z</time></trkpt><trkpt lat="45.68103169238601" lon="8.607447269046897"><ele>289.6666666666667</ele><time>2026-05-02T15:02:19Z</time></trkpt><trkpt lat="45.68119098035819" lon="8.607380612108855"><ele>289.3333333333333</ele><time>2026-05-02T15:02:20Z</time></trkpt><trkpt lat="45.68134275003185" lon="8.607311969268277"><ele>289.0</ele><time>2026-05-02T15:02:21Z</time></trkpt><trkpt lat="45.68147433039583" lon="8.607249785972767"><ele>289.0</ele><time>2026-05-02T15:02:22Z</time></trkpt><trkpt lat="45.68159619489482" lon="8.607192760938572"><ele>289.0</ele><time>2026-05-02T15:02:23Z</time></trkpt><trkpt lat="45.68168794654899" lon="8.607151684503703"><ele>289.0</ele><time>2026-05-02T15:02:24Z</time></trkpt><trkpt lat="45.681780345444004" lon="8.607119020770075"><ele>289.0</ele><time>2026-05-02T15:02:26Z</time></trkpt><trkpt lat="45.68185403002431" lon="8.60711989944855"><ele>289.0</ele><time>2026-05-02T15:02:29Z</time></trkpt><trkpt lat="45.68195835095521" lon="8.607106086559293"><ele>289.2</ele><time>2026-05-02T15:02:39.001Z</time></trkpt><trkpt lat="45.68201634317914" lon="8.606981986480957"><ele>289.4</ele><time>2026-05-02T15:02:40.001Z</time></trkpt><trkpt lat="45.68210306029554" lon="8.606915565804908"><ele>289.6</ele><time>2026-05-02T15:02:41.001Z</time></trkpt><trkpt lat="45.68219543156975" lon="8.60687108235051"><ele>289.8</ele><time>2026-05-02T15:02:42Z</time></trkpt><trkpt lat="45.682302314205785" lon="8.606817044118603"><ele>290.0</ele><time>2026-05-02T15:02:43Z</time></trkpt><trkpt lat="45.68241666297176" lon="8.606770178969374"><ele>290.0</ele><time>2026-05-02T15:02:44Z</time></trkpt><trkpt lat="45.68252023016972" lon="8.60672240787824"><ele>290.0</ele><time>2026-05-02T15:02:45Z</time></trkpt><trkpt lat="45.68262436183024" lon="8.606667781034787"><ele>290.0</ele><time>2026-05-02T15:02:46Z</time></trkpt><trkpt lat="45.68273420055048" lon="8.606606156190475"><ele>290.0</ele><time>2026-05-02T15:02:47Z</time></trkpt><trkpt lat="45.68284776859489" lon="8.606544607944507"><ele>290.5</ele><time>2026-05-02T15:02:48Z</time></trkpt><trkpt lat="45.682968812637625" lon="8.60649006720298"><ele>291.0</ele><time>2026-05-02T15:02:49Z</time></trkpt><trkpt lat="45.68308464976394" lon="8.606443628429828"><ele>291.5</ele><time>2026-05-02T15:02:50Z</time></trkpt><trkpt lat="45.68319024180212" lon="8.606393909230698"><ele>292.0</ele><time>2026-05-02T15:02:51Z</time></trkpt><trkpt lat="45.68328559339254" lon="8.606326677591587"><ele>292.0</ele><time>2026-05-02T15:02:52Z</time></trkpt><trkpt lat="45.68338645783183" lon="8.606294019826834"><ele>292.0</ele><time>2026-05-02T15:02:53Z</time></trkpt><trkpt lat="45.68347837519127" lon="8.606229372224998"><ele>292.0</ele><time>2026-05-02T15:02:54Z</time></trkpt><trkpt lat="45.68357850914912" lon="8.606194638403082"><ele>292.0</ele><time>2026-05-02T15:02:55Z</time></trkpt><trkpt lat="45.68367954222757" lon="8.606144306290991"><ele>292.0</ele><time>2026-05-02T15:02:56Z</time></trkpt><trkpt lat="45.68377937239577" lon="8.606082340698585"><ele>292.0</ele><time>2026-05-02T15:02:57Z</time></trkpt><trkpt lat="45.683878252244405" lon="8.606028260099912"><ele>292.0</ele><time>2026-05-02T15:02:58Z</time></trkpt><trkpt lat="45.68397454535085" lon="8.605981506048291"><ele>292.0</ele><time>2026-05-02T15:02:59Z</time></trkpt><trkpt lat="45.68406993134004" lon="8.605932709638491"><ele>292.0</ele><time>2026-05-02T15:03:00Z</time></trkpt><trkpt lat="45.68416631483336" lon="8.60587771599273"><ele>292.0</ele><time>2026-05-02T15:03:01Z</time></trkpt><trkpt lat="45.68425677957072" lon="8.60581451656102"><ele>292.0</ele><time>2026-05-02T15:03:02Z</time></trkpt><trkpt lat="45.68434227105467" lon="8.605750935202767"><ele>292.0</ele><time>2026-05-02T15:03:03Z</time></trkpt><trkpt lat="45.68442498748203" lon="8.605689033527725"><ele>292.0</ele><time>2026-05-02T15:03:04Z</time></trkpt><trkpt lat="45.68450777414619" lon="8.60562703586976"><ele>292.0</ele><time>2026-05-02T15:03:05Z</time></trkpt><trkpt lat="45.684590349052236" lon="8.605565955380456"><ele>292.0</ele><time>2026-05-02T15:03:06Z</time></trkpt><trkpt lat="45.68467202586684" lon="8.6055049200201"><ele>292.16666666666663</ele><time>2026-05-02T15:03:07Z</time></trkpt><trkpt lat="45.684751367425" lon="8.605446439312061"><ele>292.3333333333333</ele><time>2026-05-02T15:03:08Z</time></trkpt><trkpt lat="45.6848272887513" lon="8.605383697212151"><ele>292.5</ele><time>2026-05-02T15:03:09Z</time></trkpt><trkpt lat="45.684900333899456" lon="8.605322948230368"><ele>292.6666666666667</ele><time>2026-05-02T15:03:10Z</time></trkpt><trkpt lat="45.68497351929975" lon="8.60527452310514"><ele>292.83333333333337</ele><time>2026-05-02T15:03:11Z</time></trkpt><trkpt lat="45.68504345425967" lon="8.605224646703647"><ele>293.0</ele><time>2026-05-02T15:03:12Z</time></trkpt><trkpt lat="45.685143113500594" lon="8.60514521920477"><ele>293.0</ele><time>2026-05-02T15:03:14Z</time></trkpt><trkpt lat="45.68523736457884" lon="8.605098568979372"><ele>293.0</ele><time>2026-05-02T15:03:16Z</time></trkpt><trkpt lat="45.68528994423151" lon="8.605035833954936"><ele>293.0</ele><time>2026-05-02T15:03:18Z</time></trkpt><trkpt lat="45.68536184632952" lon="8.604993732356425"><ele>293.0</ele><time>2026-05-02T15:03:22Z</time></trkpt><trkpt lat="45.68543476126013" lon="8.60494869468743"><ele>293.0</ele><time>2026-05-02T15:03:24Z</time></trkpt><trkpt lat="45.685505714319355" lon="8.604891825727334"><ele>293.0</ele><time>2026-05-02T15:03:26Z</time></trkpt><trkpt lat="45.68558980855563" lon="8.604825441119303"><ele>293.0</ele><time>2026-05-02T15:03:28Z</time></trkpt><trkpt lat="45.685698169941375" lon="8.604727438832956"><ele>293.0</ele><time>2026-05-02T15:03:30Z</time></trkpt><trkpt lat="45.685807255727504" lon="8.604656451188216"><ele>293.0</ele><time>2026-05-02T15:03:32Z</time></trkpt><trkpt lat="45.685867516381705" lon="8.604616725458914"><ele>293.0</ele><time>2026-05-02T15:03:33Z</time></trkpt><trkpt lat="45.68598182740376" lon="8.604541125827488"><ele>293.0</ele><time>2026-05-02T15:03:35Z</time></trkpt><trkpt lat="45.68604629782621" lon="8.60450691101973"><ele>293.0</ele><time>2026-05-02T15:03:36Z</time></trkpt><trkpt lat="45.6861085245149" lon="8.60448240304958"><ele>293.0</ele><time>2026-05-02T15:03:37Z</time></trkpt><trkpt lat="45.68622889561279" lon="8.604428935171203"><ele>293.0</ele><time>2026-05-02T15:03:39Z</time></trkpt><trkpt lat="45.68629148657916" lon="8.604389955230733"><ele>293.0</ele><time>2026-05-02T15:03:40Z</time></trkpt><trkpt lat="45.68635332017185" lon="8.604354270869067"><ele>293.0</ele><time>2026-05-02T15:03:41Z</time></trkpt><trkpt lat="45.6864135513562" lon="8.60432344452858"><ele>293.0</ele><time>2026-05-02T15:03:42Z</time></trkpt><trkpt lat="45.68647600372711" lon="8.604297369496397"><ele>293.0</ele><time>2026-05-02T15:03:43Z</time></trkpt><trkpt lat="45.686540423717446" lon="8.604274030403015"><ele>293.0</ele><time>2026-05-02T15:03:44Z</time></trkpt><trkpt lat="45.68665512942769" lon="8.604207541508087"><ele>293.0</ele><time>2026-05-02T15:03:46Z</time></trkpt><trkpt lat="45.68676671229667" lon="8.604150927153272"><ele>293.0</ele><time>2026-05-02T15:03:48Z</time></trkpt><trkpt lat="45.68682912372913" lon="8.60411784263021"><ele>293.0</ele><time>2026-05-02T15:03:49Z</time></trkpt><trkpt lat="45.68689370486263" lon="8.60409112499724"><ele>293.0</ele><time>2026-05-02T15:03:50Z</time></trkpt><trkpt lat="45.68695712791674" lon="8.604062257067493"><ele>292.6</ele><time>2026-05-02T15:03:51Z</time></trkpt><trkpt lat="45.687070098457006" lon="8.604018443060776"><ele>292.20000000000005</ele><time>2026-05-02T15:03:53Z</time></trkpt><trkpt lat="45.68715877210802" lon="8.603989336592928"><ele>291.8</ele><time>2026-05-02T15:03:55Z</time></trkpt><trkpt lat="45.68722520211623" lon="8.603974664791808"><ele>291.40000000000003</ele><time>2026-05-02T15:03:57Z</time></trkpt><trkpt lat="45.687325619924934" lon="8.603969156791578"><ele>291.0</ele><time>2026-05-02T15:03:59Z</time></trkpt><trkpt lat="45.68743961858999" lon="8.603982653509016"><ele>291.0</ele><time>2026-05-02T15:04:01Z</time></trkpt><trkpt lat="45.68756473368357" lon="8.603971816084307"><ele>291.0</ele><time>2026-05-02T15:04:03Z</time></trkpt><trkpt lat="45.68762845389019" lon="8.603956184256365"><ele>291.0</ele><time>2026-05-02T15:04:04Z</time></trkpt><trkpt lat="45.68769083476452" lon="8.603936507191687"><ele>291.0</ele><time>2026-05-02T15:04:05Z</time></trkpt><trkpt lat="45.68775883057119" lon="8.603921535942519"><ele>291.0</ele><time>2026-05-02T15:04:06Z</time></trkpt><trkpt lat="45.687828218028535" lon="8.60390074011373"><ele>291.0</ele><time>2026-05-02T15:04:07Z</time></trkpt><trkpt lat="45.68789285901015" lon="8.60388102470749"><ele>290.0</ele><time>2026-05-02T15:04:08Z</time></trkpt><trkpt lat="45.68796114946807" lon="8.603864339108867"><ele>289.0</ele><time>2026-05-02T15:04:09Z</time></trkpt><trkpt lat="45.68803031000032" lon="8.603844192162667"><ele>288.0</ele><time>2026-05-02T15:04:10Z</time></trkpt><trkpt lat="45.68813553496301" lon="8.603801720903332"><ele>287.0</ele><time>2026-05-02T15:04:12Z</time></trkpt><trkpt lat="45.688216317643736" lon="8.603761992936326"><ele>286.0</ele><time>2026-05-02T15:04:15Z</time></trkpt><trkpt lat="45.68830670159904" lon="8.603779822345675"><ele>285.0</ele><time>2026-05-02T15:04:17Z</time></trkpt><trkpt lat="45.68840431611231" lon="8.603746098850863"><ele>285.0</ele><time>2026-05-02T15:04:18Z</time></trkpt><trkpt lat="45.68849847778107" lon="8.603711849652141"><ele>285.0</ele><time>2026-05-02T15:04:19Z</time></trkpt><trkpt lat="45.688595281181186" lon="8.603686398012428"><ele>285.0</ele><time>2026-05-02T15:04:21Z</time></trkpt><trkpt lat="45.68870074973299" lon="8.60368111390708"><ele>285.0</ele><time>2026-05-02T15:04:23Z</time></trkpt><trkpt lat="45.688805043522684" lon="8.603640462879293"><ele>285.0</ele><time>2026-05-02T15:04:25Z</time></trkpt><trkpt lat="45.688900612044236" lon="8.603623749631076"><ele>286.0</ele><time>2026-05-02T15:04:27Z</time></trkpt><trkpt lat="45.688985775912585" lon="8.603600904016623"><ele>286.0</ele><time>2026-05-02T15:04:29Z</time></trkpt><trkpt lat="45.6890660281875" lon="8.603587047072239"><ele>286.0</ele><time>2026-05-02T15:04:31.999Z</time></trkpt><trkpt lat="45.68913221040416" lon="8.603567503166326"><ele>286.0</ele><time>2026-05-02T15:05:06Z</time></trkpt><trkpt lat="45.68920458207176" lon="8.603527035981466"><ele>286.0</ele><time>2026-05-02T15:05:08Z</time></trkpt><trkpt lat="45.68927608727599" lon="8.603504994226181"><ele>286.0</ele><time>2026-05-02T15:05:11Z</time></trkpt></trkseg></trk></gpx>